# Wetter Temperatur Luftdruck Luftfeuchtigkeit Sichtweite Windgeschwindigkeit Windrichtung Zeit
1 Clouds -8 1021 80 10000 0.39 229 11:50 22.04.2021
2 Clouds -5 1021 78 10000 0.61 249 11:27 22.04.2021
3 Clouds -5 1021 78 10000 0.61 249 10:59 22.04.2021
4 Clouds -5 1021 78 10000 0.61 249 10:40 22.04.2021
5 Clouds -5 1021 66 10000 0.92 241 10:19 22.04.2021
6 Clouds -5 1021 66 10000 0.92 241 09:36 22.04.2021
7 Clouds -5 1021 62 10000 0.88 234 08:51 22.04.2021
8 Clouds -6 1021 62 10000 0.65 249 08:23 22.04.2021
9 Clouds -5 1021 67 10000 1.2 239 07:49 22.04.2021
10 Clouds -5 1021 67 10000 1.2 239 07:31 22.04.2021
11 Clouds -6 1022 66 10000 0.83 239 06:44 22.04.2021
12 Clouds -7 1022 68 10000 0.56 262 06:18 22.04.2021
13 Clouds -7 1022 70 8086 0.65 302 05:21 22.04.2021
14 Clouds -9 1023 82 2163 0.96 348 02:25 22.04.2021
15 Clouds -11 1023 90 929 0.9 352 23:59 21.04.2021
16 Clouds -11 1023 90 929 0.9 352 23:39 21.04.2021
17 Clouds -12 1023 94 393 0.69 347 23:19 21.04.2021
18 Clouds -12 1023 94 393 0.69 347 22:40 21.04.2021
19 Snow -14 1023 97 249 0.38 276 22:19 21.04.2021
20 Snow -14 1023 97 249 0.38 276 21:41 21.04.2021
21 Snow -16 1022 98 365 0.48 220 21:19 21.04.2021
22 Snow -16 1022 98 365 0.48 220 20:32 21.04.2021
23 Snow -15 1022 97 845 0.22 191 19:51 21.04.2021
24 Clouds -14 1021 97 303 0.93 53 19:28 21.04.2021
25 Clouds -14 1021 97 303 0.93 53 18:57 21.04.2021
26 Clouds -14 1021 97 303 0.93 53 18:39 21.04.2021
27 Clouds -14 1021 97 637 1.08 51 18:19 21.04.2021
28 Clouds -14 1021 97 637 1.08 51 17:43 21.04.2021
29 Clouds -14 1021 94 2326 1.08 45 17:22 21.04.2021
30 Clouds -14 1021 94 2326 1.08 45 16:40 21.04.2021
31 Clouds -14 1020 92 9521 1.13 53 15:52 21.04.2021
32 Clouds -15 1020 90 10000 1.15 71 15:28 21.04.2021
33 Clouds -15 1020 90 10000 1.15 71 14:46 21.04.2021
34 Clouds -14 1019 87 10000 1.24 79 14:27 21.04.2021
35 Clouds -14 1019 86 10000 1.19 83 13:50 21.04.2021
36 Clouds -12 1019 83 10000 1.16 75 13:23 21.04.2021
37 Clouds -12 1019 83 10000 1.16 75 12:48 21.04.2021
38 Clouds -8 1018 80 10000 1.1 69 12:25 21.04.2021
39 Clouds -8 1018 80 10000 1.1 69 11:46 21.04.2021
40 Clouds -5 1017 78 10000 0.45 77 11:25 21.04.2021
41 Clouds -5 1017 78 10000 0.45 77 10:40 21.04.2021
42 Clouds -4 1017 65 10000 1.05 227 09:58 21.04.2021
43 Clouds -4 1017 65 10000 1.05 227 09:33 21.04.2021
44 Clouds -4 1017 66 10000 1.85 234 08:53 21.04.2021
45 Clouds -4 1016 68 10000 2.16 233 08:27 21.04.2021
46 Clouds -5 1017 67 10000 1.97 235 07:58 21.04.2021
47 Clouds -5 1016 69 10000 2.02 234 07:29 21.04.2021
48 Clouds -6 1016 71 10000 2 234 06:23 21.04.2021
49 Clouds -7 1016 76 10000 2.42 240 04:18 21.04.2021
50 Clouds -10 1016 88 10000 1.68 243 00:49 21.04.2021
51 Clouds -11 1016 94 9145 1.51 246 23:47 20.04.2021
52 Clouds -14 1016 99 5971 1.44 250 22:56 20.04.2021
53 Clouds -14 1016 99 5971 1.44 250 22:36 20.04.2021
54 Clouds -15 1015 99 5962 1.17 252 22:18 20.04.2021
55 Clouds -15 1015 99 5962 1.17 252 21:44 20.04.2021
56 Clouds -13 1015 97 4311 0.98 261 21:23 20.04.2021
57 Clouds -13 1015 97 4311 0.98 261 20:41 20.04.2021
58 Snow -12 1014 96 572 1.19 275 20:22 20.04.2021
59 Snow -12 1014 96 572 1.19 275 19:52 20.04.2021
60 Snow -11 1014 96 446 1.16 278 19:33 20.04.2021
61 Snow -11 1014 96 170 1.2 292 18:54 20.04.2021
62 Snow -11 1014 96 170 1.2 292 18:35 20.04.2021
63 Snow -11 1014 96 143 1.37 304 17:43 20.04.2021
64 Snow -11 1014 96 152 1.39 317 17:18 20.04.2021
65 Snow -11 1014 96 152 1.39 317 16:43 20.04.2021
66 Snow -11 1014 96 228 1.49 324 15:43 20.04.2021
67 Clouds -11 1014 96 320 1.63 327 15:25 20.04.2021
68 Clouds -11 1014 96 320 1.63 327 14:52 20.04.2021
69 Clouds -10 1014 96 511 1.78 320 14:27 20.04.2021
70 Clouds -10 1014 96 561 1.74 320 13:31 20.04.2021
71 Snow -9 1014 96 406 1.83 332 12:55 20.04.2021
72 Snow -9 1014 96 406 1.83 332 12:31 20.04.2021
73 Snow -8 1014 94 286 2.16 325 11:58 20.04.2021
74 Snow -8 1014 94 286 2.16 325 11:38 20.04.2021
75 Snow -7 1014 94 169 2.61 332 11:19 20.04.2021
76 Snow -7 1014 94 169 2.61 332 10:42 20.04.2021
77 Snow -7 1013 93 164 2.83 344 10:20 20.04.2021
78 Snow -6 1013 92 179 3.74 359 09:20 20.04.2021
79 Snow -6 1013 92 179 3.74 359 08:53 20.04.2021
80 Snow -6 1013 91 226 4.37 5 08:19 20.04.2021
81 Snow -6 1014 91 235 4.1 4 07:35 20.04.2021
82 Snow -6 1015 90 227 3.88 4 05:56 20.04.2021
83 Snow -6 1015 90 227 3.88 4 05:31 20.04.2021
84 Snow -6 1015 89 381 4.04 1 04:41 20.04.2021
85 Clouds -8 1017 88 10000 2.44 342 00:53 20.04.2021
86 Clouds -9 1017 90 10000 2.09 335 00:27 20.04.2021
87 Clouds -9 1017 90 10000 2.09 335 23:33 19.04.2021
88 Clouds -11 1018 91 6585 1.68 323 22:51 19.04.2021
89 Clouds -12 1019 92 5820 1.53 309 22:29 19.04.2021
90 Clouds -12 1019 92 5820 1.53 309 21:47 19.04.2021
91 Clouds -13 1019 93 10000 1.38 306 21:22 19.04.2021
92 Clouds -13 1019 93 10000 1.38 306 20:42 19.04.2021
93 Clouds -13 1019 93 10000 1.57 306 20:22 19.04.2021
94 Clouds -13 1019 92 10000 1.61 310 19:50 19.04.2021
95 Clouds -13 1019 91 10000 1.48 306 19:28 19.04.2021
96 Clouds -13 1019 91 10000 1.48 306 18:59 19.04.2021
97 Clouds -13 1019 91 10000 1.48 306 18:41 19.04.2021
98 Clouds -13 1019 91 10000 1.55 304 18:19 19.04.2021
99 Clouds -13 1019 91 10000 1.55 304 17:46 19.04.2021
100 Clouds -13 1019 90 10000 1.45 305 17:26 19.04.2021
101 Clouds -13 1019 90 10000 1.45 305 16:45 19.04.2021
102 Clouds -13 1019 89 10000 1.46 306 16:25 19.04.2021
103 Clouds -13 1019 89 10000 1.46 306 15:44 19.04.2021
104 Clouds -12 1019 89 10000 1.39 310 15:24 19.04.2021
105 Clouds -12 1019 89 10000 1.39 310 14:52 19.04.2021
106 Clouds -12 1019 89 10000 1.39 310 14:32 19.04.2021
107 Clouds -11 1019 88 10000 1.48 312 13:53 19.04.2021
108 Clouds -10 1019 87 10000 1.43 325 13:28 19.04.2021
109 Clouds -10 1019 87 10000 1.43 325 12:48 19.04.2021
110 Clouds -8 1019 86 10000 1.58 332 12:28 19.04.2021
111 Clouds -8 1019 86 10000 1.58 332 11:59 19.04.2021
112 Clouds -8 1019 86 10000 1.58 332 11:59 19.04.2021
113 Clouds -8 1019 86 10000 1.58 332 11:39 19.04.2021
114 Clouds -7 1018 81 10000 1.62 329 11:18 19.04.2021
115 Clouds -7 1018 81 10000 1.62 329 11:18 19.04.2021
116 Clouds -7 1018 81 10000 1.62 329 11:18 19.04.2021
117 Clouds -7 1018 81 10000 1.62 329 10:41 19.04.2021
118 Clouds -6 1018 72 10000 1.8 332 10:18 19.04.2021
119 Clouds -6 1018 72 10000 1.8 332 09:40 19.04.2021
120 Clouds -6 1018 69 10000 1.88 323 09:21 19.04.2021
121 Clouds -6 1018 69 10000 1.88 323 08:33 19.04.2021
122 Clouds -6 1017 67 10000 1.45 327 07:50 19.04.2021
123 Clouds -6 1017 64 10000 0.93 328 07:21 19.04.2021
124 Clouds -6 1017 64 10000 0.93 328 06:47 19.04.2021
125 Clouds -8 1018 59 10000 0.41 305 04:40 19.04.2021
126 Clouds -10 1018 68 10000 0.73 312 01:49 19.04.2021
127 Clouds -11 1019 72 10000 0.46 278 00:34 19.04.2021
128 Clouds -15 1019 89 10000 0.88 164 23:21 18.04.2021
129 Clouds -15 1019 89 10000 0.88 164 22:57 18.04.2021
130 Clouds -15 1019 89 10000 0.88 164 22:31 18.04.2021
131 Clouds -17 1018 93 10000 1.39 139 21:53 18.04.2021
132 Clouds -16 1018 96 10000 2.02 137 21:28 18.04.2021
133 Clouds -16 1018 96 10000 2.02 137 20:44 18.04.2021
134 Clouds -13 1017 90 10000 1.15 88 20:25 18.04.2021
135 Clouds -13 1017 90 10000 1.15 88 19:57 18.04.2021
136 Clouds -13 1017 90 10000 1.15 88 19:39 18.04.2021
137 Clouds -12 1017 89 10000 1.2 73 19:18 18.04.2021
138 Clouds -12 1017 89 10000 1.2 73 18:45 18.04.2021
139 Clouds -12 1016 89 10000 1.03 62 18:25 18.04.2021
140 Clouds -12 1016 89 10000 1.03 62 17:46 18.04.2021
141 Clouds -12 1015 89 10000 0.63 52 17:27 18.04.2021
142 Clouds -12 1015 89 10000 0.63 52 16:46 18.04.2021
143 Clouds -12 1015 89 10000 0.63 52 16:46 18.04.2021
144 Clouds -12 1014 90 10000 0.61 338 16:27 18.04.2021
145 Clouds -12 1014 90 10000 0.61 338 15:44 18.04.2021
146 Clouds -11 1012 88 10000 0.57 343 15:25 18.04.2021
147 Clouds -11 1012 88 10000 0.57 343 14:52 18.04.2021
148 Clouds -9 1011 88 10000 0.54 50 14:23 18.04.2021
149 Clouds -9 1011 88 10000 0.54 50 13:55 18.04.2021
150 Clouds -9 1011 88 10000 0.54 50 13:34 18.04.2021
151 Clouds -8 1009 88 10000 1.09 27 12:51 18.04.2021
152 Clouds -6 1008 84 10000 2.37 15 12:28 18.04.2021
153 Clouds -6 1008 84 10000 2.37 15 11:43 18.04.2021
154 Clouds -5 1006 80 10000 4.04 6 11:21 18.04.2021
155 Clouds -5 1006 80 10000 4.04 6 10:48 18.04.2021
156 Clouds -5 1004 82 8830 4.77 355 10:23 18.04.2021
157 Clouds -5 1004 82 8830 4.77 355 09:53 18.04.2021
158 Clouds -5 1004 82 8830 4.77 355 09:34 18.04.2021
159 Clouds -5 1004 82 8830 4.77 355 09:34 18.04.2021
160 Clouds -4 1004 74 10000 4.07 351 08:57 18.04.2021
161 Clouds -4 1004 74 10000 4.07 351 08:35 18.04.2021
162 Clouds -5 1002 78 10000 5.08 340 07:59 18.04.2021
163 Clouds -5 1002 78 10000 5.08 340 07:38 18.04.2021
164 Snow -5 999 87 541 3.2 310 05:42 18.04.2021
165 Clouds -6 998 84 870 1.74 271 05:24 18.04.2021
166 Snow -9 996 85 410 1.29 244 02:39 18.04.2021
167 Snow -9 996 85 410 1.29 244 02:39 18.04.2021
168 Snow -10 995 88 217 1.01 232 02:20 18.04.2021
169 Snow -10 994 87 702 1.39 220 00:38 18.04.2021
170 Clouds -11 993 87 1255 2.14 198 23:38 17.04.2021
171 Clouds -12 993 87 8093 2.38 190 22:51 17.04.2021
172 Clouds -12 993 87 8093 2.38 190 22:31 17.04.2021
173 Clouds -13 992 84 10000 2.35 175 21:50 17.04.2021
174 Clouds -13 992 84 10000 2.35 175 21:30 17.04.2021
175 Clouds -13 991 83 10000 3.19 173 20:48 17.04.2021
176 Clouds -15 990 79 10000 3.12 181 20:27 17.04.2021
177 Clouds -15 990 79 10000 3.12 181 19:45 17.04.2021
178 Clouds -13 989 75 10000 4.47 181 19:21 17.04.2021
179 Clouds -13 989 75 10000 4.47 181 18:55 17.04.2021
180 Clouds -13 989 75 10000 4.47 181 18:35 17.04.2021
181 Clouds -12 989 76 10000 5.38 188 17:57 17.04.2021
182 Clouds -12 989 76 10000 5.38 188 17:39 17.04.2021
183 Clouds -9 988 73 10000 5.9 201 16:53 17.04.2021
184 Snow -6 987 73 10000 6.48 217 16:28 17.04.2021
185 Snow -6 987 73 10000 6.48 217 16:28 17.04.2021
186 Snow -6 987 73 10000 6.48 217 15:42 17.04.2021
187 Snow -5 986 83 4511 6.04 218 14:50 17.04.2021
188 Snow -5 986 83 4511 6.04 218 14:30 17.04.2021
189 Snow -6 985 90 431 6.77 235 13:47 17.04.2021
190 Snow -7 984 97 5223 1.01 202 13:20 17.04.2021
191 Snow -7 984 97 5223 1.01 202 12:39 17.04.2021
192 Clouds -4 983 90 10000 0.92 8 12:18 17.04.2021
193 Clouds -4 983 90 10000 0.92 8 11:39 17.04.2021
194 Clouds -2 983 87 10000 0.98 248 11:20 17.04.2021
195 Clouds -2 983 87 10000 0.98 248 10:41 17.04.2021
196 Snow -1 982 83 10000 3.29 231 10:23 17.04.2021
197 Snow -1 982 82 9728 4.07 220 09:19 17.04.2021
198 Snow -1 982 86 4257 4.58 227 08:34 17.04.2021
199 Snow -1 982 89 1454 4.66 207 07:59 17.04.2021
200 Snow -1 982 89 923 4.56 179 06:42 17.04.2021
201 Clouds -2 984 72 10000 6.74 143 03:49 17.04.2021
202 Clouds -2 984 72 10000 6.31 145 02:40 17.04.2021
203 Clouds -6 986 78 10000 4.14 123 00:44 17.04.2021
204 Clouds -8 988 81 10000 3.08 106 00:23 17.04.2021
205 Clouds -8 988 81 10000 3.08 106 23:43 16.04.2021
206 Clouds -10 989 88 10000 2.52 86 23:23 16.04.2021
207 Clouds -10 989 88 10000 2.52 86 22:43 16.04.2021
208 Clouds -12 990 90 10000 2.56 83 22:20 16.04.2021
209 Clouds -12 990 90 10000 2.56 83 21:50 16.04.2021
210 Clouds -14 992 93 10000 2.49 85 21:29 16.04.2021
211 Clouds -14 992 93 10000 2.49 85 20:48 16.04.2021
212 Clouds -14 993 93 10000 2.42 86 20:24 16.04.2021
213 Clouds -14 993 93 10000 2.63 81 19:50 16.04.2021
214 Clouds -14 994 93 10000 2.58 85 19:28 16.04.2021
215 Clouds -14 995 93 10000 2.26 96 18:28 16.04.2021
216 Clouds -14 995 93 10000 2.26 96 17:55 16.04.2021
217 Clouds -14 995 93 10000 2.26 96 17:36 16.04.2021
218 Clouds -15 996 94 10000 2.32 98 17:18 16.04.2021
219 Clouds -15 996 94 10000 2.32 98 16:41 16.04.2021
220 Clouds -16 997 95 10000 2.25 100 16:22 16.04.2021
221 Clouds -16 997 95 10000 2.25 100 15:43 16.04.2021
222 Clouds -16 998 96 10000 2.24 104 15:18 16.04.2021
223 Clouds -16 998 96 10000 2.24 104 14:41 16.04.2021
224 Clouds -15 999 94 10000 2.25 105 13:59 16.04.2021
225 Clouds -15 999 94 10000 2.25 105 13:41 16.04.2021
226 Clouds -12 999 90 10000 2.15 106 13:19 16.04.2021
227 Clouds -12 999 90 10000 2.15 106 12:46 16.04.2021
228 Clouds -8 999 87 10000 1.97 105 12:25 16.04.2021
229 Clouds -8 999 87 10000 1.97 105 11:49 16.04.2021
230 Clouds -5 999 83 10000 1.88 131 11:25 16.04.2021
231 Clouds -5 999 83 10000 1.88 131 10:46 16.04.2021
232 Clouds -4 1000 74 10000 2.93 173 10:26 16.04.2021
233 Clouds -4 1000 74 10000 2.93 173 09:52 16.04.2021
234 Clouds -4 1000 72 10000 3.98 193 09:24 16.04.2021
235 Clouds -4 1000 72 10000 3.98 193 08:46 16.04.2021
236 Clouds -5 1001 73 10000 4.27 205 08:28 16.04.2021
237 Clouds -5 1001 73 10000 4.27 205 07:52 16.04.2021
238 Clouds -5 1001 73 10000 4.27 205 07:33 16.04.2021
239 Clouds -5 1002 73 10000 3.69 200 06:56 16.04.2021
240 Clouds -6 1002 75 10000 3.2 190 05:33 16.04.2021
241 Clouds -8 1003 82 10000 2.5 183 04:19 16.04.2021
242 Clouds -14 1005 92 2505 1.7 208 00:54 16.04.2021
243 Clouds -14 1005 92 2505 1.7 208 00:36 16.04.2021
244 Clouds -16 1006 97 2446 1.39 209 00:18 16.04.2021
245 Clouds -16 1006 97 2446 1.39 209 23:36 15.04.2021
246 Clouds -20 1006 99 2435 1.26 204 22:53 15.04.2021
247 Clouds -20 1006 99 2435 1.26 204 22:33 15.04.2021
248 Clouds -23 1007 100 2272 1.26 214 21:59 15.04.2021
249 Clouds -23 1007 100 2272 1.26 214 21:40 15.04.2021
250 Clouds -24 1006 100 3014 1.32 221 21:19 15.04.2021
251 Clouds -24 1006 100 3014 1.32 221 20:40 15.04.2021
252 Clouds -23 1007 100 9264 1.09 207 20:21 15.04.2021
253 Clouds -23 1007 100 9264 1.09 207 19:43 15.04.2021
254 Clouds -23 1007 100 10000 1.11 216 19:24 15.04.2021
255 Clouds -23 1007 100 10000 1.11 216 18:42 15.04.2021
256 Clouds -22 1007 100 10000 0.99 213 18:20 15.04.2021
257 Clouds -22 1007 100 10000 0.99 213 17:54 15.04.2021
258 Clouds -22 1007 100 10000 0.99 213 17:36 15.04.2021
259 Clouds -21 1006 100 10000 1.03 215 16:57 15.04.2021
260 Clouds -21 1006 100 10000 1.03 215 16:39 15.04.2021
261 Clouds -20 1006 99 10000 1.04 212 16:20 15.04.2021
262 Clouds -20 1006 99 10000 1.04 212 15:44 15.04.2021
263 Clouds -18 1006 98 10000 0.98 204 15:25 15.04.2021
264 Clouds -18 1006 98 10000 0.98 204 14:40 15.04.2021
265 Clouds -17 1006 95 10000 0.77 170 14:22 15.04.2021
266 Clouds -17 1006 95 10000 0.77 170 13:42 15.04.2021
267 Clouds -15 1006 92 10000 0.49 161 13:18 15.04.2021
268 Clouds -15 1006 92 10000 0.49 161 12:40 15.04.2021
269 Clouds -11 1006 87 10000 0.08 231 12:21 15.04.2021
270 Clouds -11 1006 87 10000 0.08 231 12:21 15.04.2021
271 Clouds -11 1006 87 10000 0.08 231 11:45 15.04.2021
272 Clouds -8 1005 84 10000 0.42 256 11:23 15.04.2021
273 Clouds -8 1005 84 10000 0.42 256 10:50 15.04.2021
274 Clouds -6 1005 75 10000 0.53 253 10:27 15.04.2021
275 Clouds -6 1005 75 10000 0.53 253 09:48 15.04.2021
276 Clouds -6 1005 71 10000 0.34 241 09:25 15.04.2021
277 Clouds -6 1005 71 10000 0.34 241 08:49 15.04.2021
278 Clouds -7 1005 70 10000 0.33 186 08:21 15.04.2021
279 Clouds -8 1006 70 10000 0.3 213 07:24 15.04.2021
280 Clouds -8 1006 70 10000 0.3 213 06:49 15.04.2021
281 Clouds -8 1006 70 10000 0.3 213 06:30 15.04.2021
282 Clouds -10 1006 75 10000 0.86 254 04:52 15.04.2021
283 Clouds -14 1008 90 9152 1.06 247 01:58 15.04.2021
284 Clouds -18 1009 99 4366 1.13 241 23:43 14.04.2021
285 Clouds -18 1009 99 4366 1.13 241 23:43 14.04.2021
286 Clouds -23 1010 100 3718 1.04 244 23:25 14.04.2021
287 Clouds -23 1010 100 3718 1.04 244 22:47 14.04.2021
288 Clouds -25 1010 100 4177 0.95 240 22:26 14.04.2021
289 Clouds -25 1010 100 4177 0.95 240 21:51 14.04.2021
290 Clouds -25 1010 100 4177 0.95 240 21:32 14.04.2021
291 Clouds -24 1010 100 5339 0.72 245 20:58 14.04.2021
292 Clouds -24 1010 100 5444 0.69 242 20:34 14.04.2021
293 Clouds -24 1010 99 6358 0.33 224 19:55 14.04.2021
294 Clouds -24 1010 99 6358 0.33 224 19:36 14.04.2021
295 Clouds -23 1010 99 7083 0.12 176 19:18 14.04.2021
296 Clouds -23 1010 99 7083 0.12 176 18:46 14.04.2021
297 Clouds -22 1010 99 7956 0.44 84 18:18 14.04.2021
298 Clouds -22 1010 99 7956 0.44 84 17:46 14.04.2021
299 Clouds -21 1011 99 9048 0.61 67 17:23 14.04.2021
300 Clouds -21 1011 99 9048 0.61 67 16:42 14.04.2021
301 Clouds -20 1011 99 10000 0.67 71 16:21 14.04.2021
302 Clouds -20 1011 99 10000 0.67 71 15:39 14.04.2021
303 Clouds -19 1011 99 10000 0.81 68 15:18 14.04.2021
304 Clouds -19 1011 99 10000 0.81 68 14:41 14.04.2021
305 Clouds -17 1011 98 10000 0.99 62 14:21 14.04.2021
306 Clouds -17 1011 98 10000 0.99 62 13:47 14.04.2021
307 Clouds -15 1011 96 10000 1.32 54 12:47 14.04.2021
308 Clouds -12 1010 91 10000 1.68 50 12:24 14.04.2021
309 Clouds -12 1010 91 10000 1.68 50 11:42 14.04.2021
310 Clouds -8 1010 86 10000 1.75 58 11:23 14.04.2021
311 Clouds -8 1010 86 10000 1.75 58 10:34 14.04.2021
312 Clouds -6 1010 74 10000 1.75 78 09:46 14.04.2021
313 Clouds -6 1010 70 10000 1.79 95 09:27 14.04.2021
314 Clouds -6 1010 70 10000 1.79 95 08:56 14.04.2021
315 Clouds -6 1010 71 10000 1.76 99 08:32 14.04.2021
316 Clouds -6 1010 68 10000 1.64 110 07:51 14.04.2021
317 Clouds -7 1010 67 10000 1.52 118 06:39 14.04.2021
318 Clouds -8 1011 66 10000 1.3 129 05:52 14.04.2021
319 Clouds -13 1013 72 10000 0.95 205 02:57 14.04.2021
320 Clouds -16 1013 87 10000 0.93 232 01:28 14.04.2021
321 Clouds -16 1013 87 10000 0.93 232 00:34 14.04.2021
322 Clouds -18 1014 95 10000 0.9 223 23:38 13.04.2021
323 Clouds -23 1015 99 10000 0.83 220 22:55 13.04.2021
324 Clouds -23 1015 99 10000 0.83 220 22:37 13.04.2021
325 Clouds -25 1015 99 10000 0.46 217 22:18 13.04.2021
326 Clouds -25 1015 99 10000 0.46 217 21:40 13.04.2021
327 Clouds -24 1014 100 10000 0.48 203 21:20 13.04.2021
328 Clouds -25 1015 100 8984 0.47 188 20:39 13.04.2021
329 Clouds -24 1014 100 10000 0.55 113 20:20 13.04.2021
330 Clouds -23 1014 100 10000 1.03 96 19:27 13.04.2021
331 Clouds -23 1014 100 10000 1.03 96 19:27 13.04.2021
332 Clouds -23 1014 100 10000 1.03 96 18:58 13.04.2021
333 Clouds -23 1014 100 10000 1.03 96 18:35 13.04.2021
334 Clouds -23 1014 99 10000 1.15 91 17:45 13.04.2021
335 Clouds -22 1014 99 10000 1.33 93 17:23 13.04.2021
336 Clouds -22 1014 99 10000 1.33 93 16:57 13.04.2021
337 Clouds -22 1014 99 10000 1.33 93 16:39 13.04.2021
338 Clouds -21 1014 98 10000 1.54 94 16:19 13.04.2021
339 Clouds -21 1014 98 10000 1.54 94 15:40 13.04.2021
340 Clouds -20 1014 97 10000 1.64 94 14:59 13.04.2021
341 Clouds -20 1014 97 10000 1.64 94 14:41 13.04.2021
342 Clouds -18 1014 95 10000 1.63 92 14:18 13.04.2021
343 Clouds -18 1014 95 10000 1.63 92 13:41 13.04.2021
344 Clouds -16 1014 91 10000 1.65 89 13:22 13.04.2021
345 Clouds -16 1014 91 10000 1.65 89 12:53 13.04.2021
346 Clouds -11 1013 86 10000 1.66 86 12:23 13.04.2021
347 Clouds -11 1013 86 10000 1.66 86 11:48 13.04.2021
348 Clouds -7 1013 81 10000 1.79 95 11:28 13.04.2021
349 Clouds -7 1013 81 10000 1.79 95 10:44 13.04.2021
350 Clouds -5 1013 71 10000 2.52 129 10:20 13.04.2021
351 Clouds -5 1013 71 10000 2.52 129 09:52 13.04.2021
352 Clouds -5 1014 63 10000 2.67 148 09:27 13.04.2021
353 Clouds -6 1013 64 10000 2.51 147 08:49 13.04.2021
354 Clouds -6 1014 63 10000 2.47 155 08:24 13.04.2021
355 Clouds -6 1014 63 10000 2.47 155 07:51 13.04.2021
356 Clouds -7 1015 64 10000 2.38 155 07:29 13.04.2021
357 Clouds -8 1015 65 10000 2.16 152 06:27 13.04.2021
358 Clouds -12 1017 68 10000 1.74 155 03:55 13.04.2021
359 Clouds -15 1019 80 10000 1.36 174 01:35 13.04.2021
360 Clouds -15 1019 80 10000 1.36 174 01:35 13.04.2021
361 Clouds -20 1020 93 10000 1.24 194 23:58 12.04.2021
362 Clouds -20 1020 93 10000 1.24 194 23:33 12.04.2021
363 Clouds -25 1021 98 10000 1.24 203 22:59 12.04.2021
364 Clouds -25 1021 98 10000 1.24 203 22:37 12.04.2021
365 Clouds -27 1021 99 10000 0.87 194 21:56 12.04.2021
366 Clouds -27 1021 99 10000 0.87 194 21:36 12.04.2021
367 Clouds -26 1022 99 10000 0.59 192 21:18 12.04.2021
368 Clouds -26 1022 99 10000 0.83 187 20:37 12.04.2021
369 Clouds -25 1022 98 10000 1 179 20:19 12.04.2021
370 Clouds -25 1022 98 10000 1 179 19:42 12.04.2021
371 Clouds -24 1022 98 10000 1.31 167 19:21 12.04.2021
372 Clouds -24 1022 98 10000 1.31 167 18:53 12.04.2021
373 Clouds -24 1022 98 10000 1.31 167 18:53 12.04.2021
374 Clouds -24 1022 98 10000 1.31 167 18:35 12.04.2021
375 Clouds -24 1022 98 10000 1.14 154 17:59 12.04.2021
376 Clouds -24 1022 98 10000 1.14 154 17:41 12.04.2021
377 Clouds -22 1022 97 10000 1.12 142 17:19 12.04.2021
378 Clouds -22 1022 97 10000 1.12 142 16:42 12.04.2021
379 Clouds -21 1022 96 10000 1.5 146 16:24 12.04.2021
380 Clouds -21 1022 96 10000 1.5 146 15:45 12.04.2021
381 Clouds -20 1022 94 10000 1.52 151 15:20 12.04.2021
382 Clouds -20 1022 94 10000 1.52 151 14:48 12.04.2021
383 Clouds -20 1022 94 10000 1.53 155 14:28 12.04.2021
384 Clouds -20 1022 94 10000 1.53 155 13:42 12.04.2021
385 Clouds -18 1022 91 10000 1.43 157 13:21 12.04.2021
386 Clouds -18 1022 91 10000 1.43 157 12:44 12.04.2021
387 Clouds -15 1022 86 10000 1.43 165 12:23 12.04.2021
388 Clouds -15 1022 86 10000 1.43 165 11:47 12.04.2021
389 Clouds -11 1022 82 10000 1.32 180 10:54 12.04.2021
390 Clouds -9 1022 72 10000 1.88 190 10:28 12.04.2021
391 Clouds -9 1022 72 10000 1.88 190 09:59 12.04.2021
392 Clouds -9 1022 72 10000 1.88 190 09:40 12.04.2021
393 Clouds -10 1022 71 10000 2.03 199 08:59 12.04.2021
394 Clouds -10 1022 71 10000 2.02 193 08:30 12.04.2021
395 Clouds -10 1023 72 10000 2.21 197 07:31 12.04.2021
396 Clouds -11 1023 73 10000 2.33 195 06:49 12.04.2021
397 Clouds -12 1024 73 10000 2.1 206 05:51 12.04.2021
398 Clouds -15 1026 81 10000 2.23 201 03:58 12.04.2021
399 Clouds -21 1028 98 5436 1.31 221 00:51 12.04.2021
400 Clouds -24 1029 99 3697 1.27 230 00:24 12.04.2021
401 Clouds -24 1029 99 3697 1.27 230 00:24 12.04.2021
402 Clouds -24 1029 99 3697 1.27 230 23:46 11.04.2021
403 Clouds -29 1029 100 3552 1.22 223 23:23 11.04.2021
404 Clouds -29 1029 100 3552 1.22 223 22:45 11.04.2021
405 Clouds -31 1030 100 3842 1.3 224 22:22 11.04.2021
406 Clouds -31 1030 100 3842 1.3 224 21:46 11.04.2021
407 Clouds -31 1030 100 4967 1.29 217 21:27 11.04.2021
408 Clouds -31 1030 100 4967 1.29 217 20:52 11.04.2021
409 Clouds -30 1030 100 5863 1.09 229 20:28 11.04.2021
410 Clouds -30 1030 100 5863 1.09 229 19:54 11.04.2021
411 Clouds -30 1030 100 5863 1.09 229 19:36 11.04.2021
412 Clouds -29 1030 100 6739 1.01 242 19:18 11.04.2021
413 Clouds -29 1030 100 6739 1.01 242 19:18 11.04.2021
414 Clouds -29 1030 100 6739 1.01 242 18:42 11.04.2021
415 Clouds -29 1031 100 7226 0.97 244 18:23 11.04.2021
416 Clouds -29 1031 100 7226 0.97 244 17:45 11.04.2021
417 Clouds -28 1031 100 8940 0.87 245 17:26 11.04.2021
418 Clouds -28 1031 100 8940 0.87 245 16:47 11.04.2021
419 Clouds -27 1031 100 10000 0.7 264 16:23 11.04.2021
420 Clouds -27 1031 100 10000 0.7 264 15:51 11.04.2021
421 Clear -26 1031 99 10000 0.65 305 15:27 11.04.2021
422 Clear -26 1031 99 10000 0.65 305 14:55 11.04.2021
423 Clear -26 1031 99 10000 0.65 305 14:31 11.04.2021
424 Clouds -24 1031 98 10000 0.51 311 13:51 11.04.2021
425 Clouds -24 1031 98 10000 0.51 311 13:31 11.04.2021
426 Clouds -22 1031 96 10000 0.39 313 12:54 11.04.2021
427 Clouds -18 1030 91 10000 0.41 358 12:21 11.04.2021
428 Clouds -18 1030 91 10000 0.41 358 11:52 11.04.2021
429 Clouds -15 1030 84 10000 0.92 21 11:24 11.04.2021
430 Clouds -15 1030 84 10000 0.92 21 10:49 11.04.2021
431 Clouds -15 1030 84 10000 0.92 21 10:31 11.04.2021
432 Clouds -13 1030 75 10000 1.88 21 09:56 11.04.2021
433 Clouds -13 1030 75 10000 1.88 21 09:33 11.04.2021
434 Clouds -13 1030 74 10000 2.19 24 08:54 11.04.2021
435 Clouds -14 1031 74 10000 2.41 24 08:25 11.04.2021
436 Clouds -14 1031 75 10000 2.57 22 07:22 11.04.2021
437 Clouds -14 1031 75 10000 2.57 22 06:51 11.04.2021
438 Clouds -16 1032 75 10000 2.4 21 05:42 11.04.2021
439 Clouds -17 1033 76 10000 2.22 22 05:20 11.04.2021
440 Clouds -17 1033 76 10000 2.22 22 04:34 11.04.2021
441 Clouds -23 1035 85 10000 1.36 347 01:56 11.04.2021
442 Clouds -25 1035 89 10000 0.99 331 00:39 11.04.2021
443 Clouds -28 1036 94 10000 0.99 325 23:48 10.04.2021
444 Clouds -32 1037 98 10000 0.9 301 23:26 10.04.2021
445 Clouds -32 1037 98 10000 0.9 301 22:43 10.04.2021
446 Clouds -34 1037 99 10000 1.16 306 22:20 10.04.2021
447 Clouds -34 1037 99 10000 1.16 306 21:41 10.04.2021
448 Clouds -34 1037 99 10000 1.32 305 21:21 10.04.2021
449 Clouds -34 1037 99 10000 1.32 305 20:46 10.04.2021
450 Clouds -33 1037 99 10000 1.52 308 20:23 10.04.2021
451 Clouds -33 1037 99 10000 1.52 308 19:45 10.04.2021
452 Clouds -32 1037 99 10000 1.6 303 19:25 10.04.2021
453 Clouds -32 1037 99 10000 1.6 303 18:52 10.04.2021
454 -273 0 0 0 0 0 18:31 10.04.2021
455 Clouds -32 1037 99 10000 1.6 303 18:30 10.04.2021
456 Clouds -31 1037 99 10000 1.83 305 17:40 10.04.2021
457 Clouds -30 1037 99 10000 1.92 307 17:20 10.04.2021
458 Clouds -30 1037 99 10000 1.92 307 16:30 10.04.2021
459 Clouds -28 1036 99 10000 2.11 310 15:55 10.04.2021
460 Clouds -26 1036 99 10000 2.23 311 15:29 10.04.2021
461 Clouds -26 1036 99 10000 2.23 311 14:45 10.04.2021
462 Clouds -25 1035 98 10000 2.32 312 14:21 10.04.2021
463 Clouds -25 1035 98 10000 2.34 314 13:43 10.04.2021
464 Clouds -22 1035 96 10000 2.4 315 12:55 10.04.2021
465 Clouds -22 1035 96 10000 2.4 315 12:34 10.04.2021
466 Clouds -19 1034 93 8355 2.57 318 11:52 10.04.2021
467 Clouds -16 1033 87 6660 3.57 331 11:26 10.04.2021
468 Clouds -16 1033 87 6660 3.57 331 10:53 10.04.2021
469 Clouds -16 1033 87 6660 3.57 331 10:31 10.04.2021
470 Clouds -14 1033 84 3421 4.9 346 09:52 10.04.2021
471 Clouds -13 1032 82 2262 5.81 360 09:28 10.04.2021
472 Clouds -13 1032 82 2262 5.81 360 08:49 10.04.2021
473 Clouds -14 1032 79 4607 5.76 5 08:29 10.04.2021
474 Clouds -14 1032 79 4607 5.76 5 07:50 10.04.2021
475 Clouds -14 1032 79 8682 5.54 7 07:21 10.04.2021
476 Clouds -15 1032 79 10000 5.2 12 06:26 10.04.2021
477 Clouds -16 1032 79 10000 4.68 12 04:40 10.04.2021
478 Clouds -19 1032 84 10000 3.16 359 02:53 10.04.2021
479 Clouds -19 1032 84 10000 3.16 359 02:34 10.04.2021
480 Clouds -22 1032 93 10000 1.97 330 00:45 10.04.2021
481 Clouds -25 1032 96 10000 1.72 327 00:26 10.04.2021
482 Clouds -25 1032 96 10000 1.72 327 23:44 09.04.2021
483 Clouds -29 1032 99 10000 1.7 322 23:18 09.04.2021
484 Clouds -29 1032 99 10000 1.7 322 22:42 09.04.2021
485 Clouds -30 1031 99 10000 1.9 320 22:22 09.04.2021
486 Clouds -30 1031 99 10000 1.9 320 21:39 09.04.2021
487 Clouds -28 1030 98 10000 2.03 316 21:19 09.04.2021
488 Clouds -28 1030 98 10000 2.03 316 20:44 09.04.2021
489 Clouds -26 1029 98 10000 2.24 319 20:23 09.04.2021
490 Clouds -26 1029 98 10000 2.24 319 19:56 09.04.2021
491 Clouds -26 1029 98 10000 2.24 319 19:37 09.04.2021
492 Clouds -24 1028 97 10000 2.37 320 19:19 09.04.2021
493 Clouds -24 1028 97 10000 2.37 320 18:41 09.04.2021
494 Clouds -21 1028 96 10000 2.49 320 18:19 09.04.2021
495 Clouds -21 1028 96 10000 2.49 320 17:40 09.04.2021
496 Clouds -19 1027 96 10000 2.42 317 16:56 09.04.2021
497 Clouds -19 1027 96 10000 2.42 317 16:36 09.04.2021
498 Clouds -17 1026 94 10000 2.37 323 15:57 09.04.2021
499 Clouds -17 1026 94 10000 2.37 323 15:38 09.04.2021
500 Clouds -15 1026 91 10000 2.7 336 15:19 09.04.2021
501 Clouds -15 1026 91 10000 2.7 336 14:41 09.04.2021
502 Clouds -15 1025 91 10000 2.69 339 13:54 09.04.2021
503 Clouds -14 1025 90 10000 2.47 340 13:26 09.04.2021
504 Clouds -14 1025 90 10000 2.47 340 12:58 09.04.2021
505 Clouds -14 1025 90 10000 2.47 340 12:37 09.04.2021
506 Clouds -13 1024 88 10000 2.16 351 11:47 09.04.2021
507 Clouds -11 1024 84 10000 3.24 12 11:23 09.04.2021
508 Clouds -11 1024 84 10000 3.24 12 10:48 09.04.2021
509 Clouds -11 1024 84 10000 3.24 12 10:30 09.04.2021
510 Clouds -11 1024 81 10000 4.47 21 09:51 09.04.2021
511 Clouds -10 1024 79 10000 4.63 26 09:25 09.04.2021
512 Clouds -10 1024 79 10000 4.63 26 08:53 09.04.2021
513 Clouds -10 1024 78 10000 4.28 38 08:18 09.04.2021
514 Clouds -10 1024 78 10000 3.99 42 07:18 09.04.2021
515 Clouds -11 1024 79 10000 3.62 46 06:21 09.04.2021
516 Clouds -13 1025 82 10000 2.49 45 03:54 09.04.2021
517 Clouds -15 1026 88 10000 2.07 48 02:18 09.04.2021
518 Clouds -17 1027 91 10000 1.83 50 00:38 09.04.2021
519 Clouds -18 1027 95 10000 1.57 56 00:19 09.04.2021
520 Clouds -20 1027 98 10000 1.48 55 23:29 08.04.2021
521 Clouds -20 1027 98 10000 1.48 55 22:46 08.04.2021
522 Clouds -22 1028 99 9499 1.34 58 22:26 08.04.2021
523 Clouds -22 1028 99 9499 1.34 58 21:57 08.04.2021
524 Clouds -22 1028 99 9499 1.34 58 21:37 08.04.2021
525 Clouds -23 1028 99 9086 1.37 61 21:19 08.04.2021
526 Clouds -23 1028 99 9086 1.37 61 20:52 08.04.2021
527 Clouds -24 1029 99 5866 1.21 59 20:32 08.04.2021
528 Clouds -24 1029 99 6223 1.28 55 19:55 08.04.2021
529 Clouds -25 1029 99 7016 1.28 56 19:21 08.04.2021
530 Clouds -25 1029 99 7016 1.28 56 18:51 08.04.2021
531 Clouds -25 1029 99 8476 1.29 59 18:23 08.04.2021
532 Clouds -25 1029 99 8476 1.29 59 17:50 08.04.2021
533 Clouds -25 1030 99 10000 1.36 59 17:26 08.04.2021
534 Clouds -25 1030 99 10000 1.36 59 16:55 08.04.2021
535 Clouds -25 1030 99 10000 1.36 59 16:35 08.04.2021
536 Clouds -25 1030 99 10000 1.32 57 15:49 08.04.2021
537 Clouds -25 1030 99 10000 1.32 57 15:31 08.04.2021
538 Clouds -24 1029 99 10000 1.42 46 14:58 08.04.2021
539 Clouds -24 1029 99 10000 1.42 46 14:37 08.04.2021
540 Clouds -23 1030 99 10000 1.45 35 14:19 08.04.2021
541 Clouds -23 1030 99 10000 1.45 35 13:43 08.04.2021
542 Clouds -22 1030 99 10000 1.6 37 13:23 08.04.2021
543 Clouds -22 1030 99 10000 1.6 37 12:45 08.04.2021
544 Clouds -18 1029 97 10000 1.9 42 12:26 08.04.2021
545 Clouds -18 1029 97 10000 1.9 42 11:47 08.04.2021
546 Clouds -14 1029 89 10000 1.97 52 11:20 08.04.2021
547 Clouds -14 1029 89 10000 1.97 52 10:43 08.04.2021
548 Clouds -12 1028 78 10000 2.05 78 10:24 08.04.2021
549 Clouds -12 1028 78 10000 2.05 78 09:43 08.04.2021
550 Clouds -11 1028 72 10000 1.76 99 08:51 08.04.2021
551 Clouds -11 1028 72 10000 1.76 99 08:30 08.04.2021
552 Clouds -12 1029 67 10000 0.82 141 07:59 08.04.2021
553 Clouds -12 1029 67 10000 0.82 141 07:40 08.04.2021
554 Clouds -17 1030 72 10000 0.78 183 04:51 08.04.2021
555 Clouds -23 1033 93 10000 1.09 233 01:25 08.04.2021
556 Clouds -23 1033 93 10000 1.09 233 00:30 08.04.2021
557 Clouds -26 1033 98 10000 1.1 236 23:45 07.04.2021
558 Clouds -31 1033 100 10000 1.12 239 23:22 07.04.2021
559 Clouds -31 1033 100 10000 1.12 239 22:55 07.04.2021
560 Clouds -31 1033 100 10000 1.12 239 22:35 07.04.2021
561 Clouds -32 1033 100 10000 0.92 231 21:53 07.04.2021
562 Clouds -32 1033 100 10000 0.92 231 21:32 07.04.2021
563 Clouds -31 1033 100 10000 0.71 239 20:49 07.04.2021
564 Clouds -31 1033 100 10000 0.33 207 20:28 07.04.2021
565 Clouds -31 1033 100 10000 0.33 207 19:50 07.04.2021
566 Clouds -31 1033 100 10000 0.33 207 19:31 07.04.2021
567 Clouds -30 1033 99 10000 0.53 114 18:56 07.04.2021
568 Clouds -29 1033 99 10000 0.97 99 18:22 07.04.2021
569 Clouds -29 1033 99 10000 0.97 99 17:59 07.04.2021
570 Clouds -29 1033 99 10000 0.97 99 17:40 07.04.2021
571 Clouds -28 1033 97 10000 1.23 100 16:59 07.04.2021
572 Clouds -28 1033 97 10000 1.23 100 16:40 07.04.2021
573 Clouds -27 1032 96 10000 1.05 102 16:20 07.04.2021
574 Clouds -27 1032 96 10000 1.05 102 15:50 07.04.2021
575 Clouds -26 1032 94 10000 0.93 103 15:25 07.04.2021
576 Clouds -26 1032 94 10000 0.93 103 15:25 07.04.2021
577 Clouds -26 1033 94 10000 0.92 104 14:37 07.04.2021
578 Clouds -24 1033 91 10000 0.76 101 14:18 07.04.2021
579 Clouds -24 1033 91 10000 0.76 101 13:37 07.04.2021
580 Clouds -23 1032 88 10000 0.75 85 13:19 07.04.2021
581 Clouds -23 1032 88 10000 0.75 85 12:39 07.04.2021
582 Clouds -19 1031 86 10000 0.66 78 12:18 07.04.2021
583 Clouds -19 1031 86 10000 0.66 78 11:41 07.04.2021
584 Clouds -15 1031 79 10000 0.47 142 11:21 07.04.2021
585 Clouds -15 1031 79 10000 0.47 142 10:46 07.04.2021
586 Clouds -13 1031 71 10000 1.76 176 09:47 07.04.2021
587 Clouds -13 1031 66 10000 2.32 176 09:28 07.04.2021
588 Clouds -13 1031 66 10000 2.32 176 08:51 07.04.2021
589 Clouds -13 1031 67 10000 2.43 179 08:30 07.04.2021
590 Clouds -13 1031 67 10000 2.49 176 07:52 07.04.2021
591 Clouds -14 1032 69 10000 2.32 177 07:28 07.04.2021
592 Clouds -14 1032 69 10000 2.32 177 06:42 07.04.2021
593 Clouds -16 1033 73 10000 1.99 188 05:22 07.04.2021
594 Clouds -22 1035 89 10000 1.54 228 01:52 07.04.2021
595 Clouds -26 1035 97 10000 1.4 230 23:48 06.04.2021
596 Clouds -32 1036 99 10000 1.05 239 23:22 06.04.2021
597 Clouds -32 1036 99 10000 1.05 239 22:57 06.04.2021
598 Clouds -32 1036 100 10000 1.22 220 22:21 06.04.2021
599 Clouds -32 1036 100 10000 1.22 220 21:55 06.04.2021
600 Clouds -32 1036 100 10000 1.22 220 21:37 06.04.2021
601 Clouds -32 1035 100 10000 1.14 219 21:18 06.04.2021
602 Clouds -32 1035 100 10000 1.14 219 20:41 06.04.2021
603 Clouds -31 1035 99 10000 1.09 228 20:20 06.04.2021
604 Clouds -31 1035 99 10000 1.12 228 19:44 06.04.2021
605 Clouds -30 1035 98 10000 1.06 225 19:25 06.04.2021
606 Clouds -30 1035 98 10000 1.06 225 18:45 06.04.2021
607 Clouds -29 1034 98 10000 0.98 211 18:22 06.04.2021
608 Clouds -29 1034 98 10000 0.98 211 17:45 06.04.2021
609 Clouds -28 1034 97 10000 0.88 183 17:20 06.04.2021
610 Clouds -28 1034 97 10000 0.88 183 16:49 06.04.2021
611 Clouds -28 1034 97 10000 0.88 183 16:30 06.04.2021
612 Clouds -26 1034 94 10000 1.19 160 15:28 06.04.2021
613 Clouds -26 1034 94 10000 1.19 160 14:55 06.04.2021
614 Clouds -26 1034 94 10000 1.19 160 14:37 06.04.2021
615 Clouds -26 1034 94 10000 1.19 160 14:37 06.04.2021
616 Clouds -25 1033 92 10000 1.33 158 14:18 06.04.2021
617 Clouds -25 1033 92 10000 1.33 158 13:40 06.04.2021
618 Clouds -23 1033 89 10000 1.31 146 13:21 06.04.2021
619 Clouds -23 1033 89 10000 1.31 146 12:41 06.04.2021
620 Clouds -20 1032 86 10000 0.92 145 12:20 06.04.2021
621 Clouds -20 1032 86 10000 0.92 145 11:48 06.04.2021
622 Clouds -16 1031 81 10000 0.55 194 11:21 06.04.2021
623 Clouds -16 1031 81 10000 0.55 194 10:47 06.04.2021
624 Clouds -14 1031 71 10000 1.46 214 10:25 06.04.2021
625 Clouds -14 1031 71 10000 1.46 214 09:48 06.04.2021
626 Clouds -14 1031 71 10000 1.46 214 09:48 06.04.2021
627 Clouds -14 1031 69 10000 1.76 211 09:29 06.04.2021
628 Clouds -14 1031 69 10000 1.76 211 08:43 06.04.2021
629 Clouds -15 1031 68 10000 1.86 211 07:59 06.04.2021
630 Clouds -15 1031 67 10000 1.78 213 06:55 06.04.2021
631 Clouds -16 1031 66 10000 1.64 221 05:40 06.04.2021
632 Clouds -19 1032 82 10000 1.07 233 02:57 06.04.2021
633 Clouds -20 1032 95 7122 0.58 254 00:44 06.04.2021
634 Clouds -22 1032 99 5531 0.57 268 00:21 06.04.2021
635 Clouds -22 1032 99 5531 0.57 268 23:43 05.04.2021
636 Clouds -23 1031 99 4295 0.62 270 23:19 05.04.2021
637 Clouds -23 1031 99 4295 0.62 270 22:48 05.04.2021
638 Clouds -23 1031 99 2423 0.72 275 22:26 05.04.2021
639 Clouds -23 1031 99 2423 0.72 275 21:43 05.04.2021
640 Clouds -22 1030 99 1359 0.73 272 21:21 05.04.2021
641 Clouds -22 1030 99 1359 0.73 272 20:43 05.04.2021
642 Clouds -22 1030 99 1835 0.88 273 20:25 05.04.2021
643 Clouds -22 1030 99 1835 0.88 273 19:43 05.04.2021
644 Clouds -21 1030 99 1052 0.78 270 19:22 05.04.2021
645 Clouds -21 1030 99 1052 0.78 270 18:49 05.04.2021
646 Clouds -21 1030 99 1052 0.78 270 18:31 05.04.2021
647 Clouds -21 1030 99 799 0.87 275 17:59 05.04.2021
648 Clouds -21 1030 99 799 0.87 275 17:41 05.04.2021
649 Clouds -21 1029 99 674 0.87 272 17:19 05.04.2021
650 Clouds -21 1029 99 674 0.87 272 16:42 05.04.2021
651 Clouds -21 1029 99 638 0.91 270 16:20 05.04.2021
652 Clouds -21 1029 99 638 0.91 270 15:52 05.04.2021
653 Clouds -21 1029 99 709 0.91 261 15:27 05.04.2021
654 Clouds -21 1029 99 709 0.91 261 14:47 05.04.2021
655 Clouds -20 1028 98 1972 0.91 254 14:27 05.04.2021
656 Clouds -20 1028 98 1972 0.91 254 13:31 05.04.2021
657 Clouds -19 1028 96 5151 0.88 259 12:50 05.04.2021
658 Clouds -18 1027 93 6242 0.87 265 12:27 05.04.2021
659 Clouds -18 1027 93 6242 0.87 265 11:56 05.04.2021
660 Clouds -18 1027 93 6242 0.87 265 11:34 05.04.2021
661 Clouds -17 1027 86 8992 0.94 284 10:59 05.04.2021
662 Clouds -17 1027 86 8992 0.94 284 10:59 05.04.2021
663 Clouds -17 1027 86 8992 0.94 284 10:41 05.04.2021
664 Clouds -17 1027 77 9317 1.29 300 10:22 05.04.2021
665 Clouds -17 1027 77 9317 1.29 300 09:47 05.04.2021
666 Clouds -17 1026 73 8959 1.52 304 09:22 05.04.2021
667 Clouds -17 1026 73 8959 1.52 304 08:42 05.04.2021
668 Clouds -17 1026 72 6261 1.52 304 08:24 05.04.2021
669 Clouds -17 1026 72 6261 1.52 304 07:36 05.04.2021
670 Clouds -20 1026 83 2103 1.92 286 05:23 05.04.2021
671 Clouds -22 1026 91 1280 1.59 275 01:41 05.04.2021
672 Clouds -24 1026 94 979 1.53 273 00:38 05.04.2021
673 Clouds -25 1026 97 771 1.42 275 23:51 04.04.2021
674 Clouds -28 1026 99 1136 1.23 269 23:24 04.04.2021
675 Clouds -28 1026 99 1136 1.23 269 22:51 04.04.2021
676 Clouds -30 1026 99 1848 1.21 271 22:30 04.04.2021
677 Clouds -30 1025 99 3388 1.26 286 21:28 04.04.2021
678 Clouds -30 1025 99 3388 1.26 286 20:57 04.04.2021
679 Clouds -31 1025 99 3885 1.33 289 20:30 04.04.2021
680 Clouds -30 1025 99 3388 1.26 286 20:30 04.04.2021
681 Clouds -29 1025 99 4468 1.34 295 19:57 04.04.2021
682 Clouds -29 1025 99 4468 1.34 295 19:36 04.04.2021
683 Clouds -28 1024 99 3442 1.4 304 19:18 04.04.2021
684 Clouds -28 1024 99 3442 1.4 304 19:18 04.04.2021
685 Clouds -28 1024 99 3442 1.4 304 18:42 04.04.2021
686 Clouds -27 1024 99 3168 1.42 310 18:21 04.04.2021
687 Clouds -27 1024 99 3168 1.42 310 18:21 04.04.2021
688 Clouds -27 1024 99 3168 1.42 310 17:44 04.04.2021
689 Clouds -26 1023 99 2912 1.42 318 17:23 04.04.2021
690 Clouds -26 1023 99 2912 1.42 318 16:47 04.04.2021
691 Clouds -25 1023 99 2550 1.56 330 16:20 04.04.2021
692 Clouds -25 1023 99 2550 1.56 330 15:36 04.04.2021
693 Clouds -24 1022 99 2255 1.72 337 14:50 04.04.2021
694 Clouds -23 1022 99 1877 1.67 337 14:28 04.04.2021
695 Clouds -22 1022 99 1563 1.66 336 13:53 04.04.2021
696 Clouds -21 1022 99 1876 1.56 337 13:25 04.04.2021
697 Clouds -21 1022 99 1876 1.56 337 12:50 04.04.2021
698 Clouds -20 1021 98 2320 1.41 340 12:27 04.04.2021
699 Clouds -20 1021 98 2320 1.41 340 11:43 04.04.2021
700 Clouds -18 1020 92 3062 1.49 351 11:25 04.04.2021
701 Clouds -18 1020 92 3062 1.49 351 10:46 04.04.2021
702 Clouds -17 1020 81 3658 1.75 354 09:59 04.04.2021
703 Clouds -16 1020 77 3422 1.8 348 09:27 04.04.2021
704 Clouds -16 1020 77 3422 1.8 348 08:55 04.04.2021
705 Clouds -16 1020 77 3422 1.8 348 08:37 04.04.2021
706 Clouds -17 1019 75 3242 1.83 342 08:19 04.04.2021
707 Clouds -17 1019 73 2521 1.73 334 06:39 04.04.2021
708 Clouds -18 1019 75 1921 1.83 332 05:34 04.04.2021
709 Clouds -20 1020 89 518 1.91 314 01:47 04.04.2021
710 Clouds -22 1019 96 1070 1.49 295 00:25 04.04.2021
711 Clouds -22 1019 96 1070 1.49 295 23:59 03.04.2021
712 Clouds -22 1019 96 1070 1.49 295 23:39 03.04.2021
713 Clouds -23 1019 98 496 1.54 290 22:54 03.04.2021
714 Snow -23 1019 99 400 1.55 290 22:23 03.04.2021
715 Snow -23 1019 99 400 1.55 290 21:59 03.04.2021
716 Snow -23 1019 99 400 1.55 290 21:39 03.04.2021
717 Clouds -23 1019 99 339 1.59 291 21:19 03.04.2021
718 Clouds -23 1018 99 457 1.65 294 20:38 03.04.2021
719 Clouds -22 1018 99 479 1.69 297 20:18 03.04.2021
720 Clouds -22 1018 99 479 1.69 297 19:43 03.04.2021
721 Clouds -21 1018 99 381 1.78 303 19:18 03.04.2021
722 Clouds -21 1018 99 381 1.78 303 18:44 03.04.2021
723 Clouds -21 1018 99 279 1.88 309 17:58 03.04.2021
724 Snow -21 1018 98 363 1.97 314 17:28 03.04.2021
725 Snow -21 1018 98 363 1.97 314 16:59 03.04.2021
726 Snow -21 1018 98 363 1.97 314 16:32 03.04.2021
727 Clouds -21 1017 98 647 2.06 315 15:57 03.04.2021
728 Clouds -21 1017 98 647 2.06 315 15:39 03.04.2021
729 Clouds -21 1017 99 1018 2.05 312 15:18 03.04.2021
730 Clouds -21 1017 99 1018 2.05 312 14:37 03.04.2021
731 Clouds -20 1017 99 1222 1.98 315 14:19 03.04.2021
732 Clouds -21 1017 99 1553 1.88 317 13:42 03.04.2021
733 Clouds -19 1016 99 1306 2.06 325 13:20 03.04.2021
734 Clouds -19 1016 99 1306 2.06 325 12:47 03.04.2021
735 Clouds -17 1016 96 641 2.42 341 12:20 03.04.2021
736 Clouds -17 1016 96 641 2.42 341 11:35 03.04.2021
737 Clouds -15 1015 94 477 2.89 352 10:50 03.04.2021
738 Clouds -15 1015 94 477 2.89 352 10:31 03.04.2021
739 Clouds -14 1015 89 554 3.15 355 09:51 03.04.2021
740 Clouds -14 1015 85 807 3.14 355 09:28 03.04.2021
741 Clouds -14 1015 85 807 3.14 355 08:44 03.04.2021
742 Clouds -14 1014 85 751 2.98 355 08:26 03.04.2021
743 Snow -14 1014 87 350 3.05 355 07:28 03.04.2021
744 Snow -14 1015 89 219 3.16 353 05:43 03.04.2021
745 Snow -15 1015 90 186 2.78 351 03:50 03.04.2021
746 Snow -15 1015 91 190 2.63 344 02:49 03.04.2021
747 Snow -16 1015 90 306 2.59 346 02:23 03.04.2021
748 Snow -17 1015 96 169 2.34 340 00:20 03.04.2021
749 Snow -17 1015 96 169 2.34 340 23:48 02.04.2021
750 Snow -17 1015 97 124 2.2 329 23:24 02.04.2021
751 Snow -17 1015 97 124 2.2 329 22:52 02.04.2021
752 Snow -17 1015 97 124 2.2 329 22:33 02.04.2021
753 Snow -17 1014 97 119 2.4 335 21:46 02.04.2021
754 Snow -17 1014 97 133 2.81 346 21:23 02.04.2021
755 Snow -17 1014 97 133 2.81 346 20:48 02.04.2021
756 Clouds -16 1014 96 598 2.91 351 20:28 02.04.2021
757 Snow -16 1014 97 129 2.84 343 19:58 02.04.2021
758 Snow -16 1014 97 129 2.84 343 19:39 02.04.2021
759 Snow -16 1015 96 245 3.55 1 19:20 02.04.2021
760 Snow -16 1015 96 245 3.55 1 18:39 02.04.2021
761 Snow -16 1015 96 245 3.55 1 18:39 02.04.2021
762 Clouds -16 1015 96 330 3.54 11 18:20 02.04.2021
763 Clouds -16 1015 96 330 3.54 11 17:37 02.04.2021
764 Clouds -15 1015 96 600 3.45 18 16:50 02.04.2021
765 Clouds -15 1015 96 600 3.45 18 16:50 02.04.2021
766 Clouds -15 1015 95 825 3.55 18 16:22 02.04.2021
767 Clouds -15 1015 95 825 3.55 18 15:35 02.04.2021
768 Clouds -15 1016 95 1250 3.45 18 14:55 02.04.2021
769 Clouds -15 1016 95 1250 3.45 18 14:31 02.04.2021
770 Clouds -15 1016 95 1250 3.45 18 14:31 02.04.2021
771 Clouds -15 1017 95 4335 3.23 22 13:44 02.04.2021
772 Clouds -15 1017 96 10000 3.06 19 13:23 02.04.2021
773 Clouds -15 1017 96 10000 3.06 19 12:41 02.04.2021
774 Clouds -14 1017 95 10000 2.79 27 12:20 02.04.2021
775 Clouds -14 1017 95 10000 2.79 27 11:56 02.04.2021
776 Clouds -11 1017 91 10000 3.65 40 11:21 02.04.2021
777 Clouds -11 1017 91 10000 3.65 40 10:51 02.04.2021
778 Clouds -11 1017 91 10000 3.65 40 10:30 02.04.2021
779 Clouds -10 1017 87 5254 3.49 41 09:53 02.04.2021
780 Clouds -9 1018 83 6822 3.45 50 09:27 02.04.2021
781 Clouds -9 1018 83 6822 3.45 50 09:27 02.04.2021
782 Clouds -9 1018 83 6822 3.45 50 08:58 02.04.2021
783 Clouds -9 1018 83 6822 3.45 50 08:33 02.04.2021
784 Clouds -10 1019 82 10000 3.44 52 07:31 02.04.2021
785 Clouds -11 1019 81 10000 2.78 50 06:53 02.04.2021
786 Clouds -11 1019 82 10000 2.33 43 05:57 02.04.2021
787 Clouds -14 1021 89 9510 2.09 2 02:47 02.04.2021
788 Clouds -17 1021 95 2332 1.36 326 00:53 02.04.2021
789 Clouds -20 1021 99 3113 0.81 305 00:23 02.04.2021
790 Clouds -20 1021 99 3113 0.81 305 23:41 01.04.2021
791 Clouds -21 1021 99 3273 0.93 308 23:18 01.04.2021
792 Clouds -21 1021 99 1631 1.18 303 22:21 01.04.2021
793 Clouds -21 1021 99 1631 1.18 303 21:51 01.04.2021
794 Clouds -20 1021 99 650 1.35 287 21:29 01.04.2021
795 Clouds -20 1021 99 650 1.35 287 20:54 01.04.2021
796 Clouds -20 1020 99 597 1.55 279 20:28 01.04.2021
797 Clouds -20 1020 99 862 1.84 251 19:57 01.04.2021
798 Clouds -20 1020 99 862 1.84 251 19:37 01.04.2021
799 Clouds -19 1019 98 1528 1.74 270 18:49 01.04.2021
800 Clouds -18 1018 97 3731 1.58 283 18:19 01.04.2021
801 Clouds -18 1018 97 3731 1.58 283 17:57 01.04.2021
802 Clouds -18 1018 97 3731 1.58 283 17:38 01.04.2021
803 Clouds -17 1018 98 4031 0.62 259 17:19 01.04.2021
804 Clouds -17 1018 98 4031 0.62 259 16:41 01.04.2021
805 Clouds -16 1017 99 3437 0.75 104 15:49 01.04.2021
806 Clouds -14 1017 99 4885 1.14 93 15:21 01.04.2021
807 Clouds -14 1017 99 4885 1.14 93 14:51 01.04.2021
808 Clouds -12 1017 99 5818 1.09 81 14:29 01.04.2021
809 Clouds -12 1017 99 5818 1.09 81 13:58 01.04.2021
810 Clouds -12 1017 99 5818 1.09 81 13:32 01.04.2021
811 Clouds -11 1017 98 4913 1.12 62 12:58 01.04.2021
812 Clouds -11 1017 98 4913 1.12 62 12:37 01.04.2021
813 Clouds -10 1016 97 762 1.28 37 12:18 01.04.2021
814 Clouds -10 1016 97 762 1.28 37 11:42 01.04.2021
815 Clouds -8 1016 95 2427 1.34 38 11:18 01.04.2021
816 Clouds -8 1016 95 2427 1.34 38 10:46 01.04.2021
817 Snow -7 1016 92 671 1.27 47 10:25 01.04.2021
818 Snow -7 1016 92 671 1.27 47 09:32 01.04.2021
819 Snow -7 1016 92 187 1.14 45 08:54 01.04.2021
820 Snow -7 1015 92 166 1.35 47 08:32 01.04.2021
821 Clouds -7 1015 78 10000 1.77 110 07:22 01.04.2021
822 Clouds -7 1015 78 10000 1.77 110 06:56 01.04.2021
823 Clouds -8 1016 76 10000 1.6 103 05:34 01.04.2021
824 Clouds -12 1017 85 10000 1.42 96 03:20 01.04.2021
825 Clouds -18 1017 98 10000 0.96 112 00:23 01.04.2021
826 Clouds -18 1017 98 10000 0.96 112 23:44 31.03.2021
827 Clouds -19 1017 99 10000 0.98 98 22:56 31.03.2021
828 Clouds -19 1017 99 10000 0.98 98 22:37 31.03.2021
829 Clouds -18 1017 99 10000 1.09 90 22:18 31.03.2021
830 Clouds -18 1017 99 10000 1.09 90 21:40 31.03.2021
831 Clouds -18 1017 98 10000 1.16 101 21:19 31.03.2021
832 Clouds -18 1017 98 10000 1.16 101 20:42 31.03.2021
833 Clouds -22 1017 100 10000 1.35 95 20:22 31.03.2021
834 Clouds -22 1017 100 10000 1.35 95 19:43 31.03.2021
835 Clouds -21 1017 99 10000 1.26 91 19:21 31.03.2021
836 Clouds -21 1017 99 10000 1.26 91 18:58 31.03.2021
837 Clouds -21 1017 99 10000 1.26 91 18:40 31.03.2021
838 Clouds -19 1017 99 10000 1.3 93 17:51 31.03.2021
839 Clouds -19 1017 99 10000 1.3 93 17:30 31.03.2021
840 Clouds -18 1016 99 9155 1.62 89 16:56 31.03.2021
841 Clouds -18 1016 99 9155 1.62 89 16:36 31.03.2021
842 Clouds -17 1016 99 6362 1.38 90 15:59 31.03.2021
843 Clouds -17 1016 99 6362 1.38 90 15:41 31.03.2021
844 Clouds -17 1016 99 5952 1.4 87 15:19 31.03.2021
845 Clouds -17 1016 99 5952 1.4 87 14:42 31.03.2021
846 Clouds -17 1016 99 5939 1.32 85 14:19 31.03.2021
847 Clouds -17 1016 99 5585 1.34 87 13:39 31.03.2021
848 Clouds -17 1016 99 7356 1.2 82 12:41 31.03.2021
849 Clouds -15 1016 99 9253 1.37 74 12:20 31.03.2021
850 Clouds -15 1016 99 9253 1.37 74 11:41 31.03.2021
851 Clouds -11 1016 94 10000 1.54 68 11:20 31.03.2021
852 Clouds -11 1016 94 10000 1.54 68 10:46 31.03.2021
853 Clouds -8 1015 90 10000 1.32 69 10:24 31.03.2021
854 Clouds -8 1015 90 10000 1.32 69 09:38 31.03.2021
855 Clouds -7 1015 83 10000 1.35 91 08:55 31.03.2021
856 Clouds -7 1015 83 10000 1.35 91 08:33 31.03.2021
857 Clouds -8 1015 79 10000 1.38 125 07:49 31.03.2021
858 Clouds -9 1016 79 10000 1.21 138 06:39 31.03.2021
859 Clouds -13 1017 86 5223 0.83 201 03:51 31.03.2021
860 Clouds -15 1017 92 2565 0.9 219 01:38 31.03.2021
861 Clouds -17 1018 96 1543 0.9 227 00:48 31.03.2021
862 Clouds -19 1018 99 1201 0.85 240 00:19 31.03.2021
863 Clouds -19 1018 99 1201 0.85 240 23:39 30.03.2021
864 Clouds -22 1018 99 1205 0.77 237 22:59 30.03.2021
865 Clouds -22 1018 99 1205 0.77 237 22:40 30.03.2021
866 Clouds -22 1018 100 1029 0.72 240 22:21 30.03.2021
867 Clouds -22 1018 100 1029 0.72 240 21:48 30.03.2021
868 Clouds -22 1017 100 1127 0.56 257 21:20 30.03.2021
869 Clouds -22 1017 100 1127 0.56 257 20:52 30.03.2021
870 Clouds -24 1018 100 1983 0.74 251 20:28 30.03.2021
871 Clouds -24 1018 100 1983 0.74 251 19:51 30.03.2021
872 Clouds -23 1018 100 2617 0.55 264 19:27 30.03.2021
873 Clouds -23 1018 100 2617 0.55 264 18:39 30.03.2021
874 Clouds -23 1018 100 3429 0.44 271 17:58 30.03.2021
875 Clouds -23 1018 100 3429 0.44 271 17:38 30.03.2021
876 Clouds -22 1018 100 4306 0.34 310 17:20 30.03.2021
877 Clouds -22 1018 100 4306 0.34 310 16:45 30.03.2021
878 Clouds -21 1017 100 5130 0.35 351 16:23 30.03.2021
879 Clouds -20 1017 100 6667 0.47 21 15:21 30.03.2021
880 Clouds -20 1017 100 6667 0.47 21 14:57 30.03.2021
881 Clouds -19 1017 99 7351 0.55 40 14:22 30.03.2021
882 Clouds -19 1017 99 7351 0.55 40 13:59 30.03.2021
883 Clouds -19 1017 99 7351 0.55 40 13:37 30.03.2021
884 Clouds -18 1017 99 9892 0.79 38 12:49 30.03.2021
885 Clouds -16 1016 99 10000 1.1 37 12:28 30.03.2021
886 Clouds -16 1016 99 10000 1.1 37 11:56 30.03.2021
887 Clouds -12 1015 93 10000 1.31 36 11:23 30.03.2021
888 Clouds -12 1015 93 10000 1.31 36 10:46 30.03.2021
889 Clouds -9 1015 89 10000 1.41 34 10:26 30.03.2021
890 Clouds -9 1015 89 10000 1.41 34 09:50 30.03.2021
891 Clouds -9 1015 89 10000 1.41 34 09:50 30.03.2021
892 Clouds -9 1015 89 10000 1.41 34 09:31 30.03.2021
893 Clouds -8 1015 80 10000 1.05 55 08:56 30.03.2021
894 Clouds -8 1015 80 10000 1.05 55 08:38 30.03.2021
895 Clouds -8 1015 77 10000 0.67 89 07:52 30.03.2021
896 Clouds -9 1015 75 10000 0.56 133 07:22 30.03.2021
897 Clouds -10 1016 76 10000 0.71 159 05:40 30.03.2021
898 Clouds -12 1016 78 10000 0.84 176 05:19 30.03.2021
899 Clouds -19 1018 97 10000 1.05 225 00:33 30.03.2021
900 Clouds -23 1018 99 8413 1.01 241 23:36 29.03.2021
901 Clouds -25 1019 99 6343 1.07 235 22:52 29.03.2021
902 Clouds -25 1019 99 6343 1.07 235 22:30 29.03.2021
903 Clouds -25 1018 99 6853 0.91 236 21:47 29.03.2021
904 Clouds -25 1018 100 6213 0.73 252 21:29 29.03.2021
905 Clouds -25 1018 100 6213 0.73 252 20:48 29.03.2021
906 Clouds -25 1018 100 10000 0.42 232 20:27 29.03.2021
907 Clouds -25 1018 100 10000 0.42 232 19:49 29.03.2021
908 Clouds -24 1017 100 10000 0.28 171 19:24 29.03.2021
909 Clouds -24 1017 100 10000 0.28 171 18:44 29.03.2021
910 Clouds -23 1017 100 10000 0.49 95 18:26 29.03.2021
911 Clouds -23 1017 100 10000 0.49 95 17:51 29.03.2021
912 Clouds -23 1017 100 10000 0.49 95 17:32 29.03.2021
913 Clouds -23 1017 99 10000 0.6 83 16:42 29.03.2021
914 Clouds -22 1017 99 10000 0.59 97 16:24 29.03.2021
915 Clouds -22 1017 99 10000 0.59 97 15:36 29.03.2021
916 Clouds -21 1016 98 10000 0.67 106 15:18 29.03.2021
917 Clouds -21 1016 98 10000 0.67 106 14:46 29.03.2021
918 Clouds -20 1016 97 10000 0.68 99 13:55 29.03.2021
919 Clouds -20 1016 97 10000 0.68 99 13:33 29.03.2021
920 Clouds -18 1016 95 10000 0.52 79 12:55 29.03.2021
921 Clouds -18 1016 95 10000 0.52 79 12:36 29.03.2021
922 Clouds -17 1015 92 10000 0.21 32 11:43 29.03.2021
923 Clouds -13 1014 86 10000 0.34 283 11:25 29.03.2021
924 Clouds -13 1014 86 10000 0.34 283 10:45 29.03.2021
925 Clouds -9 1014 83 10000 0.69 239 10:19 29.03.2021
926 Clouds -9 1014 83 10000 0.69 239 09:31 29.03.2021
927 Clouds -8 1014 74 10000 1.45 207 08:34 29.03.2021
928 Clouds -8 1013 73 10000 1.78 206 07:54 29.03.2021
929 Clouds -9 1013 75 10000 2.14 199 06:57 29.03.2021
930 Clouds -10 1014 78 10000 2.2 199 06:22 29.03.2021
931 Clouds -13 1015 89 9542 2.01 209 02:33 29.03.2021
932 Clouds -17 1015 96 3254 1.66 216 00:30 29.03.2021
933 Clouds -19 1015 99 2768 1.48 221 23:58 28.03.2021
934 Clouds -22 1015 100 3039 1.26 222 23:25 28.03.2021
935 Clouds -22 1015 100 3039 1.26 222 22:48 28.03.2021
936 Clouds -22 1014 100 3218 1.3 221 22:28 28.03.2021
937 Clouds -22 1014 100 3218 1.3 221 21:47 28.03.2021
938 Clouds -22 1014 100 3838 1.2 218 21:25 28.03.2021
939 Clouds -22 1014 100 3838 1.2 218 20:56 28.03.2021
940 Clouds -23 1014 100 4207 1.2 219 20:38 28.03.2021
941 Clouds -24 1014 100 4842 1.2 220 20:18 28.03.2021
942 Clouds -24 1014 100 4842 1.2 220 19:41 28.03.2021
943 Clouds -24 1013 100 5513 0.94 227 19:21 28.03.2021
944 Clouds -24 1013 100 5513 0.94 227 18:49 28.03.2021
945 Clouds -23 1013 100 5936 0.99 246 18:22 28.03.2021
946 Clouds -23 1013 100 5936 0.99 246 17:41 28.03.2021
947 Clouds -23 1012 100 6403 0.8 254 17:18 28.03.2021
948 Clouds -23 1012 100 6403 0.8 254 16:40 28.03.2021
949 Clouds -22 1012 100 6712 0.44 257 16:21 28.03.2021
950 Clouds -21 1011 100 7498 0.34 276 15:25 28.03.2021
951 Clouds -21 1011 100 7498 0.34 276 14:50 28.03.2021
952 Clouds -20 1011 100 10000 0.52 292 14:26 28.03.2021
953 Clouds -20 1011 100 10000 0.47 303 13:38 28.03.2021
954 Clouds -19 1011 100 10000 0.43 344 12:59 28.03.2021
955 Clouds -19 1011 100 10000 0.43 344 12:35 28.03.2021
956 Clouds -17 1010 97 10000 0.81 5 11:59 28.03.2021
957 Clouds -17 1010 97 10000 0.81 5 11:38 28.03.2021
958 Clouds -13 1009 90 10000 0.89 341 10:55 28.03.2021
959 Clouds -13 1009 90 10000 0.89 341 10:32 28.03.2021
960 Clouds -10 1008 86 10000 0.68 310 09:56 28.03.2021
961 Clouds -9 1008 78 10000 0.89 277 09:28 28.03.2021
962 Clouds -9 1008 78 10000 0.89 277 08:56 28.03.2021
963 Clouds -9 1008 78 10000 0.89 277 08:35 28.03.2021
964 Clouds -9 1008 75 10000 1.19 271 07:43 28.03.2021
965 Clouds -10 1008 74 10000 1.25 247 06:22 28.03.2021
966 Clouds -12 1008 81 10000 1.34 231 03:50 28.03.2021
967 Clouds -15 1008 89 10000 1.37 235 00:45 28.03.2021
968 Clouds -16 1008 93 10000 1.36 231 00:18 28.03.2021
969 Clouds -16 1008 93 10000 1.36 231 23:36 27.03.2021
970 Clouds -18 1009 98 10000 1.31 225 22:50 27.03.2021
971 Clouds -18 1009 98 10000 1.31 225 22:31 27.03.2021
972 Clouds -20 1009 99 9318 1.22 227 21:46 27.03.2021
973 Clouds -19 1008 99 6294 1.09 226 21:21 27.03.2021
974 Clouds -19 1008 99 6294 1.09 226 20:59 27.03.2021
975 Clouds -19 1008 99 6294 1.09 226 20:37 27.03.2021
976 Clouds -18 1008 99 4734 0.72 223 20:19 27.03.2021
977 Clouds -18 1008 99 4734 0.72 223 19:41 27.03.2021
978 Clouds -18 1008 99 4234 0.68 208 19:22 27.03.2021
979 Clouds -18 1008 99 4234 0.68 208 18:47 27.03.2021
980 Clouds -18 1008 99 4808 0.74 169 18:22 27.03.2021
981 Clouds -18 1008 99 4808 0.74 169 17:37 27.03.2021
982 Clouds -18 1008 99 4808 0.74 169 17:37 27.03.2021
983 Clouds -18 1008 99 8208 0.87 141 17:18 27.03.2021
984 Clouds -18 1008 99 8208 0.87 141 16:47 27.03.2021
985 Clouds -17 1008 99 9898 0.98 118 16:26 27.03.2021
986 Clouds -17 1008 99 9898 0.98 118 15:46 27.03.2021
987 Clouds -17 1008 98 10000 1.13 111 15:20 27.03.2021
988 Clouds -17 1008 98 10000 1.13 111 14:44 27.03.2021
989 Clouds -17 1008 97 10000 1.23 108 13:40 27.03.2021
990 Clouds -17 1008 97 10000 1.23 108 13:40 27.03.2021
991 Clouds -16 1009 96 10000 1.32 97 13:20 27.03.2021
992 Clouds -16 1009 96 10000 1.32 97 12:50 27.03.2021
993 Clouds -15 1008 93 10000 1.31 93 11:55 27.03.2021
994 Clouds -15 1008 93 10000 1.31 93 11:37 27.03.2021
995 Clouds -14 1008 91 10000 1.07 99 11:19 27.03.2021
996 Clouds -14 1008 91 10000 1.07 99 10:40 27.03.2021
997 Clouds -11 1008 87 10000 0.68 116 09:59 27.03.2021
998 Clouds -10 1008 83 10000 0.83 163 09:21 27.03.2021
999 Clouds -10 1008 83 10000 0.83 163 08:40 27.03.2021
1000 Clouds -9 1008 74 10000 2.24 175 07:56 27.03.2021
1001 Clouds -9 1008 73 10000 2.56 173 07:22 27.03.2021
1002 Clouds -9 1008 73 10000 2.56 173 06:43 27.03.2021
1003 Clouds -10 1009 75 10000 2.28 160 04:42 27.03.2021
1004 Clouds -12 1010 82 10000 1.76 132 02:58 27.03.2021
1005 Clouds -15 1011 90 10000 1.4 107 00:45 27.03.2021
1006 Clouds -16 1011 93 8868 1.23 100 00:25 27.03.2021
1007 Clouds -16 1011 93 8868 1.23 100 23:38 26.03.2021
1008 Clouds -17 1011 96 6365 1.1 99 22:45 26.03.2021
1009 Clouds -18 1012 98 1972 1.17 86 22:24 26.03.2021
1010 Clouds -19 1012 99 695 1.04 89 21:25 26.03.2021
1011 Clouds -19 1012 99 695 1.04 89 20:58 26.03.2021
1012 Clouds -19 1012 99 695 1.04 89 20:32 26.03.2021
1013 Clouds -19 1012 99 649 1.11 91 19:53 26.03.2021
1014 Clouds -19 1012 99 649 1.11 91 19:35 26.03.2021
1015 Clouds -20 1013 99 1198 1.23 86 18:59 26.03.2021
1016 Clouds -20 1013 99 1198 1.23 86 18:36 26.03.2021
1017 Clouds -19 1013 98 1319 1.28 91 18:18 26.03.2021
1018 Clouds -19 1013 98 1319 1.28 91 17:43 26.03.2021
1019 Clouds -19 1013 96 10000 1.36 93 16:53 26.03.2021
1020 Clouds -19 1013 96 10000 1.36 93 16:30 26.03.2021
1021 Clouds -19 1013 94 10000 1.49 93 15:43 26.03.2021
1022 Clouds -19 1013 94 10000 1.46 89 14:57 26.03.2021
1023 Clouds -19 1014 95 10000 1.5 88 14:20 26.03.2021
1024 Clouds -19 1014 95 10000 1.5 88 13:34 26.03.2021
1025 Clouds -20 1015 96 10000 1.56 86 12:48 26.03.2021
1026 Clouds -21 1015 96 10000 1.66 80 11:50 26.03.2021
1027 Clouds -21 1015 96 10000 1.66 80 11:31 26.03.2021
1028 Clouds -22 1015 97 10000 1.68 72 10:46 26.03.2021
1029 Clouds -19 1015 94 10000 1.81 61 10:27 26.03.2021
1030 Clouds -19 1015 94 10000 1.81 61 09:41 26.03.2021
1031 Clouds -16 1015 87 10000 1.53 63 08:59 26.03.2021
1032 Clouds -16 1015 87 10000 1.53 63 08:35 26.03.2021
1033 Clouds -15 1015 78 10000 1.19 101 07:58 26.03.2021
1034 Clouds -16 1015 78 10000 1.57 103 07:22 26.03.2021
1035 Clouds -16 1015 78 10000 1.57 103 06:57 26.03.2021
1036 Clouds -17 1016 77 10000 1.37 107 06:27 26.03.2021
1037 Clouds -18 1016 78 10000 1.42 106 05:25 26.03.2021
1038 Clouds -23 1019 86 10000 0.89 119 01:57 26.03.2021
1039 Clouds -27 1020 94 10000 0.83 127 00:27 26.03.2021
1040 Clouds -27 1020 94 10000 0.83 127 23:44 25.03.2021
1041 Clouds -31 1021 98 10000 0.64 155 22:56 25.03.2021
1042 Clouds -33 1021 99 10000 0.69 137 22:28 25.03.2021
1043 Clouds -33 1021 99 10000 0.69 137 21:51 25.03.2021
1044 Clouds -33 1021 99 10000 0.69 137 21:33 25.03.2021
1045 Clouds -33 1021 99 10000 0.61 133 20:45 25.03.2021
1046 Clouds -32 1021 99 10000 0.68 121 20:25 25.03.2021
1047 Clouds -32 1021 99 10000 0.68 121 19:45 25.03.2021
1048 Clouds -32 1021 99 10000 0.87 111 19:27 25.03.2021
1049 Clouds -33 1021 99 10000 0.77 117 18:47 25.03.2021
1050 Clouds -33 1021 99 10000 0.86 111 18:27 25.03.2021
1051 Clouds -33 1021 99 10000 0.86 111 17:51 25.03.2021
1052 Clouds -33 1021 99 10000 0.86 111 17:33 25.03.2021
1053 Clouds -32 1021 100 10000 1.22 102 16:52 25.03.2021
1054 Clouds -32 1021 100 10000 1.22 102 16:31 25.03.2021
1055 Clouds -32 1021 99 10000 1.11 101 15:45 25.03.2021
1056 Clouds -31 1021 99 10000 1.19 97 15:22 25.03.2021
1057 Clouds -31 1021 99 10000 1.19 97 14:46 25.03.2021
1058 Clouds -30 1021 98 10000 1.22 98 14:18 25.03.2021
1059 Clouds -29 1021 97 10000 1.37 100 13:24 25.03.2021
1060 Clouds -29 1021 97 10000 1.34 101 12:45 25.03.2021
1061 Clouds -28 1021 95 10000 1.06 100 12:21 25.03.2021
1062 Clouds -28 1021 95 10000 1.06 100 11:53 25.03.2021
1063 Clouds -28 1021 95 10000 1.06 100 11:31 25.03.2021
1064 Clouds -26 1020 94 10000 1.08 91 10:57 25.03.2021
1065 Clouds -26 1020 94 10000 1.08 91 10:39 25.03.2021
1066 Clouds -23 1020 90 10000 1.11 90 10:18 25.03.2021
1067 Clouds -23 1020 90 10000 1.11 90 09:43 25.03.2021
1068 Clouds -19 1019 85 10000 0.93 102 08:59 25.03.2021
1069 Clouds -19 1019 85 10000 0.93 102 08:30 25.03.2021
1070 Clouds -18 1019 74 10000 1.55 160 07:26 25.03.2021
1071 Clouds -18 1019 74 10000 1.55 160 06:42 25.03.2021
1072 Clouds -19 1019 74 10000 1.61 158 06:22 25.03.2021
1073 Clouds -20 1019 77 10000 1.48 161 04:50 25.03.2021
1074 Clouds -26 1021 94 10000 0.73 162 01:20 25.03.2021
1075 Clouds -28 1021 98 6897 0.71 166 00:19 25.03.2021
1076 Clouds -28 1021 98 6897 0.71 166 23:39 24.03.2021
1077 Clouds -32 1021 99 5945 0.46 187 23:18 24.03.2021
1078 Clouds -32 1021 99 5945 0.46 187 22:39 24.03.2021
1079 Clouds -33 1021 100 6360 0.56 205 21:51 24.03.2021
1080 Clouds -33 1021 100 6360 0.56 205 21:32 24.03.2021
1081 Clouds -33 1020 100 6239 0.59 204 20:56 24.03.2021
1082 Clouds -33 1020 100 6239 0.59 204 20:38 24.03.2021
1083 Clouds -33 1020 99 5830 0.38 202 20:18 24.03.2021
1084 Clouds -33 1020 100 6559 0.57 209 19:33 24.03.2021
1085 Clouds -33 1020 100 6559 0.57 209 19:33 24.03.2021
1086 Clouds -33 1020 99 7534 0.37 219 18:53 24.03.2021
1087 Clouds -32 1019 99 9899 0.27 233 18:24 24.03.2021
1088 Clouds -32 1019 99 9899 0.27 233 18:24 24.03.2021
1089 Clouds -32 1019 99 9899 0.27 233 17:53 24.03.2021
1090 Clouds -32 1019 99 9899 0.27 233 17:32 24.03.2021
1091 Clouds -31 1019 99 10000 0.31 190 16:57 24.03.2021
1092 Clouds -31 1019 99 10000 0.31 190 16:39 24.03.2021
1093 Clouds -30 1018 99 10000 0.16 200 16:19 24.03.2021
1094 Clouds -30 1018 99 10000 0.16 200 15:41 24.03.2021
1095 Clouds -29 1018 99 10000 0.16 315 15:20 24.03.2021
1096 Clouds -29 1018 99 10000 0.16 315 14:30 24.03.2021
1097 Clouds -28 1017 98 10000 0.45 341 13:58 24.03.2021
1098 Clouds -26 1017 96 10000 0.58 348 13:28 24.03.2021
1099 Clouds -26 1016 96 10000 0.43 2 12:52 24.03.2021
1100 Clouds -26 1016 96 10000 0.43 2 12:32 24.03.2021
1101 Clouds -25 1016 94 10000 0.56 16 11:57 24.03.2021
1102 Clouds -25 1016 94 10000 0.56 16 11:39 24.03.2021
1103 Clouds -24 1015 92 10000 0.77 29 10:49 24.03.2021
1104 Clouds -24 1015 92 10000 0.77 29 10:31 24.03.2021
1105 Clouds -22 1015 89 10000 0.98 33 09:55 24.03.2021
1106 Clouds -22 1015 89 10000 0.98 33 09:55 24.03.2021
1107 Clouds -22 1015 89 10000 0.98 33 09:33 24.03.2021
1108 Clouds -20 1014 84 10000 1.52 22 08:58 24.03.2021
1109 Clouds -20 1014 84 10000 1.52 22 08:39 24.03.2021
1110 Clouds -20 1013 79 10000 1.92 13 07:50 24.03.2021
1111 Clouds -20 1013 79 10000 1.96 14 07:19 24.03.2021
1112 Clouds -20 1013 79 10000 1.96 14 06:45 24.03.2021
1113 Clouds -23 1012 86 1921 1.88 354 02:29 24.03.2021
1114 Clouds -24 1012 88 3119 1.62 343 00:42 24.03.2021
1115 Clouds -24 1012 91 3730 1.59 327 23:52 23.03.2021
1116 Clouds -25 1012 93 4755 1.38 319 23:20 23.03.2021
1117 Clouds -25 1012 93 4755 1.38 319 22:50 23.03.2021
1118 Clouds -26 1011 96 7365 1.14 311 22:25 23.03.2021
1119 Clouds -26 1011 96 7365 1.14 311 21:46 23.03.2021
1120 Clouds -26 1011 95 9035 1.41 310 21:27 23.03.2021
1121 Clouds -26 1011 95 9035 1.41 310 20:47 23.03.2021
1122 Clouds -26 1010 95 9232 1.58 307 20:25 23.03.2021
1123 Clouds -26 1010 95 9232 1.58 307 19:48 23.03.2021
1124 Clouds -26 1010 96 9297 1.57 306 19:26 23.03.2021
1125 Clouds -26 1010 96 10000 1.56 301 18:47 23.03.2021
1126 Clouds -26 1009 95 10000 1.62 304 18:23 23.03.2021
1127 Clouds -26 1009 95 10000 1.62 304 17:49 23.03.2021
1128 Clouds -26 1009 95 10000 1.71 304 17:23 23.03.2021
1129 Clouds -26 1009 95 10000 1.71 304 16:57 23.03.2021
1130 Clouds -25 1009 94 10000 1.99 307 16:25 23.03.2021
1131 Clouds -25 1009 94 10000 1.99 307 15:47 23.03.2021
1132 Clouds -25 1009 94 10000 1.99 309 15:18 23.03.2021
1133 Clouds -25 1009 94 10000 1.99 309 14:40 23.03.2021
1134 Clouds -25 1009 94 10000 2.04 312 14:18 23.03.2021
1135 Clouds -25 1009 86 10000 2.04 312 13:43 23.03.2021
1136 Clouds -25 1008 93 10000 2.02 315 13:21 23.03.2021
1137 Clouds -25 1008 93 10000 2.02 315 12:43 23.03.2021
1138 Clouds -26 1008 94 10000 2.08 320 12:23 23.03.2021
1139 Clouds -26 1008 94 10000 2.08 320 11:47 23.03.2021
1140 Clouds -24 1008 93 10000 1.91 334 10:56 23.03.2021
1141 Clouds -24 1008 93 10000 1.91 334 10:38 23.03.2021
1142 Clouds -22 1007 90 10000 2.68 335 10:20 23.03.2021
1143 Clouds -22 1007 90 10000 2.68 335 09:42 23.03.2021
1144 Clouds -21 1007 87 10000 3.59 353 09:21 23.03.2021
1145 Clouds -21 1007 87 10000 3.59 353 08:40 23.03.2021
1146 Clouds -20 1006 84 10000 4.63 357 08:22 23.03.2021
1147 Clouds -20 1006 84 10000 4.63 357 07:59 23.03.2021
1148 Clouds -20 1006 83 10000 4.83 359 07:22 23.03.2021
1149 Clouds -20 1006 83 10000 4.77 360 06:41 23.03.2021
1150 Clouds -21 1007 85 10000 3.07 338 03:23 23.03.2021
1151 Clouds -22 1008 87 10000 2.64 326 02:21 23.03.2021
1152 Clouds -25 1008 95 10000 2.24 319 23:46 22.03.2021
1153 Clouds -29 1009 98 10000 2.01 322 22:59 22.03.2021
1154 Clouds -29 1009 98 10000 2.01 322 22:39 22.03.2021
1155 Clouds -28 1008 98 10000 1.99 319 22:20 22.03.2021
1156 Clouds -28 1008 98 10000 1.99 319 21:43 22.03.2021
1157 Clouds -25 1008 97 10000 2.02 319 21:24 22.03.2021
1158 Clouds -25 1008 97 10000 2.02 319 20:42 22.03.2021
1159 Clouds -25 1008 97 10000 1.87 319 20:23 22.03.2021
1160 Clouds -25 1008 97 10000 1.87 319 19:57 22.03.2021
1161 Clouds -25 1008 97 10000 1.87 319 19:37 22.03.2021
1162 Clouds -25 1008 87 10000 1.84 321 19:19 22.03.2021
1163 Clouds -23 1008 95 2217 2.07 339 18:40 22.03.2021
1164 Clouds -23 1008 95 3507 2.15 342 18:21 22.03.2021
1165 Clouds -23 1008 95 3507 2.15 342 17:48 22.03.2021
1166 Clouds -22 1008 95 4800 2.22 344 17:22 22.03.2021
1167 Clouds -22 1008 95 4800 2.22 344 16:47 22.03.2021
1168 Clouds -21 1008 95 5184 2.32 346 16:22 22.03.2021
1169 Clouds -21 1008 95 5184 2.32 346 15:42 22.03.2021
1170 Clouds -21 1008 96 4058 2.35 348 15:22 22.03.2021
1171 Clouds -21 1008 96 4058 2.35 348 14:57 22.03.2021
1172 Clouds -21 1008 96 4058 2.35 348 14:34 22.03.2021
1173 Clouds -20 1008 96 3338 2.38 346 13:50 22.03.2021
1174 Clouds -19 1007 96 3222 2.47 349 13:29 22.03.2021
1175 Clouds -19 1007 96 3222 2.47 349 12:57 22.03.2021
1176 Clouds -19 1007 94 7631 2.82 352 12:26 22.03.2021
1177 Clouds -19 1007 94 7631 2.82 352 11:51 22.03.2021
1178 Clouds -18 1006 92 10000 3.28 354 11:29 22.03.2021
1179 Clouds -18 1006 92 10000 3.28 354 10:46 22.03.2021
1180 Clouds -17 1006 92 10000 3.53 356 10:26 22.03.2021
1181 Clouds -17 1006 92 10000 3.53 356 09:56 22.03.2021
1182 Clouds -17 1006 92 10000 3.53 356 09:34 22.03.2021
1183 Clouds -14 1005 92 10000 4.21 0 08:55 22.03.2021
1184 Clouds -14 1005 92 10000 4.21 0 08:37 22.03.2021
1185 Clouds -12 1005 90 6213 3.76 11 08:19 22.03.2021
1186 Clouds -12 1005 90 6213 3.76 11 07:41 22.03.2021
1187 Clouds -12 1005 86 10000 2.83 22 06:51 22.03.2021
1188 Clouds -13 1006 82 10000 2.27 40 03:24 22.03.2021
1189 Clouds -15 1006 87 10000 1.83 37 00:53 22.03.2021
1190 Clouds -16 1006 90 10000 1.41 46 00:20 22.03.2021
1191 Clouds -16 1006 90 10000 1.41 46 23:47 21.03.2021
1192 Clouds -18 1006 91 10000 1.31 53 23:18 21.03.2021
1193 Clouds -18 1006 91 10000 1.31 53 22:53 21.03.2021
1194 Clouds -19 1006 94 10000 1.25 62 21:44 21.03.2021
1195 Clouds -19 1006 94 10000 1.32 61 21:25 21.03.2021
1196 Clouds -19 1006 94 10000 1.32 61 20:57 21.03.2021
1197 Clouds -19 1006 94 10000 1.32 61 20:39 21.03.2021
1198 Clouds -18 1005 94 10000 1.35 61 20:21 21.03.2021
1199 Clouds -18 1005 94 10000 1.35 61 19:48 21.03.2021
1200 Clouds -18 1005 93 10000 1.38 64 19:20 21.03.2021
1201 Clouds -19 1005 95 10000 1.41 58 18:45 21.03.2021
1202 Clouds -18 1005 94 10000 1.46 60 18:26 21.03.2021
1203 Clouds -18 1005 94 10000 1.46 60 17:44 21.03.2021
1204 Clouds -18 1006 93 10000 1.54 61 17:19 21.03.2021
1205 Clouds -18 1006 93 10000 1.54 61 16:51 21.03.2021
1206 Clouds -17 1005 92 10000 1.61 61 16:28 21.03.2021
1207 Clouds -17 1005 92 10000 1.61 61 15:49 21.03.2021
1208 Clouds -17 1006 91 10000 1.49 63 15:23 21.03.2021
1209 Clouds -17 1006 91 10000 1.49 63 14:59 21.03.2021
1210 Clouds -17 1006 91 10000 1.49 63 14:40 21.03.2021
1211 Clouds -17 1006 91 10000 1.38 70 14:21 21.03.2021
1212 Clouds -17 1006 91 10000 1.38 70 13:52 21.03.2021
1213 Clouds -16 1005 89 10000 1.49 73 12:46 21.03.2021
1214 Clouds -16 1005 90 10000 1.62 78 12:26 21.03.2021
1215 Clouds -16 1005 90 10000 1.62 78 11:49 21.03.2021
1216 Clouds -15 1005 90 10000 1.85 74 11:27 21.03.2021
1217 Clouds -15 1005 90 10000 1.85 74 10:54 21.03.2021
1218 Clouds -15 1005 90 10000 1.85 74 10:33 21.03.2021
1219 Clouds -14 1005 89 10000 2 68 09:57 21.03.2021
1220 Clouds -14 1005 89 10000 2 68 09:38 21.03.2021
1221 Clouds -14 1005 89 10000 2 68 09:38 21.03.2021
1222 Clouds -14 1005 89 10000 2 68 09:38 21.03.2021
1223 Clouds -14 1005 89 10000 2 68 09:38 21.03.2021
1224 Clouds -12 1005 87 10000 1.9 79 09:19 21.03.2021
1225 Clouds -12 1005 87 10000 1.9 79 08:39 21.03.2021
1226 Clouds -10 1005 84 10000 1.85 83 08:20 21.03.2021
1227 Clouds -10 1005 84 10000 1.85 83 07:36 21.03.2021
1228 Clouds -11 1005 81 10000 1.55 70 06:50 21.03.2021
1229 Clouds -13 1006 81 10000 1.8 81 04:58 21.03.2021
1230 Clouds -13 1006 81 10000 1.8 81 04:58 21.03.2021
1231 Clouds -17 1009 79 10000 1.19 75 01:54 21.03.2021
1232 Clouds -18 1009 83 10000 1.22 70 00:40 21.03.2021
1233 Clouds -20 1009 86 10000 1.08 78 00:21 21.03.2021
1234 Clouds -20 1009 86 10000 1.08 78 23:47 20.03.2021
1235 Clouds -22 1009 84 10000 1.23 84 23:20 20.03.2021
1236 Clouds -22 1009 84 10000 1.23 84 22:54 20.03.2021
1237 Clouds -23 1009 85 10000 1.33 92 22:21 20.03.2021
1238 Clouds -23 1009 85 10000 1.33 92 21:45 20.03.2021
1239 Clouds -22 1010 84 10000 1.33 102 21:24 20.03.2021
1240 Clouds -22 1010 84 10000 1.33 102 20:45 20.03.2021
1241 Clouds -22 1010 83 10000 1.39 108 20:22 20.03.2021
1242 Clouds -22 1010 83 10000 1.39 108 19:49 20.03.2021
1243 Clouds -21 1011 83 10000 1.42 109 19:26 20.03.2021
1244 Clouds -21 1011 84 10000 1.4 104 18:49 20.03.2021
1245 Clouds -21 1011 84 10000 1.4 104 18:26 20.03.2021
1246 Clouds -21 1011 84 10000 1.4 104 17:54 20.03.2021
1247 Clouds -21 1011 84 10000 1.4 104 17:32 20.03.2021
1248 Clouds -20 1011 83 10000 1.56 94 16:56 20.03.2021
1249 Clouds -20 1011 83 10000 1.56 94 16:37 20.03.2021
1250 Clouds -20 1011 82 10000 1.61 95 16:18 20.03.2021
1251 Clouds -20 1011 82 10000 1.61 95 15:39 20.03.2021
1252 Clouds -19 1012 81 10000 1.52 99 14:49 20.03.2021
1253 Clouds -19 1012 81 10000 1.52 99 14:49 20.03.2021
1254 Clouds -18 1012 79 10000 1.53 102 14:28 20.03.2021
1255 Clouds -18 1012 79 10000 1.53 102 13:43 20.03.2021
1256 Clear -18 1013 78 10000 1.45 122 13:18 20.03.2021
1257 Clear -18 1013 76 10000 1.52 146 12:28 20.03.2021
1258 Clear -18 1013 76 10000 1.52 146 11:50 20.03.2021
1259 Clear -18 1013 76 10000 1.52 146 11:30 20.03.2021
1260 Clear -17 1013 75 10000 1.75 177 10:57 20.03.2021
1261 Clear -17 1013 75 10000 1.75 177 10:38 20.03.2021
1262 Clear -16 1012 76 10000 1.5 206 10:19 20.03.2021
1263 Clear -16 1012 76 10000 1.5 206 09:42 20.03.2021
1264 Clear -13 1012 75 10000 1.97 238 09:21 20.03.2021
1265 Clear -13 1012 75 10000 1.97 238 08:46 20.03.2021
1266 Clear -11 1011 75 10000 2.89 251 07:56 20.03.2021
1267 Clear -11 1011 75 10000 2.89 251 07:37 20.03.2021
1268 Clouds -10 1011 85 10000 4.32 254 07:19 20.03.2021
1269 Clouds -11 1011 67 10000 4.33 250 06:27 20.03.2021
1270 Clouds -11 1010 67 10000 4.92 248 04:41 20.03.2021
1271 Clouds -11 1010 70 10000 5.49 241 03:42 20.03.2021
1272 Clouds -14 1010 87 10000 2.91 200 00:43 20.03.2021
1273 Clouds -16 1010 84 10000 2.23 200 23:36 19.03.2021
1274 Clouds -17 1010 83 10000 2.38 206 23:18 19.03.2021
1275 Clouds -17 1010 83 10000 2.38 206 22:42 19.03.2021
1276 Clouds -17 1010 83 10000 2.87 210 22:22 19.03.2021
1277 Clouds -17 1010 83 10000 2.87 210 21:37 19.03.2021
1278 Clouds -17 1010 83 10000 3.34 209 21:18 19.03.2021
1279 Clouds -17 1010 83 10000 3.34 209 20:44 19.03.2021
1280 Clouds -16 1010 82 10000 3.61 208 20:26 19.03.2021
1281 Clouds -16 1010 82 10000 3.61 208 19:47 19.03.2021
1282 Clouds -16 1010 82 10000 4.09 205 19:22 19.03.2021
1283 Clouds -16 1010 82 10000 4.21 199 18:49 19.03.2021
1284 Clouds -16 1010 81 10000 4.24 198 18:21 19.03.2021
1285 Clouds -16 1010 81 10000 4.24 198 17:56 19.03.2021
1286 Clouds -16 1010 81 10000 4.24 198 17:37 19.03.2021
1287 Clouds -15 1010 81 10000 4.21 201 16:59 19.03.2021
1288 Clouds -15 1010 81 10000 4.21 201 16:40 19.03.2021
1289 Clouds -15 1010 79 10000 4.63 204 16:21 19.03.2021
1290 Clouds -15 1010 79 10000 4.63 204 15:33 19.03.2021
1291 Clouds -13 1010 75 10000 4.51 215 14:51 19.03.2021
1292 Clouds -13 1010 75 10000 4.51 215 14:33 19.03.2021
1293 Clouds -13 1010 74 10000 4.65 225 13:50 19.03.2021
1294 Clouds -11 1010 87 10000 5.59 226 13:19 19.03.2021
1295 Clouds -11 1010 88 10000 5.99 220 12:42 19.03.2021
1296 Clouds -11 1010 77 10000 6.39 214 12:18 19.03.2021
1297 Clouds -10 1010 77 10000 6.25 203 11:26 19.03.2021
1298 Clouds -10 1010 77 10000 6.25 203 10:43 19.03.2021
1299 Clouds -10 1010 78 10000 5.94 196 10:21 19.03.2021
1300 Clouds -10 1010 78 10000 5.94 196 09:44 19.03.2021
1301 Clouds -9 1010 78 10000 5.74 191 09:25 19.03.2021
1302 Clouds -9 1010 78 10000 5.74 191 08:52 19.03.2021
1303 Clouds -9 1010 77 10000 5.35 191 08:28 19.03.2021
1304 Clouds -9 1010 77 10000 5.35 191 07:50 19.03.2021
1305 Clouds -9 1010 77 10000 5.35 191 07:31 19.03.2021
1306 Clouds -15 1013 73 10000 4.29 182 05:28 19.03.2021
1307 Clouds -21 1017 74 10000 2.74 148 02:20 19.03.2021
1308 Clouds -25 1020 79 10000 1.99 137 23:57 18.03.2021
1309 Clouds -28 1021 80 10000 1.96 136 23:29 18.03.2021
1310 Clouds -28 1021 80 10000 1.96 136 22:52 18.03.2021
1311 Clouds -29 1022 82 10000 1.87 137 22:26 18.03.2021
1312 Clouds -29 1022 82 10000 1.87 137 22:26 18.03.2021
1313 Clouds -29 1022 82 10000 1.87 137 21:55 18.03.2021
1314 Clouds -29 1022 82 10000 1.87 137 21:36 18.03.2021
1315 Clouds -29 1022 87 10000 1.77 141 20:43 18.03.2021
1316 Clouds -29 1023 91 10000 1.6 138 20:22 18.03.2021
1317 Clouds -29 1023 91 10000 1.6 138 19:43 18.03.2021
1318 Clouds -29 1024 93 10000 1.5 137 19:23 18.03.2021
1319 Clouds -29 1024 93 10000 1.5 137 19:23 18.03.2021
1320 Clouds -29 1024 93 10000 1.5 137 18:52 18.03.2021
1321 Clouds -31 1026 93 10000 1.33 131 18:25 18.03.2021
1322 Clouds -31 1026 93 10000 1.33 131 17:43 18.03.2021
1323 Clouds -30 1026 93 10000 1.33 130 17:20 18.03.2021
1324 Clouds -30 1026 93 10000 1.33 130 16:41 18.03.2021
1325 Clear -30 1027 93 10000 1.29 133 16:23 18.03.2021
1326 Clear -30 1027 93 10000 1.29 133 16:23 18.03.2021
1327 Clear -30 1027 93 10000 1.29 133 15:41 18.03.2021
1328 Clear -31 1027 94 10000 1.16 129 15:23 18.03.2021
1329 Clear -31 1027 94 10000 1.16 129 14:50 18.03.2021
1330 Clear -30 1027 94 10000 1.18 122 14:28 18.03.2021
1331 Clear -30 1027 94 10000 1.18 122 13:48 18.03.2021
1332 Clouds -30 1028 94 10000 1.24 119 13:25 18.03.2021
1333 Clouds -30 1028 95 10000 1.11 115 12:42 18.03.2021
1334 Clouds -30 1028 95 10000 1.06 113 12:24 18.03.2021
1335 Clouds -30 1028 95 10000 1.06 113 11:50 18.03.2021
1336 Clouds -30 1028 94 10000 1.05 104 11:27 18.03.2021
1337 Clouds -30 1028 94 10000 1.05 104 10:44 18.03.2021
1338 Clouds -28 1027 92 10000 1 85 10:25 18.03.2021
1339 Clouds -28 1027 92 10000 1 85 09:54 18.03.2021
1340 Clouds -25 1026 87 10000 0.77 65 09:28 18.03.2021
1341 Clouds -25 1026 87 10000 0.77 65 08:47 18.03.2021
1342 Clouds -23 1026 80 10000 0.42 105 08:29 18.03.2021
1343 Clouds -23 1026 80 10000 0.42 105 07:51 18.03.2021
1344 Clouds -23 1026 75 10000 0.77 130 07:24 18.03.2021
1345 Clear -25 1027 64 10000 1.46 82 06:27 18.03.2021
1346 Clear -25 1027 64 10000 1.46 82 05:42 18.03.2021
1347 Clouds -28 1026 85 10000 1.66 309 01:24 18.03.2021
1348 Clouds -30 1025 89 10000 1.62 312 23:59 17.03.2021
1349 Clouds -31 1024 90 10000 1.91 325 22:47 17.03.2021
1350 Clouds -30 1023 90 10000 2.32 334 22:26 17.03.2021
1351 Clouds -30 1023 90 10000 2.32 334 21:56 17.03.2021
1352 Clouds -30 1023 90 10000 2.32 334 21:34 17.03.2021
1353 Clouds -29 1021 87 10000 2.53 339 20:59 17.03.2021
1354 Clouds -29 1021 87 10000 2.53 339 20:40 17.03.2021
1355 Clouds -29 1021 87 10000 2.53 339 20:40 17.03.2021
1356 Clouds -29 1021 87 10000 2.53 339 20:40 17.03.2021
1357 Clouds -27 1020 83 10000 2.9 337 20:22 17.03.2021
1358 Clouds -27 1020 83 10000 2.9 337 19:44 17.03.2021
1359 Clouds -25 1018 79 10000 2.92 328 19:21 17.03.2021
1360 Clear -26 1017 73 10000 2.45 319 18:54 17.03.2021
1361 Clear -26 1017 73 10000 2.45 319 18:36 17.03.2021
1362 Clear -24 1016 71 10000 2.15 283 17:49 17.03.2021
1363 Clear -22 1015 75 10000 2.71 270 17:27 17.03.2021
1364 Clear -22 1015 75 10000 2.71 270 16:47 17.03.2021
1365 Clear -19 1014 76 10000 5.53 260 16:25 17.03.2021
1366 Clear -19 1014 76 10000 5.53 260 15:56 17.03.2021
1367 Clear -19 1014 76 10000 5.53 260 15:36 17.03.2021
1368 Clear -16 1014 70 10000 8.32 239 14:45 17.03.2021
1369 Clouds -14 1013 70 10000 8.51 225 14:27 17.03.2021
1370 Clouds -14 1013 70 10000 8.51 225 13:55 17.03.2021
1371 Clouds -14 1013 70 10000 8.51 225 13:31 17.03.2021
1372 Clouds -14 1012 73 10000 6.23 213 12:58 17.03.2021
1373 Clouds -14 1012 75 10000 6.49 207 12:34 17.03.2021
1374 Clouds -14 1012 74 10000 5.2 203 11:51 17.03.2021
1375 Clouds -14 1012 74 10000 5.27 198 11:24 17.03.2021
1376 Clouds -14 1012 74 10000 5.27 198 10:55 17.03.2021
1377 Clouds -14 1012 74 10000 5.27 198 10:34 17.03.2021
1378 Clouds -13 1012 77 10000 4.93 192 09:50 17.03.2021
1379 Clouds -13 1012 77 10000 4.93 192 09:32 17.03.2021
1380 Clouds -12 1011 79 10000 4.53 191 09:00 17.03.2021
1381 Clouds -12 1011 79 10000 4.53 191 08:39 17.03.2021
1382 Clouds -11 1012 79 10000 4.3 205 07:55 17.03.2021
1383 Clouds -11 1012 79 10000 4.3 205 07:35 17.03.2021
1384 Clouds -11 1012 73 10000 5.16 210 06:47 17.03.2021
1385 Clouds -13 1014 73 10000 3.23 224 04:27 17.03.2021
1386 Clouds -15 1014 75 10000 2.94 224 03:25 17.03.2021
1387 Clouds -18 1015 80 10000 2.1 181 00:41 17.03.2021
1388 Clouds -21 1016 82 10000 1.79 145 00:20 17.03.2021
1389 Clouds -22 1017 81 10000 2.08 142 23:22 16.03.2021
1390 Clouds -22 1017 81 10000 2.08 142 22:43 16.03.2021
1391 Clouds -22 1018 80 10000 2.12 147 22:25 16.03.2021
1392 Clouds -22 1018 80 10000 2.12 147 21:42 16.03.2021
1393 Clouds -22 1018 81 10000 1.84 137 21:24 16.03.2021
1394 Clouds -22 1018 81 10000 1.84 137 20:47 16.03.2021
1395 Clouds -21 1018 81 10000 1.85 149 20:19 16.03.2021
1396 Clouds -21 1018 81 10000 1.85 149 20:19 16.03.2021
1397 Clouds -21 1018 81 10000 1.85 149 19:46 16.03.2021
1398 Clouds -21 1018 80 10000 2.29 173 19:27 16.03.2021
1399 Clouds -21 1018 80 10000 2.29 173 18:53 16.03.2021
1400 Clouds -22 1018 81 10000 1.99 147 18:35 16.03.2021
1401 Clouds -22 1019 80 10000 2.04 157 17:52 16.03.2021
1402 Clouds -22 1019 80 10000 2.04 157 17:33 16.03.2021
1403 Clouds -23 1020 80 10000 2 165 16:54 16.03.2021
1404 Clouds -23 1020 80 10000 2 165 16:54 16.03.2021
1405 Clouds -23 1020 80 10000 2 165 16:54 16.03.2021
1406 Clouds -23 1020 80 10000 2 165 16:54 16.03.2021
1407 Clouds -23 1020 80 10000 2 165 16:31 16.03.2021
1408 Clouds -23 1020 81 10000 1.92 174 15:59 16.03.2021
1409 Clouds -23 1020 81 10000 1.92 174 15:38 16.03.2021
1410 Clouds -24 1020 82 10000 1.97 180 15:19 16.03.2021
1411 Clouds -24 1020 82 10000 1.97 180 14:45 16.03.2021
1412 Clouds -25 1020 83 10000 1.76 182 14:23 16.03.2021
1413 Clouds -25 1020 83 10000 1.76 182 13:58 16.03.2021
1414 Clouds -25 1019 83 10000 1.65 172 13:29 16.03.2021
1415 Clouds -25 1019 83 10000 1.65 172 12:56 16.03.2021
1416 Clouds -25 1019 82 10000 1.71 176 12:38 16.03.2021
1417 Clouds -24 1019 82 10000 1.71 146 12:18 16.03.2021
1418 Clouds -24 1019 82 10000 1.71 146 11:35 16.03.2021
1419 Clouds -24 1018 83 10000 1.75 131 10:50 16.03.2021
1420 Clouds -23 1018 83 10000 1.7 138 10:21 16.03.2021
1421 Clouds -23 1018 83 10000 1.7 138 10:21 16.03.2021
1422 Clouds -23 1018 83 10000 1.7 138 10:21 16.03.2021
1423 Clouds -23 1018 83 10000 1.7 138 09:41 16.03.2021
1424 Clouds -21 1018 81 10000 1.54 161 09:21 16.03.2021
1425 Clouds -21 1018 81 10000 1.54 161 08:56 16.03.2021
1426 Clouds -21 1018 81 10000 1.54 161 08:37 16.03.2021
1427 Clouds -19 1018 81 10000 2.46 184 07:57 16.03.2021
1428 Clouds -19 1018 76 10000 3.12 181 07:29 16.03.2021
1429 Clouds -20 1019 79 10000 3.19 185 06:38 16.03.2021
1430 Clouds -20 1019 80 10000 3.45 198 05:37 16.03.2021
1431 Clouds -21 1019 81 9952 2.65 212 04:28 16.03.2021
1432 Clouds -22 1019 85 4093 1.46 268 02:29 16.03.2021
1433 Clouds -23 1019 91 2186 1.34 281 01:23 16.03.2021
1434 Clouds -24 1018 96 1660 1.47 285 23:55 15.03.2021
1435 Clouds -25 1017 97 1168 1.41 299 23:28 15.03.2021
1436 Clouds -25 1017 97 1168 1.41 299 22:50 15.03.2021
1437 Clouds -25 1016 98 603 1.21 313 22:29 15.03.2021
1438 Clouds -25 1016 98 603 1.21 313 21:53 15.03.2021
1439 Clouds -25 1016 98 603 1.21 313 21:33 15.03.2021
1440 Clouds -26 1014 94 708 1.01 302 20:57 15.03.2021
1441 Clouds -26 1014 94 708 1.01 302 20:57 15.03.2021
1442 Clouds -26 1014 94 708 1.01 302 20:39 15.03.2021
1443 Clouds -27 1013 84 6717 1.04 245 20:20 15.03.2021
1444 Clouds -27 1013 84 6717 1.04 245 19:49 15.03.2021
1445 Clouds -27 1013 84 6717 1.04 245 19:49 15.03.2021
1446 Clouds -27 1013 84 6717 1.04 245 19:31 15.03.2021
1447 Clouds -28 1012 81 10000 1.17 232 18:50 15.03.2021
1448 Clouds -28 1010 78 10000 1.87 210 18:26 15.03.2021
1449 Clouds -28 1010 78 10000 1.87 210 17:56 15.03.2021
1450 Clouds -28 1010 78 10000 1.87 210 17:32 15.03.2021
1451 Clouds -27 1009 76 10000 2.58 195 16:52 15.03.2021
1452 Clouds -27 1009 76 10000 2.58 195 16:34 15.03.2021
1453 Clouds -25 1008 77 10000 2.16 196 15:46 15.03.2021
1454 Clouds -23 1007 75 10000 2.53 200 15:26 15.03.2021
1455 Clouds -23 1007 75 10000 2.53 200 14:45 15.03.2021
1456 Clouds -21 1006 72 10000 3.53 183 14:23 15.03.2021
1457 Clouds -21 1006 72 10000 3.53 183 13:49 15.03.2021
1458 Clouds -21 1005 70 10000 3.39 181 13:27 15.03.2021
1459 Clouds -21 1005 70 10000 3.39 181 12:50 15.03.2021
1460 Clouds -20 1004 70 10000 2.5 216 12:20 15.03.2021
1461 Clouds -20 1004 70 10000 2.5 216 11:56 15.03.2021
1462 Clouds -20 1004 70 10000 2.5 216 11:37 15.03.2021
1463 Clouds -17 1003 78 10000 4.38 249 10:56 15.03.2021
1464 Clouds -17 1003 78 10000 4.38 249 10:32 15.03.2021
1465 Clouds -16 1002 83 10000 1.97 220 09:54 15.03.2021
1466 Clouds -16 1002 83 10000 1.97 220 09:36 15.03.2021
1467 Clouds -14 1001 82 10000 0.99 164 08:59 15.03.2021
1468 Clouds -14 1001 82 10000 0.99 164 08:40 15.03.2021
1469 Clouds -12 1000 84 10000 0.98 197 08:18 15.03.2021
1470 Clouds -12 1000 84 10000 0.98 197 07:32 15.03.2021
1471 Clouds -13 1000 77 10000 2.19 202 06:44 15.03.2021
1472 Clouds -13 1000 76 10000 3.16 198 05:34 15.03.2021
1473 Clouds -17 1002 76 10000 2.13 158 01:47 15.03.2021
1474 Clouds -21 1002 81 10000 1.9 167 00:21 15.03.2021
1475 Clouds -21 1002 82 10000 1.81 160 23:21 14.03.2021
1476 Clouds -21 1002 82 10000 1.81 160 22:48 14.03.2021
1477 Clouds -21 1002 83 10000 1.76 147 22:25 14.03.2021
1478 Clouds -21 1002 83 10000 1.76 147 21:50 14.03.2021
1479 Clouds -21 1001 84 10000 1.78 142 21:21 14.03.2021
1480 Clouds -21 1001 84 10000 1.78 142 20:50 14.03.2021
1481 Clouds -22 1001 86 10000 1.62 145 20:27 14.03.2021
1482 Clouds -22 1001 86 10000 1.62 145 19:56 14.03.2021
1483 Clouds -22 1001 86 10000 1.62 145 19:37 14.03.2021
1484 Clouds -23 1001 88 10000 1.52 135 19:18 14.03.2021
1485 Clouds -24 1001 89 10000 1.35 125 18:31 14.03.2021
1486 Clouds -25 1001 91 10000 1.31 120 17:44 14.03.2021
1487 Clear -25 1001 92 10000 1.27 124 17:24 14.03.2021
1488 Clear -25 1001 92 10000 1.27 124 16:54 14.03.2021
1489 Clear -25 1001 92 10000 1.27 124 16:35 14.03.2021
1490 Clear -25 1000 93 10000 1.26 117 15:59 14.03.2021
1491 Clear -25 1000 93 10000 1.26 117 15:40 14.03.2021
1492 Clouds -24 1000 94 10000 1.44 120 14:51 14.03.2021
1493 Clouds -24 999 95 10000 1.41 124 14:29 14.03.2021
1494 Clouds -24 999 95 10000 1.41 124 13:52 14.03.2021
1495 Clouds -24 999 95 10000 1.41 124 13:33 14.03.2021
1496 Clouds -23 999 88 10000 1.39 109 12:48 14.03.2021
1497 Clouds -23 998 98 10000 1.41 102 12:29 14.03.2021
1498 Clouds -23 998 98 10000 1.41 102 11:59 14.03.2021
1499 Clouds -23 998 98 10000 1.41 102 11:37 14.03.2021
1500 Clouds -22 997 98 10000 1.27 99 11:18 14.03.2021
1501 Clouds -22 997 98 10000 1.27 99 10:38 14.03.2021
1502 Clouds -22 996 99 10000 1.13 97 10:19 14.03.2021
1503 Clouds -22 996 99 10000 1.13 97 09:55 14.03.2021
1504 Clouds -22 996 99 10000 1.13 97 09:36 14.03.2021
1505 Clouds -22 996 99 10000 1.13 97 09:36 14.03.2021
1506 Clouds -19 996 96 5607 0.98 90 09:18 14.03.2021
1507 Clouds -19 996 96 5607 0.98 90 08:36 14.03.2021
1508 Clouds -17 995 92 2670 0.75 105 07:52 14.03.2021
1509 Clouds -17 995 89 2822 1.09 101 07:22 14.03.2021
1510 Clouds -19 995 88 5795 0.92 91 05:33 14.03.2021
1511 Clouds -24 996 90 10000 1 74 00:59 14.03.2021
1512 Clouds -26 997 92 10000 0.97 71 00:20 14.03.2021
1513 Clouds -26 997 92 10000 0.97 71 23:57 13.03.2021
1514 Clouds -26 997 92 10000 0.97 71 23:37 13.03.2021
1515 Clouds -28 997 94 10000 1.1 76 23:18 13.03.2021
1516 Clouds -28 997 94 10000 1.1 76 22:43 13.03.2021
1517 Clouds -29 997 97 10000 1.1 73 21:50 13.03.2021
1518 Clouds -29 997 97 10000 1.1 73 21:30 13.03.2021
1519 Clouds -29 997 97 10000 1.11 74 20:56 13.03.2021
1520 Clouds -29 997 97 10000 1.11 74 20:32 13.03.2021
1521 Clouds -29 998 98 10000 0.97 84 19:58 13.03.2021
1522 Clouds -29 998 98 10000 0.97 84 19:37 13.03.2021
1523 Clouds -29 998 97 10000 1.42 67 19:18 13.03.2021
1524 Clouds -30 999 84 10000 1.39 66 18:40 13.03.2021
1525 Clouds -30 1000 96 10000 1.24 68 18:19 13.03.2021
1526 Clouds -30 1000 96 10000 1.24 68 17:46 13.03.2021
1527 Clouds -29 1000 96 10000 1.36 72 17:27 13.03.2021
1528 Clouds -29 1000 96 10000 1.36 72 16:51 13.03.2021
1529 Clouds -29 1000 96 10000 1.36 72 16:31 13.03.2021
1530 Clouds -29 1001 95 10000 1.43 77 15:54 13.03.2021
1531 Clouds -28 1001 96 10000 1.55 75 14:56 13.03.2021
1532 Clouds -28 1001 96 10000 1.55 75 14:38 13.03.2021
1533 Clouds -28 1002 96 10000 1.61 76 14:18 13.03.2021
1534 Clouds -27 1003 96 10000 1.76 74 13:26 13.03.2021
1535 Clouds -27 1003 96 10000 1.76 74 12:52 13.03.2021
1536 Clouds -28 1003 97 10000 1.67 71 12:30 13.03.2021
1537 Clouds -28 1004 98 10000 1.47 73 11:53 13.03.2021
1538 Clouds -28 1004 98 10000 1.47 73 11:31 13.03.2021
1539 Clouds -27 1004 96 10000 1.66 72 10:56 13.03.2021
1540 Clouds -27 1004 96 10000 1.66 72 10:31 13.03.2021
1541 Clouds -25 1004 94 10000 1.74 69 09:57 13.03.2021
1542 Clouds -25 1004 94 10000 1.74 69 09:31 13.03.2021
1543 Clouds -23 1004 89 10000 1.55 62 08:54 13.03.2021
1544 Clouds -20 1004 86 10000 0.65 73 08:20 13.03.2021
1545 Clouds -20 1004 86 10000 0.65 73 07:57 13.03.2021
1546 Clouds -19 1005 76 10000 0.85 151 07:28 13.03.2021
1547 Clouds -21 1006 74 10000 1.65 159 04:45 13.03.2021
1548 Clouds -26 1009 80 10000 0.91 159 01:22 13.03.2021
1549 Clouds -29 1010 82 10000 0.92 182 00:24 13.03.2021
1550 Clouds -29 1010 82 10000 0.92 182 23:33 12.03.2021
1551 Clouds -31 1010 84 10000 1 180 22:57 12.03.2021
1552 Clouds -31 1010 84 10000 1 180 22:30 12.03.2021
1553 Clouds -31 1010 85 10000 1.1 175 21:56 12.03.2021
1554 Clouds -31 1010 85 10000 1.1 175 21:37 12.03.2021
1555 Clouds -31 1010 85 10000 1.1 175 21:37 12.03.2021
1556 Clouds -31 1009 85 10000 1.18 168 21:18 12.03.2021
1557 Clouds -31 1009 85 10000 1.18 168 20:47 12.03.2021
1558 Clear -30 1010 85 10000 1.26 178 20:22 12.03.2021
1559 Clear -30 1010 85 10000 1.26 178 19:44 12.03.2021
1560 Clear -30 1010 85 10000 1.24 186 19:25 12.03.2021
1561 Clear -30 1010 80 10000 1.1 176 18:47 12.03.2021
1562 Clear -29 1010 86 10000 1.21 181 18:25 12.03.2021
1563 Clear -29 1010 86 10000 1.21 181 17:43 12.03.2021
1564 Clear -29 1010 85 10000 1.25 176 17:24 12.03.2021
1565 Clear -29 1010 85 10000 1.25 176 16:44 12.03.2021
1566 Clear -28 1010 85 10000 1.14 168 16:23 12.03.2021
1567 Clear -28 1010 85 10000 1.14 168 16:23 12.03.2021
1568 Clear -28 1010 85 10000 1.14 168 15:38 12.03.2021
1569 Clear -28 1010 85 10000 1.1 167 14:53 12.03.2021
1570 Clear -27 1010 84 10000 1.22 163 14:22 12.03.2021
1571 Clear -27 1010 84 10000 1.22 163 13:58 12.03.2021
1572 Clear -27 1010 84 10000 1.22 163 13:58 12.03.2021
1573 Clear -27 1010 84 10000 1.22 163 13:37 12.03.2021
1574 Clouds -26 1010 82 10000 1.37 153 13:18 12.03.2021
1575 Clouds -26 1010 82 10000 1.37 153 12:48 12.03.2021
1576 Clouds -25 1010 82 10000 1.64 160 12:27 12.03.2021
1577 Clouds -25 1010 82 10000 1.64 160 11:54 12.03.2021
1578 Clouds -25 1010 82 10000 1.64 160 11:54 12.03.2021
1579 Clouds -25 1010 83 10000 1.86 158 11:24 12.03.2021
1580 Clouds -25 1010 83 10000 1.86 158 10:57 12.03.2021
1581 Clouds -24 1009 84 10000 1.95 154 10:28 12.03.2021
1582 Clouds -24 1009 84 10000 1.95 154 10:28 12.03.2021
1583 Clouds -24 1009 84 10000 1.95 154 09:58 12.03.2021
1584 Clear -21 1009 84 10000 2.14 166 09:27 12.03.2021
1585 Clear -21 1009 84 10000 2.14 166 08:50 12.03.2021
1586 Clear -21 1009 84 10000 2.14 166 08:30 12.03.2021
1587 Clear -19 1008 84 10000 2.46 191 07:41 12.03.2021
1588 Clear -19 1008 83 10000 3.51 208 07:18 12.03.2021
1589 Clouds -19 1009 77 10000 3.72 204 06:39 12.03.2021
1590 Clear -22 1010 75 10000 3.4 198 03:28 12.03.2021
1591 Clouds -25 1011 81 10000 2.7 191 00:52 12.03.2021
1592 Clouds -27 1011 79 10000 2.82 187 23:40 11.03.2021
1593 Clouds -28 1011 79 10000 3.19 189 22:58 11.03.2021
1594 Clouds -28 1011 79 10000 3.19 189 22:36 11.03.2021
1595 Clouds -28 1011 78 10000 3.35 190 21:59 11.03.2021
1596 Clouds -28 1011 78 10000 3.35 190 21:41 11.03.2021
1597 Clouds -27 1010 78 10000 3.51 194 21:20 11.03.2021
1598 Clouds -27 1010 78 10000 3.51 194 20:48 11.03.2021
1599 Clouds -27 1010 77 10000 3.57 192 20:21 11.03.2021
1600 Clouds -27 1010 77 10000 3.57 192 19:47 11.03.2021
1601 Clear -26 1010 76 10000 3.28 193 19:29 11.03.2021
1602 Clear -27 1010 76 10000 3.3 190 18:49 11.03.2021
1603 Clear -27 1010 76 10000 3.3 190 18:31 11.03.2021
1604 Clear -26 1010 75 10000 3.01 198 17:50 11.03.2021
1605 Clear -26 1010 75 10000 3.01 198 17:30 11.03.2021
1606 Clear -26 1010 74 10000 2.93 201 16:31 11.03.2021
1607 Clear -25 1010 75 10000 2.91 205 15:50 11.03.2021
1608 Clear -25 1010 75 10000 2.91 205 15:31 11.03.2021
1609 Clear -25 1010 74 10000 2.99 209 14:58 11.03.2021
1610 Clear -25 1010 74 10000 2.99 209 14:38 11.03.2021
1611 Clear -24 1010 73 10000 2.97 212 14:18 11.03.2021
1612 Clear -24 1010 73 10000 2.97 212 13:43 11.03.2021
1613 Clouds -23 1010 79 10000 2.81 215 13:21 11.03.2021
1614 Clouds -23 1010 74 10000 2.81 215 12:49 11.03.2021
1615 Clouds -22 1009 76 10000 2.52 221 12:27 11.03.2021
1616 Clouds -22 1009 76 10000 2.52 221 11:45 11.03.2021
1617 Clouds -21 1008 76 10000 2.61 226 11:27 11.03.2021
1618 Clouds -21 1008 76 10000 2.61 226 10:50 11.03.2021
1619 Clouds -19 1007 83 10000 2.7 235 10:22 11.03.2021
1620 Clouds -19 1007 83 10000 2.7 235 09:48 11.03.2021
1621 Clouds -17 1006 85 10000 2.56 239 09:29 11.03.2021
1622 Clouds -17 1006 85 10000 2.56 239 08:48 11.03.2021
1623 Clouds -16 1006 87 10000 1.4 249 08:24 11.03.2021
1624 Clouds -16 1006 87 10000 1.4 249 07:44 11.03.2021
1625 Clouds -16 1006 85 10000 1.23 242 06:51 11.03.2021
1626 Clouds -16 1006 85 10000 1.23 242 06:32 11.03.2021
1627 Clouds -16 1005 83 10000 1.62 231 05:46 11.03.2021
1628 Clouds -19 1004 83 10000 1.6 213 02:20 11.03.2021
1629 -273 0 0 0 0 0 23:56 10.03.2021
1630 Clouds -22 1001 81 10000 3.37 207 23:22 10.03.2021
1631 Clouds -22 1001 81 10000 3.37 207 22:39 10.03.2021
1632 Clouds -21 1001 81 10000 3.49 206 21:57 10.03.2021
1633 Clouds -21 1001 81 10000 3.49 206 21:38 10.03.2021
1634 Clouds -20 1000 82 10000 3.56 203 21:20 10.03.2021
1635 Clouds -19 999 83 10000 3.47 202 20:42 10.03.2021
1636 Clouds -19 999 84 10000 3.16 203 20:21 10.03.2021
1637 Clouds -19 999 84 10000 3.16 203 19:40 10.03.2021
1638 Clouds -19 999 84 10000 3.16 203 19:40 10.03.2021
1639 Clouds -17 999 85 10000 3.61 207 19:21 10.03.2021
1640 Clouds -17 999 85 10000 3.61 207 19:21 10.03.2021
1641 Clouds -17 999 85 10000 3.61 207 18:42 10.03.2021
1642 Clouds -16 998 85 10000 4.2 211 18:23 10.03.2021
1643 Clouds -16 998 85 10000 4.2 211 17:42 10.03.2021
1644 Clouds -16 998 85 10000 4.62 219 17:21 10.03.2021
1645 Clouds -16 998 85 10000 4.62 219 16:55 10.03.2021
1646 Clouds -16 998 85 10000 4.62 219 16:37 10.03.2021
1647 Clouds -16 998 85 10000 4.93 219 16:18 10.03.2021
1648 Clouds -16 998 85 10000 4.93 219 15:40 10.03.2021
1649 Clouds -15 997 84 10000 5.25 219 15:21 10.03.2021
1650 Clouds -15 997 84 10000 5.25 219 14:41 10.03.2021
1651 Clouds -15 997 85 10000 5.56 218 14:19 10.03.2021
1652 Clouds -15 997 85 10000 5.56 218 13:46 10.03.2021
1653 Clouds -14 997 86 10000 5.5 215 13:24 10.03.2021
1654 Clouds -14 996 86 10000 5.7 214 12:44 10.03.2021
1655 Clouds -14 996 87 10000 5.57 211 12:18 10.03.2021
1656 Clouds -14 996 87 10000 5.57 211 11:32 10.03.2021
1657 Clouds -14 996 87 10000 5.57 211 11:32 10.03.2021
1658 Clouds -13 995 87 10000 5.54 208 10:57 10.03.2021
1659 Clouds -13 995 87 10000 5.54 208 10:37 10.03.2021
1660 Clouds -12 995 87 10000 5.55 202 10:19 10.03.2021
1661 Clouds -12 995 87 10000 5.55 202 09:42 10.03.2021
1662 Clouds -11 994 87 10000 6 201 09:21 10.03.2021
1663 Clouds -11 994 87 10000 6 201 08:50 10.03.2021
1664 Clouds -10 994 87 10000 7.16 207 08:28 10.03.2021
1665 Clouds -10 994 87 10000 7.16 207 07:58 10.03.2021
1666 Clouds -10 994 87 10000 7.16 207 07:30 10.03.2021
1667 Clouds -10 994 87 10000 7.16 207 07:30 10.03.2021
1668 Clouds -10 994 87 10000 8.61 206 06:56 10.03.2021
1669 Clouds -10 994 89 10000 9.35 207 06:25 10.03.2021
1670 Snow -14 997 91 1280 5.12 184 02:27 10.03.2021
1671 Snow -18 998 90 243 2.48 153 23:49 09.03.2021
1672 Clouds -19 998 88 788 2.32 154 23:19 09.03.2021
1673 Clouds -19 998 88 788 2.32 154 22:39 09.03.2021
1674 Clouds -21 999 84 10000 2.39 161 22:18 09.03.2021
1675 Clouds -21 999 84 10000 2.39 161 21:45 09.03.2021
1676 Clouds -21 999 84 10000 2.5 169 21:24 09.03.2021
1677 Clouds -21 999 84 10000 2.5 169 20:58 09.03.2021
1678 Clouds -21 999 84 10000 2.5 169 20:39 09.03.2021
1679 Clouds -21 999 84 10000 2.39 171 20:20 09.03.2021
1680 Clouds -21 999 84 10000 2.39 171 19:47 09.03.2021
1681 Clouds -21 1000 84 10000 2.17 172 19:26 09.03.2021
1682 Clouds -25 1001 83 10000 1.64 159 18:48 09.03.2021
1683 Clouds -25 1001 84 10000 1.55 159 18:26 09.03.2021
1684 Clouds -25 1001 84 10000 1.55 159 17:53 09.03.2021
1685 Clouds -25 1001 84 10000 1.55 159 17:30 09.03.2021
1686 Clouds -25 1001 85 10000 1.54 160 16:55 09.03.2021
1687 Clouds -25 1001 85 10000 1.54 160 16:36 09.03.2021
1688 Clouds -24 1002 85 10000 1.3 169 16:18 09.03.2021
1689 Clouds -24 1002 85 10000 1.3 169 15:40 09.03.2021
1690 Clouds -23 1002 85 10000 1.18 155 15:20 09.03.2021
1691 Clouds -23 1003 85 10000 0.95 158 14:28 09.03.2021
1692 Clouds -23 1003 85 10000 0.95 158 13:57 09.03.2021
1693 Clouds -23 1003 85 10000 0.95 158 13:38 09.03.2021
1694 Clouds -23 1003 85 10000 0.82 151 13:19 09.03.2021
1695 Clouds -23 1003 85 10000 1.09 145 12:39 09.03.2021
1696 Clouds -23 1003 85 10000 1.07 129 12:18 09.03.2021
1697 Clouds -23 1003 85 10000 1.07 129 11:41 09.03.2021
1698 Clouds -24 1003 86 10000 1.01 123 11:21 09.03.2021
1699 Clouds -24 1003 86 10000 1.01 123 10:54 09.03.2021
1700 Clouds -24 1003 86 10000 1.01 123 10:36 09.03.2021
1701 Clouds -25 1003 86 10000 0.71 139 10:18 09.03.2021
1702 Clouds -25 1003 86 10000 0.71 139 09:41 09.03.2021
1703 Clouds -23 1003 86 10000 0.73 170 09:22 09.03.2021
1704 Clouds -23 1003 86 10000 0.73 170 08:37 09.03.2021
1705 Clouds -21 1003 87 10000 0.99 191 08:18 09.03.2021
1706 Clouds -21 1003 87 10000 0.99 191 07:37 09.03.2021
1707 Clouds -20 1004 85 10000 1.72 193 07:19 09.03.2021
1708 Clouds -21 1004 85 10000 1.7 181 05:55 09.03.2021
1709 Clouds -21 1004 85 10000 1.7 181 05:35 09.03.2021
1710 Clouds -29 1006 86 6835 0.65 198 00:29 09.03.2021
1711 Clouds -29 1006 86 6835 0.65 198 23:42 08.03.2021
1712 Clouds -30 1006 85 6802 0.25 203 23:23 08.03.2021
1713 Clouds -30 1006 85 6802 0.25 203 22:45 08.03.2021
1714 Clouds -29 1006 86 7304 0.43 254 22:27 08.03.2021
1715 Clouds -29 1006 86 7304 0.43 254 21:56 08.03.2021
1716 Clouds -29 1006 86 7304 0.43 254 21:35 08.03.2021
1717 Clouds -28 1005 86 6290 0.47 245 20:47 08.03.2021
1718 Clouds -27 1005 87 4560 0.07 145 20:27 08.03.2021
1719 Clouds -27 1005 87 4560 0.07 145 19:59 08.03.2021
1720 Clouds -27 1005 87 4560 0.07 145 19:36 08.03.2021
1721 Clouds -27 1005 86 7241 0.71 33 18:42 08.03.2021
1722 Clouds -27 1004 87 7535 0.81 34 18:23 08.03.2021
1723 Clouds -27 1004 87 7535 0.81 34 17:56 08.03.2021
1724 Clouds -27 1004 87 7535 0.81 34 17:38 08.03.2021
1725 Clouds -26 1004 87 8876 0.72 41 16:55 08.03.2021
1726 Clouds -26 1003 87 10000 0.76 40 16:29 08.03.2021
1727 Clouds -26 1003 87 10000 0.76 40 15:52 08.03.2021
1728 Clouds -26 1003 87 10000 0.76 40 15:52 08.03.2021
1729 Clouds -26 1003 87 10000 0.74 49 15:29 08.03.2021
1730 Clouds -26 1003 87 10000 0.74 49 14:51 08.03.2021
1731 Clouds -27 1003 87 10000 0.93 56 14:20 08.03.2021
1732 Clouds -27 1003 87 10000 0.93 56 13:44 08.03.2021
1733 Clouds -26 1002 87 10000 1.04 56 13:21 08.03.2021
1734 Clouds -27 1002 87 10000 0.96 70 12:49 08.03.2021
1735 Clouds -26 1002 87 10000 1.07 66 12:28 08.03.2021
1736 Clouds -26 1002 87 10000 1.07 66 11:44 08.03.2021
1737 Clouds -25 1001 87 10000 1.24 61 11:19 08.03.2021
1738 Clouds -25 1001 87 10000 1.24 61 10:44 08.03.2021
1739 Clouds -25 1001 86 10000 1.44 54 10:26 08.03.2021
1740 Clouds -25 1001 86 10000 1.44 54 09:42 08.03.2021
1741 Clouds -23 1000 86 10000 1.48 40 09:23 08.03.2021
1742 Clouds -21 999 85 10000 0.82 44 08:29 08.03.2021
1743 Clouds -21 999 85 10000 0.82 44 07:41 08.03.2021
1744 Clouds -21 1000 81 10000 0.9 151 07:20 08.03.2021
1745 Clouds -24 1000 80 10000 1.48 126 04:28 08.03.2021
1746 Clouds -28 1003 80 10000 0.96 110 01:26 08.03.2021
1747 Clouds -28 1003 80 10000 0.96 110 00:33 08.03.2021
1748 Clouds -29 1004 81 10000 0.87 112 23:41 07.03.2021
1749 Clouds -30 1005 80 10000 1.03 113 23:20 07.03.2021
1750 Clouds -30 1005 80 10000 1.03 113 22:44 07.03.2021
1751 Clouds -30 1005 80 10000 1.03 113 22:44 07.03.2021
1752 Clouds -31 1005 80 10000 1.17 115 22:26 07.03.2021
1753 Clouds -31 1005 80 10000 1.17 115 21:46 07.03.2021
1754 Clouds -31 1006 80 10000 1.08 115 21:26 07.03.2021
1755 Clouds -31 1006 80 10000 1.08 115 20:49 07.03.2021
1756 Clouds -31 1006 80 10000 1.08 115 20:31 07.03.2021
1757 Clouds -31 1006 81 10000 0.89 116 19:58 07.03.2021
1758 Clouds -31 1006 81 10000 0.89 116 19:39 07.03.2021
1759 Clouds -31 1007 81 10000 0.94 117 19:20 07.03.2021
1760 Clouds -31 1007 81 10000 0.96 126 18:47 07.03.2021
1761 Clouds -31 1008 81 10000 1.06 123 18:20 07.03.2021
1762 Clouds -31 1008 81 10000 1.06 123 17:44 07.03.2021
1763 Clouds -31 1009 81 10000 1.1 127 17:21 07.03.2021
1764 Clouds -31 1009 81 10000 1.1 127 17:21 07.03.2021
1765 Clouds -31 1009 81 10000 1.1 127 16:59 07.03.2021
1766 Clouds -31 1009 81 10000 1.1 127 16:39 07.03.2021
1767 Clouds -31 1009 81 10000 1.1 127 16:39 07.03.2021
1768 Clouds -32 1010 81 10000 1.11 132 16:19 07.03.2021
1769 Clouds -32 1010 81 10000 1.11 132 15:45 07.03.2021
1770 Clouds -32 1011 82 10000 1.1 148 15:24 07.03.2021
1771 Clouds -32 1011 82 10000 1.1 148 14:39 07.03.2021
1772 Clouds -32 1011 82 10000 1.19 183 14:21 07.03.2021
1773 Clouds -32 1011 82 10000 1.19 183 13:42 07.03.2021
1774 Clouds -31 1012 82 10000 1.25 188 13:23 07.03.2021
1775 Clouds -31 1012 82 10000 1.25 188 12:47 07.03.2021
1776 Clouds -31 1012 82 10000 1.3 179 12:29 07.03.2021
1777 Clouds -31 1012 82 10000 1.3 179 11:49 07.03.2021
1778 Clouds -30 1013 83 10000 1.12 162 11:22 07.03.2021
1779 Clouds -30 1013 83 10000 1.12 162 10:49 07.03.2021
1780 Clouds -30 1013 83 10000 1.12 162 10:30 07.03.2021
1781 Clouds -29 1013 83 10000 0.96 171 09:46 07.03.2021
1782 Clouds -28 1013 83 10000 0.85 203 09:25 07.03.2021
1783 Clouds -28 1013 83 10000 0.85 203 08:46 07.03.2021
1784 Clouds -26 1014 84 10000 1.25 215 08:25 07.03.2021
1785 Clouds -26 1014 84 10000 1.25 215 07:51 07.03.2021
1786 Clouds -28 1017 82 10000 1.93 208 02:43 07.03.2021
1787 Clouds -29 1018 83 10000 1.56 209 01:45 07.03.2021
1788 Clouds -31 1019 83 10000 1.55 215 23:56 06.03.2021
1789 Clouds -31 1019 83 10000 1.55 215 23:37 06.03.2021
1790 Clouds -32 1019 82 10000 1.56 213 22:52 06.03.2021
1791 Clouds -32 1019 82 10000 1.56 213 22:30 06.03.2021
1792 Clouds -32 1020 82 10000 1.55 213 21:59 06.03.2021
1793 Clouds -32 1020 82 10000 1.64 213 21:25 06.03.2021
1794 Clouds -32 1020 82 10000 1.64 213 20:55 06.03.2021
1795 Clouds -32 1020 82 10000 1.64 213 20:36 06.03.2021
1796 Clouds -32 1020 83 10000 1.43 207 19:50 06.03.2021
1797 Clouds -32 1021 83 10000 1.39 218 19:23 06.03.2021
1798 Clouds -33 1021 82 10000 1.38 220 18:57 06.03.2021
1799 Clouds -33 1021 82 10000 1.38 220 18:38 06.03.2021
1800 Clouds -32 1021 82 10000 1.43 219 18:19 06.03.2021
1801 Clouds -32 1021 82 10000 1.43 219 17:47 06.03.2021
1802 Clouds -32 1022 82 10000 1.21 206 17:26 06.03.2021
1803 Clouds -32 1022 82 10000 1.21 206 16:52 06.03.2021
1804 Clouds -32 1022 82 10000 1.21 206 16:30 06.03.2021
1805 Clouds -32 1023 82 10000 0.82 195 15:55 06.03.2021
1806 Clouds -32 1023 82 10000 0.82 195 15:34 06.03.2021
1807 Clouds -32 1023 82 10000 0.88 211 14:54 06.03.2021
1808 Clouds -32 1023 82 10000 0.88 211 14:31 06.03.2021
1809 Clouds -32 1023 82 10000 1.25 209 13:46 06.03.2021
1810 Clouds -32 1024 83 10000 1.02 190 13:24 06.03.2021
1811 Clouds -32 1023 83 10000 0.93 189 12:48 06.03.2021
1812 Clouds -32 1024 83 10000 1.05 198 12:20 06.03.2021
1813 Clouds -32 1024 83 10000 1.05 198 11:59 06.03.2021
1814 Clouds -32 1024 83 10000 1.06 209 11:27 06.03.2021
1815 Clouds -32 1024 83 10000 1.06 209 10:54 06.03.2021
1816 Clouds -32 1024 83 10000 1.06 209 10:36 06.03.2021
1817 Clouds -32 1024 84 10000 0.84 208 09:56 06.03.2021
1818 Clouds -30 1024 84 10000 0.53 201 09:21 06.03.2021
1819 Clouds -30 1024 84 10000 0.53 201 08:54 06.03.2021
1820 Clouds -27 1024 84 10000 0.45 222 08:30 06.03.2021
1821 Clouds -27 1024 84 10000 0.35 215 07:43 06.03.2021
1822 Clouds -26 1024 83 10000 0.8 240 07:21 06.03.2021
1823 Clouds -26 1025 82 10000 0.87 241 05:50 06.03.2021
1824 Clouds -28 1026 82 9219 1.14 248 03:36 06.03.2021
1825 Clouds -29 1027 84 10000 0.86 237 01:32 06.03.2021
1826 Clouds -31 1027 84 10000 0.98 237 00:46 06.03.2021
1827 Clouds -33 1027 83 9607 0.94 240 23:44 05.03.2021
1828 Clouds -33 1028 83 6354 0.77 244 23:19 05.03.2021
1829 Clouds -33 1028 83 6354 0.77 244 22:43 05.03.2021
1830 Clouds -33 1028 83 6755 0.64 254 22:20 05.03.2021
1831 Clouds -33 1028 83 6755 0.64 254 21:43 05.03.2021
1832 Clouds -33 1028 83 6090 0.83 264 21:25 05.03.2021
1833 Clouds -33 1028 83 6090 0.83 264 20:47 05.03.2021
1834 Clouds -33 1028 84 6240 0.6 264 20:25 05.03.2021
1835 Clouds -33 1028 84 6240 0.6 264 19:48 05.03.2021
1836 Clouds -33 1028 83 9926 0.26 313 19:22 05.03.2021
1837 Clouds -33 1028 83 9926 0.26 313 18:45 05.03.2021
1838 Clouds -33 1028 83 10000 0.32 318 18:26 05.03.2021
1839 Clouds -33 1028 83 10000 0.32 318 18:26 05.03.2021
1840 Clouds -33 1028 83 10000 0.32 318 17:51 05.03.2021
1841 Clouds -33 1028 83 10000 0.32 318 17:33 05.03.2021
1842 Clouds -32 1028 84 9554 0.45 285 16:44 05.03.2021
1843 Clouds -32 1028 84 8266 0.54 285 16:24 05.03.2021
1844 Clouds -32 1028 84 8266 0.54 285 16:24 05.03.2021
1845 Clouds -32 1028 84 8266 0.54 285 15:55 05.03.2021
1846 Clouds -31 1028 84 8523 0.63 288 15:27 05.03.2021
1847 Clouds -31 1028 99 9196 0.79 295 14:53 05.03.2021
1848 Clouds -31 1028 99 9196 0.79 295 14:34 05.03.2021
1849 Clouds -31 1028 99 9606 0.85 294 13:46 05.03.2021
1850 Clouds -31 1028 99 10000 0.92 295 13:21 05.03.2021
1851 Clouds -31 1028 99 10000 0.92 295 12:47 05.03.2021
1852 Clouds -30 1027 99 10000 0.82 307 11:40 05.03.2021
1853 Clouds -30 1027 99 10000 0.7 300 11:21 05.03.2021
1854 Clouds -30 1027 99 10000 0.7 300 10:57 05.03.2021
1855 Clouds -30 1027 99 10000 0.7 300 10:57 05.03.2021
1856 Clouds -30 1027 99 10000 0.7 300 10:37 05.03.2021
1857 Clouds -29 1027 99 10000 0.65 272 10:19 05.03.2021
1858 Clouds -29 1027 99 10000 0.65 272 09:45 05.03.2021
1859 Clouds -28 1026 97 10000 0.52 263 09:26 05.03.2021
1860 Clouds -28 1026 97 10000 0.52 263 08:39 05.03.2021
1861 Clouds -25 1026 93 9375 0.58 271 08:20 05.03.2021
1862 Clouds -25 1026 93 9375 0.58 271 07:36 05.03.2021
1863 Clouds -24 1025 86 9587 1.63 309 06:44 05.03.2021
1864 Clouds -24 1025 85 7811 1.8 308 06:26 05.03.2021
1865 Clouds -26 1026 93 2501 1.37 286 01:40 05.03.2021
1866 Clouds -28 1025 85 2576 1.01 279 00:19 05.03.2021
1867 Clouds -29 1025 85 2605 1.05 282 23:25 04.03.2021
1868 Clouds -29 1025 85 2605 1.05 282 22:37 04.03.2021
1869 Clouds -29 1025 85 2554 1.06 281 21:56 04.03.2021
1870 Clouds -29 1025 85 2554 1.06 281 21:34 04.03.2021
1871 Clouds -29 1024 84 2675 1.11 280 20:59 04.03.2021
1872 Clouds -29 1024 84 2675 1.11 280 20:59 04.03.2021
1873 Clouds -29 1024 84 2675 1.11 280 20:40 04.03.2021
1874 Clouds -29 1024 84 3433 1.24 282 20:21 04.03.2021
1875 Clouds -29 1024 84 3433 1.24 282 19:53 04.03.2021
1876 Clouds -29 1024 84 3986 1.36 285 19:26 04.03.2021
1877 Clouds -29 1024 84 4342 1.24 286 18:54 04.03.2021
1878 Clouds -29 1024 84 4342 1.24 286 18:30 04.03.2021
1879 Clouds -28 1024 85 5475 1.32 284 17:58 04.03.2021
1880 Clouds -28 1024 85 5475 1.32 284 17:39 04.03.2021
1881 Clouds -28 1024 85 3953 1.33 284 17:18 04.03.2021
1882 Clouds -28 1024 85 3953 1.33 284 16:43 04.03.2021
1883 Clouds -28 1023 85 1617 1.37 285 16:24 04.03.2021
1884 Clouds -28 1023 85 1617 1.37 285 15:46 04.03.2021
1885 Clouds -28 1023 85 1498 1.16 284 15:27 04.03.2021
1886 Clouds -28 1023 85 1498 1.16 284 14:44 04.03.2021
1887 Clouds -28 1023 85 2021 1.02 277 14:18 04.03.2021
1888 Clouds -28 1023 85 2021 1.02 277 13:42 04.03.2021
1889 Clouds -28 1023 85 1991 1.01 280 13:22 04.03.2021
1890 Clouds -28 1023 85 1991 1.01 280 12:42 04.03.2021
1891 Clouds -29 1022 84 2098 0.92 264 12:18 04.03.2021
1892 Clouds -29 1022 84 2098 0.92 264 11:40 04.03.2021
1893 Clouds -29 1022 84 2649 0.93 232 11:20 04.03.2021
1894 Clouds -29 1022 84 2649 0.93 232 10:37 04.03.2021
1895 Clouds -29 1022 84 1821 0.8 187 10:18 04.03.2021
1896 Clouds -29 1021 84 1290 0.79 129 09:28 04.03.2021
1897 Clouds -29 1021 84 1290 0.79 129 08:53 04.03.2021
1898 Clouds -29 1021 84 1290 0.79 129 08:31 04.03.2021
1899 Clouds -28 1021 83 1100 1 69 07:46 04.03.2021
1900 Clouds -30 1021 82 1217 0.95 149 06:50 04.03.2021
1901 Clouds -30 1021 81 1156 0.85 130 06:21 04.03.2021
1902 Clouds -33 1021 79 705 0.94 350 02:39 04.03.2021
1903 Clouds -34 1020 81 604 0.99 286 00:41 04.03.2021
1904 Clouds -35 1020 81 505 0.99 296 22:41 03.03.2021
1905 Clouds -35 1020 81 475 0.98 301 22:23 03.03.2021
1906 Clouds -35 1020 81 475 0.98 301 21:43 03.03.2021
1907 Clouds -35 1020 81 379 1.14 308 21:24 03.03.2021
1908 Clouds -35 1020 81 379 1.14 308 20:55 03.03.2021
1909 Clouds -35 1020 81 379 1.14 308 20:37 03.03.2021
1910 Clouds -35 1020 81 352 1.2 326 19:57 03.03.2021
1911 Clouds -35 1020 81 352 1.2 326 19:38 03.03.2021
1912 Clouds -36 1021 81 403 1.23 330 19:18 03.03.2021
1913 Clouds -36 1021 81 403 1.23 330 18:41 03.03.2021
1914 Clouds -36 1021 81 530 1.47 331 17:59 03.03.2021
1915 Clouds -36 1021 81 530 1.47 331 17:39 03.03.2021
1916 Clouds -37 1021 79 1699 1.68 338 17:18 03.03.2021
1917 Clouds -37 1021 79 1699 1.68 338 16:39 03.03.2021
1918 Clouds -37 1021 79 4804 1.98 351 16:21 03.03.2021
1919 Clouds -37 1021 79 4804 1.98 351 15:33 03.03.2021
1920 Clouds -36 1021 80 3922 2.17 6 14:52 03.03.2021
1921 Clouds -36 1020 81 3024 2.28 8 14:29 03.03.2021
1922 Clouds -36 1020 81 3024 2.28 8 13:52 03.03.2021
1923 Clouds -36 1020 81 2827 2.24 8 13:31 03.03.2021
1924 Clouds -35 1020 81 2067 2.19 10 12:44 03.03.2021
1925 Clouds -34 1020 82 2103 2.03 13 12:24 03.03.2021
1926 Clouds -34 1020 82 2103 2.03 13 11:47 03.03.2021
1927 Clouds -34 1020 82 2088 1.88 19 11:28 03.03.2021
1928 Clouds -34 1020 82 2088 1.88 19 10:48 03.03.2021
1929 Clouds -33 1020 83 1680 1.45 32 10:26 03.03.2021
1930 Clouds -33 1020 83 1680 1.45 32 09:48 03.03.2021
1931 Clouds -32 1020 83 1668 1.16 42 09:24 03.03.2021
1932 Clouds -32 1020 83 1668 1.16 42 08:39 03.03.2021
1933 Clouds -31 1019 82 1767 1.1 16 08:20 03.03.2021
1934 Clouds -31 1019 82 1767 1.1 16 07:41 03.03.2021
1935 Clouds -31 1019 80 2030 1.3 11 06:51 03.03.2021
1936 Clouds -31 1020 79 2048 1.42 355 05:46 03.03.2021
1937 Clouds -32 1020 80 2050 1.31 354 04:58 03.03.2021
1938 Clouds -33 1021 79 2211 1.01 348 04:26 03.03.2021
1939 Clouds -34 1023 80 3310 0.72 308 01:54 03.03.2021
1940 Clouds -37 1024 80 5751 0.89 295 23:58 02.03.2021
1941 Clouds -38 1024 80 6614 0.88 303 23:28 02.03.2021
1942 Clouds -38 1024 80 6614 0.88 303 22:42 02.03.2021
1943 Clouds -38 1025 80 7306 0.8 313 22:19 02.03.2021
1944 Clouds -38 1025 80 7306 0.8 313 21:40 02.03.2021
1945 Clouds -38 1025 79 8409 0.64 327 21:22 02.03.2021
1946 Clouds -38 1025 79 8409 0.64 327 20:47 02.03.2021
1947 Clouds -38 1025 79 8409 0.64 327 20:47 02.03.2021
1948 Clouds -38 1025 79 10000 0.61 326 20:22 02.03.2021
1949 Clouds -38 1025 79 10000 0.61 326 19:56 02.03.2021
1950 Clouds -38 1025 79 10000 0.61 326 19:38 02.03.2021
1951 Clouds -38 1025 79 10000 0.6 316 19:18 02.03.2021
1952 Clouds -38 1025 79 10000 0.72 307 18:40 02.03.2021
1953 Clouds -39 1026 79 10000 0.69 296 18:21 02.03.2021
1954 Clouds -39 1026 79 10000 0.69 296 17:49 02.03.2021
1955 Clouds -39 1026 79 10000 0.69 296 17:30 02.03.2021
1956 Clouds -38 1026 79 10000 0.76 299 16:56 02.03.2021
1957 Clouds -38 1026 79 10000 0.7 312 16:23 02.03.2021
1958 Clouds -38 1026 79 10000 0.7 312 15:51 02.03.2021
1959 Clouds -38 1026 79 10000 0.69 332 15:25 02.03.2021
1960 Clear -38 1026 80 10000 0.8 337 14:24 02.03.2021
1961 Clear -38 1026 80 10000 0.8 337 13:57 02.03.2021
1962 Clear -38 1026 80 10000 0.81 342 13:38 02.03.2021
1963 Clouds -38 1026 80 10000 0.79 350 13:18 02.03.2021
1964 Clouds -38 1026 80 10000 0.79 350 12:30 02.03.2021
1965 Clouds -37 1026 80 10000 0.69 2 11:54 02.03.2021
1966 Clouds -37 1026 80 10000 0.69 2 11:36 02.03.2021
1967 Clouds -37 1026 81 10000 0.61 19 11:18 02.03.2021
1968 Clouds -37 1026 81 10000 0.61 19 10:33 02.03.2021
1969 Clouds -37 1026 81 10000 0.58 37 09:59 02.03.2021
1970 Clouds -37 1026 81 10000 0.58 37 09:40 02.03.2021
1971 Clouds -36 1026 81 10000 0.7 51 09:19 02.03.2021
1972 Clouds -36 1026 81 10000 0.7 51 08:38 02.03.2021
1973 Clouds -33 1025 80 10000 0.73 48 07:58 02.03.2021
1974 Clouds -31 1025 80 10000 0.76 44 07:27 02.03.2021
1975 Clouds -31 1025 80 10000 0.76 44 06:33 02.03.2021
1976 Clouds -31 1025 79 10000 0.72 43 05:45 02.03.2021
1977 Clouds -32 1025 79 10000 0.84 72 05:27 02.03.2021
1978 Clouds -34 1025 81 4750 1.09 49 01:44 02.03.2021
1979 Clouds -34 1025 81 4750 1.09 49 01:44 02.03.2021
1980 Clouds -34 1025 81 4750 1.09 49 01:44 02.03.2021
1981 Clouds -34 1025 81 4750 1.09 49 01:44 02.03.2021
1982 Clouds -34 1025 81 2540 0.8 41 01:26 02.03.2021
1983 Clouds -36 1025 81 3098 0.69 61 00:28 02.03.2021
1984 Clouds -37 1025 81 4005 0.83 71 23:26 01.03.2021
1985 Clouds -37 1025 81 4005 0.83 71 22:42 01.03.2021
1986 Clouds -37 1025 81 5213 0.98 70 22:21 01.03.2021
1987 Clouds -37 1025 81 5213 0.98 70 21:45 01.03.2021
1988 Clouds -35 1025 81 3766 1.08 65 21:23 01.03.2021
1989 Clouds -35 1025 81 3766 1.08 65 21:23 01.03.2021
1990 Clouds -35 1025 81 3766 1.08 65 20:47 01.03.2021
1991 Clouds -35 1024 81 2944 1.07 53 20:27 01.03.2021
1992 Clouds -35 1024 81 2944 1.07 53 19:54 01.03.2021
1993 Clouds -35 1025 81 3726 1.07 51 19:33 01.03.2021
1994 Clouds -36 1024 81 3734 0.93 41 18:46 01.03.2021
1995 Clouds -35 1024 81 3751 0.88 48 18:24 01.03.2021
1996 Clouds -35 1024 81 3751 0.88 48 17:53 01.03.2021
1997 Clouds -35 1024 81 3751 0.88 48 17:30 01.03.2021
1998 Clouds -35 1024 81 3484 0.87 52 16:59 01.03.2021
1999 Clouds -35 1024 81 3484 0.87 52 16:40 01.03.2021
2000 Clouds -35 1024 81 3240 0.92 63 16:22 01.03.2021
2001 Clouds -35 1024 81 3240 0.92 63 15:40 01.03.2021
2002 Clouds -35 1024 81 2788 0.96 66 15:19 01.03.2021
2003 Clouds -35 1024 81 2788 0.96 66 14:44 01.03.2021
2004 Clouds -35 1024 81 3170 1.01 62 14:26 01.03.2021
2005 Clouds -35 1024 81 3170 1.01 62 13:39 01.03.2021
2006 Clouds -35 1024 81 3760 0.95 53 13:21 01.03.2021
2007 Clouds -35 1024 81 3760 0.95 53 12:52 01.03.2021
2008 Clouds -35 1024 81 3760 0.95 53 12:32 01.03.2021
2009 Clouds -35 1024 81 4865 0.85 52 11:59 01.03.2021
2010 Clouds -35 1024 81 4865 0.85 52 11:39 01.03.2021
2011 Clouds -35 1024 81 4223 0.69 60 10:44 01.03.2021
2012 Clouds -35 1024 81 5002 0.76 71 10:23 01.03.2021
2013 Clouds -35 1024 81 5002 0.76 71 09:58 01.03.2021
2014 Clouds -35 1024 81 5002 0.76 71 09:40 01.03.2021
2015 Clouds -35 1023 81 8015 0.77 65 09:21 01.03.2021
2016 Clouds -35 1023 81 8015 0.77 65 08:48 01.03.2021
2017 Clouds -33 1023 81 10000 0.69 62 08:18 01.03.2021
2018 Clouds -31 1023 81 6990 0.91 65 06:53 01.03.2021
2019 Clouds -32 1023 80 8440 0.87 70 04:21 01.03.2021
2020 Clouds -35 1024 80 10000 0.47 79 00:44 01.03.2021
2021 Clouds -37 1024 81 10000 0.57 82 23:36 28.02.2021
2022 Clouds -37 1024 81 10000 0.68 80 22:51 28.02.2021
2023 Clouds -37 1024 81 10000 0.56 91 22:23 28.02.2021
2024 Clouds -37 1024 81 10000 0.56 91 21:51 28.02.2021
2025 Clouds -37 1024 81 10000 0.5 108 21:28 28.02.2021
2026 Clouds -37 1024 81 10000 0.5 108 21:28 28.02.2021
2027 Clouds -37 1024 81 10000 0.5 108 20:56 28.02.2021
2028 Clouds -37 1024 81 10000 0.5 108 20:36 28.02.2021
2029 Clouds -37 1025 81 10000 0.3 126 19:47 28.02.2021
2030 Clouds -37 1024 81 10000 0.09 238 19:28 28.02.2021
2031 Clouds -37 1025 80 10000 0.21 238 18:59 28.02.2021
2032 Clouds -37 1025 80 10000 0.21 238 18:38 28.02.2021
2033 Clear -37 1024 81 10000 0.39 245 18:19 28.02.2021
2034 Clear -37 1024 81 10000 0.39 245 17:46 28.02.2021
2035 Clear -37 1024 81 10000 0.39 245 17:46 28.02.2021
2036 Clear -37 1025 81 10000 0.54 243 17:27 28.02.2021
2037 Clear -37 1025 81 10000 0.54 243 16:53 28.02.2021
2038 Clear -37 1025 81 10000 0.54 243 16:34 28.02.2021
2039 Clear -37 1025 80 10000 0.58 224 15:55 28.02.2021
2040 Clear -37 1025 80 10000 0.58 224 15:36 28.02.2021
2041 Clear -37 1025 81 10000 0.4 175 15:18 28.02.2021
2042 Clear -37 1025 81 10000 0.4 175 14:45 28.02.2021
2043 Clear -37 1025 81 10000 0.2 182 14:24 28.02.2021
2044 Clear -37 1025 81 10000 0.2 182 13:52 28.02.2021
2045 Clear -36 1025 81 10000 0.33 232 13:20 28.02.2021
2046 Clear -36 1025 81 10000 0.33 232 12:56 28.02.2021
2047 Clear -36 1025 81 10000 0.33 232 12:37 28.02.2021
2048 Clear -36 1025 81 10000 0.47 242 12:19 28.02.2021
2049 Clear -36 1025 81 10000 0.47 242 11:44 28.02.2021
2050 Clear -36 1025 81 10000 0.57 239 11:25 28.02.2021
2051 Clear -36 1025 81 10000 0.57 239 10:54 28.02.2021
2052 Clear -36 1026 81 10000 0.4 238 10:28 28.02.2021
2053 Clear -36 1026 81 10000 0.4 238 09:51 28.02.2021
2054 Clear -36 1026 81 10000 0.4 238 09:32 28.02.2021
2055 Clear -35 1025 82 10000 0.22 190 08:50 28.02.2021
2056 Clear -35 1025 82 10000 0.22 190 08:31 28.02.2021
2057 Clear -32 1025 81 10000 0.17 197 07:54 28.02.2021
2058 Clouds -32 1025 81 10000 0.24 196 07:36 28.02.2021
2059 Clouds -30 1024 81 10000 0.2 208 06:55 28.02.2021
2060 Clouds -31 1025 80 10000 0.69 256 05:25 28.02.2021
2061 Clouds -31 1026 80 10000 0.8 254 03:44 28.02.2021
2062 Clouds -33 1027 81 10000 0.28 275 01:55 28.02.2021
2063 Clouds -35 1027 81 10000 0.44 262 00:53 28.02.2021
2064 Clouds -35 1027 81 10000 0.44 262 00:34 28.02.2021
2065 Clear -38 1027 81 10000 0.45 274 23:47 27.02.2021
2066 Clear -38 1027 80 10000 0.47 308 23:20 27.02.2021
2067 Clear -38 1027 80 10000 0.47 308 22:49 27.02.2021
2068 Clear -38 1028 81 10000 0.28 345 22:21 27.02.2021
2069 Clear -38 1028 81 10000 0.28 345 21:48 27.02.2021
2070 Clear -37 1028 81 10000 0.26 17 21:29 27.02.2021
2071 Clear -37 1028 81 10000 0.26 17 20:49 27.02.2021
2072 Clear -37 1028 81 10000 0.26 17 20:31 27.02.2021
2073 Clear -37 1028 81 10000 0.51 38 19:47 27.02.2021
2074 Clear -37 1028 81 10000 0.3 26 19:28 27.02.2021
2075 Clear -38 1028 81 10000 0.3 331 18:55 27.02.2021
2076 Clear -38 1028 81 10000 0.3 331 18:36 27.02.2021
2077 Clear -37 1028 81 10000 0.07 222 18:18 27.02.2021
2078 Clear -37 1028 81 10000 0.07 222 17:41 27.02.2021
2079 Clear -37 1029 81 10000 0.74 50 17:19 27.02.2021
2080 Clear -37 1029 81 10000 0.74 50 16:50 27.02.2021
2081 Clear -37 1029 81 10000 0.62 27 16:28 27.02.2021
2082 Clear -37 1029 81 10000 0.62 27 15:46 27.02.2021
2083 Clear -37 1029 81 10000 0.14 359 15:20 27.02.2021
2084 Clear -37 1029 81 10000 0.14 359 14:41 27.02.2021
2085 Clear -37 1029 81 10000 0.14 359 14:41 27.02.2021
2086 Clear -36 1029 81 10000 0.58 65 14:21 27.02.2021
2087 Clear -36 1029 81 10000 0.46 62 13:47 27.02.2021
2088 Clear -36 1030 81 10000 0.64 53 13:22 27.02.2021
2089 Clear -36 1030 81 10000 0.64 53 12:49 27.02.2021
2090 Clear -36 1030 81 10000 0.55 65 12:26 27.02.2021
2091 Clear -36 1030 81 10000 0.55 65 11:54 27.02.2021
2092 Clear -36 1030 81 10000 0.55 65 11:31 27.02.2021
2093 Clear -35 1030 82 10000 0.63 68 10:59 27.02.2021
2094 Clear -35 1030 82 10000 0.63 68 10:41 27.02.2021
2095 Clear -35 1031 82 10000 0.5 77 10:18 27.02.2021
2096 Clear -35 1031 82 10000 0.5 77 09:35 27.02.2021
2097 Clouds -34 1030 82 10000 0.52 81 08:45 27.02.2021
2098 Clouds -31 1030 82 10000 0.76 66 08:24 27.02.2021
2099 Clouds -31 1030 82 10000 0.76 66 07:59 27.02.2021
2100 Clouds -31 1030 82 10000 0.76 66 07:32 27.02.2021
2101 Clouds -30 1031 80 10000 0.87 93 02:31 27.02.2021
2102 Clouds -32 1032 81 10000 0.86 90 00:33 27.02.2021
2103 Clouds -34 1032 80 10000 0.73 93 23:48 26.02.2021
2104 Clouds -35 1032 81 10000 0.51 99 23:24 26.02.2021
2105 Clouds -35 1032 81 10000 0.51 99 22:42 26.02.2021
2106 Clouds -36 1032 81 10000 0.63 92 22:23 26.02.2021
2107 Clouds -36 1032 81 10000 0.63 92 21:37 26.02.2021
2108 Clouds -35 1032 81 10000 0.74 92 20:59 26.02.2021
2109 Clouds -35 1032 81 10000 0.74 92 20:41 26.02.2021
2110 Clouds -34 1031 81 10000 0.81 83 20:20 26.02.2021
2111 Clouds -34 1031 81 10000 0.81 83 19:40 26.02.2021
2112 Clouds -33 1032 81 10000 0.91 86 19:18 26.02.2021
2113 Clouds -33 1032 81 10000 0.91 86 18:41 26.02.2021
2114 Clouds -33 1032 81 10000 0.81 95 18:21 26.02.2021
2115 Clouds -33 1032 81 10000 0.81 95 17:39 26.02.2021
2116 Clouds -33 1033 81 10000 0.67 103 17:20 26.02.2021
2117 Clouds -33 1033 81 10000 0.67 103 16:49 26.02.2021
2118 Clouds -33 1033 81 10000 0.67 103 16:30 26.02.2021
2119 Clouds -34 1033 81 10000 0.71 96 15:56 26.02.2021
2120 Clouds -34 1033 81 10000 0.71 96 15:36 26.02.2021
2121 Clouds -34 1033 81 10000 0.72 95 15:18 26.02.2021
2122 Clouds -34 1033 81 10000 0.72 95 14:42 26.02.2021
2123 Clouds -34 1034 81 10000 0.77 90 14:24 26.02.2021
2124 Clouds -32 1033 81 10000 0.79 90 13:39 26.02.2021
2125 Clouds -32 1033 81 10000 0.86 94 13:20 26.02.2021
2126 Clouds -32 1033 81 10000 0.86 94 12:34 26.02.2021
2127 Clouds -32 1033 81 10000 0.87 97 11:51 26.02.2021
2128 Clouds -32 1033 81 10000 0.87 97 11:33 26.02.2021
2129 Clouds -32 1034 82 10000 0.72 97 10:46 26.02.2021
2130 Clouds -32 1034 82 10000 0.66 81 09:55 26.02.2021
2131 Clouds -32 1034 82 10000 0.66 81 09:31 26.02.2021
2132 Clouds -33 1034 82 10000 0.67 73 08:54 26.02.2021
2133 Clouds -31 1033 82 10000 0.78 76 08:25 26.02.2021
2134 Clouds -31 1033 82 10000 0.78 76 07:49 26.02.2021
2135 Clouds -31 1033 82 10000 0.78 76 07:49 26.02.2021
2136 Clouds -29 1033 83 10000 0.7 85 06:36 26.02.2021
2137 Clouds -29 1033 81 10000 0.73 95 05:31 26.02.2021
2138 Clouds -30 1034 81 10000 0.49 122 03:47 26.02.2021
2139 Clouds -31 1035 81 10000 0.62 112 02:35 26.02.2021
2140 Clouds -36 1035 81 8464 0.65 121 23:57 25.02.2021
2141 Clouds -36 1035 81 10000 0.51 119 23:28 25.02.2021
2142 Clouds -36 1035 81 10000 0.51 119 22:50 25.02.2021
2143 Clouds -36 1035 82 10000 0.53 115 22:19 25.02.2021
2144 Clouds -36 1035 82 10000 0.53 115 21:42 25.02.2021
2145 Clouds -35 1035 82 10000 0.67 99 21:23 25.02.2021
2146 Clouds -35 1035 82 10000 0.67 99 20:41 25.02.2021
2147 Clouds -35 1034 82 7596 0.62 100 20:22 25.02.2021
2148 Clouds -35 1034 82 7596 0.62 100 19:52 25.02.2021
2149 Clouds -35 1035 82 10000 0.59 103 19:22 25.02.2021
2150 Clouds -35 1035 82 10000 0.59 103 18:57 25.02.2021
2151 Clouds -35 1035 82 8845 0.65 92 18:27 25.02.2021
2152 Clouds -35 1035 82 8845 0.65 92 17:49 25.02.2021
2153 Clouds -35 1035 82 9168 0.66 103 17:26 25.02.2021
2154 Clouds -35 1035 82 9168 0.66 103 16:48 25.02.2021
2155 Clouds -34 1034 82 10000 0.83 98 16:25 25.02.2021
2156 Clouds -34 1034 82 10000 0.83 98 15:31 25.02.2021
2157 Clouds -34 1034 83 10000 0.82 92 14:58 25.02.2021
2158 Clouds -34 1034 83 10000 0.79 97 14:26 25.02.2021
2159 Clouds -34 1034 83 10000 0.79 97 13:55 25.02.2021
2160 Clouds -34 1034 82 10000 0.73 101 13:27 25.02.2021
2161 Clouds -34 1034 82 10000 0.73 101 12:56 25.02.2021
2162 Clouds -33 1034 82 10000 0.69 104 12:22 25.02.2021
2163 Clouds -33 1034 82 10000 0.69 104 11:47 25.02.2021
2164 Clouds -32 1034 82 10000 0.7 102 11:21 25.02.2021
2165 Clouds -32 1034 82 10000 0.7 102 10:46 25.02.2021
2166 Clouds -32 1033 82 10000 0.78 95 10:26 25.02.2021
2167 Clouds -32 1033 82 10000 0.78 95 09:43 25.02.2021
2168 Clouds -31 1033 82 10000 0.83 84 08:57 25.02.2021
2169 Clouds -29 1033 82 10000 0.84 79 08:25 25.02.2021
2170 Clouds -29 1033 82 10000 0.84 79 07:57 25.02.2021
2171 Clouds -29 1033 82 10000 0.84 79 07:37 25.02.2021
2172 Clouds -28 1032 82 10000 0.84 89 06:55 25.02.2021
2173 Clouds -28 1033 81 10000 0.76 97 03:23 25.02.2021
2174 Clouds -29 1033 82 10000 0.64 93 01:38 25.02.2021
2175 Clouds -29 1033 82 10000 0.64 93 01:38 25.02.2021
2176 Clouds -29 1033 83 10000 0.56 90 00:42 25.02.2021
2177 Clouds -30 1033 83 10000 0.58 76 23:54 24.02.2021
2178 Clouds -30 1033 83 10000 0.58 76 23:32 24.02.2021
2179 Clouds -30 1033 83 10000 0.56 77 22:46 24.02.2021
2180 Clouds -30 1033 83 10000 0.51 96 22:26 24.02.2021
2181 Clouds -30 1033 83 10000 0.51 96 21:48 24.02.2021
2182 Clouds -30 1033 84 8257 0.47 80 21:24 24.02.2021
2183 Clouds -30 1033 84 8257 0.47 80 20:48 24.02.2021
2184 Clouds -30 1033 84 7158 0.35 93 20:25 24.02.2021
2185 Clouds -30 1033 84 7158 0.35 93 19:40 24.02.2021
2186 Clouds -29 1033 84 6906 0.31 84 19:20 24.02.2021
2187 Clouds -29 1033 84 6906 0.31 84 18:50 24.02.2021
2188 Clouds -29 1033 84 6906 0.31 84 18:50 24.02.2021
2189 Clouds -29 1032 84 5146 0.26 88 18:29 24.02.2021
2190 Clouds -29 1032 84 5146 0.26 88 17:39 24.02.2021
2191 Clouds -29 1032 84 3913 0.38 100 17:21 24.02.2021
2192 Clouds -29 1032 84 3913 0.38 100 16:46 24.02.2021
2193 Clouds -29 1032 84 3923 0.42 82 16:21 24.02.2021
2194 Clouds -29 1032 84 3923 0.42 82 15:50 24.02.2021
2195 Clouds -29 1033 83 5360 0.35 75 15:28 24.02.2021
2196 Clouds -29 1033 83 5360 0.35 75 14:47 24.02.2021
2197 Clouds -29 1033 83 7242 0.19 66 14:27 24.02.2021
2198 Clouds -29 1033 83 7242 0.19 66 13:42 24.02.2021
2199 Clouds -30 1033 83 4801 0.07 103 13:23 24.02.2021
2200 Clouds -30 1033 83 4801 0.07 103 12:55 24.02.2021
2201 Clouds -30 1033 83 4801 0.07 103 12:33 24.02.2021
2202 Clouds -31 1033 82 10000 0.09 112 11:53 24.02.2021
2203 Clouds -31 1033 82 10000 0.09 112 11:30 24.02.2021
2204 Clouds -31 1032 81 10000 0.11 130 10:40 24.02.2021
2205 Clouds -31 1033 81 10000 0.3 147 10:20 24.02.2021
2206 Clouds -32 1033 82 10000 0.29 105 09:24 24.02.2021
2207 Clouds -32 1033 82 10000 0.29 105 08:45 24.02.2021
2208 Clouds -31 1032 82 10000 0.25 27 08:24 24.02.2021
2209 Clouds -31 1032 82 10000 0.25 27 08:24 24.02.2021
2210 Clouds -31 1032 82 10000 0.25 27 07:37 24.02.2021
2211 Clouds -29 1031 82 10000 0.21 315 07:18 24.02.2021
2212 Clouds -30 1031 80 10000 0.37 236 05:25 24.02.2021
2213 Clouds -33 1032 80 10000 0.36 263 01:25 24.02.2021
2214 Clouds -35 1032 79 10000 0.33 252 23:38 23.02.2021
2215 Clouds -35 1031 79 10000 0.17 259 22:46 23.02.2021
2216 Clouds -35 1031 79 10000 0.12 262 22:22 23.02.2021
2217 Clouds -35 1031 79 10000 0.12 262 21:48 23.02.2021
2218 Clouds -36 1031 79 10000 0.16 290 21:25 23.02.2021
2219 Clouds -36 1031 79 10000 0.16 290 20:57 23.02.2021
2220 Clouds -36 1031 79 10000 0.16 290 20:37 23.02.2021
2221 Clouds -36 1031 79 10000 0.29 305 20:19 23.02.2021
2222 Clouds -36 1031 79 10000 0.29 305 19:42 23.02.2021
2223 Clouds -36 1031 80 10000 0.35 264 19:24 23.02.2021
2224 Clouds -36 1031 80 10000 0.35 264 18:44 23.02.2021
2225 Clouds -36 1031 80 10000 0.19 248 18:24 23.02.2021
2226 Clouds -36 1031 80 10000 0.19 248 17:51 23.02.2021
2227 Clouds -36 1030 80 10000 0.13 201 17:27 23.02.2021
2228 Clouds -36 1030 80 10000 0.13 201 16:45 23.02.2021
2229 Clouds -36 1030 80 10000 0.07 55 16:23 23.02.2021
2230 Clouds -36 1030 80 10000 0.07 55 15:46 23.02.2021
2231 Clear -36 1030 80 10000 0.06 37 15:28 23.02.2021
2232 Clear -36 1030 80 10000 0.06 37 14:50 23.02.2021
2233 Clear -36 1030 80 10000 0.1 183 14:28 23.02.2021
2234 Clear -36 1030 80 10000 0.1 183 13:59 23.02.2021
2235 Clear -35 1030 81 10000 0.13 241 13:36 23.02.2021
2236 Clouds -35 1030 81 10000 0.14 227 12:57 23.02.2021
2237 Clouds -35 1029 81 10000 0.08 234 12:28 23.02.2021
2238 Clouds -35 1029 81 10000 0.08 234 11:59 23.02.2021
2239 Clouds -35 1029 81 10000 0.04 318 11:28 23.02.2021
2240 Clouds -35 1029 81 10000 0.04 318 10:56 23.02.2021
2241 Clouds -35 1029 81 10000 0.04 318 10:38 23.02.2021
2242 Clouds -35 1028 81 10000 0.03 160 09:59 23.02.2021
2243 Clouds -35 1028 81 10000 0.03 160 09:41 23.02.2021
2244 Clouds -34 1028 81 10000 0.16 61 09:20 23.02.2021
2245 Clouds -34 1028 81 10000 0.16 61 08:45 23.02.2021
2246 Clouds -32 1028 81 10000 0.31 50 08:20 23.02.2021
2247 Clouds -30 1027 82 10000 0.3 65 06:56 23.02.2021
2248 Clouds -29 1027 79 10000 0.31 72 05:25 23.02.2021
2249 Clouds -31 1027 79 10000 0.42 110 02:37 23.02.2021
2250 Clouds -32 1027 80 10000 0.45 136 02:19 23.02.2021
2251 Clouds -35 1027 80 10000 0.34 90 00:19 23.02.2021
2252 Clouds -35 1027 80 10000 0.34 90 23:32 22.02.2021
2253 Clouds -35 1026 80 10000 0.42 104 22:43 22.02.2021
2254 Clouds -35 1026 80 10000 0.6 102 22:23 22.02.2021
2255 Clouds -35 1026 80 10000 0.6 102 21:58 22.02.2021
2256 Clouds -35 1026 80 10000 0.6 102 21:38 22.02.2021
2257 Clouds -34 1026 80 10000 0.6 88 21:20 22.02.2021
2258 Clouds -34 1026 80 10000 0.6 88 20:44 22.02.2021
2259 Clouds -34 1026 80 10000 0.67 99 20:25 22.02.2021
2260 Clouds -34 1026 80 10000 0.67 99 19:46 22.02.2021
2261 Clouds -34 1026 80 10000 0.78 97 19:28 22.02.2021
2262 Clouds -34 1026 80 10000 0.78 97 18:48 22.02.2021
2263 Clouds -33 1025 80 10000 0.78 100 18:29 22.02.2021
2264 Clouds -33 1025 80 10000 0.78 100 17:49 22.02.2021
2265 Clouds -32 1025 80 10000 0.77 84 17:20 22.02.2021
2266 Clouds -32 1025 80 10000 0.77 84 16:50 22.02.2021
2267 Clouds -32 1025 81 10000 0.76 84 16:29 22.02.2021
2268 Clouds -32 1025 81 10000 0.76 84 15:32 22.02.2021
2269 Clouds -32 1025 81 10000 0.83 94 14:54 22.02.2021
2270 Clouds -32 1025 81 10000 0.83 94 14:35 22.02.2021
2271 Clouds -31 1025 81 10000 0.88 84 13:58 22.02.2021
2272 Clouds -31 1025 81 10000 0.88 84 13:36 22.02.2021
2273 Clouds -31 1025 81 10000 0.82 83 12:52 22.02.2021
2274 Clouds -31 1025 81 10000 0.85 85 12:23 22.02.2021
2275 Clouds -31 1025 81 10000 0.85 85 11:56 22.02.2021
2276 Clouds -31 1025 81 10000 0.85 85 11:32 22.02.2021
2277 Clouds -32 1025 81 10000 0.87 89 10:59 22.02.2021
2278 Clouds -32 1025 81 10000 0.87 89 10:40 22.02.2021
2279 Clouds -32 1025 81 10000 0.92 86 10:20 22.02.2021
2280 Clouds -32 1025 81 10000 0.92 86 09:38 22.02.2021
2281 Clouds -32 1024 81 10000 0.92 75 09:19 22.02.2021
2282 Clouds -32 1024 81 10000 0.92 75 08:49 22.02.2021
2283 Clouds -31 1024 81 10000 0.76 81 08:21 22.02.2021
2284 Clouds -31 1024 81 10000 0.76 81 07:48 22.02.2021
2285 Clouds -30 1024 79 10000 0.71 94 07:22 22.02.2021
2286 Clouds -31 1024 79 10000 0.92 87 06:27 22.02.2021
2287 Clouds -32 1024 78 10000 0.75 103 04:28 22.02.2021
2288 Clouds -33 1025 78 10000 0.78 105 03:23 22.02.2021
2289 Clouds -34 1025 79 10000 0.65 110 01:59 22.02.2021
2290 Clouds -35 1025 78 10000 0.55 105 00:44 22.02.2021
2291 Clouds -36 1024 78 10000 0.43 106 00:18 22.02.2021
2292 Clouds -36 1024 78 10000 0.58 127 23:26 21.02.2021
2293 Clouds -36 1024 78 10000 0.58 127 22:36 21.02.2021
2294 Clouds -36 1024 78 10000 0.58 114 21:53 21.02.2021
2295 Clouds -36 1024 78 10000 0.58 114 21:35 21.02.2021
2296 Clouds -37 1025 78 10000 0.54 107 20:58 21.02.2021
2297 Clouds -37 1025 78 10000 0.54 107 20:39 21.02.2021
2298 Clouds -37 1025 78 10000 0.54 114 20:18 21.02.2021
2299 Clouds -37 1025 78 10000 0.54 114 19:46 21.02.2021
2300 Clouds -37 1024 78 10000 0.34 124 19:26 21.02.2021
2301 Clouds -37 1024 78 10000 0.34 124 18:39 21.02.2021
2302 Clouds -37 1024 78 10000 0.4 160 18:21 21.02.2021
2303 Clouds -37 1024 78 10000 0.42 150 17:29 21.02.2021
2304 Clouds -37 1024 78 10000 0.42 150 17:29 21.02.2021
2305 Clouds -37 1024 78 10000 0.42 150 16:55 21.02.2021
2306 Clouds -37 1024 78 10000 0.42 150 16:33 21.02.2021
2307 Clouds -37 1024 78 10000 0.09 169 15:54 21.02.2021
2308 Clouds -38 1024 78 10000 0.29 215 15:21 21.02.2021
2309 Clouds -38 1024 78 10000 0.29 215 14:49 21.02.2021
2310 Clear -37 1024 78 10000 0.43 193 14:27 21.02.2021
2311 Clear -38 1024 79 10000 0.35 185 13:46 21.02.2021
2312 Clear -38 1025 79 10000 0.21 147 13:23 21.02.2021
2313 Clear -38 1025 79 10000 0.21 147 12:31 21.02.2021
2314 Clear -37 1024 79 10000 0.26 136 11:45 21.02.2021
2315 Clear -37 1024 79 10000 0.35 104 11:20 21.02.2021
2316 Clear -37 1024 79 10000 0.33 96 10:25 21.02.2021
2317 Clear -37 1024 79 10000 0.33 96 09:57 21.02.2021
2318 Clear -37 1024 79 10000 0.33 96 09:39 21.02.2021
2319 Clear -37 1024 80 10000 0.32 120 09:19 21.02.2021
2320 Clear -37 1024 80 10000 0.32 120 08:32 21.02.2021
2321 Clear -35 1023 79 10000 0.4 117 07:40 21.02.2021
2322 Clear -33 1023 80 10000 0.27 88 07:19 21.02.2021
2323 Clear -33 1022 78 10000 0.21 149 04:54 21.02.2021
2324 Clouds -34 1023 78 10000 0.47 141 02:31 21.02.2021
2325 Clouds -38 1023 77 10000 0.36 181 00:47 21.02.2021
2326 Clouds -39 1023 77 10000 0.12 187 00:20 21.02.2021
2327 Clouds -38 1023 77 10000 0.04 241 23:29 20.02.2021
2328 Clouds -38 1023 77 10000 0.04 241 22:49 20.02.2021
2329 Clouds -39 1023 77 10000 0.26 191 22:29 20.02.2021
2330 Clouds -39 1023 77 10000 0.26 191 21:47 20.02.2021
2331 Clouds -39 1023 77 10000 0.36 148 21:27 20.02.2021
2332 Clouds -39 1023 77 10000 0.41 156 20:51 20.02.2021
2333 Clouds -39 1023 77 10000 0.41 156 20:30 20.02.2021
2334 Clouds -39 1023 77 10000 0.46 126 19:59 20.02.2021
2335 Clouds -39 1023 77 10000 0.46 126 19:36 20.02.2021
2336 Clouds -39 1022 77 10000 0.24 117 18:47 20.02.2021
2337 Clear -39 1022 77 10000 0.24 200 18:27 20.02.2021
2338 Clear -39 1022 77 10000 0.24 200 17:43 20.02.2021
2339 Clear -39 1021 77 10000 0.48 187 17:25 20.02.2021
2340 Clear -39 1021 77 10000 0.48 187 16:48 20.02.2021
2341 Clear -39 1022 77 10000 0.46 167 16:22 20.02.2021
2342 Clear -39 1022 77 10000 0.46 167 15:40 20.02.2021
2343 Clear -39 1022 78 10000 0.28 177 14:51 20.02.2021
2344 Clear -39 1022 78 10000 0.2 251 14:25 20.02.2021
2345 Clear -39 1022 78 10000 0.2 251 13:53 20.02.2021
2346 Clear -39 1022 78 10000 0.25 223 13:28 20.02.2021
2347 Clear -39 1022 78 10000 0.25 223 12:56 20.02.2021
2348 Clear -39 1022 78 10000 0.27 231 12:33 20.02.2021
2349 Clear -39 1021 78 10000 0.29 147 11:50 20.02.2021
2350 Clear -39 1021 78 10000 0.29 147 11:30 20.02.2021
2351 Clear -39 1021 79 10000 0.45 112 10:50 20.02.2021
2352 Clear -39 1021 79 10000 0.45 112 10:50 20.02.2021
2353 Clear -38 1021 79 10000 0.57 108 10:21 20.02.2021
2354 Clear -38 1021 79 10000 0.57 108 09:46 20.02.2021
2355 Clear -38 1021 79 10000 0.36 86 08:53 20.02.2021
2356 Clear -37 1020 79 10000 0.09 262 08:23 20.02.2021
2357 Clouds -34 1019 79 10000 0.18 183 04:56 20.02.2021
2358 Clouds -35 1020 79 10000 0.14 248 02:32 20.02.2021
2359 Clouds -37 1020 79 10000 0.38 251 01:55 20.02.2021
2360 Clouds -39 1020 78 10000 0.2 215 00:59 20.02.2021
2361 Clouds -39 1020 78 10000 0.2 215 00:36 20.02.2021
2362 Clouds -39 1020 79 10000 0.35 108 23:27 19.02.2021
2363 Clouds -39 1020 79 10000 0.35 108 22:45 19.02.2021
2364 Clouds -39 1020 79 10000 0.37 123 22:20 19.02.2021
2365 Clouds -39 1020 79 10000 0.37 123 21:44 19.02.2021
2366 Clouds -39 1020 79 10000 0.47 118 21:23 19.02.2021
2367 Clouds -39 1020 79 10000 0.47 118 20:42 19.02.2021
2368 Clouds -39 1019 79 10000 0.4 124 20:24 19.02.2021
2369 Clouds -39 1019 79 10000 0.4 124 19:47 19.02.2021
2370 Clouds -39 1019 79 10000 0.21 202 19:20 19.02.2021
2371 Clouds -39 1019 79 10000 0.23 189 18:50 19.02.2021
2372 Clouds -39 1020 79 10000 0.37 179 18:26 19.02.2021
2373 Clouds -39 1020 79 10000 0.37 179 17:43 19.02.2021
2374 Clouds -39 1020 79 9087 0.53 172 16:44 19.02.2021
2375 Clouds -38 1020 80 10000 0.64 185 16:22 19.02.2021
2376 Clouds -38 1020 99 10000 0.64 185 15:55 19.02.2021
2377 Clouds -38 1020 99 10000 0.64 185 15:30 19.02.2021
2378 Clouds -38 1020 99 10000 0.64 185 15:30 19.02.2021
2379 Clouds -38 1020 99 10000 0.72 178 14:55 19.02.2021
2380 Clouds -38 1020 99 10000 0.72 178 14:34 19.02.2021
2381 Clouds -37 1020 99 10000 0.89 157 13:56 19.02.2021
2382 Clouds -37 1020 99 10000 0.89 157 13:56 19.02.2021
2383 Clouds -37 1020 99 10000 0.89 157 13:36 19.02.2021
2384 Clouds -38 1020 99 10000 0.83 170 12:55 19.02.2021
2385 Clouds -38 1020 99 10000 0.83 170 12:36 19.02.2021
2386 Clouds -37 1020 98 10000 1 186 12:18 19.02.2021
2387 Clouds -37 1020 98 10000 1 186 11:41 19.02.2021
2388 Clouds -37 1020 98 10000 1.09 200 11:18 19.02.2021
2389 Clouds -37 1020 98 10000 1.09 200 10:34 19.02.2021
2390 Clouds -36 1020 99 8679 1.09 199 09:59 19.02.2021
2391 Clouds -36 1019 99 6348 0.86 198 09:29 19.02.2021
2392 Clouds -36 1019 99 6348 0.86 198 08:58 19.02.2021
2393 Clouds -36 1019 99 6348 0.86 198 08:40 19.02.2021
2394 Clouds -34 1019 97 5345 0.69 216 08:21 19.02.2021
2395 Clouds -34 1019 97 5345 0.69 216 07:43 19.02.2021
2396 Clouds -32 1019 94 4274 0.7 209 07:25 19.02.2021
2397 Clouds -32 1019 94 5359 0.85 208 06:41 19.02.2021
2398 Clouds -32 1019 90 3231 1.22 213 04:42 19.02.2021
2399 Clouds -33 1020 93 2051 1.21 213 02:47 19.02.2021
2400 Clouds -33 1020 95 2005 1.15 225 01:33 19.02.2021
2401 Clouds -34 1020 97 2088 1.07 227 00:35 19.02.2021
2402 Clouds -34 1020 97 1691 1.04 232 23:47 18.02.2021
2403 Clouds -34 1020 97 1322 0.97 235 23:29 18.02.2021
2404 Clouds -34 1020 97 1322 0.97 235 22:38 18.02.2021
2405 Clouds -34 1020 97 1410 0.9 233 22:18 18.02.2021
2406 Clouds -34 1020 97 1410 0.9 233 21:40 18.02.2021
2407 Clouds -35 1020 96 1938 0.8 235 21:21 18.02.2021
2408 Clouds -35 1020 96 1938 0.8 235 20:39 18.02.2021
2409 Clouds -35 1020 96 2773 0.73 239 20:21 18.02.2021
2410 Clouds -35 1020 96 2773 0.73 239 19:44 18.02.2021
2411 Clouds -36 1020 96 4482 0.66 237 19:21 18.02.2021
2412 Clouds -37 1021 98 8070 0.67 238 18:50 18.02.2021
2413 Clouds -37 1020 99 7739 0.6 240 18:26 18.02.2021
2414 Clouds -37 1020 99 7739 0.6 240 17:52 18.02.2021
2415 Clouds -38 1021 100 8091 0.58 246 17:25 18.02.2021
2416 Clouds -38 1021 100 8091 0.58 246 17:25 18.02.2021
2417 Clouds -38 1021 100 8091 0.58 246 16:51 18.02.2021
2418 Clouds -38 1021 100 8091 0.58 246 16:32 18.02.2021
2419 Clouds -38 1021 99 9137 0.53 234 15:43 18.02.2021
2420 Clouds -37 1021 99 10000 0.6 232 15:24 18.02.2021
2421 Clouds -37 1021 99 10000 0.6 232 14:56 18.02.2021
2422 Clouds -37 1021 99 10000 0.6 232 14:34 18.02.2021
2423 Clouds -37 1022 99 10000 0.56 234 13:50 18.02.2021
2424 Clouds -36 1022 99 10000 0.45 231 13:22 18.02.2021
2425 Clouds -36 1022 99 10000 0.45 231 12:56 18.02.2021
2426 Clouds -36 1022 99 10000 0.45 231 12:36 18.02.2021
2427 Clouds -36 1022 98 9521 0.48 224 11:48 18.02.2021
2428 Clouds -36 1022 99 10000 0.7 221 11:28 18.02.2021
2429 Clouds -36 1022 99 10000 0.7 221 10:58 18.02.2021
2430 Clouds -36 1022 99 10000 0.7 221 10:40 18.02.2021
2431 Clouds -35 1022 97 10000 0.77 216 10:20 18.02.2021
2432 Clouds -35 1022 81 10000 0.77 216 09:39 18.02.2021
2433 Clouds -34 1023 82 10000 0.79 208 09:19 18.02.2021
2434 Clouds -34 1023 82 10000 0.79 208 08:31 18.02.2021
2435 Clouds -32 1022 82 5194 0.7 212 07:58 18.02.2021
2436 Clouds -33 1022 81 10000 0.73 225 07:30 18.02.2021
2437 Clouds -32 1022 81 8567 0.9 232 06:29 18.02.2021
2438 Clouds -36 1025 81 5984 0.89 252 01:20 18.02.2021
2439 Clouds -37 1025 81 6205 0.76 248 23:48 17.02.2021
2440 Clouds -37 1025 81 5982 0.69 252 23:20 17.02.2021
2441 Clouds -37 1025 81 5982 0.69 252 22:44 17.02.2021
2442 Clouds -36 1026 81 5706 0.61 250 22:22 17.02.2021
2443 Clouds -36 1026 81 5706 0.61 250 21:48 17.02.2021
2444 Clouds -36 1026 81 5605 0.68 252 21:21 17.02.2021
2445 Clouds -36 1026 81 5605 0.68 252 20:45 17.02.2021
2446 Clouds -36 1026 82 4984 0.85 252 20:25 17.02.2021
2447 Clouds -36 1026 82 4984 0.85 252 19:41 17.02.2021
2448 Clouds -35 1027 82 4620 0.81 256 19:22 17.02.2021
2449 Clouds -35 1027 82 4620 0.81 256 18:41 17.02.2021
2450 Clouds -35 1027 82 3622 0.81 258 18:22 17.02.2021
2451 Clouds -35 1027 82 3622 0.81 258 17:40 17.02.2021
2452 Clouds -34 1027 82 3156 0.87 260 17:18 17.02.2021
2453 Clouds -34 1027 82 3156 0.87 260 16:43 17.02.2021
2454 Clouds -34 1028 83 3314 0.87 268 16:22 17.02.2021
2455 Clouds -34 1028 83 3314 0.87 268 15:44 17.02.2021
2456 Clouds -33 1029 83 2732 0.81 269 15:23 17.02.2021
2457 Clouds -33 1029 83 2732 0.81 269 14:46 17.02.2021
2458 Clouds -33 1030 83 2127 0.82 270 14:28 17.02.2021
2459 Clouds -33 1030 83 2127 0.82 270 13:45 17.02.2021
2460 Clouds -33 1030 82 3421 0.76 274 13:27 17.02.2021
2461 Clouds -32 1030 83 2859 0.78 269 12:47 17.02.2021
2462 Clouds -32 1031 83 2167 0.69 266 12:23 17.02.2021
2463 Clouds -32 1031 83 2167 0.69 266 11:42 17.02.2021
2464 Clouds -32 1031 83 2163 0.75 273 11:19 17.02.2021
2465 Clouds -32 1031 83 2163 0.75 273 10:45 17.02.2021
2466 Clouds -33 1031 82 5299 0.85 280 10:25 17.02.2021
2467 Clouds -33 1031 82 5299 0.85 280 09:47 17.02.2021
2468 Clouds -33 1031 82 10000 0.81 270 09:29 17.02.2021
2469 Clouds -33 1031 82 10000 0.81 270 08:44 17.02.2021
2470 Clouds -32 1031 82 10000 0.76 268 08:22 17.02.2021
2471 Clouds -34 1031 81 10000 0.66 266 07:34 17.02.2021
2472 Clouds -32 1031 81 10000 0.77 269 06:35 17.02.2021
2473 Clouds -32 1033 79 10000 0.81 269 02:44 17.02.2021
2474 Clouds -33 1033 79 10000 0.81 264 02:21 17.02.2021
2475 Clouds -34 1033 79 10000 0.88 274 00:35 17.02.2021
2476 Clouds -34 1033 79 10000 0.75 273 23:57 16.02.2021
2477 Clouds -34 1033 79 10000 0.75 273 23:38 16.02.2021
2478 Clouds -34 1033 79 10000 0.71 267 22:45 16.02.2021
2479 Clouds -34 1033 79 10000 0.7 268 22:26 16.02.2021
2480 Clouds -34 1033 79 10000 0.7 268 21:58 16.02.2021
2481 Clouds -34 1033 79 10000 0.7 268 21:39 16.02.2021
2482 Clouds -34 1033 79 10000 0.71 277 21:20 16.02.2021
2483 Clouds -34 1033 79 10000 0.71 277 20:46 16.02.2021
2484 Clouds -34 1033 79 10000 0.62 279 20:24 16.02.2021
2485 Clouds -34 1033 79 10000 0.62 279 19:47 16.02.2021
2486 Clouds -33 1033 79 10000 0.43 302 19:28 16.02.2021
2487 Clouds -33 1033 79 10000 0.43 302 19:28 16.02.2021
2488 Clouds -33 1033 79 10000 0.43 302 18:47 16.02.2021
2489 Clouds -34 1033 79 10000 0.42 310 18:23 16.02.2021
2490 Clouds -34 1033 79 10000 0.42 310 17:53 16.02.2021
2491 Clouds -34 1033 79 10000 0.53 293 17:27 16.02.2021
2492 Clouds -34 1033 79 10000 0.53 293 16:52 16.02.2021
2493 Clouds -34 1033 79 10000 0.53 293 16:30 16.02.2021
2494 Clouds -34 1033 79 10000 0.53 293 16:30 16.02.2021
2495 Clouds -34 1033 79 10000 0.42 284 15:57 16.02.2021
2496 Clouds -34 1033 79 10000 0.42 284 15:36 16.02.2021
2497 Clouds -34 1034 79 10000 0.08 4 15:18 16.02.2021
2498 Clouds -34 1034 79 10000 0.08 4 14:39 16.02.2021
2499 Clouds -34 1034 79 10000 0.29 52 14:21 16.02.2021
2500 Clouds -34 1034 79 10000 0.29 52 13:44 16.02.2021
2501 Clouds -34 1033 79 10000 0.42 358 12:59 16.02.2021
2502 Clouds -34 1033 79 10000 0.42 358 12:41 16.02.2021
2503 Clouds -34 1033 79 10000 0.23 330 12:19 16.02.2021
2504 Clouds -34 1033 79 10000 0.23 330 11:40 16.02.2021
2505 Clear -34 1033 79 10000 0.14 44 11:20 16.02.2021
2506 Clear -34 1033 79 10000 0.14 44 10:46 16.02.2021
2507 Clear -34 1033 79 10000 0.49 54 10:27 16.02.2021
2508 Clear -34 1033 79 10000 0.49 54 09:53 16.02.2021
2509 Clear -34 1033 79 10000 0.65 54 09:28 16.02.2021
2510 Clear -34 1033 79 10000 0.65 54 08:52 16.02.2021
2511 Clear -33 1032 79 10000 0.63 59 08:29 16.02.2021
2512 Clear -33 1032 79 10000 0.63 59 07:54 16.02.2021
2513 Clear -31 1033 80 10000 0.49 42 06:55 16.02.2021
2514 Clear -30 1033 81 10000 0.56 117 02:47 16.02.2021
2515 Clouds -34 1032 81 10000 0.7 122 00:23 16.02.2021
2516 Clouds -34 1032 81 10000 0.7 122 23:30 15.02.2021
2517 Clouds -34 1032 81 10000 0.7 122 23:30 15.02.2021
2518 Clouds -34 1031 82 10000 0.94 113 22:51 15.02.2021
2519 Clouds -34 1031 82 10000 1.01 115 22:29 15.02.2021
2520 Clouds -34 1031 82 10000 1.01 115 21:49 15.02.2021
2521 Clouds -33 1030 83 10000 1.02 113 21:26 15.02.2021
2522 Clouds -33 1030 83 10000 1.02 113 20:57 15.02.2021
2523 Clouds -33 1030 83 10000 1.02 113 20:39 15.02.2021
2524 Clouds -33 1030 83 10000 0.98 116 20:19 15.02.2021
2525 Clouds -33 1030 83 10000 0.98 116 19:42 15.02.2021
2526 Clouds -33 1030 83 10000 1 117 19:18 15.02.2021
2527 Clouds -31 1029 84 10000 1.06 114 18:42 15.02.2021
2528 Clouds -30 1029 85 6211 1.06 112 18:18 15.02.2021
2529 Clouds -30 1029 85 6211 1.06 112 17:40 15.02.2021
2530 Clouds -29 1029 85 2282 1.07 120 17:21 15.02.2021
2531 Clouds -29 1029 85 2282 1.07 120 16:47 15.02.2021
2532 Clouds -28 1028 85 1167 1.05 127 16:26 15.02.2021
2533 Clouds -28 1028 85 1167 1.05 127 15:46 15.02.2021
2534 Clouds -28 1028 85 931 1.13 135 15:21 15.02.2021
2535 Clouds -28 1028 85 931 1.13 135 14:49 15.02.2021
2536 Clouds -29 1028 85 763 1.15 149 14:21 15.02.2021
2537 Clouds -29 1028 85 763 1.15 149 13:51 15.02.2021
2538 Clouds -28 1028 85 679 1.31 159 13:28 15.02.2021
2539 Clouds -28 1028 85 679 1.31 159 12:54 15.02.2021
2540 Clouds -28 1028 85 679 1.31 159 12:36 15.02.2021
2541 Clouds -28 1027 86 490 1.54 174 11:59 15.02.2021
2542 Clouds -28 1027 86 490 1.54 174 11:39 15.02.2021
2543 Clouds -28 1027 86 414 1.75 183 11:18 15.02.2021
2544 Clouds -28 1027 86 414 1.75 183 10:42 15.02.2021
2545 Clouds -28 1026 86 359 1.56 191 10:21 15.02.2021
2546 Clouds -28 1026 86 359 1.56 191 09:52 15.02.2021
2547 Clouds -28 1026 86 359 1.56 191 09:32 15.02.2021
2548 Clouds -28 1026 86 359 1.56 191 09:32 15.02.2021
2549 Clouds -28 1026 86 331 1.22 201 08:34 15.02.2021
2550 Clouds -28 1027 85 447 1.04 208 07:34 15.02.2021
2551 Clouds -27 1027 84 760 1.02 207 06:44 15.02.2021
2552 Clouds -28 1027 83 7755 0.87 232 04:59 15.02.2021
2553 Clouds -30 1027 84 10000 0.51 248 02:22 15.02.2021
2554 Clouds -32 1027 83 7324 0.21 251 00:32 15.02.2021
2555 Clouds -32 1027 83 6661 0.21 307 23:32 14.02.2021
2556 Clouds -33 1027 83 8138 0.26 324 22:52 14.02.2021
2557 Clouds -33 1027 83 8138 0.26 324 22:34 14.02.2021
2558 Clouds -33 1026 83 7306 0.21 20 21:57 14.02.2021
2559 Clouds -33 1026 83 7306 0.21 20 21:37 14.02.2021
2560 Clouds -33 1026 83 7681 0.51 34 20:56 14.02.2021
2561 Clouds -33 1026 83 7681 0.51 34 20:38 14.02.2021
2562 Clouds -33 1026 83 9296 0.41 359 20:20 14.02.2021
2563 Clouds -33 1026 83 9296 0.41 359 19:38 14.02.2021
2564 Clouds -32 1026 84 7561 0.56 10 18:48 14.02.2021
2565 Clouds -31 1026 84 6062 0.57 19 18:29 14.02.2021
2566 Clouds -31 1026 84 6062 0.57 19 17:49 14.02.2021
2567 Clouds -31 1026 84 6062 0.57 19 17:30 14.02.2021
2568 Clouds -32 1026 84 6832 0.6 8 16:43 14.02.2021
2569 Clouds -32 1026 84 6843 0.44 19 16:24 14.02.2021
2570 Clouds -32 1026 84 6843 0.44 19 15:46 14.02.2021
2571 Clouds -31 1026 84 6505 0.42 20 15:26 14.02.2021
2572 Clouds -31 1026 84 6505 0.42 20 14:43 14.02.2021
2573 Clouds -31 1026 85 5982 0.52 36 14:24 14.02.2021
2574 Clouds -31 1026 85 5982 0.52 36 13:41 14.02.2021
2575 Clouds -31 1027 85 6749 0.51 357 13:23 14.02.2021
2576 Clouds -30 1027 85 6679 0.44 1 12:24 14.02.2021
2577 Clouds -30 1027 85 6679 0.44 1 11:59 14.02.2021
2578 Clouds -30 1027 85 6679 0.44 1 11:40 14.02.2021
2579 Clouds -30 1026 85 7833 0.32 352 11:20 14.02.2021
2580 Clouds -30 1026 85 8350 0.24 1 10:24 14.02.2021
2581 Clouds -30 1026 85 8350 0.24 1 09:40 14.02.2021
2582 Clouds -29 1026 85 7569 0.13 43 09:21 14.02.2021
2583 Clouds -29 1026 85 7569 0.13 43 08:58 14.02.2021
2584 Clouds -29 1027 86 7548 0.06 179 08:18 14.02.2021
2585 Clouds -27 1027 86 8653 0.14 253 07:19 14.02.2021
2586 Clouds -25 1027 86 10000 0.36 269 06:26 14.02.2021
2587 Clouds -25 1027 85 10000 0.53 265 03:59 14.02.2021
2588 Clouds -26 1028 85 10000 0.43 262 02:30 14.02.2021
2589 Clouds -29 1027 85 10000 0.43 275 01:29 14.02.2021
2590 Clouds -29 1027 85 10000 0.43 275 00:41 14.02.2021
2591 Clouds -29 1027 85 10000 0.45 271 23:49 13.02.2021
2592 Clouds -29 1027 85 10000 0.39 282 23:25 13.02.2021
2593 Clouds -29 1027 85 10000 0.39 282 22:57 13.02.2021
2594 Clouds -29 1028 85 10000 0.33 261 22:22 13.02.2021
2595 Clouds -29 1028 85 10000 0.33 261 21:49 13.02.2021
2596 Clouds -29 1028 85 10000 0.41 280 21:27 13.02.2021
2597 Clouds -29 1028 85 10000 0.41 280 20:45 13.02.2021
2598 Clouds -29 1028 85 10000 0.39 271 20:26 13.02.2021
2599 Clouds -29 1028 85 10000 0.39 271 19:48 13.02.2021
2600 Clouds -29 1029 85 10000 0.39 271 19:24 13.02.2021
2601 Clouds -29 1029 85 10000 0.39 271 18:50 13.02.2021
2602 Clouds -29 1028 85 10000 0.36 257 18:27 13.02.2021
2603 Clouds -29 1028 85 10000 0.36 257 17:44 13.02.2021
2604 Clouds -29 1029 86 10000 0.4 250 17:25 13.02.2021
2605 Clouds -29 1029 86 10000 0.4 250 16:53 13.02.2021
2606 Clouds -29 1029 86 10000 0.4 250 16:35 13.02.2021
2607 Clouds -28 1029 86 10000 0.38 225 15:45 13.02.2021
2608 Clouds -28 1029 86 10000 0.3 217 15:26 13.02.2021
2609 Clouds -28 1029 86 10000 0.3 217 15:26 13.02.2021
2610 Clouds -28 1029 86 10000 0.3 217 14:41 13.02.2021
2611 Clouds -28 1029 86 10000 0.38 226 13:50 13.02.2021
2612 Clouds -28 1030 86 10000 0.53 239 13:28 13.02.2021
2613 Clouds -28 1029 86 10000 0.4 256 12:53 13.02.2021
2614 Clouds -28 1029 86 10000 0.51 253 12:21 13.02.2021
2615 Clouds -28 1029 86 10000 0.51 253 11:58 13.02.2021
2616 Clouds -28 1029 86 10000 0.51 253 11:39 13.02.2021
2617 Clouds -28 1029 86 10000 0.54 256 11:18 13.02.2021
2618 Clouds -28 1029 86 10000 0.54 256 10:43 13.02.2021
2619 Clouds -28 1029 86 10000 0.58 246 10:22 13.02.2021
2620 Clouds -28 1029 86 10000 0.58 246 09:46 13.02.2021
2621 Clouds -27 1029 86 10000 0.35 206 09:28 13.02.2021
2622 Clouds -27 1029 86 10000 0.35 206 08:47 13.02.2021
2623 Clouds -27 1029 86 10000 0.17 241 08:18 13.02.2021
2624 Clear -25 1029 86 10000 0.37 254 06:59 13.02.2021
2625 Clear -24 1029 86 10000 0.52 237 06:24 13.02.2021
2626 Clear -23 1029 86 10000 0.5 224 04:31 13.02.2021
2627 Clear -25 1030 85 10000 0.76 245 02:41 13.02.2021
2628 Clear -28 1031 85 10000 0.67 235 00:54 13.02.2021
2629 Clear -28 1031 85 10000 0.67 235 00:54 13.02.2021
2630 Clear -28 1031 86 10000 0.75 235 00:18 13.02.2021
2631 Clear -28 1031 86 10000 0.75 235 23:45 12.02.2021
2632 Clear -28 1031 85 10000 0.77 230 23:18 12.02.2021
2633 Clear -28 1031 85 10000 0.77 230 22:32 12.02.2021
2634 Clear -27 1031 85 10000 0.84 226 21:58 12.02.2021
2635 Clear -27 1031 85 10000 0.84 226 21:58 12.02.2021
2636 Clear -27 1031 85 10000 0.84 226 21:39 12.02.2021
2637 Clear -27 1031 85 10000 0.93 223 21:21 12.02.2021
2638 Clear -27 1031 85 10000 0.93 223 20:40 12.02.2021
2639 Clear -27 1031 85 10000 1.02 214 20:21 12.02.2021
2640 Clear -27 1031 85 10000 1.02 214 19:49 12.02.2021
2641 Clouds -27 1031 85 10000 0.79 222 19:28 12.02.2021
2642 Clouds -27 1031 86 10000 0.51 240 18:35 12.02.2021
2643 Clouds -26 1031 86 10000 0.65 247 17:56 12.02.2021
2644 Clouds -26 1031 86 10000 0.65 247 17:35 12.02.2021
2645 Clouds -26 1031 85 10000 0.89 247 16:53 12.02.2021
2646 Clouds -25 1031 85 10000 0.96 247 16:18 12.02.2021
2647 Clouds -25 1031 85 10000 0.96 247 15:43 12.02.2021
2648 Clouds -24 1032 85 10000 0.91 243 15:20 12.02.2021
2649 Clouds -24 1032 85 10000 0.91 243 14:36 12.02.2021
2650 Clouds -24 1032 85 10000 0.77 243 13:51 12.02.2021
2651 Clouds -24 1032 85 10000 0.79 242 13:32 12.02.2021
2652 Clouds -24 1032 85 10000 0.85 249 12:54 12.02.2021
2653 Clouds -24 1032 85 10000 0.85 249 12:36 12.02.2021
2654 Clouds -24 1032 85 10000 0.77 255 11:48 12.02.2021
2655 Clouds -25 1032 85 10000 0.77 263 11:22 12.02.2021
2656 Clouds -25 1032 85 10000 0.77 263 10:50 12.02.2021
2657 Clouds -25 1032 85 10000 0.77 263 10:31 12.02.2021
2658 Clear -26 1032 85 10000 0.8 270 09:42 12.02.2021
2659 Clear -26 1032 85 10000 0.75 278 09:23 12.02.2021
2660 Clear -26 1032 85 10000 0.75 278 08:46 12.02.2021
2661 Clear -26 1032 85 10000 0.78 268 08:25 12.02.2021
2662 Clear -26 1032 85 10000 0.78 268 07:52 12.02.2021
2663 Clear -24 1032 84 10000 0.95 264 07:27 12.02.2021
2664 Clear -24 1032 85 10000 1.02 259 06:54 12.02.2021
2665 Clear -23 1032 85 10000 0.65 269 05:39 12.02.2021
2666 Clear -23 1033 85 10000 0.79 269 03:46 12.02.2021
2667 Clouds -28 1034 84 10000 0.71 306 00:35 12.02.2021
2668 Clouds -28 1034 84 10000 0.79 308 23:38 11.02.2021
2669 Clouds -28 1034 83 10000 0.76 306 23:20 11.02.2021
2670 Clouds -28 1034 83 10000 0.76 306 22:44 11.02.2021
2671 Clouds -28 1034 83 10000 0.69 309 22:23 11.02.2021
2672 Clouds -28 1034 83 10000 0.69 309 21:43 11.02.2021
2673 Clouds -28 1034 82 10000 0.64 310 21:25 11.02.2021
2674 Clouds -28 1034 82 10000 0.64 310 20:57 11.02.2021
2675 Clouds -28 1034 82 10000 0.64 310 20:39 11.02.2021
2676 Clouds -27 1034 82 10000 0.53 311 20:19 11.02.2021
2677 Clouds -27 1034 82 10000 0.53 311 19:46 11.02.2021
2678 Clouds -26 1034 81 10000 0.75 309 19:26 11.02.2021
2679 Clouds -27 1034 81 10000 0.7 305 19:26 11.02.2021
2680 Clouds -26 1034 81 10000 0.75 309 18:43 11.02.2021
2681 Clouds -26 1033 81 10000 0.74 304 18:21 11.02.2021
2682 Clouds -26 1033 81 10000 0.74 304 17:48 11.02.2021
2683 Clouds -27 1033 80 10000 0.79 305 17:21 11.02.2021
2684 Clouds -27 1033 80 10000 0.79 305 16:46 11.02.2021
2685 Clouds -29 1033 80 10000 0.39 317 16:27 11.02.2021
2686 Clouds -29 1033 80 10000 0.39 317 15:47 11.02.2021
2687 Clouds -29 1033 79 10000 0.23 55 15:26 11.02.2021
2688 Clouds -29 1033 79 10000 0.23 55 14:58 11.02.2021
2689 Clouds -29 1033 79 10000 0.23 55 14:32 11.02.2021
2690 Clouds -29 1033 79 10000 0.14 203 13:44 11.02.2021
2691 Clouds -29 1033 80 10000 0.51 220 13:21 11.02.2021
2692 Clouds -29 1033 80 10000 0.51 220 12:56 11.02.2021
2693 Clouds -29 1033 80 10000 0.51 220 12:36 11.02.2021
2694 Clouds -29 1033 80 10000 0.75 223 11:57 11.02.2021
2695 Clouds -29 1033 80 10000 0.75 223 11:39 11.02.2021
2696 Clouds -29 1033 80 10000 0.74 227 11:18 11.02.2021
2697 Clouds -29 1033 80 10000 0.74 227 10:39 11.02.2021
2698 Clouds -28 1032 80 10000 1.06 225 10:21 11.02.2021
2699 Clouds -28 1032 80 10000 1.06 225 09:41 11.02.2021
2700 Clouds -29 1032 80 10000 0.97 182 09:19 11.02.2021
2701 Clouds -29 1032 80 10000 0.97 182 08:49 11.02.2021
2702 Clouds -28 1031 80 10000 0.89 199 07:54 11.02.2021
2703 Clouds -26 1031 83 10000 1.04 200 06:48 11.02.2021
2704 Clouds -25 1030 84 10000 0.95 158 06:25 11.02.2021
2705 Clouds -24 1030 82 10000 1.3 42 03:47 11.02.2021
2706 Clouds -27 1030 81 10000 1.33 178 02:26 11.02.2021
2707 Clear -30 1030 80 10000 0.49 126 00:36 11.02.2021
2708 Clear -30 1030 80 10000 1.39 208 00:18 11.02.2021
2709 Clear -30 1030 80 10000 1.39 208 23:35 10.02.2021
2710 Clear -30 1030 80 10000 1.46 215 22:48 10.02.2021
2711 Clear -30 1030 80 10000 1.28 224 22:25 10.02.2021
2712 Clear -30 1030 80 10000 1.28 224 21:40 10.02.2021
2713 Clear -30 1030 79 10000 1.29 211 21:22 10.02.2021
2714 Clear -30 1030 79 10000 1.29 211 20:58 10.02.2021
2715 Clear -30 1030 79 10000 1.29 211 20:39 10.02.2021
2716 Clear -30 1030 79 10000 0.9 219 20:19 10.02.2021
2717 Clear -30 1030 79 10000 0.9 219 19:42 10.02.2021
2718 Clouds -30 1029 79 10000 1.03 215 19:21 10.02.2021
2719 Clouds -30 1030 79 10000 1.1 230 18:39 10.02.2021
2720 Clouds -30 1030 79 10000 0.78 239 18:18 10.02.2021
2721 Clouds -30 1030 79 10000 0.78 239 17:49 10.02.2021
2722 Clouds -30 1030 79 10000 0.81 244 17:22 10.02.2021
2723 Clouds -30 1030 79 10000 0.81 244 16:50 10.02.2021
2724 Clouds -30 1030 79 10000 0.75 243 16:29 10.02.2021
2725 Clouds -30 1030 79 10000 0.75 243 15:45 10.02.2021
2726 Clouds -30 1030 79 10000 0.93 229 15:22 10.02.2021
2727 Clouds -30 1030 79 10000 0.93 229 14:42 10.02.2021
2728 Clouds -28 1031 80 10000 0.94 182 14:19 10.02.2021
2729 Clouds -28 1031 80 10000 0.94 182 13:50 10.02.2021
2730 Clouds -28 1031 80 10000 0.84 306 13:27 10.02.2021
2731 Clouds -28 1031 80 10000 0.77 312 12:46 10.02.2021
2732 Clouds -30 1031 78 10000 0.56 283 12:28 10.02.2021
2733 Clouds -30 1031 78 10000 0.56 283 11:47 10.02.2021
2734 Clouds -30 1031 78 10000 0.56 283 11:47 10.02.2021
2735 Clear -32 1031 77 10000 0.59 271 11:28 10.02.2021
2736 Clear -32 1031 77 10000 0.59 271 10:49 10.02.2021
2737 Clear -32 1030 77 10000 0.81 274 10:19 10.02.2021
2738 Clear -32 1030 77 10000 0.81 274 09:43 10.02.2021
2739 Clear -32 1030 78 10000 0.7 279 09:21 10.02.2021
2740 Clear -32 1030 78 10000 0.7 279 08:50 10.02.2021
2741 Clear -32 1029 78 10000 0.32 290 08:29 10.02.2021
2742 Clouds -30 1029 79 10000 0.52 265 07:18 10.02.2021
2743 Clouds -28 1028 81 10000 0.56 33 04:47 10.02.2021
2744 Clouds -30 1027 79 10000 0.93 89 00:51 10.02.2021
2745 Clouds -30 1027 79 10000 0.5 84 23:40 09.02.2021
2746 Clouds -29 1026 80 10000 0.62 153 23:19 09.02.2021
2747 Clouds -29 1026 80 10000 0.62 153 22:41 09.02.2021
2748 Clouds -30 1026 80 10000 0.82 144 22:23 09.02.2021
2749 Clouds -30 1026 80 10000 0.82 144 21:40 09.02.2021
2750 Clouds -31 1025 79 10000 1.15 184 21:19 09.02.2021
2751 Clouds -31 1025 79 10000 1.15 184 20:41 09.02.2021
2752 Clouds -32 1025 78 10000 1.98 190 20:23 09.02.2021
2753 Clouds -32 1025 78 10000 1.98 190 19:40 09.02.2021
2754 Clouds -32 1025 78 10000 1.31 215 19:22 09.02.2021
2755 Clouds -32 1025 78 10000 1.31 215 18:43 09.02.2021
2756 Clouds -33 1025 78 10000 1.16 232 18:25 09.02.2021
2757 Clouds -33 1025 78 10000 1.16 232 17:47 09.02.2021
2758 Clouds -34 1025 77 10000 1.22 234 17:26 09.02.2021
2759 Clouds -34 1025 77 10000 1.22 234 16:52 09.02.2021
2760 Clear -35 1025 77 10000 1.09 220 16:19 09.02.2021
2761 Clear -35 1025 77 10000 1.09 220 15:51 09.02.2021
2762 Clear -35 1026 77 10000 1.05 221 15:29 09.02.2021
2763 Clear -35 1026 77 10000 1.05 221 14:59 09.02.2021
2764 Clear -35 1026 77 10000 1.05 221 14:30 09.02.2021
2765 Clear -35 1026 77 10000 1.17 217 13:59 09.02.2021
2766 Clear -35 1026 77 10000 1.17 217 13:39 09.02.2021
2767 Clear -35 1026 77 10000 1.12 222 13:19 09.02.2021
2768 Clear -35 1026 77 10000 1.12 222 12:41 09.02.2021
2769 Clear -35 1026 77 10000 1.25 226 12:22 09.02.2021
2770 Clear -35 1026 77 10000 1.25 226 11:44 09.02.2021
2771 Clear -35 1026 77 10000 1.03 226 11:21 09.02.2021
2772 Clear -35 1026 77 10000 1.03 226 10:57 09.02.2021
2773 Clear -36 1026 77 10000 0.68 225 10:20 09.02.2021
2774 Clear -36 1026 77 10000 0.68 225 09:51 09.02.2021
2775 Clear -36 1025 78 10000 0.84 240 09:26 09.02.2021
2776 Clear -36 1025 78 10000 0.84 240 08:54 09.02.2021
2777 Clear -35 1025 78 10000 0.8 242 08:28 09.02.2021
2778 Clear -35 1025 78 10000 0.8 242 07:41 09.02.2021
2779 Clear -32 1024 79 10000 0.49 141 05:34 09.02.2021
2780 Clear -32 1024 78 10000 0.62 118 03:48 09.02.2021
2781 Clear -35 1025 78 10000 1.1 141 01:51 09.02.2021
2782 Clear -36 1024 78 10000 1.3 174 00:21 09.02.2021
2783 Clear -36 1024 78 10000 1.93 184 23:23 08.02.2021
2784 Clear -36 1024 78 10000 1.93 184 22:59 08.02.2021
2785 Clear -36 1024 78 10000 1.93 184 22:41 08.02.2021
2786 Clear -36 1024 78 10000 1.68 202 22:22 08.02.2021
2787 Clear -36 1024 78 10000 1.68 202 21:45 08.02.2021
2788 Clear -36 1024 78 10000 1.69 205 21:22 08.02.2021
2789 Clear -36 1024 78 10000 1.69 205 20:44 08.02.2021
2790 Clear -36 1024 78 10000 1.6 202 20:24 08.02.2021
2791 Clear -36 1024 78 10000 1.6 202 19:58 08.02.2021
2792 Clear -36 1024 78 10000 1.6 202 19:39 08.02.2021
2793 Clear -36 1026 79 10000 1.37 207 19:19 08.02.2021
2794 Clear -36 1026 79 10000 1.37 207 18:41 08.02.2021
2795 Clear -36 1026 79 10000 1.14 204 18:18 08.02.2021
2796 Clear -36 1026 79 10000 1.14 204 17:43 08.02.2021
2797 Clear -36 1027 79 10000 1.17 216 17:22 08.02.2021
2798 Clear -36 1027 79 10000 1.17 216 16:41 08.02.2021
2799 Clear -35 1027 79 10000 1.4 218 16:21 08.02.2021
2800 Clear -35 1027 79 10000 1.4 218 15:41 08.02.2021
2801 Clear -35 1028 79 10000 1.35 212 15:19 08.02.2021
2802 Clear -35 1028 79 10000 1.35 212 14:51 08.02.2021
2803 Clear -35 1028 79 10000 1.35 212 14:30 08.02.2021
2804 Clear -35 1029 79 10000 1.33 212 13:56 08.02.2021
2805 Clear -35 1030 80 10000 1.27 214 13:32 08.02.2021
2806 Clouds -34 1030 80 10000 1.18 216 12:53 08.02.2021
2807 Clouds -34 1030 80 10000 1.18 216 12:34 08.02.2021
2808 Clouds -34 1031 80 10000 1.22 216 11:44 08.02.2021
2809 Clouds -34 1032 80 10000 1.07 224 11:19 08.02.2021
2810 Clouds -34 1032 80 10000 1.07 224 10:44 08.02.2021
2811 Clouds -33 1033 80 10000 1 241 10:23 08.02.2021
2812 Clouds -33 1033 80 10000 1 241 09:50 08.02.2021
2813 Clouds -33 1033 80 10000 1.05 258 09:29 08.02.2021
2814 Clouds -33 1033 80 10000 1.05 258 08:41 08.02.2021
2815 Clouds -33 1034 81 10000 0.92 258 08:18 08.02.2021
2816 Clouds -31 1034 82 10000 0.9 249 07:22 08.02.2021
2817 Clouds -31 1036 82 10000 0.67 249 05:53 08.02.2021
2818 Clear -35 1039 80 10000 0.87 259 02:28 08.02.2021
2819 Clouds -36 1039 81 10000 0.9 269 01:18 08.02.2021
2820 Clouds -36 1039 81 10000 0.79 278 00:21 08.02.2021
2821 Clouds -36 1039 81 10000 0.79 278 23:48 07.02.2021
2822 Clouds -35 1039 81 10000 1.02 295 23:20 07.02.2021
2823 Clouds -35 1039 81 10000 1.02 295 22:45 07.02.2021
2824 Clear -36 1039 81 10000 0.33 338 22:26 07.02.2021
2825 Clear -36 1039 81 10000 0.33 338 21:53 07.02.2021
2826 Clear -36 1039 81 10000 0.59 350 21:28 07.02.2021
2827 Clear -36 1039 81 10000 0.59 350 20:54 07.02.2021
2828 Clear -36 1039 81 10000 0.59 350 20:34 07.02.2021
2829 Clear -36 1039 81 10000 0.8 336 19:55 07.02.2021
2830 Clear -36 1039 81 10000 0.8 336 19:31 07.02.2021
2831 Clear -36 1040 82 10000 0.86 323 18:56 07.02.2021
2832 Clear -36 1040 82 10000 0.86 323 18:36 07.02.2021
2833 Clear -35 1040 82 10000 0.73 322 18:18 07.02.2021
2834 Clear -35 1040 82 10000 0.73 322 17:44 07.02.2021
2835 Clear -35 1039 82 10000 0.41 333 17:20 07.02.2021
2836 Clear -35 1039 82 10000 0.41 333 16:48 07.02.2021
2837 Clear -35 1039 82 10000 0.45 71 16:29 07.02.2021
2838 Clear -35 1039 82 10000 0.45 71 15:59 07.02.2021
2839 Clear -35 1039 82 10000 0.45 71 15:40 07.02.2021
2840 Clear -35 1039 82 10000 0.55 64 15:21 07.02.2021
2841 Clear -35 1039 82 10000 0.55 64 14:40 07.02.2021
2842 Clear -35 1039 82 10000 0.59 39 14:22 07.02.2021
2843 Clear -35 1039 82 10000 0.59 39 13:37 07.02.2021
2844 Clouds -35 1039 82 10000 0.6 14 13:19 07.02.2021
2845 Clouds -35 1039 82 10000 0.6 14 12:39 07.02.2021
2846 Clouds -35 1039 82 10000 0.53 63 12:20 07.02.2021
2847 Clouds -35 1039 82 10000 0.53 63 12:20 07.02.2021
2848 Clouds -35 1039 82 10000 0.53 63 11:41 07.02.2021
2849 Clouds -34 1038 82 10000 0.68 72 11:23 07.02.2021
2850 Clouds -34 1038 83 10000 0.74 68 10:29 07.02.2021
2851 Clouds -34 1038 83 10000 0.74 68 09:55 07.02.2021
2852 Clouds -34 1038 83 10000 0.74 68 09:37 07.02.2021
2853 Clouds -34 1037 83 10000 0.86 82 09:18 07.02.2021
2854 Clouds -33 1036 83 10000 0.8 89 07:57 07.02.2021
2855 Clouds -33 1035 83 10000 0.7 84 06:32 07.02.2021
2856 Clouds -30 1033 84 7287 0.72 78 04:45 07.02.2021
2857 Clouds -30 1032 84 2214 0.68 88 02:52 07.02.2021
2858 Clouds -31 1031 84 1395 0.52 114 00:39 07.02.2021
2859 Clouds -31 1030 84 1040 0.53 112 23:53 06.02.2021
2860 Clouds -31 1030 84 861 0.62 107 22:59 06.02.2021
2861 Clouds -31 1029 83 789 0.56 90 22:25 06.02.2021
2862 Clouds -31 1029 83 789 0.56 90 21:38 06.02.2021
2863 Clouds -32 1028 83 1004 0.73 80 21:20 06.02.2021
2864 Clouds -32 1028 83 1004 0.73 80 20:44 06.02.2021
2865 Clouds -32 1028 83 1056 0.73 72 20:23 06.02.2021
2866 Clouds -32 1028 83 1056 0.73 72 19:51 06.02.2021
2867 Clouds -31 1028 83 997 0.82 69 19:26 06.02.2021
2868 Clouds -32 1028 83 729 0.92 72 18:46 06.02.2021
2869 Clouds -32 1027 83 648 0.84 70 18:27 06.02.2021
2870 Clouds -32 1027 83 648 0.84 70 17:41 06.02.2021
2871 Clouds -32 1026 83 504 0.98 67 17:21 06.02.2021
2872 Clouds -32 1026 83 504 0.98 67 16:57 06.02.2021
2873 Clouds -32 1026 83 504 0.98 67 16:34 06.02.2021
2874 Clouds -32 1026 83 413 1.18 70 15:55 06.02.2021
2875 Clouds -32 1026 83 413 1.18 70 15:36 06.02.2021
2876 Clouds -32 1026 83 489 1.17 72 15:18 06.02.2021
2877 Clouds -32 1026 83 489 1.17 72 14:43 06.02.2021
2878 Clouds -33 1026 83 745 1.08 76 14:22 06.02.2021
2879 Clouds -33 1026 83 745 1.08 76 13:47 06.02.2021
2880 Clouds -33 1025 83 737 1.11 79 12:48 06.02.2021
2881 Clouds -33 1025 83 636 1.21 80 12:20 06.02.2021
2882 Clouds -33 1025 83 636 1.21 80 11:42 06.02.2021
2883 Clouds -33 1024 83 599 1.21 78 11:20 06.02.2021
2884 Clouds -33 1024 83 599 1.21 78 10:53 06.02.2021
2885 Clouds -33 1023 83 641 1.22 74 10:28 06.02.2021
2886 Clouds -33 1023 83 641 1.22 74 09:56 06.02.2021
2887 Clouds -33 1023 83 641 1.22 74 09:36 06.02.2021
2888 Clouds -33 1023 83 645 1.19 77 09:18 06.02.2021
2889 Clouds -33 1022 83 592 1.11 76 08:29 06.02.2021
2890 Clouds -33 1022 83 592 1.11 76 07:54 06.02.2021
2891 Clouds -33 1021 81 749 0.83 104 05:42 06.02.2021
2892 Clouds -33 1021 81 637 0.92 95 03:48 06.02.2021
2893 Clouds -34 1021 82 608 0.95 83 01:37 06.02.2021
2894 Clouds -34 1021 82 715 0.57 90 00:46 06.02.2021
2895 Clouds -35 1021 81 991 0.48 114 00:19 06.02.2021
2896 Clouds -35 1021 81 991 0.48 114 23:42 05.02.2021
2897 Clouds -35 1021 81 1136 0.7 92 23:24 05.02.2021
2898 Clouds -35 1021 81 1136 0.7 92 22:45 05.02.2021
2899 Clouds -35 1021 81 1445 0.64 91 22:19 05.02.2021
2900 Clouds -35 1021 81 1445 0.64 91 21:44 05.02.2021
2901 Clouds -35 1021 81 1955 0.9 92 21:25 05.02.2021
2902 Clouds -35 1021 81 1955 0.9 92 20:43 05.02.2021
2903 Clouds -36 1021 80 2029 0.85 76 19:52 05.02.2021
2904 Clouds -36 1020 81 1764 0.74 82 19:19 05.02.2021
2905 Clouds -36 1020 81 1764 0.74 82 19:19 05.02.2021
2906 Clouds -36 1020 81 1764 0.74 82 18:53 05.02.2021
2907 Clouds -36 1020 80 1728 0.85 88 18:23 05.02.2021
2908 Clouds -36 1020 80 1728 0.85 88 17:44 05.02.2021
2909 Clouds -36 1020 80 1661 1.05 92 17:22 05.02.2021
2910 Clouds -36 1020 80 1661 1.05 92 16:49 05.02.2021
2911 Clouds -36 1020 80 1703 0.85 91 16:24 05.02.2021
2912 Clouds -36 1020 80 1703 0.85 91 15:57 05.02.2021
2913 Clouds -36 1020 80 1967 0.8 92 15:26 05.02.2021
2914 Clouds -36 1020 80 1967 0.8 92 14:41 05.02.2021
2915 Clouds -36 1020 80 2374 0.94 99 14:23 05.02.2021
2916 Clouds -36 1020 80 2374 0.94 99 14:23 05.02.2021
2917 Clouds -36 1020 80 2374 0.94 99 13:59 05.02.2021
2918 Clouds -36 1020 80 2374 0.94 99 13:37 05.02.2021
2919 Clouds -36 1019 80 2866 0.99 99 12:56 05.02.2021
2920 Clouds -36 1019 80 2866 0.99 99 12:37 05.02.2021
2921 Clouds -36 1019 80 3251 0.83 105 11:42 05.02.2021
2922 Clouds -36 1019 80 2816 0.75 111 11:22 05.02.2021
2923 Clouds -36 1019 80 2816 0.75 111 10:59 05.02.2021
2924 Clouds -36 1019 80 3792 0.95 120 10:27 05.02.2021
2925 Clouds -36 1019 80 3792 0.95 120 09:57 05.02.2021
2926 Clouds -36 1019 80 3792 0.95 120 09:39 05.02.2021
2927 Clouds -36 1019 80 4503 0.85 129 09:20 05.02.2021
2928 Clouds -36 1019 80 3881 0.9 147 08:29 05.02.2021
2929 Clouds -36 1019 80 3881 0.9 147 07:39 05.02.2021
2930 Clouds -37 1019 80 5224 1.03 153 06:57 05.02.2021
2931 Clouds -36 1019 80 4688 1.14 176 05:39 05.02.2021
2932 Clouds -35 1019 79 3845 1.23 184 04:50 05.02.2021
2933 Clouds -37 1020 80 3568 1.14 191 02:25 05.02.2021
2934 Clouds -37 1020 80 2921 0.97 196 00:41 05.02.2021
2935 Clouds -37 1020 80 1688 0.74 222 00:21 05.02.2021
2936 Clouds -37 1020 80 1688 0.74 222 23:59 04.02.2021
2937 Clouds -37 1020 80 1688 0.74 222 23:40 04.02.2021
2938 Clouds -37 1020 80 1688 0.74 222 23:40 04.02.2021
2939 Clouds -37 1020 79 1083 1.02 234 23:21 04.02.2021
2940 Clouds -37 1020 79 1083 1.02 234 22:52 04.02.2021
2941 Clouds -38 1020 79 1239 0.94 223 22:29 04.02.2021
2942 Clouds -38 1020 79 1239 0.94 223 21:43 04.02.2021
2943 Clouds -38 1020 78 1404 0.51 235 21:23 04.02.2021
2944 Clouds -38 1020 78 1404 0.51 235 20:54 04.02.2021
2945 Clouds -38 1020 78 1404 0.51 235 20:34 04.02.2021
2946 Clouds -38 1020 78 1404 0.51 235 20:34 04.02.2021
2947 Clouds -39 1020 78 1619 0.84 222 19:49 04.02.2021
2948 Clouds -41 1021 73 7408 0.59 241 19:23 04.02.2021
2949 Clouds -41 1021 73 7408 0.59 241 18:40 04.02.2021
2950 Clouds -42 1021 72 10000 0.9 238 18:21 04.02.2021
2951 Clouds -42 1021 72 10000 0.9 238 17:45 04.02.2021
2952 Clouds -42 1021 71 10000 0.79 239 17:21 04.02.2021
2953 Clouds -42 1021 71 10000 0.79 239 16:48 04.02.2021
2954 Clear -42 1021 71 10000 0.76 237 16:19 04.02.2021
2955 Clear -42 1021 71 10000 0.76 237 15:41 04.02.2021
2956 Clear -42 1021 71 10000 0.98 237 15:21 04.02.2021
2957 Clear -42 1021 71 10000 0.98 237 14:56 04.02.2021
2958 Clear -42 1021 71 10000 0.98 237 14:37 04.02.2021
2959 Clear -42 1021 71 10000 1.05 231 14:19 04.02.2021
2960 Clear -42 1021 71 10000 1.05 231 13:41 04.02.2021
2961 Clear -42 1022 71 10000 0.82 223 12:57 04.02.2021
2962 Clear -42 1022 71 10000 0.97 228 12:27 04.02.2021
2963 Clear -42 1022 71 10000 0.97 228 11:53 04.02.2021
2964 Clear -42 1022 71 10000 0.97 228 11:32 04.02.2021
2965 Clear -42 1022 71 10000 0.91 228 10:48 04.02.2021
2966 Clear -42 1021 71 10000 1.29 228 10:18 04.02.2021
2967 Clear -42 1021 71 10000 1.29 228 09:43 04.02.2021
2968 Clear -42 1021 70 10000 1.18 221 09:19 04.02.2021
2969 Clear -42 1021 70 10000 1.18 221 08:48 04.02.2021
2970 Clear -42 1021 70 10000 0.7 228 08:24 04.02.2021
2971 Clear -42 1021 70 10000 0.7 228 07:43 04.02.2021
2972 Clear -41 1021 71 10000 0.79 235 07:22 04.02.2021
2973 Clear -41 1021 71 10000 0.79 235 06:43 04.02.2021
2974 Clear -40 1020 72 10000 0.77 230 03:54 04.02.2021
2975 Clear -43 1020 69 10000 1.02 230 02:27 04.02.2021
2976 Clear -43 1019 69 10000 1.05 217 00:56 04.02.2021
2977 Clear -43 1018 69 10000 1.09 220 23:44 03.02.2021
2978 Clear -44 1017 69 10000 1.06 219 23:24 03.02.2021
2979 Clear -44 1017 69 10000 0.95 226 22:24 03.02.2021
2980 Clear -44 1017 69 10000 0.95 226 21:59 03.02.2021
2981 Clear -44 1017 69 10000 0.95 226 21:41 03.02.2021
2982 Clear -44 1016 69 10000 0.86 242 21:21 03.02.2021
2983 Clear -44 1016 69 10000 0.86 242 20:46 03.02.2021
2984 Clear -44 1016 69 10000 0.61 255 20:26 03.02.2021
2985 Clear -44 1016 69 10000 0.61 255 19:51 03.02.2021
2986 Clear -44 1016 70 10000 0.66 265 19:23 03.02.2021
2987 Clear -44 1016 71 10000 0.81 245 18:51 03.02.2021
2988 Clear -44 1015 71 10000 0.62 255 18:22 03.02.2021
2989 Clear -44 1015 71 10000 0.62 255 17:57 03.02.2021
2990 Clear -44 1015 71 10000 0.62 255 17:37 03.02.2021
2991 Clear -44 1015 71 10000 0.29 275 17:18 03.02.2021
2992 Clear -44 1015 71 10000 0.29 275 16:36 03.02.2021
2993 Clear -44 1015 71 10000 0.29 275 16:36 03.02.2021
2994 Clear -44 1014 72 10000 0.13 352 15:51 03.02.2021
2995 Clear -44 1014 72 10000 0.13 352 15:31 03.02.2021
2996 Clear -44 1014 72 10000 0.34 12 14:59 03.02.2021
2997 Clear -44 1014 72 10000 0.34 12 14:41 03.02.2021
2998 Clear -44 1014 72 10000 0.44 42 14:20 03.02.2021
2999 Clear -44 1014 72 10000 0.44 42 13:43 03.02.2021
3000 Clouds -44 1014 71 10000 0.32 48 13:19 03.02.2021
3001 Clouds -44 1014 71 10000 0.32 48 12:39 03.02.2021
3002 Clouds -44 1013 72 10000 0.78 69 12:19 03.02.2021
3003 Clouds -44 1013 72 10000 0.78 69 12:19 03.02.2021
3004 Clouds -44 1013 72 10000 0.78 69 11:41 03.02.2021
3005 Clouds -44 1013 72 10000 1.08 64 11:21 03.02.2021
3006 Clouds -44 1012 72 10000 1.05 65 10:28 03.02.2021
3007 Clouds -44 1012 72 10000 1.05 65 09:58 03.02.2021
3008 Clouds -44 1012 72 10000 1.05 65 09:58 03.02.2021
3009 Clouds -44 1012 72 10000 1.05 65 09:38 03.02.2021
3010 Clouds -43 1011 72 10000 1.12 65 09:19 03.02.2021
3011 Clouds -43 1011 72 10000 1.12 65 08:43 03.02.2021
3012 Clear -43 1010 72 10000 1.27 71 07:58 03.02.2021
3013 Clouds -42 1010 74 10000 1.17 78 06:42 03.02.2021
3014 Clouds -40 1009 76 10000 1.27 83 05:19 03.02.2021
3015 Clouds -40 1009 76 10000 1.27 83 04:42 03.02.2021
3016 Clouds -39 1009 76 10000 1.31 83 03:51 03.02.2021
3017 Clouds -41 1008 76 10000 1.32 81 02:40 03.02.2021
3018 Clouds -41 1008 77 10000 1.55 82 01:47 03.02.2021
3019 Clouds -39 1007 78 3955 1.41 86 00:24 03.02.2021
3020 Clouds -39 1007 78 3955 1.41 86 23:43 02.02.2021
3021 Clouds -39 1007 79 909 1.44 85 23:25 02.02.2021
3022 Clouds -39 1007 79 909 1.44 85 22:46 02.02.2021
3023 Clouds -38 1007 79 503 1.63 88 22:20 02.02.2021
3024 Clouds -38 1007 79 503 1.63 88 21:46 02.02.2021
3025 Clouds -38 1008 80 396 1.61 91 21:24 02.02.2021
3026 Clouds -38 1008 80 396 1.61 91 20:49 02.02.2021
3027 Clouds -38 1008 80 519 1.53 96 20:23 02.02.2021
3028 Clouds -38 1008 80 519 1.53 96 19:55 02.02.2021
3029 Clouds -38 1008 80 519 1.53 96 19:37 02.02.2021
3030 Clouds -37 1008 80 686 1.55 100 19:18 02.02.2021
3031 Clouds -37 1008 80 686 1.55 100 18:41 02.02.2021
3032 Clouds -37 1009 80 632 1.35 105 18:22 02.02.2021
3033 Clouds -37 1009 80 632 1.35 105 17:40 02.02.2021
3034 Clouds -37 1009 80 458 1.35 114 17:21 02.02.2021
3035 Clouds -37 1009 80 458 1.35 114 16:50 02.02.2021
3036 Clouds -37 1009 80 458 1.35 114 16:31 02.02.2021
3037 Snow -37 1010 81 285 1.24 122 15:57 02.02.2021
3038 Snow -37 1010 81 285 1.24 122 15:33 02.02.2021
3039 Snow -37 1011 81 173 1.42 133 14:56 02.02.2021
3040 Snow -37 1011 81 173 1.42 133 14:37 02.02.2021
3041 Snow -37 1012 81 141 1.51 144 14:18 02.02.2021
3042 Snow -37 1012 81 141 1.51 144 13:42 02.02.2021
3043 Snow -37 1013 81 134 1.12 162 13:22 02.02.2021
3044 Snow -37 1012 81 138 1.27 149 12:51 02.02.2021
3045 Snow -37 1013 81 127 1.27 154 12:22 02.02.2021
3046 Snow -37 1013 81 127 1.27 154 11:38 02.02.2021
3047 Snow -37 1014 81 123 1.49 165 11:18 02.02.2021
3048 Snow -37 1014 81 123 1.49 165 10:43 02.02.2021
3049 Snow -37 1015 81 123 1.2 200 10:25 02.02.2021
3050 Snow -37 1015 81 123 1.2 200 09:45 02.02.2021
3051 Snow -37 1017 80 124 1.33 220 09:21 02.02.2021
3052 Snow -37 1017 80 124 1.33 220 08:38 02.02.2021
3053 Snow -38 1018 80 126 1.06 192 07:46 02.02.2021
3054 Snow -38 1019 80 152 1.06 206 07:23 02.02.2021
3055 Snow -38 1020 79 152 0.69 202 06:40 02.02.2021
3056 Snow -39 1021 78 219 1.05 222 05:51 02.02.2021
3057 Clouds -40 1024 77 354 1.24 217 03:35 02.02.2021
3058 Clouds -41 1027 77 2409 1.09 221 02:24 02.02.2021
3059 Clouds -42 1028 76 2074 0.97 209 00:40 02.02.2021
3060 Clouds -43 1028 75 2287 1.07 221 23:57 01.02.2021
3061 Clouds -43 1029 75 2303 0.99 205 22:59 01.02.2021
3062 Clouds -43 1029 75 2303 0.99 205 22:59 01.02.2021
3063 Clouds -43 1029 75 2303 0.99 205 22:39 01.02.2021
3064 Clouds -43 1030 75 2159 1.06 204 22:19 01.02.2021
3065 Clouds -43 1030 75 2159 1.06 204 21:46 01.02.2021
3066 Clouds -43 1030 75 2220 0.92 196 21:22 01.02.2021
3067 Clouds -43 1030 75 2220 0.92 196 20:42 01.02.2021
3068 Clouds -43 1031 75 2164 1.05 224 20:24 01.02.2021
3069 Clouds -43 1031 75 2164 1.05 224 19:47 01.02.2021
3070 Clouds -43 1032 75 2261 1.1 213 19:21 01.02.2021
3071 Clouds -44 1032 75 3374 0.8 218 18:56 01.02.2021
3072 Clouds -44 1032 75 3374 0.8 218 18:37 01.02.2021
3073 Clouds -44 1033 74 4031 0.93 215 18:19 01.02.2021
3074 Clouds -44 1033 74 4031 0.93 215 17:41 01.02.2021
3075 Clouds -44 1033 75 4541 0.96 207 17:19 01.02.2021
3076 Clouds -44 1033 75 4541 0.96 207 16:33 01.02.2021
3077 Clouds -45 1034 75 5191 0.59 215 15:56 01.02.2021
3078 Clouds -45 1034 75 5191 0.59 215 15:37 01.02.2021
3079 Clouds -45 1034 74 5918 0.83 232 15:19 01.02.2021
3080 Clouds -45 1034 74 5918 0.83 232 14:46 01.02.2021
3081 Clouds -45 1035 74 6744 0.89 238 14:18 01.02.2021
3082 Clouds -45 1035 74 6744 0.89 238 13:42 01.02.2021
3083 Clouds -44 1035 74 8519 0.94 217 13:22 01.02.2021
3084 Clouds -45 1035 74 10000 1.03 206 12:44 01.02.2021
3085 Clouds -45 1035 74 10000 1.03 206 12:44 01.02.2021
3086 Clouds -44 1035 74 10000 0.72 201 12:23 01.02.2021
3087 Clouds -44 1035 74 10000 0.72 201 11:43 01.02.2021
3088 Clouds -45 1036 74 7629 0.8 204 11:20 01.02.2021
3089 Clouds -45 1036 74 7629 0.8 204 10:46 01.02.2021
3090 Clouds -45 1036 74 10000 0.99 217 10:21 01.02.2021
3091 Clouds -45 1036 74 10000 0.99 217 09:47 01.02.2021
3092 Clouds -45 1036 74 10000 0.84 224 09:25 01.02.2021
3093 Clouds -45 1036 74 10000 0.84 224 08:56 01.02.2021
3094 Clouds -45 1037 75 10000 0.81 230 08:21 01.02.2021
3095 Clouds -44 1036 75 8879 0.83 220 06:51 01.02.2021
3096 Clouds -42 1036 75 8024 0.59 210 04:32 01.02.2021
3097 Clouds -43 1038 75 6544 0.57 246 02:37 01.02.2021
3098 Clouds -44 1038 75 5738 0.24 157 23:47 31.01.2021
3099 Clouds -44 1038 75 5818 0.15 196 22:56 31.01.2021
3100 Clouds -44 1038 75 5818 0.15 196 22:37 31.01.2021
3101 Clouds -44 1038 75 5722 0.25 192 22:18 31.01.2021
3102 Clouds -44 1038 75 5722 0.25 192 21:42 31.01.2021
3103 Clouds -44 1038 75 5366 0.29 231 21:19 31.01.2021
3104 Clouds -44 1038 75 5366 0.29 231 20:42 31.01.2021
3105 Clouds -44 1038 75 5155 0.26 235 20:20 31.01.2021
3106 Clouds -44 1038 75 5155 0.26 235 19:38 31.01.2021
3107 Clouds -43 1038 76 5134 0.42 226 19:19 31.01.2021
3108 Clouds -43 1038 76 5134 0.42 226 18:44 31.01.2021
3109 Clouds -43 1038 76 4785 0.41 202 18:24 31.01.2021
3110 Clouds -43 1038 76 4785 0.41 202 17:57 31.01.2021
3111 Clouds -43 1038 76 4785 0.41 202 17:38 31.01.2021
3112 Clouds -43 1038 76 4486 0.45 174 17:19 31.01.2021
3113 Clouds -43 1038 76 4486 0.45 174 16:41 31.01.2021
3114 Clouds -43 1039 76 4486 0.42 190 16:20 31.01.2021
3115 Clouds -43 1039 76 4486 0.42 190 15:48 31.01.2021
3116 Clouds -43 1039 76 4412 0.55 203 15:18 31.01.2021
3117 Clouds -43 1039 76 4412 0.55 203 14:36 31.01.2021
3118 Clouds -43 1039 76 4576 0.65 196 14:18 31.01.2021
3119 Clouds -43 1039 76 4576 0.65 196 13:39 31.01.2021
3120 Clouds -43 1039 76 4699 0.69 209 13:18 31.01.2021
3121 Clouds -43 1039 76 4675 0.65 205 12:45 31.01.2021
3122 Clouds -43 1039 76 5314 0.49 215 12:20 31.01.2021
3123 Clouds -43 1039 76 5314 0.49 215 11:39 31.01.2021
3124 Clouds -43 1039 76 5986 0.6 229 11:20 31.01.2021
3125 Clouds -43 1039 76 5986 0.6 229 10:45 31.01.2021
3126 Clouds -43 1040 75 6669 0.64 229 10:26 31.01.2021
3127 Clouds -43 1040 75 6669 0.64 229 09:39 31.01.2021
3128 Clouds -43 1040 75 7028 0.58 227 08:52 31.01.2021
3129 Clouds -43 1040 75 7028 0.58 227 08:30 31.01.2021
3130 Clouds -43 1040 76 9227 0.44 227 06:45 31.01.2021
3131 Clouds -41 1041 76 10000 0.38 270 03:46 31.01.2021
3132 Clouds -43 1040 75 10000 0.39 280 00:28 31.01.2021
3133 Clouds -43 1040 75 10000 0.39 280 23:52 30.01.2021
3134 Clouds -43 1040 75 10000 0.3 329 23:24 30.01.2021
3135 Clouds -43 1040 75 10000 0.3 329 22:40 30.01.2021
3136 Clouds -43 1040 75 10000 0.34 318 22:22 30.01.2021
3137 Clouds -43 1040 75 10000 0.34 318 21:39 30.01.2021
3138 Clouds -43 1040 75 10000 0.33 315 21:18 30.01.2021
3139 Clouds -43 1040 75 10000 0.33 315 20:39 30.01.2021
3140 Clouds -43 1040 75 10000 0.37 303 19:59 30.01.2021
3141 Clouds -43 1040 75 10000 0.37 303 19:40 30.01.2021
3142 Clouds -43 1040 75 10000 0.37 303 19:40 30.01.2021
3143 Clouds -42 1040 75 10000 0.18 41 19:19 30.01.2021
3144 Clouds -42 1040 75 10000 0.18 41 18:40 30.01.2021
3145 Clouds -42 1040 75 10000 0.28 44 18:21 30.01.2021
3146 Clouds -42 1040 75 10000 0.28 44 17:49 30.01.2021
3147 Clouds -42 1040 75 10000 0.28 26 17:19 30.01.2021
3148 Clouds -42 1040 75 10000 0.28 26 16:42 30.01.2021
3149 Clouds -42 1039 76 10000 0.27 40 16:23 30.01.2021
3150 Clouds -42 1039 76 10000 0.27 40 15:49 30.01.2021
3151 Clouds -42 1039 76 10000 0.17 50 15:25 30.01.2021
3152 Clouds -42 1039 76 10000 0.17 50 14:58 30.01.2021
3153 Clouds -42 1039 76 10000 0.17 50 14:39 30.01.2021
3154 Clouds -42 1039 76 10000 0.09 199 14:18 30.01.2021
3155 Clouds -41 1039 76 10000 0.09 191 13:24 30.01.2021
3156 Clouds -41 1039 76 10000 0.09 191 12:46 30.01.2021
3157 Clouds -41 1039 76 10000 0.03 195 12:28 30.01.2021
3158 Clouds -41 1039 76 10000 0.03 195 11:53 30.01.2021
3159 Clouds -41 1039 76 10000 0.09 20 11:24 30.01.2021
3160 Clouds -41 1039 76 10000 0.09 20 10:43 30.01.2021
3161 Clouds -41 1039 77 10000 0.06 63 09:43 30.01.2021
3162 Clouds -40 1039 77 10000 0.1 290 09:25 30.01.2021
3163 Clouds -40 1039 77 10000 0.1 290 08:47 30.01.2021
3164 Clouds -40 1039 77 10000 0.25 231 07:44 30.01.2021
3165 Clouds -41 1039 76 10000 0.17 148 06:36 30.01.2021
3166 Clouds -41 1039 76 10000 0.06 93 04:28 30.01.2021
3167 Clouds -41 1039 76 10000 0.06 93 03:34 30.01.2021
3168 Clouds -42 1039 74 10000 0.35 75 02:23 30.01.2021
3169 Clouds -42 1039 74 10000 0.37 62 01:26 30.01.2021
3170 Clouds -42 1039 74 10000 0.47 74 00:35 30.01.2021
3171 Clouds -42 1039 74 10000 0.3 68 23:58 29.01.2021
3172 Clouds -42 1039 74 10000 0.3 68 23:40 29.01.2021
3173 Clouds -42 1038 74 10000 0.22 100 23:18 29.01.2021
3174 Clouds -42 1038 74 10000 0.22 100 22:38 29.01.2021
3175 Clouds -42 1039 74 10000 0.36 123 21:59 29.01.2021
3176 Clouds -42 1039 74 10000 0.13 204 21:28 29.01.2021
3177 Clouds -42 1039 74 10000 0.13 204 20:45 29.01.2021
3178 Clouds -42 1039 73 10000 0.11 253 20:24 29.01.2021
3179 Clouds -42 1039 73 10000 0.11 253 19:43 29.01.2021
3180 Clouds -40 1039 77 7455 0.62 267 19:22 29.01.2021
3181 Clouds -40 1039 77 7455 0.62 267 18:58 29.01.2021
3182 Clouds -41 1039 76 8201 0.49 253 18:18 29.01.2021
3183 Clouds -41 1039 76 8201 0.49 253 17:37 29.01.2021
3184 Clouds -42 1039 75 9323 0.51 262 17:18 29.01.2021
3185 Clouds -42 1039 75 9323 0.51 262 16:44 29.01.2021
3186 Clouds -42 1039 74 10000 0.32 271 16:23 29.01.2021
3187 Clouds -42 1039 74 10000 0.32 271 15:42 29.01.2021
3188 Clouds -43 1039 73 10000 0.32 267 15:24 29.01.2021
3189 Clouds -43 1039 73 10000 0.32 267 14:32 29.01.2021
3190 Clouds -44 1039 73 10000 0.23 267 13:59 29.01.2021
3191 Clouds -44 1039 73 10000 0.23 267 13:37 29.01.2021
3192 Clouds -44 1039 73 10000 0.36 254 13:18 29.01.2021
3193 Clouds -44 1039 73 10000 0.33 264 12:24 29.01.2021
3194 Clouds -44 1039 73 10000 0.33 264 11:47 29.01.2021
3195 Clouds -44 1038 73 10000 0.49 264 11:19 29.01.2021
3196 Clouds -44 1038 73 10000 0.49 264 10:51 29.01.2021
3197 Clouds -44 1038 73 10000 0.34 284 10:27 29.01.2021
3198 Clouds -44 1038 73 10000 0.34 284 09:49 29.01.2021
3199 Clouds -44 1038 73 10000 0.13 305 08:58 29.01.2021
3200 Clouds -44 1038 73 10000 0.13 305 08:34 29.01.2021
3201 Clouds -44 1038 73 10000 0.11 1 07:58 29.01.2021
3202 Clouds -44 1038 73 10000 0.11 1 07:40 29.01.2021
3203 Clouds -44 1038 74 10000 0.19 35 07:20 29.01.2021
3204 Clouds -43 1037 73 10000 0.36 78 05:23 29.01.2021
3205 Clouds -43 1037 73 10000 0.56 90 03:33 29.01.2021
3206 Clouds -45 1037 74 10000 0.27 119 00:43 29.01.2021
3207 Clouds -45 1036 74 10000 0.4 112 00:22 29.01.2021
3208 Clouds -45 1036 74 10000 0.4 112 23:44 28.01.2021
3209 Clouds -45 1036 74 10000 0.56 99 23:25 28.01.2021
3210 Clouds -45 1036 74 10000 0.56 99 22:47 28.01.2021
3211 Clouds -45 1035 74 10000 0.55 115 22:27 28.01.2021
3212 Clouds -45 1035 74 10000 0.55 115 21:57 28.01.2021
3213 Clouds -45 1035 74 10000 0.55 115 21:38 28.01.2021
3214 Clouds -44 1035 75 10000 0.53 123 21:20 28.01.2021
3215 Clouds -44 1035 75 10000 0.53 123 20:39 28.01.2021
3216 Clouds -44 1035 75 10000 0.66 114 20:18 28.01.2021
3217 Clouds -45 1035 74 10000 0.69 97 19:46 28.01.2021
3218 Clouds -45 1035 74 10000 0.7 106 19:23 28.01.2021
3219 Clouds -45 1035 74 10000 0.7 106 18:45 28.01.2021
3220 Clouds -45 1035 74 10000 0.76 114 18:27 28.01.2021
3221 Clouds -45 1035 74 10000 0.76 114 17:47 28.01.2021
3222 Clouds -45 1035 74 10000 0.7 108 17:28 28.01.2021
3223 Clouds -45 1035 74 10000 0.7 108 16:45 28.01.2021
3224 Clouds -44 1035 74 8271 0.74 126 16:25 28.01.2021
3225 Clouds -44 1035 74 8271 0.74 126 15:51 28.01.2021
3226 Clouds -44 1035 74 7192 0.67 134 15:20 28.01.2021
3227 Clouds -44 1035 74 7192 0.67 134 14:42 28.01.2021
3228 Clouds -44 1035 74 5628 0.75 133 14:23 28.01.2021
3229 Clouds -44 1035 74 5628 0.75 133 13:49 28.01.2021
3230 Clouds -44 1035 74 5587 0.68 132 13:19 28.01.2021
3231 Clouds -44 1035 74 5587 0.68 132 12:45 28.01.2021
3232 Clouds -44 1035 74 5687 0.49 132 12:21 28.01.2021
3233 Clouds -44 1035 74 5687 0.49 132 11:44 28.01.2021
3234 Clouds -44 1035 74 5687 0.49 132 11:44 28.01.2021
3235 Clouds -44 1035 74 5097 0.39 133 11:21 28.01.2021
3236 Clouds -44 1035 74 5097 0.39 133 10:55 28.01.2021
3237 Clouds -44 1035 74 5097 0.39 133 10:35 28.01.2021
3238 Clouds -44 1034 74 5995 0.41 121 09:59 28.01.2021
3239 Clouds -44 1034 74 5995 0.41 121 09:31 28.01.2021
3240 Clouds -45 1034 74 10000 0.44 122 08:58 28.01.2021
3241 Clouds -45 1034 74 10000 0.44 122 08:39 28.01.2021
3242 Clouds -45 1034 73 10000 0.44 155 07:48 28.01.2021
3243 Clouds -45 1034 73 10000 0.49 151 06:51 28.01.2021
3244 Clouds -45 1034 73 10000 0.49 151 06:32 28.01.2021
3245 Clouds -43 1034 73 10000 0.32 184 04:30 28.01.2021
3246 Clouds -45 1035 73 10000 0.44 231 02:26 28.01.2021
3247 Clouds -45 1035 73 10000 0.5 250 00:27 28.01.2021
3248 Clouds -45 1036 73 10000 0.43 253 23:25 27.01.2021
3249 Clouds -45 1036 73 10000 0.43 253 22:44 27.01.2021
3250 Clouds -45 1035 73 10000 0.21 149 22:25 27.01.2021
3251 Clouds -45 1035 73 10000 0.21 149 21:57 27.01.2021
3252 Clouds -45 1035 73 10000 0.21 149 21:39 27.01.2021
3253 Clouds -45 1036 73 10000 0.25 202 21:21 27.01.2021
3254 Clouds -45 1036 73 10000 0.25 202 20:40 27.01.2021
3255 Clouds -45 1036 72 10000 0.39 222 19:57 27.01.2021
3256 Clouds -45 1036 72 10000 0.39 222 19:38 27.01.2021
3257 Clouds -45 1036 73 10000 0.55 253 19:20 27.01.2021
3258 Clouds -45 1036 73 10000 0.55 253 18:42 27.01.2021
3259 Clouds -45 1037 73 10000 0.59 254 18:23 27.01.2021
3260 Clouds -45 1037 73 10000 0.59 254 17:46 27.01.2021
3261 Clouds -45 1037 73 10000 0.41 233 17:21 27.01.2021
3262 Clouds -45 1037 73 10000 0.41 233 16:48 27.01.2021
3263 Clouds -45 1037 73 10000 0.3 177 16:28 27.01.2021
3264 Clouds -45 1037 73 10000 0.3 177 15:50 27.01.2021
3265 Clouds -45 1037 73 10000 0.3 177 15:32 27.01.2021
3266 Clouds -45 1037 73 10000 0.45 167 14:45 27.01.2021
3267 Clouds -45 1038 73 10000 0.46 183 14:22 27.01.2021
3268 Clouds -45 1038 73 10000 0.43 191 13:45 27.01.2021
3269 Clouds -45 1038 73 10000 0.54 211 13:19 27.01.2021
3270 Clouds -45 1038 73 10000 0.54 211 12:40 27.01.2021
3271 Clouds -45 1039 73 10000 0.62 211 12:21 27.01.2021
3272 Clouds -45 1039 73 10000 0.62 211 11:44 27.01.2021
3273 Clouds -45 1039 73 10000 0.61 204 11:22 27.01.2021
3274 Clouds -45 1039 73 10000 0.61 204 11:22 27.01.2021
3275 Clouds -45 1039 73 10000 0.61 204 10:40 27.01.2021
3276 Clouds -45 1039 73 10000 0.55 186 10:21 27.01.2021
3277 Clouds -45 1039 73 10000 0.55 186 09:47 27.01.2021
3278 Clouds -45 1039 73 10000 0.46 192 08:59 27.01.2021
3279 Clouds -45 1039 73 10000 0.46 192 08:31 27.01.2021
3280 Clouds -45 1039 73 10000 0.48 181 07:43 27.01.2021
3281 Clouds -45 1039 73 10000 0.48 181 07:43 27.01.2021
3282 Clouds -44 1039 74 10000 0.77 192 07:19 27.01.2021
3283 Clouds -43 1040 73 10000 0.76 202 06:19 27.01.2021
3284 Clouds -43 1040 73 10000 0.76 202 05:44 27.01.2021
3285 Clouds -43 1040 73 10000 0.87 219 03:37 27.01.2021
3286 Clouds -45 1041 74 10000 0.9 208 02:23 27.01.2021
3287 Clouds -45 1041 74 10000 0.9 208 01:51 27.01.2021
3288 Clouds -45 1041 74 10000 0.87 213 00:43 27.01.2021
3289 Clouds -45 1041 74 10000 0.89 213 23:50 26.01.2021
3290 Clouds -45 1041 74 10000 0.89 213 23:32 26.01.2021
3291 Clouds -44 1041 74 10000 0.93 226 22:51 26.01.2021
3292 Clouds -44 1041 74 10000 0.93 226 22:33 26.01.2021
3293 Clouds -44 1041 74 10000 0.87 224 21:55 26.01.2021
3294 Clouds -44 1041 74 10000 0.87 224 21:35 26.01.2021
3295 Clouds -44 1041 73 10000 0.86 231 20:59 26.01.2021
3296 Clouds -44 1041 73 10000 0.86 231 20:40 26.01.2021
3297 Clouds -44 1042 73 10000 0.87 221 20:21 26.01.2021
3298 Clouds -44 1042 73 10000 0.87 221 19:46 26.01.2021
3299 Clouds -44 1042 73 10000 0.67 220 19:24 26.01.2021
3300 Clouds -44 1042 73 10000 0.67 220 18:49 26.01.2021
3301 Clouds -44 1042 74 10000 0.68 235 18:28 26.01.2021
3302 Clouds -44 1042 74 10000 0.68 235 17:58 26.01.2021
3303 Clouds -44 1042 74 10000 0.68 235 17:40 26.01.2021
3304 Clouds -44 1042 74 10000 0.76 237 17:19 26.01.2021
3305 Clouds -44 1042 74 10000 0.76 237 16:40 26.01.2021
3306 Clouds -44 1042 74 10000 0.53 253 16:19 26.01.2021
3307 Clouds -44 1042 74 10000 0.53 253 15:48 26.01.2021
3308 Clouds -44 1043 74 10000 0.6 243 15:27 26.01.2021
3309 Clouds -44 1043 74 10000 0.6 243 14:49 26.01.2021
3310 Clouds -44 1043 74 10000 0.57 251 14:29 26.01.2021
3311 Clouds -44 1043 74 10000 0.57 251 13:38 26.01.2021
3312 Clouds -44 1043 74 10000 0.34 246 13:19 26.01.2021
3313 Clouds -44 1043 74 10000 0.3 252 12:44 26.01.2021
3314 Clouds -44 1043 74 10000 0.18 300 12:25 26.01.2021
3315 Clouds -44 1043 74 10000 0.18 300 11:57 26.01.2021
3316 Clouds -44 1043 74 10000 0.18 300 11:57 26.01.2021
3317 Clouds -44 1043 74 10000 0.18 300 11:38 26.01.2021
3318 Clouds -44 1043 74 10000 0.26 14 10:47 26.01.2021
3319 Clouds -44 1043 74 10000 0.27 7 10:29 26.01.2021
3320 Clouds -44 1043 74 10000 0.27 7 09:47 26.01.2021
3321 Clouds -43 1043 74 10000 0.2 16 09:26 26.01.2021
3322 Clouds -43 1043 74 10000 0.2 16 08:53 26.01.2021
3323 Clouds -43 1043 74 10000 0.32 68 08:29 26.01.2021
3324 Clouds -43 1043 74 10000 0.32 68 07:43 26.01.2021
3325 Clouds -42 1043 77 10000 0.61 52 06:21 26.01.2021
3326 Clouds -42 1043 77 10000 0.61 52 05:42 26.01.2021
3327 Clouds -41 1043 77 10000 0.68 71 04:28 26.01.2021
3328 Clouds -41 1044 77 10000 0.96 67 02:44 26.01.2021
3329 Clouds -41 1043 78 6512 0.73 77 00:56 26.01.2021
3330 Clouds -41 1043 79 6472 0.94 71 23:40 25.01.2021
3331 Clouds -39 1043 78 4593 0.98 65 23:18 25.01.2021
3332 Clouds -39 1043 78 4593 0.98 65 22:39 25.01.2021
3333 Clouds -39 1043 78 3026 0.89 71 21:52 25.01.2021
3334 Clouds -39 1043 78 3026 0.89 71 21:33 25.01.2021
3335 Clouds -39 1043 78 2523 0.86 85 20:52 25.01.2021
3336 Clouds -39 1043 78 2523 0.86 85 20:33 25.01.2021
3337 Clouds -39 1043 78 2523 0.86 85 20:33 25.01.2021
3338 Clouds -38 1043 79 2026 0.97 81 19:52 25.01.2021
3339 Clouds -38 1043 79 2026 0.97 81 19:32 25.01.2021
3340 Clouds -39 1043 78 1821 1.02 72 18:59 25.01.2021
3341 Clouds -42 1043 75 10000 0.96 70 18:41 25.01.2021
3342 Clouds -42 1043 74 10000 0.98 70 18:21 25.01.2021
3343 Clouds -42 1043 74 10000 0.98 70 17:42 25.01.2021
3344 Clouds -43 1043 74 10000 0.84 78 17:23 25.01.2021
3345 Clouds -43 1043 74 10000 0.84 78 16:41 25.01.2021
3346 Clouds -42 1043 74 10000 0.96 83 16:23 25.01.2021
3347 Clouds -42 1043 74 10000 0.96 83 15:50 25.01.2021
3348 Clouds -42 1043 74 10000 0.96 83 15:32 25.01.2021
3349 Clouds -41 1043 75 10000 1.08 77 14:51 25.01.2021
3350 Clouds -40 1043 75 10000 1.05 78 14:20 25.01.2021
3351 Clouds -40 1043 75 10000 1.05 78 13:54 25.01.2021
3352 Clouds -40 1043 75 10000 1.05 78 13:35 25.01.2021
3353 Clouds -42 1043 74 10000 1.05 77 12:49 25.01.2021
3354 Clouds -42 1043 74 10000 1.12 77 12:24 25.01.2021
3355 Clouds -42 1043 74 10000 1.12 77 11:57 25.01.2021
3356 Clouds -42 1043 74 10000 1.11 78 11:22 25.01.2021
3357 Clouds -42 1043 74 10000 1.11 78 10:44 25.01.2021
3358 Clouds -42 1043 74 10000 0.95 84 10:21 25.01.2021
3359 Clouds -42 1043 74 10000 0.95 84 09:47 25.01.2021
3360 Clouds -43 1043 74 10000 1.05 85 09:28 25.01.2021
3361 Clouds -43 1043 74 10000 1.05 85 08:33 25.01.2021
3362 Clouds -43 1042 73 10000 1.01 82 07:51 25.01.2021
3363 Clouds -43 1042 74 10000 1.03 82 07:27 25.01.2021
3364 Clouds -38 1042 77 10000 1.05 77 06:25 25.01.2021
3365 Clouds -40 1041 76 10000 0.99 85 01:37 25.01.2021
3366 Clouds -41 1041 76 10000 1.01 78 00:35 25.01.2021
3367 Clouds -42 1040 75 10000 0.88 81 23:20 24.01.2021
3368 Clouds -42 1040 75 10000 0.88 81 22:48 24.01.2021
3369 Clouds -42 1040 75 10000 1 82 22:28 24.01.2021
3370 Clouds -42 1040 75 10000 1 82 21:59 24.01.2021
3371 Clouds -42 1040 75 10000 1 82 21:30 24.01.2021
3372 Clouds -40 1040 76 10000 0.93 81 20:47 24.01.2021
3373 Clouds -40 1040 76 10000 0.94 83 20:23 24.01.2021
3374 Clouds -40 1040 76 10000 0.94 83 19:58 24.01.2021
3375 Clouds -40 1040 76 10000 0.94 83 19:39 24.01.2021
3376 Clouds -40 1040 76 10000 0.9 78 19:19 24.01.2021
3377 Clouds -40 1040 76 10000 0.9 78 18:55 24.01.2021
3378 Clouds -43 1040 73 10000 0.92 81 18:36 24.01.2021
3379 Clouds -43 1040 73 10000 0.96 74 18:18 24.01.2021
3380 Clouds -43 1040 73 10000 0.96 74 17:43 24.01.2021
3381 Clouds -43 1039 73 10000 0.8 87 17:19 24.01.2021
3382 Clouds -43 1039 73 10000 0.8 87 16:42 24.01.2021
3383 Clouds -43 1039 73 10000 0.72 90 16:21 24.01.2021
3384 Clouds -43 1039 73 10000 0.72 90 15:47 24.01.2021
3385 Clouds -42 1039 73 10000 0.72 88 15:21 24.01.2021
3386 Clouds -42 1039 73 10000 0.72 88 14:57 24.01.2021
3387 Clouds -42 1039 73 10000 0.72 88 14:34 24.01.2021
3388 Clouds -43 1039 73 10000 0.69 89 13:40 24.01.2021
3389 Clouds -43 1039 73 10000 0.62 89 13:18 24.01.2021
3390 Clouds -41 1039 75 10000 0.59 90 12:40 24.01.2021
3391 Clouds -42 1038 74 10000 0.59 99 12:19 24.01.2021
3392 Clouds -42 1038 74 10000 0.59 99 11:46 24.01.2021
3393 Clouds -43 1038 74 10000 0.61 111 11:23 24.01.2021
3394 Clouds -43 1038 74 10000 0.61 111 10:42 24.01.2021
3395 Clouds -43 1037 74 10000 0.67 111 09:59 24.01.2021
3396 Clouds -43 1037 74 10000 0.59 131 09:22 24.01.2021
3397 Clouds -43 1037 74 10000 0.59 131 08:55 24.01.2021
3398 Clouds -43 1037 74 10000 0.67 138 07:41 24.01.2021
3399 Clouds -42 1036 75 10000 0.28 147 02:39 24.01.2021
3400 Clouds -42 1036 75 10000 0.32 196 01:46 24.01.2021
3401 Clouds -42 1035 76 10000 0.36 178 00:24 24.01.2021
3402 Clouds -42 1035 76 10000 0.36 178 23:47 23.01.2021
3403 Clouds -42 1034 76 10000 0.55 216 23:26 23.01.2021
3404 Clouds -42 1034 76 10000 0.55 216 23:26 23.01.2021
3405 Clouds -42 1034 76 10000 0.55 216 22:51 23.01.2021
3406 Clouds -42 1034 76 10000 0.55 216 22:33 23.01.2021
3407 Clouds -42 1034 76 10000 0.46 233 21:52 23.01.2021
3408 Clouds -42 1034 76 10000 0.52 247 21:22 23.01.2021
3409 Clouds -42 1034 76 10000 0.52 247 20:47 23.01.2021
3410 Clouds -42 1034 76 10000 0.38 247 20:25 23.01.2021
3411 Clouds -42 1034 76 10000 0.38 247 19:47 23.01.2021
3412 Clouds -42 1034 76 10000 0.38 247 19:47 23.01.2021
3413 Clouds -42 1034 76 9756 0.38 257 19:23 23.01.2021
3414 Clouds -42 1034 76 10000 0.58 267 18:49 23.01.2021
3415 Clouds -42 1033 76 10000 0.6 263 18:26 23.01.2021
3416 Clouds -42 1033 76 10000 0.6 263 17:54 23.01.2021
3417 Clouds -42 1033 76 10000 0.64 257 17:27 23.01.2021
3418 Clouds -42 1033 76 10000 0.64 257 16:50 23.01.2021
3419 Clouds -42 1033 76 10000 0.64 257 16:31 23.01.2021
3420 Clouds -43 1033 76 10000 0.7 254 15:48 23.01.2021
3421 Clouds -43 1033 76 10000 0.8 249 15:26 23.01.2021
3422 Clouds -43 1033 76 10000 0.8 249 14:37 23.01.2021
3423 Clouds -43 1032 75 10000 0.68 248 14:19 23.01.2021
3424 Clouds -43 1032 75 10000 0.68 248 13:40 23.01.2021
3425 Clouds -43 1032 75 10000 0.77 258 13:21 23.01.2021
3426 Clouds -43 1032 76 10000 0.76 258 12:41 23.01.2021
3427 Clouds -43 1031 76 10000 0.61 257 12:21 23.01.2021
3428 Clouds -43 1031 76 10000 0.61 257 11:34 23.01.2021
3429 Clouds -43 1031 76 10000 0.49 268 10:52 23.01.2021
3430 Clouds -43 1031 76 10000 0.43 281 10:22 23.01.2021
3431 Clouds -43 1031 76 10000 0.43 281 09:49 23.01.2021
3432 Clouds -43 1030 76 10000 0.56 272 08:57 23.01.2021
3433 Clouds -43 1030 76 10000 0.56 272 08:38 23.01.2021
3434 Clouds -43 1030 76 10000 0.45 266 07:37 23.01.2021
3435 Clouds -42 1029 78 10000 0.18 331 05:44 23.01.2021
3436 Clouds -41 1028 78 10000 0.3 46 00:56 23.01.2021
3437 Clouds -41 1027 78 10000 0.3 81 23:59 22.01.2021
3438 Clouds -41 1027 78 10000 0.3 81 23:35 22.01.2021
3439 Clouds -41 1027 79 10000 0.53 82 22:40 22.01.2021
3440 Clouds -41 1027 79 10000 0.6 81 21:56 22.01.2021
3441 Clouds -41 1027 79 10000 0.6 81 21:37 22.01.2021
3442 Clouds -41 1027 79 10000 0.6 81 21:37 22.01.2021
3443 Clouds -40 1026 79 10000 0.6 88 21:19 22.01.2021
3444 Clouds -40 1026 79 10000 0.6 88 20:43 22.01.2021
3445 Clouds -40 1026 79 10000 0.67 101 20:22 22.01.2021
3446 Clouds -40 1026 79 7648 0.78 98 19:26 22.01.2021
3447 Clouds -40 1026 79 7648 0.78 98 18:59 22.01.2021
3448 Clouds -40 1026 79 7648 0.78 98 18:41 22.01.2021
3449 Clouds -39 1025 79 5918 0.8 100 18:23 22.01.2021
3450 Clouds -39 1025 79 5918 0.8 100 17:44 22.01.2021
3451 Clouds -39 1025 80 5239 0.84 103 17:24 22.01.2021
3452 Clouds -39 1025 80 5239 0.84 103 16:44 22.01.2021
3453 Clouds -38 1024 80 4857 0.92 100 16:23 22.01.2021
3454 Clouds -38 1024 80 4857 0.92 100 15:41 22.01.2021
3455 Clouds -38 1024 81 4701 0.92 102 15:18 22.01.2021
3456 Clouds -38 1024 81 4701 0.92 102 14:31 22.01.2021
3457 Clouds -37 1024 81 4078 0.92 101 13:51 22.01.2021
3458 Clouds -40 1025 79 7245 0.64 91 13:31 22.01.2021
3459 Clouds -36 1023 81 3180 0.92 101 12:53 22.01.2021
3460 Clouds -39 1025 79 6079 0.58 97 12:26 22.01.2021
3461 Clouds -39 1025 79 6079 0.58 97 11:47 22.01.2021
3462 Clouds -39 1025 79 5811 0.67 103 11:25 22.01.2021
3463 Clouds -39 1025 79 5811 0.67 103 10:45 22.01.2021
3464 Clouds -38 1024 80 5635 0.67 104 10:20 22.01.2021
3465 Clouds -38 1024 80 5635 0.67 104 09:35 22.01.2021
3466 Clouds -38 1024 80 5625 0.62 104 08:51 22.01.2021
3467 Clouds -38 1024 80 5625 0.62 104 08:30 22.01.2021
3468 Clouds -37 1024 81 5013 0.59 113 07:40 22.01.2021
3469 Clouds -35 1022 81 2437 0.5 116 03:41 22.01.2021
3470 Clouds -35 1022 81 1333 0.44 116 00:54 22.01.2021
3471 Clouds -35 1021 80 1502 0.37 133 23:56 21.01.2021
3472 Clouds -35 1021 80 1502 0.37 133 23:38 21.01.2021
3473 Clouds -36 1021 79 1551 0.41 129 22:59 21.01.2021
3474 Clouds -36 1021 79 1551 0.41 129 22:41 21.01.2021
3475 Clouds -36 1021 79 2849 0.58 143 21:44 21.01.2021
3476 Clouds -36 1021 78 5398 0.66 143 21:23 21.01.2021
3477 Clouds -36 1021 78 5398 0.66 143 20:57 21.01.2021
3478 Clouds -36 1021 78 5398 0.66 143 20:39 21.01.2021
3479 Clouds -36 1022 77 8268 0.5 164 20:18 21.01.2021
3480 Clouds -36 1022 77 8268 0.5 164 19:46 21.01.2021
3481 Clouds -36 1022 77 10000 0.61 177 19:24 21.01.2021
3482 Clouds -36 1022 77 10000 0.61 177 18:42 21.01.2021
3483 Clouds -37 1022 76 10000 0.47 194 18:21 21.01.2021
3484 Clouds -37 1022 76 10000 0.47 194 17:57 21.01.2021
3485 Clouds -37 1021 76 10000 0.79 207 17:21 21.01.2021
3486 Clouds -37 1021 76 10000 0.79 207 16:55 21.01.2021
3487 Clouds -37 1021 76 10000 0.79 207 16:37 21.01.2021
3488 Clouds -37 1021 76 10000 1.07 201 16:18 21.01.2021
3489 Clouds -37 1021 76 10000 1.07 201 15:46 21.01.2021
3490 Clouds -38 1022 75 10000 1.09 194 15:24 21.01.2021
3491 Clouds -38 1022 75 10000 1.09 194 14:44 21.01.2021
3492 Clouds -38 1022 74 10000 0.93 196 14:23 21.01.2021
3493 Clouds -38 1022 74 10000 0.93 196 13:43 21.01.2021
3494 Clouds -38 1022 77 3928 1.19 217 13:23 21.01.2021
3495 Clouds -38 1022 77 3928 1.19 217 12:42 21.01.2021
3496 Clouds -38 1022 77 5370 1.18 216 12:24 21.01.2021
3497 Clouds -38 1022 77 5370 1.18 216 11:51 21.01.2021
3498 Clouds -38 1022 77 5370 1.18 216 11:30 21.01.2021
3499 Clouds -38 1022 76 4654 1.42 222 10:52 21.01.2021
3500 Clouds -38 1022 76 4654 1.42 222 10:33 21.01.2021
3501 Clouds -38 1022 76 8938 1.34 222 09:45 21.01.2021
3502 Clouds -39 1023 75 7846 1.61 217 09:26 21.01.2021
3503 Clouds -39 1023 75 7846 1.61 217 08:55 21.01.2021
3504 Clouds -39 1023 74 9365 1.56 215 08:27 21.01.2021
3505 Clouds -39 1023 74 9365 1.56 215 07:43 21.01.2021
3506 Clouds -39 1022 74 10000 1.55 219 07:20 21.01.2021
3507 Clouds -40 1023 76 8425 1.48 226 05:50 21.01.2021
3508 Clouds -39 1023 76 10000 1.64 220 04:28 21.01.2021
3509 Clouds -37 1023 78 3707 1.39 233 01:25 21.01.2021
3510 Clouds -37 1023 79 3169 1.37 233 00:40 21.01.2021
3511 Clouds -36 1023 80 1973 1.15 240 23:43 20.01.2021
3512 Clouds -36 1023 80 1137 1.19 241 23:22 20.01.2021
3513 Clouds -36 1023 80 1137 1.19 241 22:49 20.01.2021
3514 Clouds -36 1023 80 875 0.93 243 22:28 20.01.2021
3515 Clouds -36 1023 80 875 0.93 243 21:48 20.01.2021
3516 Clouds -36 1022 80 1265 0.95 254 21:22 20.01.2021
3517 Clouds -36 1022 80 1265 0.95 254 20:50 20.01.2021
3518 Clouds -36 1022 80 1984 1.06 246 20:21 20.01.2021
3519 Clouds -36 1022 80 1984 1.06 246 19:47 20.01.2021
3520 Clouds -36 1022 80 1688 0.9 246 19:28 20.01.2021
3521 Clouds -36 1022 81 812 0.77 260 18:43 20.01.2021
3522 Clouds -36 1022 81 649 0.68 273 18:20 20.01.2021
3523 Clouds -36 1022 81 649 0.68 273 17:48 20.01.2021
3524 Clouds -35 1022 81 800 0.78 266 17:27 20.01.2021
3525 Clouds -35 1022 81 800 0.78 266 16:49 20.01.2021
3526 Clouds -35 1022 81 734 0.89 262 16:22 20.01.2021
3527 Clouds -35 1022 81 734 0.89 262 15:38 20.01.2021
3528 Clouds -35 1022 81 610 0.79 269 15:19 20.01.2021
3529 Clouds -35 1022 81 610 0.79 269 14:40 20.01.2021
3530 Clouds -35 1022 81 652 0.73 264 14:20 20.01.2021
3531 Clouds -35 1022 81 652 0.73 264 13:37 20.01.2021
3532 Clouds -35 1022 81 866 0.57 265 12:56 20.01.2021
3533 Clouds -36 1022 80 1002 0.6 257 12:22 20.01.2021
3534 Clouds -36 1022 80 1002 0.6 257 12:22 20.01.2021
3535 Clouds -36 1022 80 1002 0.6 257 11:41 20.01.2021
3536 Clouds -36 1022 80 1678 0.2 251 11:20 20.01.2021
3537 Clouds -36 1022 80 1678 0.2 251 10:49 20.01.2021
3538 Clouds -36 1022 80 2140 0.11 56 10:25 20.01.2021
3539 Clouds -36 1022 80 2140 0.11 56 09:39 20.01.2021
3540 Clouds -36 1022 80 2569 0.16 34 09:19 20.01.2021
3541 Clouds -36 1022 80 2569 0.16 34 08:44 20.01.2021
3542 Clouds -37 1022 80 3170 0.12 338 08:23 20.01.2021
3543 Clouds -37 1022 80 3170 0.12 338 07:54 20.01.2021
3544 Clouds -37 1022 80 3158 0.26 270 07:24 20.01.2021
3545 Clouds -36 1022 80 725 0.22 174 04:50 20.01.2021
3546 Clouds -37 1022 80 609 0.08 247 02:58 20.01.2021
3547 Clouds -38 1022 79 1058 0.37 231 00:58 20.01.2021
3548 Clouds -37 1022 79 1104 0.7 212 23:59 19.01.2021
3549 Clouds -37 1022 79 1104 0.7 212 23:41 19.01.2021
3550 Clouds -38 1022 77 4941 0.96 205 23:18 19.01.2021
3551 Clouds -38 1022 77 4941 0.96 205 22:41 19.01.2021
3552 Clouds -39 1023 76 10000 1.15 197 22:21 19.01.2021
3553 Clouds -39 1023 76 10000 1.15 197 21:58 19.01.2021
3554 Clouds -39 1023 76 10000 1.15 197 21:39 19.01.2021
3555 Clouds -40 1023 77 10000 1.11 183 20:55 19.01.2021
3556 Clouds -40 1023 77 10000 1.11 183 20:36 19.01.2021
3557 Clouds -40 1023 77 10000 1.15 188 20:18 19.01.2021
3558 Clouds -40 1023 77 10000 1.15 188 19:41 19.01.2021
3559 Clouds -39 1023 78 7866 0.87 196 19:19 19.01.2021
3560 Clouds -36 1023 80 1668 0.64 225 18:39 19.01.2021
3561 Clouds -36 1023 80 1282 0.78 210 18:21 19.01.2021
3562 Clouds -36 1023 80 1282 0.78 210 17:45 19.01.2021
3563 Clouds -37 1023 80 1881 0.61 177 17:23 19.01.2021
3564 Clouds -37 1023 80 1881 0.61 177 16:45 19.01.2021
3565 Clouds -36 1024 80 1380 0.62 135 16:25 19.01.2021
3566 Clouds -36 1024 80 1380 0.62 135 15:56 19.01.2021
3567 Clouds -36 1024 80 1380 0.62 135 15:35 19.01.2021
3568 Clouds -37 1024 80 1849 0.75 144 14:51 19.01.2021
3569 Clouds -37 1024 80 1849 0.75 144 14:31 19.01.2021
3570 Clouds -37 1024 80 1761 0.94 157 13:56 19.01.2021
3571 Clouds -37 1024 80 1761 0.94 157 13:37 19.01.2021
3572 Clouds -37 1025 80 1186 1.08 178 13:19 19.01.2021
3573 Clouds -37 1025 80 1635 0.9 180 12:38 19.01.2021
3574 Clouds -37 1025 80 1049 1.02 188 12:19 19.01.2021
3575 Clouds -37 1025 80 1049 1.02 188 11:43 19.01.2021
3576 Clouds -37 1025 80 598 0.89 174 11:22 19.01.2021
3577 Clouds -37 1025 80 598 0.89 174 10:50 19.01.2021
3578 Clouds -37 1025 80 598 0.89 174 10:30 19.01.2021
3579 Clouds -37 1025 80 458 0.88 160 09:52 19.01.2021
3580 Clouds -38 1026 79 404 0.83 175 09:21 19.01.2021
3581 Clouds -38 1026 79 404 0.83 175 08:48 19.01.2021
3582 Clouds -38 1026 79 587 0.88 172 08:18 19.01.2021
3583 Clouds -38 1026 79 872 0.73 167 07:28 19.01.2021
3584 Clouds -38 1026 79 588 0.66 118 05:42 19.01.2021
3585 Clouds -39 1027 79 354 0.54 146 02:27 19.01.2021
3586 Clouds -39 1028 78 320 0.68 167 00:47 19.01.2021
3587 Clouds -40 1028 78 1185 0.61 165 23:58 18.01.2021
3588 Clouds -40 1028 78 1185 0.61 165 23:31 18.01.2021
3589 Clouds -40 1028 78 1855 0.79 164 22:51 18.01.2021
3590 Clouds -40 1028 77 5975 0.55 179 22:24 18.01.2021
3591 Clouds -40 1028 77 5975 0.55 179 21:49 18.01.2021
3592 Clouds -40 1029 76 10000 0.44 193 21:24 18.01.2021
3593 Clouds -40 1029 76 10000 0.44 193 20:59 18.01.2021
3594 Clouds -40 1029 76 10000 0.44 193 20:38 18.01.2021
3595 Clouds -41 1029 76 10000 0.36 162 20:20 18.01.2021
3596 Clouds -41 1029 76 10000 0.36 162 19:48 18.01.2021
3597 Clouds -42 1030 75 10000 0.11 285 19:27 18.01.2021
3598 Clouds -41 1031 75 10000 0 293 18:44 18.01.2021
3599 Clouds -42 1031 75 10000 0.39 276 18:21 18.01.2021
3600 Clouds -42 1031 75 10000 0.39 276 17:40 18.01.2021
3601 Clouds -42 1030 74 10000 0.39 236 17:19 18.01.2021
3602 Clouds -42 1030 74 10000 0.39 236 16:46 18.01.2021
3603 Clouds -43 1031 74 10000 0.34 217 16:20 18.01.2021
3604 Clouds -43 1031 74 10000 0.34 217 15:42 18.01.2021
3605 Clouds -43 1032 73 10000 0.24 248 15:20 18.01.2021
3606 Clouds -43 1032 73 10000 0.24 248 14:43 18.01.2021
3607 Clouds -44 1032 73 10000 0.33 197 14:25 18.01.2021
3608 Clouds -44 1032 73 10000 0.33 197 13:46 18.01.2021
3609 Clouds -45 1032 74 10000 0.26 213 13:26 18.01.2021
3610 Clouds -45 1032 73 10000 0.33 239 12:52 18.01.2021
3611 Clouds -45 1033 73 10000 0.35 282 12:20 18.01.2021
3612 Clouds -45 1033 73 10000 0.35 282 12:20 18.01.2021
3613 Clouds -45 1033 73 10000 0.35 282 11:56 18.01.2021
3614 Clouds -45 1033 73 10000 0.35 282 11:37 18.01.2021
3615 Clouds -46 1033 75 10000 0.4 252 11:19 18.01.2021
3616 Clouds -46 1033 75 10000 0.4 252 10:42 18.01.2021
3617 Clouds -46 1033 75 10000 0.49 199 09:47 18.01.2021
3618 Clouds -46 1033 75 10000 0.36 180 09:27 18.01.2021
3619 Clouds -46 1033 75 10000 0.36 180 08:52 18.01.2021
3620 Clouds -46 1033 75 10000 0.33 117 08:18 18.01.2021
3621 Clouds -46 1033 75 10000 0.33 117 07:36 18.01.2021
3622 Clouds -46 1033 75 10000 0.46 203 05:35 18.01.2021
3623 Clouds -45 1033 75 10000 0.52 184 04:37 18.01.2021
3624 Clouds -45 1033 74 10000 0.49 171 04:18 18.01.2021
3625 Clouds -45 1033 74 10000 0.49 171 03:41 18.01.2021
3626 Clouds -45 1033 75 10000 0.42 181 03:20 18.01.2021
3627 Clouds -45 1033 75 10000 0.42 181 02:37 18.01.2021
3628 Clouds -45 1034 75 10000 0.59 189 01:36 18.01.2021
3629 Clouds -45 1034 75 10000 0.53 197 00:32 18.01.2021
3630 Clouds -45 1033 75 10000 0.6 202 23:48 17.01.2021
3631 Clouds -45 1033 75 10000 0.53 202 23:21 17.01.2021
3632 Clouds -45 1033 75 10000 0.53 202 22:46 17.01.2021
3633 Clouds -45 1033 75 10000 0.51 202 22:22 17.01.2021
3634 Clouds -45 1033 75 10000 0.51 202 21:42 17.01.2021
3635 Clouds -45 1033 75 10000 0.44 198 21:24 17.01.2021
3636 Clouds -45 1033 75 10000 0.44 198 20:49 17.01.2021
3637 Clouds -45 1033 75 10000 0.44 198 20:30 17.01.2021
3638 Clouds -45 1033 75 10000 0.4 172 19:43 17.01.2021
3639 Clouds -45 1033 75 10000 0.38 171 19:25 17.01.2021
3640 Clouds -45 1033 75 10000 0.38 171 19:25 17.01.2021
3641 Clouds -45 1033 75 10000 0.38 171 18:51 17.01.2021
3642 Clouds -45 1033 75 10000 0.49 203 18:28 17.01.2021
3643 Clouds -45 1033 75 10000 0.49 203 17:49 17.01.2021
3644 Clouds -44 1033 75 10000 0.57 203 17:28 17.01.2021
3645 Clouds -44 1033 75 10000 0.57 203 16:45 17.01.2021
3646 Clouds -44 1033 75 10000 0.47 187 16:24 17.01.2021
3647 Clouds -44 1033 75 10000 0.47 187 15:44 17.01.2021
3648 Clouds -44 1033 75 10000 0.36 179 15:26 17.01.2021
3649 Clouds -44 1033 75 10000 0.36 179 14:53 17.01.2021
3650 Clouds -44 1033 75 10000 0.37 153 14:27 17.01.2021
3651 Clouds -44 1033 75 10000 0.37 153 13:58 17.01.2021
3652 Clouds -44 1033 75 10000 0.37 153 13:40 17.01.2021
3653 Clouds -44 1033 75 10000 0.29 158 13:21 17.01.2021
3654 Clouds -44 1033 75 10000 0.32 130 12:41 17.01.2021
3655 Clouds -44 1033 75 10000 0.26 126 12:22 17.01.2021
3656 Clouds -44 1032 75 10000 0.28 126 11:25 17.01.2021
3657 Clouds -44 1032 75 10000 0.28 126 10:51 17.01.2021
3658 Clouds -43 1032 75 10000 0.29 129 10:24 17.01.2021
3659 Clouds -43 1032 75 10000 0.29 129 09:50 17.01.2021
3660 Clouds -43 1032 76 9596 0.26 130 08:58 17.01.2021
3661 Clouds -43 1032 76 9596 0.26 130 08:40 17.01.2021
3662 Clouds -42 1031 77 9213 0.25 150 04:30 17.01.2021
3663 Clouds -43 1032 76 7185 0.24 61 02:51 17.01.2021
3664 Clouds -42 1031 77 10000 0.12 167 00:56 17.01.2021
3665 Clouds -42 1031 77 9317 0.18 230 00:21 17.01.2021
3666 Clouds -42 1031 77 9317 0.18 230 23:52 16.01.2021
3667 Clouds -41 1031 78 6131 0.23 232 23:22 16.01.2021
3668 Clouds -41 1031 78 6131 0.23 232 22:54 16.01.2021
3669 Clouds -41 1030 78 6098 0.14 220 22:19 16.01.2021
3670 Clouds -41 1030 78 6098 0.14 220 21:46 16.01.2021
3671 Clouds -41 1030 78 6715 0.25 215 21:23 16.01.2021
3672 Clouds -41 1030 78 6715 0.25 215 20:48 16.01.2021
3673 Clouds -41 1030 78 6217 0.09 129 20:24 16.01.2021
3674 Clouds -41 1030 78 6217 0.09 129 19:49 16.01.2021
3675 Clouds -41 1030 78 6217 0.09 129 19:30 16.01.2021
3676 Clouds -42 1030 77 10000 0.18 230 18:46 16.01.2021
3677 Clouds -41 1030 78 10000 0.25 185 18:27 16.01.2021
3678 Clouds -41 1030 78 10000 0.25 185 17:58 16.01.2021
3679 Clouds -41 1030 78 10000 0.25 185 17:39 16.01.2021
3680 Clouds -40 1030 77 10000 0.11 146 17:20 16.01.2021
3681 Clouds -40 1030 77 10000 0.11 146 16:41 16.01.2021
3682 Clouds -40 1030 78 10000 0.12 212 15:58 16.01.2021
3683 Clouds -40 1030 78 10000 0.12 212 15:39 16.01.2021
3684 Clouds -41 1030 78 10000 0.19 195 14:34 16.01.2021
3685 Clouds -41 1030 78 10000 0.25 124 13:53 16.01.2021
3686 Clouds -41 1030 78 10000 0.25 124 13:31 16.01.2021
3687 Clouds -41 1030 78 10000 0.17 104 12:49 16.01.2021
3688 Clouds -41 1030 78 10000 0.31 120 12:31 16.01.2021
3689 Clouds -41 1030 78 10000 0.2 106 11:59 16.01.2021
3690 Clouds -41 1030 78 10000 0.2 106 11:39 16.01.2021
3691 Clouds -41 1030 78 10000 0.33 98 11:18 16.01.2021
3692 Clouds -41 1030 78 10000 0.33 98 10:41 16.01.2021
3693 Clouds -40 1029 79 10000 0.47 103 09:57 16.01.2021
3694 Clouds -40 1029 79 6655 0.62 100 09:21 16.01.2021
3695 Clouds -39 1028 79 5286 0.57 83 08:19 16.01.2021
3696 Clouds -38 1028 80 3006 0.67 62 06:54 16.01.2021
3697 Clouds -37 1028 80 3296 0.83 63 05:35 16.01.2021
3698 Clouds -36 1028 80 2186 0.81 73 03:44 16.01.2021
3699 Clouds -36 1027 80 1636 0.74 72 02:47 16.01.2021
3700 Clouds -36 1027 81 613 0.58 79 00:47 16.01.2021
3701 Clouds -36 1027 81 402 0.53 100 00:23 16.01.2021
3702 Clouds -36 1027 81 402 0.53 100 23:39 15.01.2021
3703 Clouds -36 1027 81 357 0.66 97 22:42 15.01.2021
3704 Clouds -36 1027 81 371 0.67 122 22:21 15.01.2021
3705 Clouds -36 1027 81 371 0.67 122 21:44 15.01.2021
3706 Clouds -36 1027 81 420 0.72 122 20:50 15.01.2021
3707 Clouds -36 1027 80 575 0.65 157 20:24 15.01.2021
3708 Clouds -36 1027 80 575 0.65 157 19:58 15.01.2021
3709 Clouds -36 1027 80 575 0.65 157 19:39 15.01.2021
3710 Clouds -36 1027 80 690 0.72 182 19:21 15.01.2021
3711 Clouds -36 1027 80 811 0.65 176 18:42 15.01.2021
3712 Clouds -37 1027 80 868 0.77 185 18:18 15.01.2021
3713 Clouds -37 1027 80 868 0.77 185 17:42 15.01.2021
3714 Clouds -37 1027 80 1631 0.99 200 17:22 15.01.2021
3715 Clouds -37 1027 80 1631 0.99 200 16:49 15.01.2021
3716 Clouds -37 1028 80 2129 0.94 201 16:24 15.01.2021
3717 Clouds -37 1028 80 2129 0.94 201 15:41 15.01.2021
3718 Clouds -37 1028 80 1908 0.83 211 15:21 15.01.2021
3719 Clouds -37 1028 80 1908 0.83 211 14:48 15.01.2021
3720 Clouds -38 1028 79 1513 0.88 221 14:27 15.01.2021
3721 Clouds -38 1028 79 1513 0.88 221 13:43 15.01.2021
3722 Clouds -38 1029 79 1292 0.92 225 13:23 15.01.2021
3723 Clouds -38 1029 79 1292 0.92 225 12:59 15.01.2021
3724 Clouds -38 1029 79 1193 0.87 215 12:34 15.01.2021
3725 Clouds -38 1029 78 1895 0.92 225 11:59 15.01.2021
3726 Clouds -38 1029 78 1895 0.92 225 11:41 15.01.2021
3727 Clouds -38 1029 77 3108 1.13 231 10:58 15.01.2021
3728 Clouds -38 1029 77 3108 1.13 231 10:39 15.01.2021
3729 Clouds -38 1029 74 3698 1.14 225 10:19 15.01.2021
3730 Clouds -38 1029 74 3698 1.14 225 09:46 15.01.2021
3731 Clouds -39 1029 72 8094 0.99 225 09:27 15.01.2021
3732 Clouds -39 1030 72 10000 0.83 225 08:27 15.01.2021
3733 Clouds -39 1030 72 10000 0.83 225 07:41 15.01.2021
3734 Clouds -40 1030 71 10000 0.9 232 07:21 15.01.2021
3735 Clouds -39 1030 73 10000 0.89 244 05:36 15.01.2021
3736 Clouds -42 1030 68 10000 0.56 240 02:19 15.01.2021
3737 Clouds -43 1030 67 10000 0.63 230 00:20 15.01.2021
3738 Clouds -43 1030 67 10000 0.66 228 23:29 14.01.2021
3739 Clouds -43 1030 67 10000 0.66 228 22:50 14.01.2021
3740 Clouds -43 1030 67 10000 0.6 221 22:27 14.01.2021
3741 Clouds -43 1030 67 10000 0.6 221 21:56 14.01.2021
3742 Clouds -43 1030 67 10000 0.6 221 21:38 14.01.2021
3743 Clouds -43 1030 67 10000 0.72 211 21:19 14.01.2021
3744 Clouds -43 1030 67 10000 0.72 211 20:42 14.01.2021
3745 Clouds -43 1030 66 10000 0.76 207 19:57 14.01.2021
3746 Clouds -43 1030 66 10000 0.76 207 19:36 14.01.2021
3747 Clouds -43 1030 66 10000 0.76 207 19:36 14.01.2021
3748 Clouds -43 1030 66 10000 0.68 218 18:57 14.01.2021
3749 Clouds -42 1030 67 10000 0.8 235 18:36 14.01.2021
3750 Clouds -42 1030 66 10000 0.96 235 17:55 14.01.2021
3751 Clouds -43 1030 66 10000 1.04 233 17:29 14.01.2021
3752 Clouds -43 1030 66 10000 1.04 233 16:54 14.01.2021
3753 Clouds -43 1030 66 10000 1.04 233 16:31 14.01.2021
3754 Clouds -43 1029 65 10000 0.97 227 15:54 14.01.2021
3755 Clouds -43 1029 65 10000 0.97 227 15:30 14.01.2021
3756 Clouds -43 1029 65 10000 0.82 235 14:45 14.01.2021
3757 Clouds -43 1030 65 10000 0.92 237 14:24 14.01.2021
3758 Clouds -43 1030 65 10000 0.92 237 13:56 14.01.2021
3759 Clouds -43 1030 64 10000 0.92 244 13:24 14.01.2021
3760 Clouds -43 1030 64 10000 0.92 244 12:57 14.01.2021
3761 Clouds -43 1029 64 10000 0.89 244 12:23 14.01.2021
3762 Clouds -43 1029 64 10000 0.89 244 11:59 14.01.2021
3763 Clouds -43 1029 64 10000 0.89 244 11:41 14.01.2021
3764 Clear -43 1029 64 10000 0.89 246 11:19 14.01.2021
3765 Clear -43 1029 64 10000 0.89 246 10:42 14.01.2021
3766 Clear -43 1028 64 10000 0.83 243 10:19 14.01.2021
3767 Clear -43 1028 64 10000 0.83 243 09:42 14.01.2021
3768 Clouds -43 1028 64 10000 0.83 249 09:21 14.01.2021
3769 Clouds -43 1028 64 10000 0.83 249 08:39 14.01.2021
3770 Clouds -43 1028 64 10000 0.9 259 08:19 14.01.2021
3771 Clouds -43 1028 64 10000 0.9 259 07:41 14.01.2021
3772 Clouds -43 1028 63 10000 0.75 263 06:38 14.01.2021
3773 Clouds -42 1027 65 10000 0.73 261 04:59 14.01.2021
3774 Clouds -43 1027 65 10000 0.7 274 00:36 14.01.2021
3775 Clouds -43 1027 65 10000 0.66 278 23:48 13.01.2021
3776 Clouds -43 1026 65 10000 0.61 280 22:51 13.01.2021
3777 Clouds -43 1026 64 10000 0.54 295 22:27 13.01.2021
3778 Clouds -43 1026 64 10000 0.54 295 21:50 13.01.2021
3779 Clouds -43 1025 64 10000 0.43 290 21:24 13.01.2021
3780 Clouds -43 1025 64 10000 0.43 290 20:54 13.01.2021
3781 Clouds -43 1025 64 10000 0.33 284 20:28 13.01.2021
3782 Clouds -43 1025 64 10000 0.33 284 19:57 13.01.2021
3783 Clouds -43 1025 64 10000 0.33 284 19:32 13.01.2021
3784 Clouds -43 1025 64 10000 0.17 317 18:58 13.01.2021
3785 Clouds -43 1026 64 10000 0.43 308 18:36 13.01.2021
3786 Clouds -43 1025 64 10000 0.53 299 17:51 13.01.2021
3787 Clouds -43 1024 64 10000 0.54 291 17:23 13.01.2021
3788 Clouds -43 1024 64 10000 0.54 291 16:50 13.01.2021
3789 Clear -43 1024 64 10000 0.41 281 16:21 13.01.2021
3790 Clear -43 1024 64 10000 0.41 281 16:21 13.01.2021
3791 Clear -43 1024 64 10000 0.41 281 15:52 13.01.2021
3792 Clear -43 1024 64 10000 0.41 281 15:32 13.01.2021
3793 Clouds -43 1024 64 10000 0.16 318 14:43 13.01.2021
3794 Clouds -43 1024 64 10000 0.27 27 13:53 13.01.2021
3795 Clouds -43 1023 64 10000 0.28 356 13:27 13.01.2021
3796 Clouds -43 1023 64 10000 0.25 325 12:47 13.01.2021
3797 Clouds -43 1023 64 10000 0.31 275 12:28 13.01.2021
3798 Clouds -43 1023 64 10000 0.31 275 11:55 13.01.2021
3799 Clouds -43 1023 64 10000 0.31 275 11:35 13.01.2021
3800 Clouds -43 1022 64 10000 0.21 294 10:55 13.01.2021
3801 Clouds -43 1022 64 10000 0.21 294 10:37 13.01.2021
3802 Clouds -43 1022 64 10000 0.14 328 09:55 13.01.2021
3803 Clouds -43 1022 64 10000 0.14 328 09:30 13.01.2021
3804 Clouds -43 1022 64 10000 0.01 282 08:51 13.01.2021
3805 Clouds -43 1022 64 10000 0.01 282 08:31 13.01.2021
3806 Clouds -43 1021 64 10000 0.13 40 07:35 13.01.2021
3807 Clear -43 1021 64 10000 0.23 319 06:54 13.01.2021
3808 Clear -43 1021 63 10000 0.18 235 04:20 13.01.2021
3809 Clear -43 1021 63 10000 0.18 235 03:45 13.01.2021
3810 Clear -43 1021 64 10000 0.29 151 03:27 13.01.2021
3811 Clear -43 1021 64 10000 0.33 154 01:32 13.01.2021
3812 Clear -43 1020 64 10000 0.21 273 00:29 13.01.2021
3813 Clear -43 1020 64 10000 0.47 282 23:22 12.01.2021
3814 Clear -43 1020 64 10000 0.47 282 22:46 12.01.2021
3815 Clear -43 1020 64 10000 0.47 282 22:46 12.01.2021
3816 Clear -43 1020 64 10000 0.41 281 22:24 12.01.2021
3817 Clear -43 1020 64 10000 0.41 281 21:51 12.01.2021
3818 Clear -43 1020 64 10000 0.41 281 21:30 12.01.2021
3819 Clear -43 1019 64 10000 0.21 246 20:49 12.01.2021
3820 Clear -43 1019 64 10000 0.17 147 20:27 12.01.2021
3821 Clear -43 1019 64 10000 0.17 147 19:56 12.01.2021
3822 Clear -43 1019 64 10000 0.17 147 19:37 12.01.2021
3823 Clear -43 1019 64 10000 0.33 125 18:49 12.01.2021
3824 Clear -43 1020 66 10000 0.18 131 18:24 12.01.2021
3825 Clear -43 1020 66 10000 0.18 131 17:48 12.01.2021
3826 Clear -43 1020 66 10000 0.18 131 17:30 12.01.2021
3827 Clear -43 1019 66 10000 0.05 70 16:44 12.01.2021
3828 Clear -43 1019 66 10000 0.08 299 16:24 12.01.2021
3829 Clear -43 1019 66 10000 0.08 299 15:45 12.01.2021
3830 Clear -43 1019 66 10000 0.34 254 15:21 12.01.2021
3831 Clear -43 1019 66 10000 0.34 254 14:44 12.01.2021
3832 Clear -43 1019 66 10000 0.32 192 14:25 12.01.2021
3833 Clear -43 1019 66 10000 0.32 192 13:52 12.01.2021
3834 Clear -43 1019 67 10000 0.4 132 13:29 12.01.2021
3835 Clear -43 1019 67 10000 0.4 131 12:29 12.01.2021
3836 Clear -43 1019 67 10000 0.4 131 11:42 12.01.2021
3837 Clear -42 1019 67 10000 0.42 141 10:55 12.01.2021
3838 Clear -42 1018 67 10000 0.35 141 10:26 12.01.2021
3839 Clear -42 1018 67 10000 0.35 141 09:59 12.01.2021
3840 Clear -42 1018 67 10000 0.35 141 09:39 12.01.2021
3841 Clear -42 1018 68 10000 0.32 153 09:20 12.01.2021
3842 Clear -42 1018 68 10000 0.53 156 08:26 12.01.2021
3843 Clear -42 1018 68 10000 0.53 156 07:41 12.01.2021
3844 Clouds -42 1017 68 10000 0.64 148 07:21 12.01.2021
3845 Clouds -42 1018 69 10000 0.4 147 05:38 12.01.2021
3846 Clouds -42 1017 69 10000 0.45 157 03:33 12.01.2021
3847 Clouds -42 1017 70 10000 0.67 140 02:21 12.01.2021
3848 Clouds -42 1017 70 10000 0.67 140 01:43 12.01.2021
3849 Clear -42 1017 70 10000 0.73 144 00:32 12.01.2021
3850 Clear -42 1016 70 10000 0.7 146 23:40 11.01.2021
3851 Clear -42 1016 71 10000 0.74 154 23:19 11.01.2021
3852 Clear -42 1016 71 10000 0.74 154 22:45 11.01.2021
3853 Clear -41 1016 71 10000 0.79 160 22:27 11.01.2021
3854 Clear -41 1016 71 10000 0.79 160 21:46 11.01.2021
3855 Clear -41 1016 71 10000 0.87 162 21:25 11.01.2021
3856 Clouds -41 1016 72 10000 0.71 163 20:58 11.01.2021
3857 Clouds -41 1016 72 10000 0.71 163 20:37 11.01.2021
3858 Clouds -41 1016 73 10000 0.76 147 20:19 11.01.2021
3859 Clouds -41 1016 73 10000 0.76 147 19:42 11.01.2021
3860 Clouds -41 1016 73 10000 0.86 140 19:21 11.01.2021
3861 Clouds -41 1016 73 10000 0.86 140 18:42 11.01.2021
3862 Clouds -41 1016 73 10000 0.84 147 18:23 11.01.2021
3863 Clouds -41 1016 73 10000 0.84 147 17:42 11.01.2021
3864 Clouds -41 1016 74 10000 0.82 157 17:24 11.01.2021
3865 Clouds -41 1016 74 10000 0.82 157 16:48 11.01.2021
3866 Clouds -40 1016 74 10000 0.86 162 16:29 11.01.2021
3867 Clouds -40 1016 74 10000 0.86 162 15:57 11.01.2021
3868 Clouds -40 1016 74 10000 0.86 162 15:36 11.01.2021
3869 Clear -40 1016 75 10000 0.9 162 14:58 11.01.2021
3870 Clear -40 1016 75 10000 0.9 162 14:36 11.01.2021
3871 Clear -40 1016 75 10000 1.04 147 13:48 11.01.2021
3872 Clouds -40 1017 76 10000 1.08 140 13:23 11.01.2021
3873 Clouds -40 1017 76 10000 1.05 142 12:44 11.01.2021
3874 Clouds -39 1017 77 10000 1.06 141 12:25 11.01.2021
3875 Clouds -39 1017 77 10000 1.06 141 12:25 11.01.2021
3876 Clouds -39 1017 77 10000 1.06 141 11:47 11.01.2021
3877 Clouds -39 1017 77 10000 1.16 150 11:18 11.01.2021
3878 Clouds -39 1017 77 10000 1.16 150 10:42 11.01.2021
3879 Clouds -39 1017 78 10000 1.18 154 10:21 11.01.2021
3880 Clouds -39 1017 78 10000 1.18 154 09:37 11.01.2021
3881 Clouds -38 1018 78 10000 1.2 148 09:19 11.01.2021
3882 Clouds -38 1018 78 10000 1.2 148 08:38 11.01.2021
3883 Clouds -38 1018 79 10000 1.15 145 07:51 11.01.2021
3884 Clouds -38 1018 79 10000 1.11 142 07:25 11.01.2021
3885 Clouds -38 1019 79 10000 1.09 148 06:50 11.01.2021
3886 Clouds -36 1019 81 10000 1.47 150 02:57 11.01.2021
3887 Clouds -35 1019 82 7589 1.36 159 01:25 11.01.2021
3888 Clouds -33 1019 82 5297 1.36 165 23:51 10.01.2021
3889 Clouds -32 1020 83 3597 1.29 167 23:26 10.01.2021
3890 Clouds -32 1020 83 3597 1.29 167 22:47 10.01.2021
3891 Clouds -32 1020 83 2894 1.28 169 22:20 10.01.2021
3892 Clouds -32 1020 83 2894 1.28 169 21:44 10.01.2021
3893 Clouds -31 1020 83 2983 1.19 169 21:20 10.01.2021
3894 Clouds -31 1020 83 2983 1.19 169 20:50 10.01.2021
3895 Clouds -31 1020 83 2642 1.19 160 20:29 10.01.2021
3896 Clouds -31 1020 83 2642 1.19 160 19:43 10.01.2021
3897 Clouds -31 1020 83 2642 1.19 160 19:43 10.01.2021
3898 Clouds -32 1020 84 2275 1.03 159 19:24 10.01.2021
3899 Clouds -32 1020 84 2275 1.03 159 18:47 10.01.2021
3900 Clouds -31 1021 84 1818 0.69 185 18:21 10.01.2021
3901 Clouds -31 1021 84 1818 0.69 185 18:21 10.01.2021
3902 Clouds -31 1021 84 1940 0.54 212 17:28 10.01.2021
3903 Clouds -31 1021 84 1940 0.54 212 16:59 10.01.2021
3904 Clouds -31 1021 84 1940 0.54 212 16:32 10.01.2021
3905 Clouds -31 1021 84 2000 0.62 217 15:54 10.01.2021
3906 Clouds -30 1021 84 1925 0.59 231 15:25 10.01.2021
3907 Clouds -30 1021 84 1925 0.59 231 14:50 10.01.2021
3908 Clouds -30 1021 84 1925 0.59 231 14:31 10.01.2021
3909 Clouds -30 1021 84 1646 0.46 252 13:55 10.01.2021
3910 Clouds -30 1021 84 1646 0.46 252 13:36 10.01.2021
3911 Clouds -30 1022 84 1422 0.34 292 13:18 10.01.2021
3912 Clouds -30 1022 84 1422 0.34 292 12:43 10.01.2021
3913 Clouds -30 1022 85 1266 0.4 328 12:18 10.01.2021
3914 Clouds -30 1022 85 1137 0.6 316 11:22 10.01.2021
3915 Clouds -30 1022 85 1137 0.6 316 10:58 10.01.2021
3916 Clouds -30 1022 85 1137 0.6 316 10:36 10.01.2021
3917 Clouds -30 1021 85 1229 0.8 304 10:18 10.01.2021
3918 Clouds -30 1021 84 1362 0.89 308 09:27 10.01.2021
3919 Clouds -30 1021 84 1362 0.89 308 09:27 10.01.2021
3920 Clouds -30 1021 84 1341 0.98 313 08:21 10.01.2021
3921 Clouds -29 1021 85 1247 1.02 312 07:29 10.01.2021
3922 Clouds -29 1021 85 1554 1.15 316 06:20 10.01.2021
3923 Clouds -29 1021 85 1554 1.15 316 05:36 10.01.2021
3924 Clouds -29 1021 85 1400 1.4 326 02:58 10.01.2021
3925 Clouds -28 1021 85 1402 1.37 328 01:22 10.01.2021
3926 Clouds -28 1020 86 1279 1.41 325 23:49 09.01.2021
3927 Clouds -28 1020 86 1279 1.41 325 23:30 09.01.2021
3928 Clouds -28 1020 86 1201 1.32 321 22:48 09.01.2021
3929 Clouds -27 1020 86 991 1.25 314 22:19 09.01.2021
3930 Clouds -27 1020 86 991 1.25 314 21:57 09.01.2021
3931 Clouds -27 1020 86 991 1.25 314 21:39 09.01.2021
3932 Clouds -27 1020 86 1062 1.19 309 21:19 09.01.2021
3933 Clouds -27 1020 86 1062 1.19 309 20:44 09.01.2021
3934 Clouds -27 1019 86 1265 1.19 310 19:45 09.01.2021
3935 Clouds -27 1019 86 1366 1.08 311 19:23 09.01.2021
3936 Clouds -27 1019 86 1366 1.08 311 18:59 09.01.2021
3937 Clouds -27 1019 86 1308 1.14 322 18:35 09.01.2021
3938 Clouds -27 1019 86 1194 1.06 315 17:50 09.01.2021
3939 Clouds -27 1019 86 1194 1.06 315 17:32 09.01.2021
3940 Clouds -27 1018 86 1173 0.97 306 16:36 09.01.2021
3941 Clouds -27 1018 86 1142 0.95 302 15:53 09.01.2021
3942 Clouds -27 1018 86 1142 0.95 302 15:34 09.01.2021
3943 Clouds -27 1017 86 1073 0.82 295 14:42 09.01.2021
3944 Clouds -27 1017 86 1171 0.74 297 14:21 09.01.2021
3945 Clouds -27 1017 86 1171 0.74 297 13:59 09.01.2021
3946 Clouds -27 1017 86 1171 0.74 297 13:40 09.01.2021
3947 Clouds -27 1017 86 1047 0.76 305 13:22 09.01.2021
3948 Clouds -27 1017 86 941 0.6 290 12:27 09.01.2021
3949 Clouds -27 1017 86 941 0.6 290 11:57 09.01.2021
3950 Clouds -27 1017 86 941 0.6 290 11:37 09.01.2021
3951 Clouds -27 1017 86 941 0.6 290 11:37 09.01.2021
3952 Clouds -27 1016 86 1016 0.63 272 10:56 09.01.2021
3953 Clouds -27 1016 86 1016 0.63 272 10:38 09.01.2021
3954 Clouds -27 1016 86 986 0.77 267 10:19 09.01.2021
3955 Clouds -27 1016 86 986 0.77 267 09:43 09.01.2021
3956 Clouds -27 1016 86 928 0.76 264 09:19 09.01.2021
3957 Clouds -28 1015 86 936 0.67 254 07:48 09.01.2021
3958 Clouds -28 1015 85 1358 0.69 270 06:42 09.01.2021
3959 Clouds -28 1015 85 1372 0.72 274 06:23 09.01.2021
3960 Clouds -29 1014 85 1419 0.62 260 03:53 09.01.2021
3961 Clouds -29 1013 85 1469 0.61 273 02:41 09.01.2021
3962 Clouds -31 1013 85 2329 0.66 285 02:23 09.01.2021
3963 Clouds -31 1013 84 3651 0.51 284 01:24 09.01.2021
3964 Clouds -30 1013 85 3391 0.51 283 00:33 09.01.2021
3965 Clouds -30 1013 85 3391 0.51 283 00:33 09.01.2021
3966 Clouds -30 1012 85 3796 0.43 277 23:45 08.01.2021
3967 Clouds -30 1012 85 5539 0.53 279 22:46 08.01.2021
3968 Clouds -30 1012 85 6399 0.74 282 21:53 08.01.2021
3969 Clouds -30 1011 85 6846 0.59 272 21:19 08.01.2021
3970 Clouds -30 1011 85 6846 0.59 272 20:37 08.01.2021
3971 Clouds -30 1011 85 5851 0.43 288 19:58 08.01.2021
3972 Clouds -30 1011 85 4703 0.53 308 19:25 08.01.2021
3973 Clouds -30 1011 85 6350 0.62 329 18:54 08.01.2021
3974 Clouds -30 1011 85 6350 0.62 329 18:33 08.01.2021
3975 Clouds -31 1011 85 4733 0.43 325 17:55 08.01.2021
3976 Clouds -30 1010 85 4692 0.26 335 17:25 08.01.2021
3977 Clouds -30 1010 85 4692 0.26 335 16:49 08.01.2021
3978 Clouds -29 1010 85 2723 0.3 36 15:52 08.01.2021
3979 Clouds -29 1010 85 2723 0.3 36 15:32 08.01.2021
3980 Clouds -29 1009 85 1385 0.55 48 14:40 08.01.2021
3981 Clouds -28 1010 85 1165 0.85 29 14:18 08.01.2021
3982 Clouds -28 1010 85 1319 0.86 27 13:22 08.01.2021
3983 Clouds -28 1009 85 1104 0.91 36 12:52 08.01.2021
3984 Clouds -29 1009 85 868 0.82 51 12:22 08.01.2021
3985 Clouds -29 1009 85 868 0.82 51 12:22 08.01.2021
3986 Clouds -29 1009 85 868 0.82 51 11:50 08.01.2021
3987 Clouds -29 1009 85 868 0.82 51 11:30 08.01.2021
3988 Clouds -28 1009 85 804 0.71 56 10:57 08.01.2021
3989 Clouds -28 1009 85 804 0.71 56 10:38 08.01.2021
3990 Clouds -28 1009 85 814 0.75 70 09:54 08.01.2021
3991 Clouds -28 1009 85 814 0.75 70 09:36 08.01.2021
3992 Clouds -28 1008 85 1001 0.69 78 09:18 08.01.2021
3993 Clouds -29 1008 85 1750 0.57 85 07:30 08.01.2021
3994 Clouds -29 1008 85 2772 0.64 123 06:46 08.01.2021
3995 Clouds -30 1007 83 8928 1.13 142 00:44 08.01.2021
3996 Clouds -30 1007 82 10000 1.29 145 23:43 07.01.2021
3997 Clouds -30 1007 82 10000 1.13 147 22:55 07.01.2021
3998 Clouds -30 1007 82 10000 1.13 147 22:36 07.01.2021
3999 Clouds -29 1007 82 10000 1.23 151 21:50 07.01.2021
4000 Clouds -29 1007 82 10000 1.23 151 21:31 07.01.2021
4001 Clouds -29 1006 82 10000 1.32 155 20:55 07.01.2021
4002 Clouds -29 1006 82 10000 1.32 155 20:36 07.01.2021
4003 Clouds -30 1006 81 10000 1.3 152 19:50 07.01.2021
4004 Clouds -30 1006 81 10000 1.3 152 19:30 07.01.2021
4005 Clouds -30 1006 80 10000 1.14 142 18:50 07.01.2021
4006 Clouds -32 1006 81 10000 1.12 131 18:21 07.01.2021
4007 Clouds -32 1006 81 10000 1.12 131 17:36 07.01.2021
4008 Clouds -32 1006 81 10000 1.18 134 17:18 07.01.2021
4009 Clouds -32 1006 81 10000 1.18 134 16:45 07.01.2021
4010 Clouds -31 1006 82 10000 1.22 136 16:20 07.01.2021
4011 Clouds -31 1006 82 10000 1.22 136 15:31 07.01.2021
4012 Clouds -31 1006 82 10000 1.29 133 14:42 07.01.2021
4013 Clouds -31 1006 82 10000 1.28 131 14:22 07.01.2021
4014 Clouds -31 1006 82 10000 1.28 131 13:31 07.01.2021
4015 Clouds -31 1005 84 10000 1.17 116 12:57 07.01.2021
4016 Clouds -30 1006 84 10000 1.26 113 12:29 07.01.2021
4017 Clouds -30 1006 84 10000 1.26 113 11:52 07.01.2021
4018 Clouds -30 1006 84 10000 1.26 113 11:30 07.01.2021
4019 Clouds -29 1005 85 10000 1.22 116 10:48 07.01.2021
4020 Clouds -29 1006 85 9867 1.26 119 10:19 07.01.2021
4021 Clouds -29 1006 85 9867 1.26 119 09:46 07.01.2021
4022 Clouds -28 1006 85 8778 1.32 117 09:18 07.01.2021
4023 Clouds -28 1005 84 8518 1.28 111 08:27 07.01.2021
4024 Clouds -28 1005 84 8518 1.28 111 07:46 07.01.2021
4025 Clouds -29 1006 84 10000 1.22 110 07:18 07.01.2021
4026 Clouds -31 1007 81 10000 1.05 122 04:30 07.01.2021
4027 Clouds -34 1009 78 10000 1.09 109 00:29 07.01.2021
4028 Clouds -34 1009 78 10000 1.09 109 23:45 06.01.2021
4029 Clouds -34 1010 78 10000 1.07 107 22:39 06.01.2021
4030 Clouds -35 1010 77 10000 0.9 101 21:44 06.01.2021
4031 Clear -36 1011 77 10000 0.97 113 21:23 06.01.2021
4032 Clear -36 1011 77 10000 0.97 113 20:58 06.01.2021
4033 Clear -36 1011 77 10000 1.1 111 20:24 06.01.2021
4034 Clear -36 1011 77 10000 1.1 111 19:59 06.01.2021
4035 Clear -36 1011 77 10000 1.1 111 19:36 06.01.2021
4036 Clear -36 1012 76 10000 0.99 101 19:18 06.01.2021
4037 Clear -36 1012 76 10000 0.99 101 18:41 06.01.2021
4038 Clear -35 1013 80 10000 1.17 115 18:22 06.01.2021
4039 Clear -35 1013 80 10000 1.17 115 17:42 06.01.2021
4040 Clear -35 1013 79 10000 1.12 118 17:23 06.01.2021
4041 Clear -35 1013 79 10000 1.12 118 16:41 06.01.2021
4042 Clear -36 1014 79 10000 1.05 118 16:19 06.01.2021
4043 Clear -36 1014 79 10000 1.05 118 15:52 06.01.2021
4044 Clear -36 1014 79 10000 1.05 118 15:31 06.01.2021
4045 Clear -36 1015 79 10000 0.97 114 14:48 06.01.2021
4046 Clear -36 1016 79 10000 1.32 121 14:20 06.01.2021
4047 Clear -36 1016 79 10000 1.32 121 13:45 06.01.2021
4048 Clear -36 1017 79 10000 1.27 110 13:23 06.01.2021
4049 Clear -36 1017 79 10000 1.26 109 12:48 06.01.2021
4050 Clear -36 1018 78 10000 1.17 106 12:20 06.01.2021
4051 Clear -36 1018 78 10000 1.17 106 11:36 06.01.2021
4052 Clouds -36 1019 78 10000 1.17 123 11:18 06.01.2021
4053 Clouds -36 1019 78 10000 1.27 129 10:22 06.01.2021
4054 Clouds -36 1019 78 10000 1.27 129 09:50 06.01.2021
4055 Clouds -36 1020 78 10000 1.13 120 08:58 06.01.2021
4056 Clouds -36 1020 78 10000 1.13 120 08:30 06.01.2021
4057 Clouds -37 1021 77 10000 1.05 125 07:54 06.01.2021
4058 Clear -37 1021 77 10000 1.01 130 06:55 06.01.2021
4059 Clouds -37 1021 78 10000 1.07 132 05:34 06.01.2021
4060 Clouds -37 1022 78 10000 0.92 126 04:34 06.01.2021
4061 Clouds -37 1023 78 10000 1.11 123 02:47 06.01.2021
4062 Clouds -37 1024 78 10000 1.04 122 02:26 06.01.2021
4063 Clear -38 1024 77 10000 0.81 116 01:23 06.01.2021
4064 Clear -38 1024 78 10000 0.77 129 23:32 05.01.2021
4065 Clear -38 1025 77 10000 0.89 126 22:45 05.01.2021
4066 Clear -38 1025 77 10000 0.95 127 22:22 05.01.2021
4067 Clear -38 1025 77 10000 0.95 127 21:57 05.01.2021
4068 Clear -38 1026 77 10000 0.98 132 20:58 05.01.2021
4069 Clear -38 1026 77 10000 0.93 135 20:28 05.01.2021
4070 Clear -38 1026 77 10000 0.93 135 19:45 05.01.2021
4071 Clear -38 1026 77 10000 0.82 132 19:23 05.01.2021
4072 Clear -38 1026 77 10000 0.79 128 18:46 05.01.2021
4073 Clear -38 1026 77 10000 0.6 134 18:28 05.01.2021
4074 Clear -38 1026 77 10000 0.6 134 17:53 05.01.2021
4075 Clear -38 1026 77 10000 0.6 134 17:31 05.01.2021
4076 Clear -38 1027 77 10000 0.74 137 16:53 05.01.2021
4077 Clear -39 1027 76 10000 0.82 133 16:23 05.01.2021
4078 Clear -39 1027 76 10000 0.82 133 15:58 05.01.2021
4079 Clear -39 1027 76 10000 0.82 133 15:34 05.01.2021
4080 Clear -39 1028 76 10000 0.88 124 14:47 05.01.2021
4081 Clear -39 1028 76 10000 0.98 120 13:57 05.01.2021
4082 Clear -39 1028 76 10000 0.98 120 13:36 05.01.2021
4083 Clear -39 1028 76 10000 0.72 124 13:18 05.01.2021
4084 Clear -39 1028 77 10000 0.75 116 12:46 05.01.2021
4085 Clear -39 1028 77 10000 0.69 130 12:18 05.01.2021
4086 -273 0 0 0 0 0 11:30 05.01.2021
4087 Clear -39 1029 77 10000 0.67 136 11:28 05.01.2021
4088 Clear -39 1029 77 10000 0.67 136 10:44 05.01.2021
4089 Clear -39 1029 77 10000 0.8 142 10:19 05.01.2021
4090 Clear -39 1029 77 10000 0.8 142 09:42 05.01.2021
4091 Clear -39 1029 77 10000 0.95 135 08:59 05.01.2021
4092 Clear -39 1029 77 10000 0.89 132 08:19 05.01.2021
4093 Clouds -39 1029 77 10000 0.71 126 05:32 05.01.2021
4094 Clouds -39 1030 77 10000 0.85 130 03:40 05.01.2021
4095 Clouds -39 1031 77 10000 0.85 134 00:24 05.01.2021
4096 Clouds -39 1031 77 10000 0.85 134 23:43 04.01.2021
4097 Clouds -39 1031 77 10000 0.92 139 23:24 04.01.2021
4098 Clouds -39 1031 77 10000 0.92 139 22:46 04.01.2021
4099 Clouds -39 1031 77 10000 1.01 134 22:21 04.01.2021
4100 Clouds -39 1031 77 10000 1.01 134 21:42 04.01.2021
4101 Clouds -39 1031 77 10000 1.02 145 21:22 04.01.2021
4102 Clouds -39 1031 77 10000 1.02 145 20:42 04.01.2021
4103 Clouds -39 1031 77 10000 1.13 147 20:21 04.01.2021
4104 Clouds -39 1031 77 10000 1.13 147 19:43 04.01.2021
4105 Clouds -40 1031 77 10000 1.02 144 19:21 04.01.2021
4106 Clouds -40 1032 77 10000 0.95 132 18:48 04.01.2021
4107 Clouds -40 1032 77 10000 0.99 123 18:18 04.01.2021
4108 Clouds -40 1032 77 10000 0.99 123 17:39 04.01.2021
4109 Clouds -40 1032 77 10000 1.06 127 17:21 04.01.2021
4110 Clouds -40 1032 77 10000 1.06 127 16:44 04.01.2021
4111 Clouds -39 1032 77 10000 1.17 137 16:26 04.01.2021
4112 Clouds -39 1032 77 10000 1.17 137 15:49 04.01.2021
4113 Clouds -39 1033 77 10000 1.13 145 15:25 04.01.2021
4114 Clouds -39 1033 77 10000 1.17 133 14:21 04.01.2021
4115 Clouds -39 1033 77 10000 1.17 133 13:43 04.01.2021
4116 Clouds -39 1033 78 10000 1.25 149 13:20 04.01.2021
4117 Clouds -39 1033 78 10000 1.23 146 12:32 04.01.2021
4118 Clouds -39 1033 78 10000 1.29 155 11:53 04.01.2021
4119 Clouds -39 1034 78 10000 1.23 153 11:20 04.01.2021
4120 Clouds -39 1034 78 10000 1.23 153 10:47 04.01.2021
4121 Clouds -39 1033 79 10000 1.13 155 10:24 04.01.2021
4122 Clouds -39 1033 79 10000 1.13 155 09:51 04.01.2021
4123 Clouds -38 1034 79 10000 1.55 179 09:19 04.01.2021
4124 Clouds -38 1034 79 10000 1.55 179 08:42 04.01.2021
4125 Clouds -38 1034 79 9303 1.24 162 07:54 04.01.2021
4126 Clouds -38 1033 79 7506 1.23 161 07:27 04.01.2021
4127 Clouds -38 1033 80 7872 1.28 153 05:31 04.01.2021
4128 Clouds -35 1033 81 3754 1.52 178 02:35 04.01.2021
4129 Clouds -35 1033 81 1365 1.18 180 00:40 04.01.2021
4130 Clouds -36 1033 80 3433 1.08 188 23:48 03.01.2021
4131 Clouds -36 1032 80 4169 1.17 193 23:21 03.01.2021
4132 Clouds -36 1032 80 4169 1.17 193 22:52 03.01.2021
4133 Clouds -36 1032 80 4169 1.17 193 22:30 03.01.2021
4134 Clouds -36 1032 81 4030 0.97 187 21:48 03.01.2021
4135 Clouds -35 1032 81 3953 0.66 205 21:26 03.01.2021
4136 Clouds -35 1032 81 3953 0.66 205 21:26 03.01.2021
4137 Clouds -35 1032 81 3953 0.66 205 20:49 03.01.2021
4138 Clouds -35 1032 81 3953 0.66 205 20:30 03.01.2021
4139 Clouds -34 1032 81 2071 0.94 226 19:56 03.01.2021
4140 Clouds -34 1032 81 2071 0.94 226 19:35 03.01.2021
4141 Clouds -34 1032 81 1439 0.91 215 18:57 03.01.2021
4142 Clouds -35 1032 81 2215 0.47 212 18:38 03.01.2021
4143 Clouds -35 1032 80 5661 0.44 262 18:19 03.01.2021
4144 Clouds -35 1032 80 5661 0.44 262 17:45 03.01.2021
4145 Clouds -35 1032 80 5435 0.57 238 17:23 03.01.2021
4146 Clouds -35 1032 80 5435 0.57 238 16:42 03.01.2021
4147 Clouds -36 1032 80 5459 0.48 251 16:20 03.01.2021
4148 Clouds -36 1032 80 5459 0.48 251 15:46 03.01.2021
4149 Clouds -37 1032 80 5739 0.6 249 15:27 03.01.2021
4150 Clouds -37 1032 80 5739 0.6 249 14:55 03.01.2021
4151 Clouds -38 1032 79 5738 0.42 256 14:29 03.01.2021
4152 Clouds -38 1032 79 5738 0.42 256 13:41 03.01.2021
4153 Clouds -39 1032 79 6077 0.3 233 13:23 03.01.2021
4154 Clouds -40 1032 79 5652 0.16 199 12:32 03.01.2021
4155 Clouds -40 1032 79 6266 0.8 251 11:42 03.01.2021
4156 Clouds -40 1032 79 5794 0.49 228 11:24 03.01.2021
4157 Clouds -40 1032 79 5794 0.49 228 10:36 03.01.2021
4158 Clouds -40 1032 79 5794 0.49 228 10:36 03.01.2021
4159 Clouds -40 1032 79 5794 0.49 228 10:36 03.01.2021
4160 Clouds -40 1031 79 6514 0.44 264 10:18 03.01.2021
4161 Clouds -40 1031 79 6514 0.44 264 09:40 03.01.2021
4162 Clouds -40 1031 79 6149 0.64 265 09:21 03.01.2021
4163 Clouds -40 1030 79 6215 0.56 249 07:38 03.01.2021
4164 Clouds -40 1030 79 7584 0.2 280 05:58 03.01.2021
4165 Clouds -39 1028 79 6823 0.5 64 02:27 03.01.2021
4166 Clouds -39 1028 79 6823 0.5 64 01:45 03.01.2021
4167 Clouds -39 1028 79 10000 0.11 33 00:18 03.01.2021
4168 Clouds -39 1027 79 10000 0.24 185 23:28 02.01.2021
4169 Clouds -39 1027 79 10000 0.24 185 22:52 02.01.2021
4170 Clouds -39 1027 79 10000 0.24 185 22:32 02.01.2021
4171 Clouds -39 1027 79 10000 0.24 185 22:32 02.01.2021
4172 Clouds -39 1027 79 9634 0.63 58 21:51 02.01.2021
4173 Clouds -39 1027 79 9634 0.63 58 21:31 02.01.2021
4174 Clouds -39 1026 79 8233 0.49 83 20:50 02.01.2021
4175 Clouds -39 1026 80 10000 0.46 80 20:29 02.01.2021
4176 Clouds -39 1026 80 10000 0.46 80 19:59 02.01.2021
4177 Clouds -37 1025 80 8719 0.52 78 19:20 02.01.2021
4178 Clouds -37 1025 80 8719 0.52 78 18:58 02.01.2021
4179 Clouds -38 1025 81 5506 0.49 51 18:39 02.01.2021
4180 Clouds -37 1025 81 4218 0.55 40 18:19 02.01.2021
4181 Clouds -37 1025 81 4218 0.55 40 17:43 02.01.2021
4182 Clouds -36 1024 81 2797 0.48 46 16:58 02.01.2021
4183 Clouds -37 1024 81 3306 0.85 60 16:23 02.01.2021
4184 Clouds -37 1024 81 3306 0.85 60 15:54 02.01.2021
4185 Clouds -37 1024 81 3306 0.85 60 15:32 02.01.2021
4186 Clouds -37 1024 81 4756 0.81 74 14:55 02.01.2021
4187 Clouds -37 1024 81 4756 0.81 74 14:35 02.01.2021
4188 Clouds -37 1024 81 4057 0.76 88 13:49 02.01.2021
4189 Clouds -37 1024 81 4412 0.97 50 13:22 02.01.2021
4190 Clouds -37 1024 81 4412 0.97 50 12:48 02.01.2021
4191 Clouds -36 1023 81 4045 0.76 70 12:28 02.01.2021
4192 Clouds -36 1023 81 4045 0.76 70 11:44 02.01.2021
4193 Clouds -37 1022 81 3723 0.74 80 11:21 02.01.2021
4194 Clouds -37 1022 81 3723 0.74 80 10:42 02.01.2021
4195 Clouds -37 1022 81 5234 0.83 59 10:24 02.01.2021
4196 Clouds -37 1022 81 5234 0.83 59 09:43 02.01.2021
4197 Clouds -37 1022 81 5234 0.83 59 09:43 02.01.2021
4198 Clouds -37 1022 81 5278 0.86 83 09:22 02.01.2021
4199 Clouds -37 1022 81 5278 0.86 83 08:49 02.01.2021
4200 Clouds -38 1022 80 8941 1.12 65 08:24 02.01.2021
4201 Clouds -38 1022 80 8941 1.12 65 07:43 02.01.2021
4202 Clouds -38 1021 81 9585 0.92 81 07:20 02.01.2021
4203 Clouds -38 1022 81 10000 1.1 79 06:28 02.01.2021
4204 Clouds -38 1021 81 10000 0.93 78 04:44 02.01.2021
4205 Clouds -36 1021 82 8898 1.14 89 00:55 02.01.2021
4206 Clouds -36 1021 82 8898 1.14 89 00:35 02.01.2021
4207 Clouds -35 1021 82 6423 0.98 88 23:49 01.01.2021
4208 Clouds -35 1021 82 5178 1.15 91 23:20 01.01.2021
4209 Clouds -35 1021 82 5178 1.15 91 22:47 01.01.2021
4210 Clouds -34 1021 83 5073 1.13 89 22:24 01.01.2021
4211 Clouds -34 1021 83 5073 1.13 89 21:44 01.01.2021
4212 Clouds -33 1021 83 4008 1.11 91 21:22 01.01.2021
4213 Clouds -33 1021 83 4008 1.11 91 20:52 01.01.2021
4214 Clouds -32 1020 83 2742 1.07 92 20:22 01.01.2021
4215 Clouds -32 1020 83 2742 1.07 92 19:43 01.01.2021
4216 Clouds -32 1020 83 2606 1.02 98 19:24 01.01.2021
4217 Clouds -32 1020 83 2606 1.02 98 18:59 01.01.2021
4218 Clouds -35 1021 82 6011 1.06 98 18:40 01.01.2021
4219 Clouds -35 1021 82 5630 0.99 102 18:19 01.01.2021
4220 Clouds -35 1021 82 5630 0.99 102 17:42 01.01.2021
4221 Clouds -34 1021 83 5136 0.91 98 17:18 01.01.2021
4222 Clouds -34 1021 83 5136 0.91 98 16:40 01.01.2021
4223 Clouds -33 1021 83 4316 0.99 104 15:56 01.01.2021
4224 Clouds -33 1021 83 4316 0.99 104 15:37 01.01.2021
4225 Clouds -31 1022 84 2117 0.96 103 14:42 01.01.2021
4226 Clouds -31 1022 84 1583 1.01 106 14:19 01.01.2021
4227 Clouds -31 1022 84 1583 1.01 106 13:37 01.01.2021
4228 Clouds -32 1022 83 2725 1 113 12:51 01.01.2021
4229 Clouds -32 1022 83 1684 1.11 121 12:26 01.01.2021
4230 Clouds -32 1022 83 1684 1.11 121 11:40 01.01.2021
4231 Clouds -32 1022 83 1815 1.07 119 11:18 01.01.2021
4232 Clouds -32 1022 83 1815 1.07 119 10:52 01.01.2021
4233 Clouds -33 1022 83 2410 1.07 124 10:22 01.01.2021
4234 Clouds -33 1022 83 2410 1.07 124 09:30 01.01.2021
4235 Clouds -33 1023 83 2547 1.02 137 08:30 01.01.2021
4236 Clouds -32 1023 84 2245 1.13 143 06:46 01.01.2021
4237 Clouds -33 1024 83 3263 0.89 139 04:50 01.01.2021
4238 Clouds -33 1025 83 3405 0.92 145 01:58 01.01.2021
4239 Clouds -32 1025 84 3351 0.78 140 00:33 01.01.2021
4240 Clouds -32 1026 84 2766 0.71 144 23:41 31.12.2020
4241 Clouds -31 1026 84 1959 0.8 137 23:21 31.12.2020
4242 Clouds -31 1026 84 1959 0.8 137 22:55 31.12.2020
4243 Clouds -31 1026 84 1959 0.8 137 22:36 31.12.2020
4244 Clouds -31 1026 84 1569 0.8 120 22:18 31.12.2020
4245 Clouds -31 1026 84 1569 0.8 120 21:43 31.12.2020
4246 Clouds -31 1026 84 1745 0.85 121 21:20 31.12.2020
4247 Clouds -31 1026 84 1745 0.85 121 20:31 31.12.2020
4248 Clouds -31 1027 84 1765 0.9 125 19:59 31.12.2020
4249 Clouds -31 1027 84 1765 0.9 125 19:36 31.12.2020
4250 Clouds -31 1027 84 1796 0.85 132 19:18 31.12.2020
4251 Clouds -32 1028 84 1880 0.83 127 18:41 31.12.2020
4252 Clouds -32 1028 84 1950 0.74 140 18:23 31.12.2020
4253 Clouds -32 1028 84 1950 0.74 140 17:41 31.12.2020
4254 Clouds -32 1029 84 2019 0.64 137 17:21 31.12.2020
4255 Clouds -32 1029 84 2019 0.64 137 16:39 31.12.2020
4256 Clouds -32 1029 84 1981 0.49 132 16:20 31.12.2020
4257 Clouds -32 1029 84 1981 0.49 132 15:45 31.12.2020
4258 Clouds -32 1030 84 1860 0.61 123 15:20 31.12.2020
4259 Clouds -32 1030 84 1860 0.61 123 14:54 31.12.2020
4260 Clouds -32 1030 84 1860 0.61 123 14:36 31.12.2020
4261 Clouds -31 1031 84 1941 0.7 117 14:18 31.12.2020
4262 Clouds -31 1031 84 1941 0.7 117 13:38 31.12.2020
4263 Clouds -31 1031 84 1868 0.86 127 13:19 31.12.2020
4264 Clouds -31 1031 84 1868 0.86 127 13:19 31.12.2020
4265 Clouds -31 1031 84 1868 0.86 127 12:52 31.12.2020
4266 Clouds -31 1031 84 1868 0.86 127 12:32 31.12.2020
4267 Clouds -32 1032 84 2187 0.69 130 11:51 31.12.2020
4268 Clouds -32 1032 84 2187 0.69 130 11:32 31.12.2020
4269 Clouds -31 1032 84 2482 0.56 153 10:49 31.12.2020
4270 Clouds -31 1033 84 2429 0.48 165 10:29 31.12.2020
4271 Clouds -31 1033 84 2429 0.48 165 09:56 31.12.2020
4272 Clouds -31 1033 84 2429 0.48 165 09:34 31.12.2020
4273 Clouds -31 1033 85 2351 0.33 140 08:50 31.12.2020
4274 Clouds -31 1033 85 2351 0.33 140 08:32 31.12.2020
4275 Clouds -31 1034 85 2438 0.33 84 07:57 31.12.2020
4276 Clouds -31 1034 85 2567 0.39 42 07:28 31.12.2020
4277 Clouds -31 1034 85 2566 0.19 50 05:31 31.12.2020
4278 Clouds -30 1035 85 2777 0.16 40 04:30 31.12.2020
4279 Clouds -30 1036 85 2679 0.32 9 02:45 31.12.2020
4280 Clouds -29 1036 85 2775 0.53 357 02:25 31.12.2020
4281 Clouds -29 1036 85 2775 0.53 357 01:44 31.12.2020
4282 Clouds -29 1036 85 2887 0.59 346 01:24 31.12.2020
4283 Clouds -29 1036 85 2887 0.59 346 00:44 31.12.2020
4284 Clouds -29 1036 86 2207 0.52 339 23:48 30.12.2020
4285 Clouds -28 1036 86 2127 0.24 304 23:19 30.12.2020
4286 Clouds -28 1036 86 2127 0.24 304 22:48 30.12.2020
4287 Clouds -28 1036 86 2127 0.24 304 22:30 30.12.2020
4288 Clouds -28 1036 86 2153 0.25 273 21:44 30.12.2020
4289 Clouds -28 1036 86 2301 0.19 245 21:22 30.12.2020
4290 Clouds -28 1036 86 2301 0.19 245 20:50 30.12.2020
4291 Clouds -28 1037 86 2321 0.13 250 20:20 30.12.2020
4292 Clouds -28 1037 86 2321 0.13 250 19:41 30.12.2020
4293 Clouds -28 1037 86 1946 0.18 272 19:22 30.12.2020
4294 Clouds -28 1037 86 1946 0.18 272 18:46 30.12.2020
4295 Clouds -30 1037 85 1669 0.27 123 18:46 30.12.2020
4296 Clouds -30 1037 85 1721 0.39 124 18:28 30.12.2020
4297 Clouds -30 1037 85 1721 0.39 124 17:51 30.12.2020
4298 Clouds -30 1037 85 1721 0.39 124 17:51 30.12.2020
4299 Clouds -30 1037 85 1721 0.39 124 17:32 30.12.2020
4300 Clouds -29 1037 85 1591 0.36 119 16:58 30.12.2020
4301 Clouds -29 1037 85 1591 0.36 119 16:33 30.12.2020
4302 Clouds -29 1038 85 1211 0.26 156 15:48 30.12.2020
4303 Clouds -29 1038 85 1208 0.37 175 15:25 30.12.2020
4304 Clouds -29 1038 85 1208 0.37 175 14:44 30.12.2020
4305 Clouds -30 1037 85 1376 0.3 202 14:24 30.12.2020
4306 Clouds -30 1037 85 1376 0.3 202 13:48 30.12.2020
4307 Clouds -31 1037 85 1916 0.14 143 12:44 30.12.2020
4308 Clouds -31 1037 85 1977 0.22 129 12:22 30.12.2020
4309 Clouds -31 1037 85 1977 0.22 129 11:38 30.12.2020
4310 Clouds -31 1037 85 1849 0.15 136 11:19 30.12.2020
4311 Clouds -31 1037 85 1849 0.15 136 10:49 30.12.2020
4312 Clouds -31 1037 85 1849 0.15 136 10:49 30.12.2020
4313 Clouds -31 1036 85 1830 0.14 101 10:29 30.12.2020
4314 Clouds -31 1036 85 1830 0.14 101 09:50 30.12.2020
4315 Clouds -31 1036 85 1830 0.14 101 09:30 30.12.2020
4316 Clouds -31 1036 85 2142 0.09 104 08:35 30.12.2020
4317 Clouds -31 1036 85 2348 0.1 157 07:32 30.12.2020
4318 Clouds -31 1036 85 2367 0.08 23 06:53 30.12.2020
4319 Clouds -33 1037 83 2423 0.33 75 06:32 30.12.2020
4320 Clouds -33 1036 83 2696 0.35 90 05:45 30.12.2020
4321 Clouds -33 1036 83 2845 0.36 88 05:27 30.12.2020
4322 Clouds -33 1035 83 3407 0.44 24 03:28 30.12.2020
4323 Clouds -33 1035 83 3407 0.44 24 02:46 30.12.2020
4324 Clouds -33 1035 83 3661 0.29 345 02:27 30.12.2020
4325 Clouds -33 1035 83 3661 0.29 345 01:34 30.12.2020
4326 Clouds -33 1035 83 4485 0.54 340 00:51 30.12.2020
4327 Clouds -33 1034 83 3867 0.45 345 00:32 30.12.2020
4328 Clouds -33 1034 83 4609 0.72 337 23:58 29.12.2020
4329 Clouds -33 1034 83 4609 0.72 337 23:40 29.12.2020
4330 Clouds -32 1033 84 4775 0.97 330 23:21 29.12.2020
4331 Clouds -32 1033 84 4775 0.97 330 22:44 29.12.2020
4332 Clouds -32 1033 84 4620 1.06 331 22:23 29.12.2020
4333 Clouds -32 1033 84 4620 1.06 331 21:52 29.12.2020
4334 Clouds -32 1033 84 4620 1.06 331 21:34 29.12.2020
4335 Clouds -32 1033 83 5037 1.23 326 20:55 29.12.2020
4336 Clouds -32 1033 83 5037 1.23 326 20:36 29.12.2020
4337 Clouds -32 1032 84 5721 1.39 324 20:18 29.12.2020
4338 Clouds -32 1032 84 5721 1.39 324 19:38 29.12.2020
4339 Clouds -31 1032 84 6427 1.55 326 19:20 29.12.2020
4340 Clouds -32 1032 84 6929 1.44 318 18:46 29.12.2020
4341 Clouds -31 1032 84 7747 1.63 322 18:27 29.12.2020
4342 Clouds -31 1032 84 7747 1.63 322 17:44 29.12.2020
4343 Clouds -31 1032 84 7747 1.63 322 17:44 29.12.2020
4344 Clouds -30 1032 84 8846 1.76 323 17:20 29.12.2020
4345 Clouds -30 1032 84 8846 1.76 323 16:46 29.12.2020
4346 Clouds -30 1031 84 9898 1.94 330 16:24 29.12.2020
4347 Clouds -30 1031 84 9898 1.94 330 15:38 29.12.2020
4348 Clouds -29 1031 84 9036 2 333 15:19 29.12.2020
4349 Clouds -29 1031 84 9036 2 333 14:40 29.12.2020
4350 Clouds -28 1030 85 8846 2.1 332 14:20 29.12.2020
4351 Clouds -28 1030 85 8846 2.1 332 13:54 29.12.2020
4352 Clouds -28 1030 85 8623 2.17 336 13:23 29.12.2020
4353 Clouds -28 1029 85 6256 1.97 339 12:44 29.12.2020
4354 Clouds -27 1029 86 7399 1.82 351 12:25 29.12.2020
4355 Clouds -27 1029 86 7399 1.82 351 11:57 29.12.2020
4356 Clouds -27 1029 86 7399 1.82 351 11:31 29.12.2020
4357 Clouds -27 1028 86 5800 1.64 357 10:38 29.12.2020
4358 Clouds -27 1027 87 3890 1.26 9 09:59 29.12.2020
4359 Clouds -27 1027 87 3890 1.26 9 09:37 29.12.2020
4360 Clouds -27 1026 87 3382 1.03 27 09:18 29.12.2020
4361 Clouds -27 1026 87 3382 1.03 27 08:43 29.12.2020
4362 Clouds -26 1025 87 3545 1.1 37 07:33 29.12.2020
4363 Clouds -25 1024 87 1732 1.11 49 06:58 29.12.2020
4364 Clouds -25 1024 87 1523 1.27 65 05:33 29.12.2020
4365 Clouds -24 1022 88 1771 1.14 75 01:36 29.12.2020
4366 Clouds -23 1022 89 1393 1.03 55 00:24 29.12.2020
4367 Clouds -23 1022 89 1393 1.03 55 00:24 29.12.2020
4368 Clouds -23 1022 89 1393 1.03 55 23:37 28.12.2020
4369 Clouds -22 1021 89 973 0.95 58 22:44 28.12.2020
4370 Clouds -22 1021 89 1055 0.81 47 21:51 28.12.2020
4371 Clouds -22 1021 89 1055 0.81 47 21:30 28.12.2020
4372 Clouds -22 1020 88 2723 0.78 348 20:50 28.12.2020
4373 Clouds -22 1020 88 2723 0.78 348 20:31 28.12.2020
4374 Clouds -22 1020 88 5525 1.06 315 19:59 28.12.2020
4375 Clouds -22 1020 88 5525 1.06 315 19:41 28.12.2020
4376 Clouds -21 1020 88 4979 1.47 310 19:21 28.12.2020
4377 Clouds -21 1020 88 4979 1.47 310 18:48 28.12.2020
4378 Clouds -23 1021 87 4829 1.54 328 18:26 28.12.2020
4379 Clouds -23 1021 87 4829 1.54 328 17:41 28.12.2020
4380 Clouds -22 1020 88 4341 1.65 327 17:18 28.12.2020
4381 Clouds -22 1020 88 4341 1.65 327 16:33 28.12.2020
4382 Clouds -22 1020 88 3582 1.91 329 15:59 28.12.2020
4383 Clouds -22 1020 88 3582 1.91 329 15:40 28.12.2020
4384 Clouds -22 1020 87 3325 2.04 331 14:49 28.12.2020
4385 Clouds -21 1019 87 4889 2.42 332 13:51 28.12.2020
4386 Clouds -20 1019 87 6784 2.87 325 13:24 28.12.2020
4387 Clouds -20 1019 87 6784 2.87 325 12:40 28.12.2020
4388 Clouds -20 1019 87 10000 3.04 327 12:20 28.12.2020
4389 Clouds -20 1019 87 10000 3.04 327 11:45 28.12.2020
4390 Clouds -19 1018 87 10000 3.21 330 11:23 28.12.2020
4391 Clouds -19 1018 87 10000 3.21 330 10:44 28.12.2020
4392 Clouds -18 1018 88 10000 3.64 338 10:26 28.12.2020
4393 Clouds -18 1018 88 10000 3.64 338 09:46 28.12.2020
4394 Clouds -17 1018 90 3021 3.22 341 09:19 28.12.2020
4395 Clouds -17 1017 90 970 2.5 341 07:35 28.12.2020
4396 Clouds -21 1018 89 1469 1.17 11 06:50 28.12.2020
4397 Clouds -21 1017 89 818 1.35 29 04:31 28.12.2020
4398 Snow -18 1016 91 339 1.91 14 02:27 28.12.2020
4399 Snow -20 1017 90 219 1.3 47 00:53 28.12.2020
4400 Snow -20 1017 90 172 1.17 61 23:46 27.12.2020
4401 Snow -20 1017 90 146 0.74 112 23:19 27.12.2020
4402 Snow -21 1017 90 128 0.81 140 21:57 27.12.2020
4403 Snow -21 1017 90 128 0.81 140 21:57 27.12.2020
4404 Snow -21 1017 90 125 1.15 157 21:26 27.12.2020
4405 Snow -21 1017 90 125 1.15 157 20:47 27.12.2020
4406 Snow -22 1017 89 137 1.34 167 19:46 27.12.2020
4407 Snow -22 1017 89 138 1.51 179 19:22 27.12.2020
4408 Snow -23 1019 88 142 1.38 174 18:42 27.12.2020
4409 Snow -24 1019 88 141 1.49 180 18:19 27.12.2020
4410 Snow -24 1019 88 141 1.49 180 17:49 27.12.2020
4411 Snow -24 1019 88 141 1.49 180 17:30 27.12.2020
4412 Snow -24 1019 88 155 1.51 179 16:43 27.12.2020
4413 Snow -25 1020 88 189 1.47 173 16:20 27.12.2020
4414 Snow -25 1020 87 210 1.52 173 15:21 27.12.2020
4415 Snow -25 1020 87 210 1.52 173 14:42 27.12.2020
4416 Snow -25 1020 87 198 1.46 171 14:22 27.12.2020
4417 Snow -26 1021 87 204 1.49 172 13:23 27.12.2020
4418 Snow -26 1021 87 204 1.49 172 12:51 27.12.2020
4419 Snow -26 1021 87 230 1.45 168 12:22 27.12.2020
4420 Snow -26 1021 87 230 1.45 168 11:40 27.12.2020
4421 Snow -27 1021 87 251 1.59 166 10:53 27.12.2020
4422 Snow -27 1022 86 244 1.57 164 10:26 27.12.2020
4423 Snow -27 1022 86 244 1.57 164 09:58 27.12.2020
4424 Clouds -27 1022 86 261 1.61 167 08:53 27.12.2020
4425 Clouds -27 1023 86 320 1.67 174 08:28 27.12.2020
4426 Clouds -28 1023 86 423 1.58 177 07:28 27.12.2020
4427 Clouds -29 1024 85 814 1.38 166 05:47 27.12.2020
4428 Clouds -29 1024 85 925 1.31 166 04:59 27.12.2020
4429 Clouds -29 1024 85 1060 1.13 177 03:23 27.12.2020
4430 Clouds -29 1024 85 1049 1.08 191 01:47 27.12.2020
4431 Clouds -31 1025 84 1009 1.35 183 00:26 27.12.2020
4432 Clouds -31 1025 84 1009 1.35 183 23:42 26.12.2020
4433 Clouds -32 1025 84 2975 1 188 23:21 26.12.2020
4434 Clouds -32 1025 84 2975 1 188 22:40 26.12.2020
4435 Clouds -32 1025 84 5339 0.97 182 22:18 26.12.2020
4436 Clouds -32 1025 84 5339 0.97 182 21:52 26.12.2020
4437 Clouds -32 1025 84 5256 0.95 171 21:24 26.12.2020
4438 Clouds -32 1025 84 5256 0.95 171 20:44 26.12.2020
4439 Clouds -32 1026 84 5901 0.75 195 20:21 26.12.2020
4440 Clouds -32 1026 84 5901 0.75 195 19:30 26.12.2020
4441 Clouds -32 1026 84 6899 0.5 204 18:54 26.12.2020
4442 Clouds -34 1027 83 8899 0.32 184 18:32 26.12.2020
4443 Clouds -34 1027 83 8861 0.21 19 17:46 26.12.2020
4444 Clouds -34 1027 83 8130 0.35 355 17:28 26.12.2020
4445 Clouds -34 1027 83 8130 0.35 355 16:38 26.12.2020
4446 Clouds -33 1027 83 7175 0.26 352 15:59 26.12.2020
4447 Clouds -33 1027 83 6672 0.26 44 15:20 26.12.2020
4448 Clouds -33 1027 83 6672 0.26 44 14:38 26.12.2020
4449 Clouds -32 1027 84 6306 0.24 69 14:19 26.12.2020
4450 Clouds -32 1027 84 6306 0.24 69 13:37 26.12.2020
4451 Clouds -31 1027 84 5954 0.17 93 12:58 26.12.2020
4452 Clouds -31 1027 84 5954 0.17 93 12:39 26.12.2020
4453 Clouds -30 1026 85 4265 0.41 111 12:18 26.12.2020
4454 Clouds -30 1026 85 4265 0.41 111 11:42 26.12.2020
4455 Clouds -30 1025 85 1862 0.17 97 11:20 26.12.2020
4456 Clouds -30 1025 85 1862 0.17 97 10:46 26.12.2020
4457 Clouds -30 1025 85 1284 0.12 335 10:25 26.12.2020
4458 Clouds -30 1025 85 1284 0.12 335 09:47 26.12.2020
4459 Clouds -30 1026 85 1329 0.03 210 08:55 26.12.2020
4460 Clouds -29 1026 85 1386 0.24 326 08:20 26.12.2020
4461 Clouds -29 1025 85 1284 0.51 333 07:21 26.12.2020
4462 Clouds -31 1025 84 1557 0.33 40 05:52 26.12.2020
4463 Clouds -31 1025 84 2562 0.83 24 02:48 26.12.2020
4464 Clouds -30 1025 84 2676 0.52 356 00:40 26.12.2020
4465 Clouds -30 1025 85 2988 0.48 350 23:56 25.12.2020
4466 Clouds -30 1025 85 2988 0.48 350 23:37 25.12.2020
4467 Clouds -29 1025 84 2665 0.57 10 23:19 25.12.2020
4468 Clouds -29 1024 85 1697 0.6 24 22:28 25.12.2020
4469 Clouds -29 1024 85 1697 0.6 24 21:46 25.12.2020
4470 Clouds -29 1024 85 1243 0.57 35 21:28 25.12.2020
4471 Clouds -29 1024 85 1243 0.57 35 20:47 25.12.2020
4472 Clouds -29 1024 85 793 0.81 25 20:28 25.12.2020
4473 Clouds -29 1024 85 793 0.81 25 19:43 25.12.2020
4474 Clouds -29 1024 85 518 0.67 1 18:56 25.12.2020
4475 Clouds -30 1024 84 494 0.42 46 18:37 25.12.2020
4476 Clouds -30 1024 84 425 0.47 49 17:35 25.12.2020
4477 Clouds -30 1024 84 374 0.74 56 16:58 25.12.2020
4478 Clouds -30 1024 84 374 0.74 56 16:32 25.12.2020
4479 Clouds -30 1024 84 453 0.92 36 15:57 25.12.2020
4480 Clouds -30 1024 84 453 0.92 36 15:35 25.12.2020
4481 Clouds -30 1024 84 551 1.04 30 14:49 25.12.2020
4482 Clouds -30 1023 84 484 1.19 28 14:28 25.12.2020
4483 Clouds -30 1023 84 484 1.19 28 13:44 25.12.2020
4484 Clouds -30 1023 84 604 1.44 15 13:26 25.12.2020
4485 Clouds -30 1023 84 565 1.18 34 12:35 25.12.2020
4486 Clouds -30 1023 84 862 1.32 24 11:54 25.12.2020
4487 Clouds -30 1023 84 862 1.32 24 11:31 25.12.2020
4488 Clouds -30 1022 84 1250 1.46 21 10:57 25.12.2020
4489 Clouds -30 1023 84 998 1.39 16 10:27 25.12.2020
4490 Clouds -30 1023 84 998 1.39 16 09:37 25.12.2020
4491 Clouds -29 1023 85 658 1.25 16 08:48 25.12.2020
4492 Snow -29 1022 85 329 1.31 359 08:25 25.12.2020
4493 Clouds -29 1022 85 288 0.88 349 06:47 25.12.2020
4494 Clouds -31 1022 84 550 0.28 266 04:29 25.12.2020
4495 Clouds -32 1023 83 1976 0.45 252 01:42 25.12.2020
4496 Clouds -33 1022 82 3356 0.58 212 00:18 25.12.2020
4497 Clouds -33 1022 82 4384 0.71 214 23:26 24.12.2020
4498 Clouds -33 1022 82 4384 0.71 214 22:53 24.12.2020
4499 Clouds -34 1023 81 4435 0.92 206 22:22 24.12.2020
4500 Clouds -34 1023 81 4435 0.92 206 21:41 24.12.2020
4501 Clouds -34 1023 81 4885 1.08 225 20:48 24.12.2020
4502 Clouds -35 1024 81 4776 1.35 218 19:20 24.12.2020
4503 Clouds -35 1024 81 4850 1.31 219 18:21 24.12.2020
4504 Clouds -35 1024 81 4850 1.31 219 17:37 24.12.2020
4505 Clouds -35 1024 81 887 1.49 212 16:59 24.12.2020
4506 Clouds -35 1025 81 353 1.42 203 16:24 24.12.2020
4507 Clouds -35 1025 81 353 1.42 203 15:43 24.12.2020
4508 Snow -36 1025 81 261 1.27 221 15:21 24.12.2020
4509 Snow -36 1025 81 261 1.27 221 14:55 24.12.2020
4510 Clouds -36 1026 81 250 1.43 204 14:24 24.12.2020
4511 Clouds -36 1026 81 250 1.43 204 13:49 24.12.2020
4512 Clouds -36 1026 81 250 1.43 204 13:30 24.12.2020
4513 Clouds -36 1026 80 464 1.28 215 12:56 24.12.2020
4514 Clouds -36 1026 80 464 1.28 215 12:37 24.12.2020
4515 Clouds -37 1026 80 300 1.2 210 12:18 24.12.2020
4516 Clouds -37 1026 80 300 1.2 210 11:38 24.12.2020
4517 Clouds -37 1026 80 317 1.16 214 11:18 24.12.2020
4518 Clouds -37 1026 80 317 1.16 214 10:43 24.12.2020
4519 Clouds -38 1027 79 725 1.16 216 09:58 24.12.2020
4520 Clouds -38 1027 79 725 1.16 216 09:40 24.12.2020
4521 Clouds -38 1027 79 1508 1.07 212 08:48 24.12.2020
4522 Clouds -38 1027 79 2194 0.92 208 07:51 24.12.2020
4523 Clouds -38 1027 79 2194 0.92 208 07:51 24.12.2020
4524 Clouds -38 1027 79 2194 0.92 208 07:30 24.12.2020
4525 Clouds -39 1027 78 1544 0.6 198 06:23 24.12.2020
4526 Clouds -42 1027 76 6135 0.4 200 03:29 24.12.2020
4527 Clouds -43 1027 75 6140 0.26 136 01:48 24.12.2020
4528 Clouds -42 1027 75 7098 0.27 119 01:19 24.12.2020
4529 Clouds -43 1026 75 9047 0.44 97 00:23 24.12.2020
4530 Clouds -43 1026 75 9047 0.44 97 23:57 23.12.2020
4531 Clouds -43 1026 75 9047 0.44 97 23:38 23.12.2020
4532 Clouds -43 1026 75 7596 0.61 97 23:19 23.12.2020
4533 Clouds -43 1026 75 7596 0.61 97 22:42 23.12.2020
4534 Clouds -44 1026 75 6893 0.63 74 22:21 23.12.2020
4535 Clouds -44 1026 75 6893 0.63 74 21:43 23.12.2020
4536 Clouds -43 1026 75 7342 0.52 75 21:21 23.12.2020
4537 Clouds -43 1026 75 7342 0.52 75 20:45 23.12.2020
4538 Clouds -43 1026 76 5314 0.73 93 20:25 23.12.2020
4539 Clouds -43 1026 76 5314 0.73 93 19:45 23.12.2020
4540 Clouds -43 1025 76 4652 0.88 91 19:23 23.12.2020
4541 Clouds -43 1025 76 5272 0.83 86 18:56 23.12.2020
4542 Clouds -43 1025 76 5272 0.83 86 18:36 23.12.2020
4543 Clouds -42 1025 76 4627 0.81 78 17:57 23.12.2020
4544 Clouds -42 1025 76 4627 0.81 78 17:36 23.12.2020
4545 Clouds -42 1025 77 4180 0.64 81 17:18 23.12.2020
4546 Clouds -42 1025 77 4180 0.64 81 16:39 23.12.2020
4547 Clouds -42 1025 77 3565 0.7 87 16:21 23.12.2020
4548 Clouds -42 1025 77 3565 0.7 87 15:46 23.12.2020
4549 Clouds -41 1025 78 3217 0.79 89 15:26 23.12.2020
4550 Clouds -41 1025 78 3217 0.79 89 14:58 23.12.2020
4551 Clouds -41 1025 78 3217 0.79 89 14:37 23.12.2020
4552 Clouds -41 1025 78 2920 0.65 98 14:18 23.12.2020
4553 Clouds -41 1025 78 2920 0.65 98 13:42 23.12.2020
4554 Clouds -40 1025 78 3523 0.52 117 13:19 23.12.2020
4555 Clouds -40 1025 78 2432 0.62 108 12:46 23.12.2020
4556 Clouds -40 1025 78 3576 0.51 124 12:21 23.12.2020
4557 Clouds -40 1025 78 3576 0.51 124 11:46 23.12.2020
4558 Clouds -41 1025 78 3412 0.53 119 10:59 23.12.2020
4559 Clouds -41 1025 78 3412 0.53 119 10:41 23.12.2020
4560 Clouds -41 1025 77 3219 0.5 161 10:22 23.12.2020
4561 Clouds -42 1025 76 3624 0.66 159 09:28 23.12.2020
4562 Clouds -42 1025 76 3624 0.66 159 08:44 23.12.2020
4563 Clouds -43 1025 76 4690 0.63 174 08:19 23.12.2020
4564 Clouds -42 1026 76 5480 0.62 181 07:27 23.12.2020
4565 Clouds -42 1026 76 5101 0.53 167 06:39 23.12.2020
4566 Clouds -41 1026 77 5727 0.95 198 05:26 23.12.2020
4567 Clouds -41 1026 77 5727 0.95 198 04:53 23.12.2020
4568 Clouds -43 1028 75 9256 0.88 210 00:34 23.12.2020
4569 Clouds -43 1028 75 10000 0.97 214 23:49 22.12.2020
4570 Clouds -43 1028 75 10000 0.97 214 23:30 22.12.2020
4571 Clouds -43 1028 75 10000 0.91 217 22:44 22.12.2020
4572 Clouds -43 1028 75 10000 0.8 222 22:25 22.12.2020
4573 Clouds -43 1028 75 10000 0.8 222 21:59 22.12.2020
4574 Clouds -43 1028 75 10000 0.8 222 21:38 22.12.2020
4575 Clouds -43 1028 75 9593 0.87 227 21:19 22.12.2020
4576 Clouds -43 1028 75 9593 0.87 227 20:48 22.12.2020
4577 Clouds -43 1028 75 8818 0.96 222 20:21 22.12.2020
4578 Clouds -43 1028 75 8818 0.96 222 19:44 22.12.2020
4579 Clouds -43 1028 75 10000 0.9 205 19:22 22.12.2020
4580 Clouds -43 1028 75 10000 0.9 205 18:55 22.12.2020
4581 Clouds -43 1028 75 10000 0.82 206 18:30 22.12.2020
4582 Clouds -43 1028 75 10000 0.66 209 17:59 22.12.2020
4583 Clouds -43 1028 75 10000 0.66 209 17:36 22.12.2020
4584 Clouds -43 1028 75 10000 0.71 214 17:18 22.12.2020
4585 Clouds -43 1028 75 10000 0.71 214 16:44 22.12.2020
4586 Clouds -43 1028 74 10000 0.77 211 16:19 22.12.2020
4587 Clouds -43 1028 74 10000 0.77 211 15:45 22.12.2020
4588 Clouds -43 1028 74 10000 0.81 205 15:26 22.12.2020
4589 Clouds -43 1028 74 10000 0.81 205 14:46 22.12.2020
4590 Clouds -43 1028 74 10000 0.81 205 14:46 22.12.2020
4591 Clouds -43 1028 74 10000 0.78 202 14:28 22.12.2020
4592 Clouds -43 1028 74 10000 0.78 202 13:54 22.12.2020
4593 Clouds -43 1028 74 10000 0.78 202 13:36 22.12.2020
4594 Clouds -43 1028 74 10000 0.72 208 13:18 22.12.2020
4595 Clouds -43 1028 74 10000 0.72 192 12:42 22.12.2020
4596 Clouds -43 1028 74 10000 0.68 200 12:22 22.12.2020
4597 Clouds -43 1028 74 10000 0.68 200 11:55 22.12.2020
4598 Clouds -43 1028 74 10000 0.68 200 11:37 22.12.2020
4599 Clouds -43 1027 74 10000 0.8 208 11:18 22.12.2020
4600 Clouds -43 1027 74 10000 0.8 208 10:45 22.12.2020
4601 Clouds -43 1026 75 10000 0.82 201 10:23 22.12.2020
4602 Clouds -43 1026 75 10000 0.82 201 09:49 22.12.2020
4603 Clouds -43 1026 75 10000 0.75 188 09:21 22.12.2020
4604 Clouds -43 1026 75 10000 0.75 188 08:45 22.12.2020
4605 Clouds -43 1026 75 10000 0.82 184 08:25 22.12.2020
4606 Clouds -43 1026 75 10000 0.82 184 07:47 22.12.2020
4607 Clouds -43 1026 75 10000 0.69 169 06:38 22.12.2020
4608 Clouds -43 1025 76 10000 0.72 169 05:39 22.12.2020
4609 Clouds -42 1023 76 5955 0.9 205 02:39 22.12.2020
4610 Clouds -42 1023 76 6425 0.83 203 00:44 22.12.2020
4611 Clouds -42 1023 76 5937 0.74 216 23:52 21.12.2020
4612 Clouds -42 1022 76 5813 0.84 218 23:24 21.12.2020
4613 Clouds -42 1022 76 5813 0.84 218 22:38 21.12.2020
4614 Clouds -42 1022 76 6212 0.96 211 22:19 21.12.2020
4615 Clouds -42 1022 76 6212 0.96 211 21:49 21.12.2020
4616 Clouds -42 1022 76 6212 0.96 211 21:31 21.12.2020
4617 Clouds -42 1022 75 6768 1.05 211 20:50 21.12.2020
4618 Clouds -42 1022 75 6525 0.99 215 20:25 21.12.2020
4619 Clouds -42 1022 75 6525 0.99 215 19:58 21.12.2020
4620 Clouds -42 1022 75 6525 0.99 215 19:39 21.12.2020
4621 Clouds -42 1021 75 7947 1.06 225 19:18 21.12.2020
4622 Clouds -42 1021 76 7985 0.89 227 18:51 21.12.2020
4623 Clouds -42 1021 76 7985 0.89 227 18:32 21.12.2020
4624 Clouds -43 1021 75 10000 0.89 233 17:43 21.12.2020
4625 Clouds -43 1020 75 10000 0.85 232 17:24 21.12.2020
4626 Clouds -43 1020 75 10000 0.85 232 16:47 21.12.2020
4627 Clouds -43 1020 75 10000 0.86 234 16:26 21.12.2020
4628 Clouds -43 1020 75 10000 0.86 234 15:47 21.12.2020
4629 Clouds -43 1020 75 10000 0.87 236 15:29 21.12.2020
4630 Clouds -43 1020 75 10000 0.87 236 14:57 21.12.2020
4631 Clouds -43 1020 75 10000 0.84 241 14:21 21.12.2020
4632 Clouds -43 1020 75 10000 0.84 241 13:44 21.12.2020
4633 Clouds -43 1020 75 10000 0.64 250 13:26 21.12.2020
4634 Clouds -43 1021 75 10000 0.7 241 12:45 21.12.2020
4635 Clouds -43 1020 75 10000 0.71 253 12:25 21.12.2020
4636 Clouds -43 1020 75 10000 0.71 253 11:58 21.12.2020
4637 Clouds -43 1020 75 10000 0.71 253 11:39 21.12.2020
4638 Clouds -43 1019 75 10000 0.75 252 11:19 21.12.2020
4639 Clouds -43 1019 75 10000 0.75 252 10:42 21.12.2020
4640 Clouds -43 1019 75 10000 0.75 252 10:24 21.12.2020
4641 Clouds -43 1019 75 10000 0.75 252 09:46 21.12.2020
4642 Clouds -43 1019 75 10000 0.55 258 09:25 21.12.2020
4643 Clouds -43 1019 75 10000 0.55 258 08:52 21.12.2020
4644 Clouds -43 1019 75 10000 0.2 226 07:52 21.12.2020
4645 Clouds -42 1018 76 10000 0.08 14 06:47 21.12.2020
4646 Clouds -42 1017 77 10000 0.28 37 04:49 21.12.2020
4647 Clouds -41 1016 79 4018 0.67 79 01:28 21.12.2020
4648 Clouds -40 1016 79 3214 0.67 77 00:33 21.12.2020
4649 Clouds -40 1016 79 3268 0.62 81 23:36 20.12.2020
4650 Clouds -40 1015 79 3487 0.37 120 22:59 20.12.2020
4651 Clouds -40 1015 79 3487 0.37 120 22:41 20.12.2020
4652 Clouds -40 1015 79 3215 0.46 147 22:22 20.12.2020
4653 Clouds -40 1015 79 3215 0.46 147 21:40 20.12.2020
4654 Clouds -40 1015 79 3173 0.51 119 21:21 20.12.2020
4655 Clouds -40 1015 79 3173 0.51 119 20:51 20.12.2020
4656 Clouds -39 1015 79 3228 0.49 104 20:25 20.12.2020
4657 Clouds -39 1015 79 3228 0.49 104 19:49 20.12.2020
4658 Clouds -39 1015 79 3228 0.49 104 19:31 20.12.2020
4659 Clouds -39 1015 79 2676 0.48 124 18:58 20.12.2020
4660 Clouds -39 1014 79 2607 0.45 118 18:38 20.12.2020
4661 Clouds -39 1014 79 2237 0.41 153 18:20 20.12.2020
4662 Clouds -39 1014 79 2237 0.41 153 17:44 20.12.2020
4663 Clouds -39 1014 79 1998 0.52 179 17:23 20.12.2020
4664 Clouds -39 1014 79 1998 0.52 179 16:45 20.12.2020
4665 Clouds -39 1014 79 1962 0.5 186 16:27 20.12.2020
4666 Clouds -39 1014 79 1962 0.5 186 15:48 20.12.2020
4667 Clouds -39 1014 79 2169 0.65 238 15:25 20.12.2020
4668 Clouds -39 1014 79 2169 0.65 238 14:54 20.12.2020
4669 Clouds -39 1014 79 2169 0.65 238 14:33 20.12.2020
4670 Clouds -39 1015 79 2574 0.68 219 13:47 20.12.2020
4671 Clouds -39 1015 79 3294 0.5 215 13:28 20.12.2020
4672 Clouds -39 1015 79 3294 0.5 215 12:58 20.12.2020
4673 Clouds -38 1015 79 2132 0.53 206 12:39 20.12.2020
4674 Clouds -39 1015 79 2514 0.5 243 12:20 20.12.2020
4675 Clouds -39 1015 79 2514 0.5 243 11:43 20.12.2020
4676 Clouds -39 1015 79 3042 0.59 248 11:19 20.12.2020
4677 Clouds -39 1015 79 3042 0.59 248 10:45 20.12.2020
4678 Clouds -39 1015 79 3799 0.5 244 10:20 20.12.2020
4679 Clouds -39 1015 79 3799 0.5 244 09:46 20.12.2020
4680 Clouds -40 1016 79 4215 0.48 246 09:27 20.12.2020
4681 Clouds -40 1016 79 4215 0.48 246 08:58 20.12.2020
4682 Clouds -40 1016 79 4215 0.48 246 08:39 20.12.2020
4683 Clouds -40 1016 79 7779 0.3 240 07:25 20.12.2020
4684 Clouds -40 1017 79 9908 0.2 285 05:48 20.12.2020
4685 Clouds -40 1018 79 10000 0.59 85 02:20 20.12.2020
4686 Clouds -40 1018 79 10000 0.52 80 00:38 20.12.2020
4687 Clouds -39 1018 79 10000 0.54 86 23:21 19.12.2020
4688 Clouds -39 1018 79 10000 0.54 86 22:57 19.12.2020
4689 Clouds -39 1018 79 10000 0.54 86 22:38 19.12.2020
4690 Clouds -39 1018 79 10000 0.72 82 22:19 19.12.2020
4691 Clouds -39 1018 79 10000 0.72 82 21:42 19.12.2020
4692 Clouds -39 1018 79 10000 0.68 86 21:24 19.12.2020
4693 Clouds -39 1018 79 10000 0.68 86 20:46 19.12.2020
4694 Clouds -39 1018 79 10000 0.59 92 20:22 19.12.2020
4695 Clouds -39 1018 79 10000 0.59 92 19:55 19.12.2020
4696 Clouds -39 1018 79 10000 0.59 92 19:36 19.12.2020
4697 Clouds -39 1018 79 10000 0.63 88 19:18 19.12.2020
4698 Clouds -39 1018 79 10000 0.63 82 18:31 19.12.2020
4699 Clouds -39 1018 79 10000 0.75 82 17:49 19.12.2020
4700 Clouds -39 1018 80 10000 0.83 86 17:29 19.12.2020
4701 Clouds -39 1018 80 10000 0.83 86 16:56 19.12.2020
4702 Clouds -39 1018 80 10000 0.83 86 16:37 19.12.2020
4703 Clouds -39 1018 80 10000 0.83 86 16:37 19.12.2020
4704 Clouds -39 1018 80 10000 0.82 94 16:19 19.12.2020
4705 Clouds -39 1018 80 10000 0.82 94 15:47 19.12.2020
4706 Clouds -38 1018 80 10000 0.87 95 15:18 19.12.2020
4707 Clouds -38 1018 80 10000 0.87 95 14:35 19.12.2020
4708 Clouds -38 1019 80 9655 0.7 97 13:42 19.12.2020
4709 Clouds -38 1019 81 8794 0.59 101 13:22 19.12.2020
4710 Clouds -38 1019 81 8794 0.59 101 12:57 19.12.2020
4711 Clouds -37 1019 81 6258 0.68 98 12:38 19.12.2020
4712 Clouds -37 1019 81 5126 0.8 91 12:20 19.12.2020
4713 Clouds -37 1019 81 5126 0.8 91 11:44 19.12.2020
4714 Clouds -37 1019 81 4974 0.84 86 11:18 19.12.2020
4715 Clouds -37 1019 81 4974 0.84 86 10:42 19.12.2020
4716 Clouds -36 1019 81 4107 0.7 83 10:18 19.12.2020
4717 Clouds -36 1019 81 4107 0.7 83 09:41 19.12.2020
4718 Clouds -36 1018 81 4457 0.7 89 08:58 19.12.2020
4719 Clouds -35 1018 81 3112 0.71 101 08:18 19.12.2020
4720 Clouds -35 1018 81 1752 0.7 102 07:20 19.12.2020
4721 Clouds -35 1018 81 1752 0.7 102 06:49 19.12.2020
4722 Clouds -35 1018 81 1207 0.87 82 05:24 19.12.2020
4723 Clouds -36 1019 80 1538 0.71 83 03:50 19.12.2020
4724 Clouds -38 1019 80 4338 0.66 85 00:42 19.12.2020
4725 Clouds -38 1018 80 3909 0.87 92 00:22 19.12.2020
4726 Clouds -38 1018 80 3909 0.87 92 23:57 18.12.2020
4727 Clouds -38 1018 80 3909 0.87 92 23:39 18.12.2020
4728 Clouds -39 1019 79 4518 0.88 95 23:18 18.12.2020
4729 Clouds -39 1019 79 4518 0.88 95 22:42 18.12.2020
4730 Clouds -39 1018 80 4130 0.74 103 22:20 18.12.2020
4731 Clouds -39 1018 80 4130 0.74 103 21:46 18.12.2020
4732 Clouds -39 1019 80 4432 0.78 114 21:28 18.12.2020
4733 Clouds -39 1019 79 3960 0.74 125 20:27 18.12.2020
4734 Clouds -39 1019 79 3960 0.74 125 19:52 18.12.2020
4735 Clouds -38 1019 79 3743 0.69 125 19:27 18.12.2020
4736 Clouds -38 1019 80 3926 0.65 103 18:54 18.12.2020
4737 Clouds -38 1019 80 3926 0.65 103 18:36 18.12.2020
4738 Clouds -38 1019 80 3192 0.82 100 18:18 18.12.2020
4739 Clouds -38 1019 80 3157 0.65 104 17:22 18.12.2020
4740 Clouds -38 1019 80 3157 0.65 104 16:49 18.12.2020
4741 Clouds -38 1019 80 3215 0.69 109 16:26 18.12.2020
4742 Clouds -38 1019 80 3215 0.69 109 15:56 18.12.2020
4743 Clouds -38 1019 80 3215 0.69 109 15:38 18.12.2020
4744 Clouds -38 1020 79 3665 0.77 107 15:20 18.12.2020
4745 Clouds -38 1020 79 3665 0.77 107 14:54 18.12.2020
4746 Clouds -39 1020 79 4170 0.61 115 14:21 18.12.2020
4747 Clouds -39 1020 79 4170 0.61 115 13:46 18.12.2020
4748 Clouds -39 1020 79 4709 0.58 123 13:24 18.12.2020
4749 Clouds -38 1021 80 3296 0.62 116 12:46 18.12.2020
4750 Clouds -38 1021 80 3513 0.66 114 11:45 18.12.2020
4751 Clouds -38 1021 79 3765 0.75 113 11:22 18.12.2020
4752 Clouds -38 1021 79 3765 0.75 113 10:39 18.12.2020
4753 Clouds -38 1020 80 4116 0.54 142 10:20 18.12.2020
4754 Clouds -38 1020 80 4116 0.54 142 09:38 18.12.2020
4755 Clouds -38 1021 80 4221 0.46 147 09:20 18.12.2020
4756 Clouds -38 1021 80 4221 0.46 147 08:53 18.12.2020
4757 Clouds -38 1021 79 3535 0.43 143 08:29 18.12.2020
4758 Clouds -38 1021 79 3535 0.43 143 07:39 18.12.2020
4759 Clouds -38 1020 80 3669 0.59 122 07:18 18.12.2020
4760 Clouds -38 1020 80 3669 0.59 122 06:46 18.12.2020
4761 Clouds -38 1020 80 3504 0.54 126 05:41 18.12.2020
4762 Clouds -38 1020 80 3222 0.57 124 04:51 18.12.2020
4763 Clouds -39 1021 80 3997 0.47 139 01:58 18.12.2020
4764 Clouds -39 1021 80 3997 0.47 139 01:39 18.12.2020
4765 Clouds -39 1021 80 4859 0.45 159 23:59 17.12.2020
4766 Clouds -38 1021 80 5466 0.57 172 23:25 17.12.2020
4767 Clouds -38 1021 80 5466 0.57 172 22:58 17.12.2020
4768 Clouds -38 1021 80 5466 0.57 172 22:40 17.12.2020
4769 Clouds -38 1021 80 5458 0.61 159 22:22 17.12.2020
4770 Clouds -38 1021 80 5458 0.61 159 21:42 17.12.2020
4771 Clouds -38 1021 80 5458 0.61 159 21:42 17.12.2020
4772 Clouds -38 1022 80 5796 0.58 172 21:19 17.12.2020
4773 Clouds -38 1022 80 5796 0.58 172 20:41 17.12.2020
4774 Clouds -39 1021 79 6913 0.52 173 20:19 17.12.2020
4775 Clouds -39 1021 79 6913 0.52 173 19:48 17.12.2020
4776 Clouds -38 1022 80 10000 0.42 201 19:24 17.12.2020
4777 Clouds -38 1022 80 10000 0.42 201 19:24 17.12.2020
4778 Clouds -38 1022 80 7295 0.2 209 18:42 17.12.2020
4779 Clouds -38 1022 80 7295 0.2 209 18:42 17.12.2020
4780 Clouds -36 1022 80 8551 0.34 240 18:24 17.12.2020
4781 Clouds -36 1022 80 8551 0.34 240 17:54 17.12.2020
4782 Clouds -36 1022 80 8551 0.34 240 17:33 17.12.2020
4783 Clouds -36 1022 80 6111 0.38 215 16:54 17.12.2020
4784 Clouds -36 1022 80 6111 0.38 215 16:36 17.12.2020
4785 Clouds -37 1023 80 4906 0.29 187 16:18 17.12.2020
4786 Clouds -37 1023 80 4906 0.29 187 15:40 17.12.2020
4787 Clouds -38 1023 79 6166 0.58 196 15:18 17.12.2020
4788 Clouds -38 1023 79 6166 0.58 196 14:47 17.12.2020
4789 Clouds -39 1023 79 5964 0.5 168 13:59 17.12.2020
4790 Clouds -39 1023 79 5964 0.5 168 13:41 17.12.2020
4791 Clouds -39 1023 79 5982 0.37 128 12:58 17.12.2020
4792 Clouds -39 1023 79 5177 0.32 117 12:38 17.12.2020
4793 Clouds -39 1023 79 6482 0.2 245 12:20 17.12.2020
4794 Clouds -39 1023 79 6482 0.2 245 11:40 17.12.2020
4795 Clouds -39 1023 79 7859 0.23 167 11:20 17.12.2020
4796 Clouds -39 1023 79 7859 0.23 167 10:40 17.12.2020
4797 Clouds -39 1023 79 7693 0.27 119 09:36 17.12.2020
4798 Clouds -39 1023 79 7535 0.24 201 08:40 17.12.2020
4799 Clouds -39 1023 79 9695 0.33 214 07:42 17.12.2020
4800 Clouds -39 1022 79 10000 0.19 180 07:20 17.12.2020
4801 Clouds -39 1023 79 9476 0.18 105 06:47 17.12.2020
4802 Clouds -39 1023 79 8452 0.54 112 06:27 17.12.2020
4803 Clouds -38 1023 79 8104 0.26 89 03:30 17.12.2020
4804 Clouds -38 1023 79 8961 0.64 76 00:27 17.12.2020
4805 Clouds -38 1023 79 8961 0.64 76 23:42 16.12.2020
4806 Clouds -38 1023 79 10000 0.64 82 23:18 16.12.2020
4807 Clouds -38 1023 79 10000 0.64 82 22:48 16.12.2020
4808 Clouds -38 1023 79 10000 0.64 82 22:30 16.12.2020
4809 Clouds -38 1023 79 10000 0.83 82 21:44 16.12.2020
4810 Clouds -38 1023 79 10000 0.73 96 21:23 16.12.2020
4811 Clouds -38 1023 79 10000 0.73 96 20:52 16.12.2020
4812 Clouds -38 1023 79 10000 0.61 97 20:20 16.12.2020
4813 Clouds -38 1023 79 10000 0.61 97 19:38 16.12.2020
4814 Clouds -37 1023 79 10000 0.61 99 19:18 16.12.2020
4815 Clouds -37 1023 78 10000 0.52 121 18:49 16.12.2020
4816 Clouds -36 1023 77 10000 0.55 129 18:25 16.12.2020
4817 Clouds -36 1023 77 10000 0.55 129 17:38 16.12.2020
4818 Clouds -35 1023 77 10000 0.58 134 16:56 16.12.2020
4819 Clouds -35 1023 77 10000 0.58 134 16:36 16.12.2020
4820 Clouds -34 1024 77 10000 0.55 163 16:18 16.12.2020
4821 Clouds -34 1024 77 10000 0.55 163 15:46 16.12.2020
4822 Clouds -34 1024 76 10000 0.59 162 15:18 16.12.2020
4823 Clouds -34 1024 76 10000 0.59 162 14:44 16.12.2020
4824 Clouds -34 1024 76 10000 0.52 159 14:26 16.12.2020
4825 Clouds -34 1024 76 10000 0.52 159 13:41 16.12.2020
4826 Clouds -35 1025 76 10000 0.61 138 13:20 16.12.2020
4827 Clouds -35 1025 76 10000 0.61 138 12:43 16.12.2020
4828 Clouds -36 1025 74 10000 0.47 158 11:51 16.12.2020
4829 Clouds -36 1025 74 10000 0.47 158 11:32 16.12.2020
4830 Clouds -35 1025 74 10000 0.61 179 10:56 16.12.2020
4831 Clouds -35 1025 74 10000 0.61 179 10:36 16.12.2020
4832 Clouds -35 1025 74 10000 0.53 216 09:56 16.12.2020
4833 Clouds -35 1025 74 10000 0.53 216 09:32 16.12.2020
4834 Clouds -34 1026 74 10000 0.55 206 08:23 16.12.2020
4835 Clouds -34 1026 74 10000 0.55 206 07:46 16.12.2020
4836 Clouds -34 1026 72 10000 0.47 197 07:23 16.12.2020
4837 Clouds -35 1027 72 10000 0.58 242 05:31 16.12.2020
4838 Clouds -36 1028 71 10000 0.83 255 02:20 16.12.2020
4839 Clouds -38 1029 68 10000 0.68 255 23:57 15.12.2020
4840 Clouds -38 1029 68 10000 0.68 255 23:37 15.12.2020
4841 Clouds -39 1029 66 10000 0.58 263 22:44 15.12.2020
4842 Clouds -40 1029 65 10000 0.54 272 22:22 15.12.2020
4843 Clouds -40 1029 65 10000 0.54 272 21:49 15.12.2020
4844 Clouds -41 1029 65 10000 0.59 281 21:24 15.12.2020
4845 Clouds -41 1029 65 10000 0.59 281 20:46 15.12.2020
4846 Clouds -41 1030 64 10000 0.58 273 20:27 15.12.2020
4847 Clouds -41 1030 64 10000 0.58 273 19:55 15.12.2020
4848 Clouds -41 1030 64 10000 0.58 273 19:35 15.12.2020
4849 Clear -41 1030 65 10000 0.44 265 18:57 15.12.2020
4850 Clouds -41 1030 67 10000 0.36 259 18:38 15.12.2020
4851 Clouds -41 1030 68 10000 0.41 275 18:20 15.12.2020
4852 Clouds -41 1030 68 10000 0.41 275 17:41 15.12.2020
4853 Clear -41 1030 68 10000 0.51 287 17:21 15.12.2020
4854 Clear -41 1030 68 10000 0.51 287 16:37 15.12.2020
4855 Clear -41 1030 68 10000 0.33 296 16:19 15.12.2020
4856 Clear -41 1030 68 10000 0.33 296 15:37 15.12.2020
4857 Clear -41 1030 68 10000 0.29 298 14:56 15.12.2020
4858 Clear -41 1030 68 10000 0.29 298 14:37 15.12.2020
4859 Clear -41 1031 69 10000 0.05 265 14:19 15.12.2020
4860 Clear -41 1031 69 10000 0.05 265 13:47 15.12.2020
4861 Clear -41 1031 69 10000 0.11 4 13:22 15.12.2020
4862 Clear -41 1031 68 10000 0.1 356 12:44 15.12.2020
4863 Clear -41 1031 68 10000 0.12 125 12:18 15.12.2020
4864 Clear -41 1031 68 10000 0.12 125 11:49 15.12.2020
4865 Clear -41 1031 68 10000 0.35 103 11:20 15.12.2020
4866 Clear -41 1031 68 10000 0.35 103 10:44 15.12.2020
4867 Clear -41 1031 68 10000 0.25 54 10:19 15.12.2020
4868 Clear -41 1031 68 10000 0.25 54 09:41 15.12.2020
4869 Clear -41 1031 68 10000 0.3 308 09:22 15.12.2020
4870 Clear -41 1031 68 10000 0.3 308 08:40 15.12.2020
4871 Clear -41 1031 69 10000 0.09 128 08:21 15.12.2020
4872 Clear -41 1031 69 10000 0.09 128 07:43 15.12.2020
4873 Clear -40 1031 71 10000 0.44 108 06:53 15.12.2020
4874 Clear -40 1031 71 10000 0.35 108 05:34 15.12.2020
4875 Clouds -40 1030 73 10000 0.42 193 00:39 15.12.2020
4876 Clouds -39 1030 73 10000 0.6 167 23:48 14.12.2020
4877 Clouds -39 1030 74 10000 0.47 160 23:19 14.12.2020
4878 Clouds -39 1030 74 10000 0.47 160 22:40 14.12.2020
4879 Clouds -39 1029 74 10000 0.3 172 21:56 14.12.2020
4880 Clouds -39 1029 74 10000 0.3 172 21:36 14.12.2020
4881 Clouds -39 1029 74 10000 0.4 201 21:18 14.12.2020
4882 Clouds -39 1029 74 10000 0.4 201 20:46 14.12.2020
4883 Clouds -39 1029 74 10000 0.48 196 20:27 14.12.2020
4884 Clouds -39 1029 74 10000 0.48 196 19:41 14.12.2020
4885 Clouds -39 1030 74 10000 0.57 170 19:23 14.12.2020
4886 Clouds -39 1030 73 10000 0.5 164 18:43 14.12.2020
4887 Clouds -39 1029 73 10000 0.54 146 18:23 14.12.2020
4888 Clouds -39 1029 73 10000 0.54 146 17:38 14.12.2020
4889 Clouds -40 1029 73 10000 0.58 160 17:19 14.12.2020
4890 Clouds -40 1029 73 10000 0.58 160 16:42 14.12.2020
4891 Clouds -40 1029 73 10000 0.52 175 16:23 14.12.2020
4892 Clouds -40 1029 73 10000 0.52 175 15:33 14.12.2020
4893 Clouds -40 1030 73 10000 0.45 174 14:52 14.12.2020
4894 Clouds -40 1030 73 10000 0.45 174 14:34 14.12.2020
4895 Clouds -41 1030 72 10000 0.47 146 13:58 14.12.2020
4896 Clouds -41 1030 72 10000 0.47 146 13:37 14.12.2020
4897 Clouds -41 1031 72 10000 0.44 136 13:18 14.12.2020
4898 Clouds -41 1031 73 10000 0.5 144 12:44 14.12.2020
4899 Clouds -41 1031 73 10000 0.49 138 12:23 14.12.2020
4900 Clouds -41 1031 73 10000 0.49 138 11:31 14.12.2020
4901 Clouds -40 1030 73 10000 0.49 144 10:30 14.12.2020
4902 Clouds -40 1031 73 10000 0.38 161 09:58 14.12.2020
4903 Clouds -40 1031 73 10000 0.37 142 09:25 14.12.2020
4904 Clouds -40 1031 73 10000 0.37 142 08:45 14.12.2020
4905 Clouds -41 1031 73 10000 0.38 135 08:26 14.12.2020
4906 Clouds -41 1032 72 10000 0.23 128 07:27 14.12.2020
4907 Clouds -41 1032 72 10000 0.23 128 06:44 14.12.2020
4908 Clear -42 1032 71 10000 0.39 147 04:28 14.12.2020
4909 Clouds -42 1033 71 10000 0.39 145 02:26 14.12.2020
4910 Clear -42 1034 71 10000 0.33 160 00:55 14.12.2020
4911 Clear -42 1034 71 10000 0.27 158 00:31 14.12.2020
4912 Clear -42 1034 71 10000 0.38 177 23:48 13.12.2020
4913 Clear -42 1034 71 10000 0.57 174 23:25 13.12.2020
4914 Clear -42 1034 71 10000 0.57 174 22:46 13.12.2020
4915 Clear -42 1033 71 10000 0.57 167 22:19 13.12.2020
4916 Clear -42 1033 71 10000 0.57 167 21:42 13.12.2020
4917 Clear -42 1034 72 10000 0.57 163 21:24 13.12.2020
4918 Clear -42 1034 72 10000 0.57 163 20:35 13.12.2020
4919 Clouds -42 1034 72 10000 0.54 204 19:53 13.12.2020
4920 Clouds -42 1034 72 10000 0.54 204 19:32 13.12.2020
4921 Clouds -42 1034 72 10000 0.57 211 18:59 13.12.2020
4922 Clouds -41 1034 75 10000 0.49 219 18:41 13.12.2020
4923 Clouds -40 1034 75 10000 0.61 198 18:20 13.12.2020
4924 Clouds -40 1034 75 10000 0.61 198 17:46 13.12.2020
4925 Clouds -40 1034 75 10000 0.77 183 17:21 13.12.2020
4926 Clouds -40 1034 75 10000 0.77 183 16:55 13.12.2020
4927 Clouds -40 1034 75 10000 0.77 183 16:37 13.12.2020
4928 Clouds -41 1034 75 10000 0.86 188 16:18 13.12.2020
4929 Clouds -41 1034 75 10000 0.86 188 15:40 13.12.2020
4930 Clouds -41 1034 75 10000 0.95 205 15:21 13.12.2020
4931 Clouds -41 1034 75 10000 0.95 205 14:43 13.12.2020
4932 Clouds -41 1034 75 10000 1.07 212 14:21 13.12.2020
4933 Clouds -41 1034 75 10000 1.07 212 13:43 13.12.2020
4934 Clouds -42 1035 75 10000 1.16 212 13:24 13.12.2020
4935 Clouds -41 1035 75 10000 1.19 211 12:48 13.12.2020
4936 Clouds -41 1035 75 10000 1.29 213 12:22 13.12.2020
4937 Clouds -41 1035 75 10000 1.29 213 11:40 13.12.2020
4938 Clouds -41 1035 76 10000 1.19 208 10:56 13.12.2020
4939 Clouds -41 1035 76 10000 1.19 208 10:38 13.12.2020
4940 Clouds -42 1035 76 10000 1.02 217 09:55 13.12.2020
4941 Clouds -42 1035 76 10000 1.02 217 09:55 13.12.2020
4942 Clouds -42 1035 76 10000 0.98 226 09:26 13.12.2020
4943 Clouds -42 1035 76 10000 0.98 226 08:35 13.12.2020
4944 Clouds -41 1035 77 10000 0.96 232 07:47 13.12.2020
4945 Clouds -42 1035 78 10000 0.65 245 04:48 13.12.2020
4946 Clouds -41 1035 78 10000 0.62 244 02:41 13.12.2020
4947 Clouds -41 1035 78 10000 0.65 241 01:58 13.12.2020
4948 Clouds -41 1035 78 10000 0.58 231 00:51 13.12.2020
4949 Clouds -41 1035 78 10000 0.48 232 00:28 13.12.2020
4950 Clouds -41 1035 78 10000 0.48 232 23:32 12.12.2020
4951 Clouds -41 1035 78 10000 0.53 249 22:53 12.12.2020
4952 Clouds -41 1035 78 10000 0.5 259 22:19 12.12.2020
4953 Clouds -41 1035 78 10000 0.5 259 21:42 12.12.2020
4954 Clouds -41 1035 78 10000 0.54 259 21:18 12.12.2020
4955 Clouds -41 1035 78 10000 0.54 259 20:36 12.12.2020
4956 Clouds -41 1035 79 10000 0.48 269 20:18 12.12.2020
4957 Clouds -41 1035 79 10000 0.48 269 19:46 12.12.2020
4958 Clouds -41 1035 79 10000 0.31 286 19:27 12.12.2020
4959 Clouds -41 1036 79 10000 0.34 273 18:45 12.12.2020
4960 Clouds -41 1036 79 10000 0.43 286 18:27 12.12.2020
4961 Clouds -41 1036 79 10000 0.43 286 17:47 12.12.2020
4962 Clouds -41 1035 79 10000 0.33 288 16:57 12.12.2020
4963 Clouds -41 1035 79 10000 0.14 282 16:21 12.12.2020
4964 Clouds -41 1035 79 10000 0.14 282 15:50 12.12.2020
4965 Clouds -41 1035 79 10000 0.14 282 15:31 12.12.2020
4966 Clouds -40 1035 79 10000 0.24 126 14:49 12.12.2020
4967 Clouds -40 1035 79 10000 0.25 123 13:57 12.12.2020
4968 Clouds -40 1035 79 10000 0.25 123 13:38 12.12.2020
4969 Clouds -40 1035 79 10000 0.21 124 12:59 12.12.2020
4970 Clouds -40 1035 79 10000 0.3 102 12:26 12.12.2020
4971 Clouds -40 1035 79 10000 0.01 318 10:55 12.12.2020
4972 Clouds -40 1035 79 10000 0.07 155 09:50 12.12.2020
4973 Clouds -40 1034 79 10000 0.25 107 08:57 12.12.2020
4974 Clouds -38 1033 80 6741 0.5 105 03:31 12.12.2020
4975 Clouds -37 1032 81 4573 0.39 88 23:58 11.12.2020
4976 Clouds -36 1031 81 4257 0.48 81 22:47 11.12.2020
4977 Clouds -36 1030 81 2516 0.81 88 20:50 11.12.2020
4978 Clouds -36 1030 81 2726 0.64 87 18:46 11.12.2020
4979 Clouds -36 1029 81 3390 0.7 91 16:34 11.12.2020
4980 Clouds -36 1028 81 2776 0.64 86 14:19 11.12.2020
4981 Clouds -36 1028 81 2638 0.65 82 13:25 11.12.2020
4982 Clouds -36 1028 81 2621 0.75 89 12:20 11.12.2020
4983 Clouds -36 1028 81 2621 0.75 89 11:52 11.12.2020
4984 Clouds -36 1027 81 2226 0.6 93 10:55 11.12.2020
4985 Clouds -36 1027 80 2186 0.59 99 09:42 11.12.2020
4986 Clouds -38 1026 78 3944 0.46 98 06:25 11.12.2020
4987 Clouds -38 1025 77 5041 0.53 106 05:20 11.12.2020
4988 Clouds -40 1025 75 10000 0.64 122 02:38 11.12.2020
4989 Clouds -40 1024 74 10000 0.25 139 00:39 11.12.2020
4990 Clouds -40 1024 74 10000 0.22 158 22:57 10.12.2020
4991 Clouds -40 1024 73 10000 0.31 140 21:37 10.12.2020
4992 Clouds -40 1023 73 10000 0.23 143 20:49 10.12.2020
4993 Clear -40 1023 73 10000 0.33 138 19:49 10.12.2020
4994 Clear -41 1023 73 10000 0.4 126 19:21 10.12.2020
4995 Clear -41 1023 75 10000 0.26 119 18:44 10.12.2020
4996 Clear -41 1022 75 10000 0.31 141 16:56 10.12.2020
4997 Clear -41 1022 75 10000 0.19 157 15:51 10.12.2020
4998 Clear -41 1022 75 10000 0.17 166 14:58 10.12.2020
4999 Clear -41 1022 75 10000 0.17 166 14:39 10.12.2020
5000 Clear -41 1022 74 10000 0.49 122 13:26 10.12.2020
5001 Clouds -41 1021 74 10000 0.26 130 11:51 10.12.2020
5002 Clouds -41 1020 74 10000 0.33 108 10:29 10.12.2020
5003 Clouds -41 1019 74 10000 0.49 120 08:19 10.12.2020
5004 Clouds -41 1019 74 10000 0.51 123 06:59 10.12.2020
5005 Clouds -40 1018 75 10000 0.54 139 05:26 10.12.2020
5006 Clouds -40 1018 75 10000 0.65 119 02:31 10.12.2020
5007 Clouds -40 1017 75 10000 0.72 125 01:18 10.12.2020
5008 Clouds -40 1017 75 10000 0.68 134 23:37 09.12.2020
5009 Clouds -40 1016 76 10000 0.97 136 20:37 09.12.2020
5010 Clouds -40 1016 76 10000 0.89 141 19:40 09.12.2020
5011 Clouds -40 1016 77 10000 0.64 151 18:36 09.12.2020
5012 Clouds -40 1016 77 10000 0.88 158 16:57 09.12.2020
5013 Clouds -40 1016 78 10000 0.87 155 16:26 09.12.2020
5014 Clouds -40 1016 78 10000 0.87 155 15:44 09.12.2020
5015 Clouds -40 1016 78 10000 0.93 158 14:50 09.12.2020
5016 Clouds -40 1016 78 10000 1 151 14:26 09.12.2020
5017 Clouds -40 1016 78 10000 1.03 150 13:19 09.12.2020
5018 Clouds -40 1016 78 10000 1.03 150 12:58 09.12.2020
5019 Clouds -40 1016 78 10000 1.22 165 12:23 09.12.2020
5020 Clouds -40 1016 78 10000 1.22 165 11:33 09.12.2020
5021 Clouds -40 1016 78 10000 1.35 183 09:51 09.12.2020
5022 Clouds -40 1016 78 10000 1.3 188 08:35 09.12.2020
5023 Clouds -40 1016 78 10000 1.01 184 06:43 09.12.2020
5024 Clouds -40 1016 78 10000 0.89 177 05:28 09.12.2020
5025 Clouds -40 1016 78 10000 1.06 171 02:40 09.12.2020
5026 Clouds -40 1016 79 10000 0.83 178 00:37 09.12.2020
5027 Clouds -40 1015 78 10000 0.84 208 23:34 08.12.2020
5028 Clouds -40 1015 78 10000 0.99 204 22:22 08.12.2020
5029 Clouds -40 1015 78 10000 0.9 191 20:39 08.12.2020
5030 Clouds -40 1015 78 10000 0.83 179 19:30 08.12.2020
5031 Clouds -40 1015 79 10000 0.76 196 18:36 08.12.2020
5032 Clouds -40 1014 78 10000 0.67 189 17:18 08.12.2020
5033 Clouds -40 1014 78 10000 0.55 199 15:22 08.12.2020
5034 Clouds -39 1015 78 10000 0.53 200 13:50 08.12.2020
5035 Clouds -40 1014 77 10000 0.76 203 12:41 08.12.2020
5036 Clouds -40 1014 76 10000 0.73 193 11:55 08.12.2020
5037 Clouds -40 1014 76 10000 0.7 185 10:57 08.12.2020
5038 Clouds -40 1014 76 10000 0.7 185 10:39 08.12.2020
5039 Clouds -40 1014 76 10000 0.7 187 09:38 08.12.2020
5040 Clouds -40 1013 74 10000 0.7 241 07:40 08.12.2020
5041 Clouds -39 1013 77 10000 0.4 164 05:35 08.12.2020
5042 Clear -39 1012 76 10000 0.35 267 02:33 08.12.2020
5043 Clear -39 1011 76 10000 0.32 203 00:45 08.12.2020
5044 Clear -39 1011 75 10000 0.28 155 23:36 07.12.2020
5045 Clear -39 1011 75 10000 0.05 105 22:21 07.12.2020
5046 Clear -39 1011 75 10000 0.05 105 21:47 07.12.2020
5047 Clouds -39 1010 75 10000 0.26 299 19:36 07.12.2020
5048 Clear -38 1010 74 10000 0.04 211 17:59 07.12.2020
5049 Clear -38 1010 74 10000 0.3 105 17:22 07.12.2020
5050 Clear -38 1010 74 10000 0.3 105 16:47 07.12.2020
5051 Clear -38 1009 74 10000 0.34 353 15:25 07.12.2020
5052 Clear -38 1009 74 10000 0.34 353 14:36 07.12.2020
5053 Clear -38 1008 74 10000 0.22 312 13:37 07.12.2020
5054 Clear -38 1009 74 10000 0.1 85 12:34 07.12.2020
5055 Clear -38 1009 74 10000 0.31 112 11:43 07.12.2020
5056 Clear -38 1009 75 10000 0.35 114 10:38 07.12.2020
5057 Clear -38 1008 75 10000 0.37 323 09:24 07.12.2020
5058 Clear -37 1007 75 10000 0.49 293 07:51 07.12.2020
5059 Clear -38 1008 75 10000 0.32 256 05:34 07.12.2020
5060 Clear -38 1007 75 10000 0.15 295 04:46 07.12.2020
5061 Clear -37 1007 75 10000 0.39 252 01:47 07.12.2020
5062 Clear -36 1007 77 10000 0.17 276 22:53 06.12.2020
5063 Clear -36 1007 77 10000 0.08 179 22:19 06.12.2020
5064 Clear -36 1007 77 10000 0.3 138 20:53 06.12.2020
5065 Clear -36 1007 77 10000 0.3 138 20:34 06.12.2020
5066 Clear -36 1006 77 10000 0.26 136 19:45 06.12.2020
5067 Clouds -35 1006 79 10000 0.25 177 17:55 06.12.2020
5068 Clouds -35 1006 79 10000 0.37 114 16:42 06.12.2020
5069 Clouds -35 1006 80 10000 0.78 96 14:50 06.12.2020
5070 Clouds -35 1005 80 10000 0.66 101 13:32 06.12.2020
5071 Clouds -35 1006 80 10000 0.59 111 12:39 06.12.2020
5072 Clouds -35 1006 80 10000 0.69 115 11:55 06.12.2020
5073 Clouds -35 1006 80 10000 0.69 115 11:30 06.12.2020
5074 Clouds -35 1006 80 10000 0.63 117 10:45 06.12.2020
5075 Clouds -35 1006 80 10000 0.62 107 09:45 06.12.2020
5076 Clouds -35 1005 80 10000 0.78 94 08:22 06.12.2020
5077 Clouds -33 1007 83 7624 0.89 97 05:38 06.12.2020
5078 Clouds -32 1007 84 2475 0.88 92 00:57 06.12.2020
5079 Clouds -32 1007 84 2405 0.89 90 00:38 06.12.2020
5080 Clouds -32 1007 84 2835 1 92 00:20 06.12.2020
5081 Clouds -32 1007 84 2148 0.95 98 22:41 05.12.2020
5082 Clouds -33 1007 83 2468 0.87 98 22:19 05.12.2020
5083 Clouds -33 1007 83 2468 0.87 98 21:47 05.12.2020
5084 Clouds -33 1007 83 4328 0.8 106 21:22 05.12.2020
5085 Clouds -34 1008 83 8872 0.69 111 19:21 05.12.2020
5086 Clouds -34 1008 83 7024 0.63 110 18:38 05.12.2020
5087 Clouds -33 1008 83 7192 0.7 113 17:20 05.12.2020
5088 Clouds -33 1008 83 7169 0.85 119 16:29 05.12.2020
5089 Clouds -33 1008 83 7169 0.85 119 15:37 05.12.2020
5090 Clouds -33 1008 83 7764 0.71 126 14:24 05.12.2020
5091 Clouds -32 1008 83 9181 0.68 141 11:52 05.12.2020
5092 Clouds -32 1008 83 9181 0.68 141 11:30 05.12.2020
5093 Clouds -33 1008 82 10000 0.78 131 10:29 05.12.2020
5094 Clouds -34 1008 82 10000 0.7 166 07:48 05.12.2020
5095 Clouds -33 1007 83 9573 0.89 144 06:28 05.12.2020
5096 Clouds -33 1007 83 8288 0.66 155 03:44 05.12.2020
5097 Clouds -34 1006 83 7566 0.62 138 23:50 04.12.2020
5098 Clouds -33 1006 83 6712 0.49 125 22:24 04.12.2020
5099 Clouds -33 1005 83 6035 0.63 114 20:19 04.12.2020
5100 Clouds -34 1005 83 7853 0.75 114 18:53 04.12.2020
5101 Clouds -34 1005 83 9384 0.72 109 18:18 04.12.2020
5102 Clouds -34 1004 83 10000 0.59 110 17:26 04.12.2020
5103 Clouds -34 1004 83 10000 0.49 110 15:37 04.12.2020
5104 Clouds -33 1003 83 10000 0.62 107 13:40 04.12.2020
5105 Clouds -33 1003 83 10000 0.84 92 13:21 04.12.2020
5106 Clouds -33 1004 82 10000 0.79 92 12:49 04.12.2020
5107 Clouds -33 1003 82 10000 0.89 85 10:40 04.12.2020
5108 Clouds -33 1002 82 10000 0.85 86 09:46 04.12.2020
5109 Clouds -33 1001 80 10000 0.99 84 06:42 04.12.2020
5110 Clouds -32 1000 80 10000 1.04 84 05:59 04.12.2020
5111 Clouds -30 999 81 10000 1.02 81 01:56 04.12.2020
5112 Clouds -29 998 81 10000 1.15 79 22:52 03.12.2020
5113 Clouds -29 998 81 10000 1.15 79 22:30 03.12.2020
5114 Clouds -29 997 82 10000 1.09 80 20:49 03.12.2020
5115 Clouds -29 997 82 10000 1.28 83 19:29 03.12.2020
5116 Clouds -29 997 82 10000 1.28 83 18:53 03.12.2020
5117 Clouds -30 997 82 10000 1.25 82 18:18 03.12.2020
5118 Clouds -29 997 83 10000 1.25 83 17:19 03.12.2020
5119 Clouds -29 997 83 10000 1.3 84 15:56 03.12.2020
5120 Clouds -29 997 83 10000 1.3 84 15:31 03.12.2020
5121 Clouds -29 997 83 10000 1.37 82 14:48 03.12.2020
5122 Clouds -29 997 84 10000 1.44 80 13:44 03.12.2020
5123 Clouds -30 998 84 10000 1.54 85 12:32 03.12.2020
5124 Clouds -30 998 84 10000 1.45 88 11:38 03.12.2020
5125 Clouds -30 999 85 10000 1.53 93 10:27 03.12.2020
5126 Clouds -29 1000 85 7145 1.4 108 07:48 03.12.2020
5127 Clouds -28 1001 86 4887 1.46 118 03:38 03.12.2020
5128 Clouds -27 1002 86 6104 1.28 135 01:24 03.12.2020
5129 Clouds -27 1001 86 8608 1.21 125 23:41 02.12.2020
5130 Clouds -24 1001 86 4525 1.11 118 22:29 02.12.2020
5131 Clouds -24 1001 85 6404 1.02 115 21:29 02.12.2020
5132 Clouds -24 1001 85 6404 1.02 115 20:48 02.12.2020
5133 Clouds -24 1001 85 10000 1 112 20:29 02.12.2020
5134 Clouds -24 1001 85 10000 1 112 19:39 02.12.2020
5135 Clouds -26 1001 84 10000 1.27 117 17:48 02.12.2020
5136 Clouds -26 1001 84 10000 1.52 131 17:29 02.12.2020
5137 Clouds -25 1000 85 10000 1.7 139 15:43 02.12.2020
5138 Clouds -24 1001 86 10000 1.88 151 13:26 02.12.2020
5139 Clouds -24 1002 86 10000 2.15 145 11:30 02.12.2020
5140 Clouds -23 1002 88 10000 2.46 165 10:24 02.12.2020
5141 Clouds -22 1002 89 10000 2.05 166 07:42 02.12.2020
5142 Snow -20 1001 90 275 1.05 97 23:30 01.12.2020
5143 Clouds -22 1000 89 208 1.3 95 22:20 01.12.2020
5144 Clouds -22 999 88 1670 1.41 103 19:36 01.12.2020
5145 Clouds -22 999 88 1670 1.41 103 19:36 01.12.2020
5146 Clouds -24 999 86 10000 1.49 100 18:56 01.12.2020
5147 Clouds -25 999 86 10000 1.48 100 16:47 01.12.2020
5148 Clouds -24 1000 86 10000 1.76 96 14:53 01.12.2020
5149 Clouds -22 1001 86 10000 1.87 102 12:48 01.12.2020
5150 Clouds -22 1001 86 10000 1.87 102 11:40 01.12.2020
5151 Clouds -22 1002 87 10000 2 106 10:53 01.12.2020
5152 Clouds -22 1002 87 10000 1.89 106 10:26 01.12.2020
5153 Clouds -22 1004 87 10000 1.9 111 07:47 01.12.2020
5154 Clouds -23 1006 87 10000 1.84 118 06:25 01.12.2020
5155 Clouds -25 1008 82 10000 1.67 129 01:33 01.12.2020
5156 Clouds -25 1008 82 10000 1.6 137 00:50 01.12.2020
5157 Clouds -25 1009 83 10000 1.63 134 23:20 30.11.2020
5158 Clouds -25 1009 83 10000 1.63 134 22:42 30.11.2020
5159 Clouds -26 1009 82 10000 1.75 125 22:22 30.11.2020
5160 Clouds -26 1009 82 10000 1.57 122 20:34 30.11.2020
5161 Clouds -26 1010 83 10000 1.99 143 19:41 30.11.2020
5162 Clouds -27 1011 83 10000 1.78 140 18:21 30.11.2020
5163 Clouds -27 1011 83 10000 1.78 140 17:46 30.11.2020
5164 Clouds -26 1011 83 10000 1.78 140 16:53 30.11.2020
5165 Clouds -26 1012 83 10000 1.63 139 15:45 30.11.2020
5166 Clouds -27 1013 83 10000 1.4 132 13:56 30.11.2020
5167 Clouds -28 1014 83 10000 1.39 129 13:22 30.11.2020
5168 Clouds -28 1015 83 10000 1.42 129 12:26 30.11.2020
5169 Clouds -28 1015 83 10000 1.42 129 11:56 30.11.2020
5170 Clear -29 1016 83 10000 1.32 133 10:25 30.11.2020
5171 Clear -29 1016 83 10000 1.32 133 09:35 30.11.2020
5172 Clear -29 1016 83 10000 1.32 133 09:35 30.11.2020
5173 Clouds -29 1019 84 10000 1.22 131 04:27 30.11.2020
5174 Clouds -29 1020 85 8277 1.25 125 23:29 29.11.2020
5175 Clouds -29 1021 85 7803 1.24 126 21:47 29.11.2020
5176 Clouds -29 1021 85 7803 1.24 126 21:47 29.11.2020
5177 Clouds -29 1021 85 7426 1.2 123 21:28 29.11.2020
5178 Clouds -29 1022 85 6629 1.27 128 19:32 29.11.2020
5179 Clouds -29 1022 86 5179 1.29 119 17:46 29.11.2020
5180 Clouds -29 1022 86 5179 1.29 119 17:46 29.11.2020
5181 Clouds -28 1024 86 3971 1.22 124 14:53 29.11.2020
5182 Clouds -28 1024 86 3623 1.25 122 12:46 29.11.2020
5183 Clouds -28 1024 86 3851 1.17 122 11:41 29.11.2020
5184 Clouds -27 1025 86 2910 1.23 116 09:26 29.11.2020
5185 Clouds -27 1025 86 2910 1.23 116 08:37 29.11.2020
5186 Clouds -26 1026 87 2155 1.33 125 04:21 29.11.2020
5187 Clouds -25 1028 88 1424 1.22 115 23:19 28.11.2020
5188 Clouds -25 1028 88 1424 1.22 115 22:55 28.11.2020
5189 Clouds -24 1028 88 1673 1.32 115 20:44 28.11.2020
5190 Clouds -24 1028 88 1670 1.27 114 19:38 28.11.2020
5191 Clouds -23 1028 88 1419 1.16 114 19:19 28.11.2020
5192 Clouds -23 1028 88 1459 1.22 121 18:27 28.11.2020
5193 Clouds -23 1028 88 1459 1.22 121 17:41 28.11.2020
5194 Clouds -23 1028 89 1445 1.24 126 16:40 28.11.2020
5195 Clouds -23 1029 89 1678 1.03 129 14:31 28.11.2020
5196 Clouds -22 1029 89 1357 0.83 109 11:31 28.11.2020
5197 Clouds -21 1030 90 1165 0.43 113 10:28 28.11.2020
5198 Clouds -21 1029 90 1064 0.5 96 06:26 28.11.2020
5199 Clouds -20 1030 90 1327 0.26 74 03:26 28.11.2020
5200 Clouds -21 1030 90 1753 0.49 42 00:49 28.11.2020
5201 Clouds -21 1029 90 2928 0.65 51 22:55 27.11.2020
5202 Clouds -20 1029 90 5148 0.75 14 21:33 27.11.2020
5203 Clouds -20 1029 90 7150 0.92 347 20:30 27.11.2020
5204 Clouds -18 1029 90 7082 1.07 325 19:25 27.11.2020
5205 Clouds -19 1029 89 10000 0.95 328 18:28 27.11.2020
5206 Clouds -19 1029 89 10000 0.91 313 14:46 27.11.2020
5207 Clouds -20 1029 89 10000 0.81 311 13:26 27.11.2020
5208 Clouds -20 1029 89 10000 0.81 311 12:47 27.11.2020
5209 Clouds -20 1029 89 10000 0.5 299 11:47 27.11.2020
5210 Clouds -20 1029 89 10000 0.94 295 10:50 27.11.2020
5211 Clouds -20 1029 89 9407 1.11 290 10:19 27.11.2020
5212 Clouds -21 1028 89 5997 1.04 290 07:29 27.11.2020
5213 Clouds -23 1027 89 3895 0.52 292 22:28 26.11.2020
5214 Clouds -23 1027 89 3895 0.52 292 21:57 26.11.2020
5215 Clouds -22 1027 89 4671 0.77 282 21:25 26.11.2020
5216 Clouds -22 1026 89 4470 0.7 273 19:19 26.11.2020
5217 Clouds -23 1026 89 4863 0.66 277 17:53 26.11.2020
5218 Clouds -22 1026 89 3766 0.76 286 16:20 26.11.2020
5219 Clouds -22 1026 89 5086 0.87 288 13:43 26.11.2020
5220 Clouds -23 1026 89 6069 0.92 290 12:44 26.11.2020
5221 Clouds -23 1025 89 5661 0.86 284 12:23 26.11.2020
5222 Clouds -23 1025 89 6334 0.76 282 10:38 26.11.2020
5223 Clouds -22 1025 89 7602 1.05 278 09:48 26.11.2020
5224 Clouds -22 1025 89 7602 1.05 278 09:30 26.11.2020
5225 Clouds -22 1025 89 5043 1.16 278 08:40 26.11.2020
5226 Clouds -21 1024 90 3613 1.1 277 06:55 26.11.2020
5227 Clouds -21 1022 89 5285 1.29 290 23:54 25.11.2020
5228 Clouds -21 1021 89 4773 1.63 287 21:29 25.11.2020
5229 Clouds -21 1020 89 3485 1.51 285 19:58 25.11.2020
5230 Clouds -22 1021 89 3790 1.18 272 18:50 25.11.2020
5231 Clouds -22 1021 89 5229 1.31 279 17:24 25.11.2020
5232 Clouds -22 1020 89 5250 1.27 278 15:42 25.11.2020
5233 Clouds -22 1020 89 6032 1.29 281 14:19 25.11.2020
5234 Clouds -22 1020 89 6032 1.29 281 13:43 25.11.2020
5235 Clouds -21 1020 89 7035 1.38 279 12:30 25.11.2020
5236 Clouds -21 1019 89 9187 1.13 285 11:20 25.11.2020
5237 Clouds -21 1018 89 6337 0.97 288 09:20 25.11.2020
5238 Clouds -21 1018 89 6337 0.97 288 08:49 25.11.2020
5239 Clouds -23 1017 89 2773 0.21 20 05:20 25.11.2020
5240 Clouds -22 1017 89 2681 0.18 70 03:31 25.11.2020
5241 Clouds -23 1015 89 1800 0.41 66 00:55 25.11.2020
5242 Clouds -23 1015 89 2082 0.46 70 23:57 24.11.2020
5243 Clouds -23 1015 89 2082 0.46 70 23:34 24.11.2020
5244 Clouds -23 1015 89 1893 0.23 96 22:38 24.11.2020
5245 Clouds -23 1015 89 1343 0.4 128 21:31 24.11.2020
5246 Clouds -23 1015 89 1511 0.43 146 20:51 24.11.2020
5247 Clouds -23 1015 89 1413 0.47 140 19:47 24.11.2020
5248 Clouds -23 1014 89 1246 0.64 104 17:32 24.11.2020
5249 Clouds -23 1014 89 1344 0.58 124 16:57 24.11.2020
5250 Clouds -23 1014 89 1344 0.58 124 16:37 24.11.2020
5251 Clouds -23 1013 89 1203 0.62 144 15:55 24.11.2020
5252 Clouds -23 1013 89 1078 0.78 143 15:19 24.11.2020
5253 Clouds -23 1013 89 1078 0.78 143 14:44 24.11.2020
5254 Clouds -22 1013 89 871 1.01 169 13:20 24.11.2020
5255 Clouds -23 1013 89 912 0.87 147 12:38 24.11.2020
5256 Clouds -23 1013 89 1026 0.93 166 11:59 24.11.2020
5257 Clouds -23 1013 89 839 1.02 178 11:24 24.11.2020
5258 Clouds -23 1012 89 657 0.98 184 10:25 24.11.2020
5259 Clouds -23 1012 89 657 0.98 184 09:39 24.11.2020
5260 Clouds -23 1012 89 562 1.13 204 08:58 24.11.2020
5261 Snow -22 1012 89 333 1.59 202 06:20 24.11.2020
5262 Snow -24 1013 88 170 1.2 226 00:41 24.11.2020
5263 Snow -25 1012 87 214 1.07 234 22:24 23.11.2020
5264 Snow -25 1012 87 214 1.07 234 21:32 23.11.2020
5265 Snow -26 1012 87 200 1.01 232 20:31 23.11.2020
5266 Snow -26 1012 87 222 0.9 235 19:59 23.11.2020
5267 Clouds -26 1012 86 204 0.97 240 17:57 23.11.2020
5268 Clouds -27 1012 86 333 1.04 247 16:56 23.11.2020
5269 Clouds -28 1012 85 2979 0.96 250 15:33 23.11.2020
5270 Clouds -28 1012 85 8284 1.05 243 14:37 23.11.2020
5271 Clouds -31 1012 84 10000 0.83 240 12:41 23.11.2020
5272 Clouds -32 1012 84 10000 0.87 247 12:20 23.11.2020
5273 Clouds -32 1012 84 10000 0.87 247 11:42 23.11.2020
5274 Clouds -32 1012 83 10000 0.97 256 10:45 23.11.2020
5275 Clouds -31 1012 83 10000 0.86 255 09:31 23.11.2020
5276 Clouds -31 1011 83 10000 0.88 255 08:39 23.11.2020
5277 Clouds -31 1011 83 10000 0.73 244 06:57 23.11.2020
5278 Clear -32 1010 82 10000 0.55 225 00:23 23.11.2020
5279 Clear -32 1010 82 10000 0.48 208 22:46 22.11.2020
5280 Clear -31 1010 82 10000 0.36 200 21:37 22.11.2020
5281 Clear -31 1009 81 10000 0.59 199 20:51 22.11.2020
5282 Clear -31 1009 81 10000 0.62 182 19:52 22.11.2020
5283 Clear -31 1010 81 10000 0.55 195 18:40 22.11.2020
5284 Clear -31 1010 81 10000 0.55 195 18:40 22.11.2020
5285 Clear -31 1010 81 10000 0.43 169 16:51 22.11.2020
5286 Clear -31 1010 81 10000 0.52 158 15:33 22.11.2020
5287 Clear -30 1009 82 10000 0.42 137 14:28 22.11.2020
5288 Clear -30 1010 82 10000 0.49 144 12:49 22.11.2020
5289 Clear -30 1009 82 10000 0.47 134 11:56 22.11.2020
5290 Clear -30 1009 82 10000 0.62 108 11:20 22.11.2020
5291 Clear -30 1009 82 10000 0.62 108 10:44 22.11.2020
5292 Clear -30 1009 83 10000 0.63 105 08:51 22.11.2020
5293 Clouds -29 1009 85 10000 0.88 100 01:48 22.11.2020
5294 Clouds -28 1010 86 10000 1.03 97 23:35 21.11.2020
5295 Clouds -27 1010 86 8140 1.23 95 21:57 21.11.2020
5296 Clouds -27 1010 87 7270 1.29 97 21:24 21.11.2020
5297 Clouds -27 1010 87 7270 1.29 97 20:34 21.11.2020
5298 Clouds -27 1011 87 6730 1.31 100 19:54 21.11.2020
5299 Clouds -27 1011 87 5905 1.21 99 19:27 21.11.2020
5300 Clouds -26 1012 87 5092 1.24 94 18:27 21.11.2020
5301 Clouds -26 1012 87 4798 1.24 96 16:49 21.11.2020
5302 Clouds -26 1012 87 4798 1.24 96 16:49 21.11.2020
5303 Clouds -26 1012 87 4366 1.31 96 16:26 21.11.2020
5304 Clouds -25 1012 87 4019 1.35 97 15:22 21.11.2020
5305 Clouds -25 1012 87 4019 1.35 97 14:43 21.11.2020
5306 Clouds -25 1013 88 3414 1.31 96 14:20 21.11.2020
5307 Clouds -24 1014 88 3512 1.4 90 12:29 21.11.2020
5308 Clouds -24 1014 88 3512 1.4 90 11:58 21.11.2020
5309 Clouds -23 1014 88 3305 1.35 91 10:41 21.11.2020
5310 Clouds -23 1014 89 1668 1.47 98 09:59 21.11.2020
5311 Clouds -22 1014 89 1399 1.47 100 08:51 21.11.2020
5312 Clouds -23 1015 88 1670 1.24 103 06:34 21.11.2020
5313 Clouds -23 1015 87 2754 1.4 106 04:33 21.11.2020
5314 Clouds -23 1016 84 10000 1.19 117 01:21 21.11.2020
5315 Clouds -24 1016 84 10000 1.27 118 23:55 20.11.2020
5316 Clouds -23 1016 84 10000 1.08 119 22:25 20.11.2020
5317 Clouds -23 1016 84 10000 1.08 119 21:41 20.11.2020
5318 Clouds -23 1016 84 10000 1.08 119 21:41 20.11.2020
5319 Clouds -23 1016 84 10000 1.18 125 21:20 20.11.2020
5320 Clouds -22 1016 84 10000 1.14 122 19:46 20.11.2020
5321 Clouds -24 1017 83 10000 1.25 125 18:38 20.11.2020
5322 Clouds -24 1017 83 10000 1.28 126 17:52 20.11.2020
5323 Clouds -23 1017 83 10000 1.28 128 17:24 20.11.2020
5324 Clouds -23 1017 83 10000 1.28 128 16:38 20.11.2020
5325 Clouds -23 1017 83 10000 1.34 132 15:57 20.11.2020
5326 Clouds -24 1017 83 10000 1.27 136 15:26 20.11.2020
5327 Clouds -24 1017 83 10000 1.32 137 13:46 20.11.2020
5328 Clouds -24 1017 83 10000 1.28 142 13:18 20.11.2020
5329 Clouds -25 1018 83 10000 1.28 141 12:35 20.11.2020
5330 Clouds -25 1017 83 10000 1.25 135 11:45 20.11.2020
5331 Clouds -25 1017 83 10000 1.35 138 10:59 20.11.2020
5332 Clouds -25 1017 83 10000 1.37 156 08:54 20.11.2020
5333 Clouds -25 1017 84 10000 1.49 155 08:25 20.11.2020
5334 Clouds -25 1017 84 10000 1.49 155 07:32 20.11.2020
5335 Clouds -25 1017 83 10000 1.53 153 03:44 20.11.2020
5336 Clear -25 1016 85 10000 1.34 148 22:42 19.11.2020
5337 Clear -25 1016 85 10000 1.44 144 21:57 19.11.2020
5338 Clear -25 1016 85 10000 1.44 144 21:38 19.11.2020
5339 Clear -24 1016 86 10000 1.57 144 20:33 19.11.2020
5340 Clear -24 1015 86 10000 1.56 149 19:53 19.11.2020
5341 Clouds -24 1015 86 10000 1.44 144 19:24 19.11.2020
5342 Clouds -25 1016 83 10000 1.5 137 17:40 19.11.2020
5343 Clouds -25 1016 84 10000 1.42 136 16:54 19.11.2020
5344 Clouds -24 1016 84 10000 1.56 131 15:40 19.11.2020
5345 Clouds -24 1016 84 10000 1.6 131 15:18 19.11.2020
5346 Clouds -23 1015 84 10000 1.48 134 13:46 19.11.2020
5347 Clouds -23 1015 84 10000 1.48 134 13:46 19.11.2020
5348 Clouds -22 1015 85 10000 1.51 130 13:20 19.11.2020
5349 Clouds -22 1016 85 10000 1.49 130 12:40 19.11.2020
5350 Clouds -23 1015 85 10000 1.63 127 12:19 19.11.2020
5351 Clouds -23 1015 85 10000 1.63 127 11:36 19.11.2020
5352 Clouds -22 1015 85 10000 1.63 129 10:54 19.11.2020
5353 Clouds -23 1015 85 10000 1.49 130 10:19 19.11.2020
5354 Clouds -23 1015 85 10000 1.49 130 09:44 19.11.2020
5355 Clouds -22 1014 86 10000 1.58 129 09:24 19.11.2020
5356 Clouds -21 1014 86 10000 1.68 131 08:19 19.11.2020
5357 Clouds -20 1014 86 10000 1.36 125 05:41 19.11.2020
5358 Clouds -20 1013 86 10000 1.29 115 01:45 19.11.2020
5359 Clouds -20 1012 86 10000 1.43 107 23:53 18.11.2020
5360 Clouds -21 1012 86 10000 1.33 106 23:25 18.11.2020
5361 Clouds -21 1012 86 10000 1.33 106 22:36 18.11.2020
5362 Clouds -21 1012 86 10000 1.35 106 22:18 18.11.2020
5363 Clouds -21 1012 86 10000 1.35 106 21:38 18.11.2020
5364 Clouds -21 1011 86 10000 1.44 113 21:19 18.11.2020
5365 Clouds -21 1011 86 10000 1.3 110 19:48 18.11.2020
5366 Clouds -20 1010 86 10000 1.41 109 19:27 18.11.2020
5367 Clouds -22 1011 84 10000 1.47 114 18:55 18.11.2020
5368 Clouds -22 1011 84 10000 1.47 114 18:36 18.11.2020
5369 Clouds -22 1011 84 10000 1.4 113 17:37 18.11.2020
5370 Clouds -21 1011 84 10000 1.41 111 16:24 18.11.2020
5371 Clouds -21 1011 84 10000 1.41 111 15:47 18.11.2020
5372 Clouds -21 1011 84 10000 1.48 120 14:41 18.11.2020
5373 Clouds -20 1010 84 10000 1.46 120 13:45 18.11.2020
5374 Clouds -21 1011 84 10000 1.52 120 13:20 18.11.2020
5375 Clouds -21 1011 84 10000 1.52 120 12:30 18.11.2020
5376 Clouds -21 1010 84 10000 1.55 128 11:35 18.11.2020
5377 Clouds -21 1010 84 10000 1.6 133 10:32 18.11.2020
5378 Clouds -21 1010 84 10000 1.66 135 09:57 18.11.2020
5379 Clouds -21 1009 84 10000 1.93 141 07:58 18.11.2020
5380 Clouds -22 1010 83 10000 2.05 147 06:35 18.11.2020
5381 Clouds -23 1010 83 10000 1.75 146 00:33 18.11.2020
5382 Clouds -23 1010 83 10000 1.65 148 23:37 17.11.2020
5383 Clouds -23 1010 83 10000 1.58 145 22:53 17.11.2020
5384 Clouds -24 1011 84 10000 1.52 144 22:29 17.11.2020
5385 Clouds -24 1011 84 10000 1.52 144 21:50 17.11.2020
5386 Clouds -24 1011 84 10000 1.52 144 21:30 17.11.2020
5387 Clouds -24 1011 84 10000 1.56 145 20:50 17.11.2020
5388 Clouds -25 1011 83 10000 1.5 144 20:27 17.11.2020
5389 Clouds -25 1011 83 10000 1.5 144 19:54 17.11.2020
5390 Clouds -24 1011 85 10000 1.44 142 18:30 17.11.2020
5391 Clouds -25 1011 85 10000 1.41 148 17:44 17.11.2020
5392 Clouds -25 1012 85 10000 1.3 146 16:54 17.11.2020
5393 Clouds -25 1012 86 10000 1.31 136 16:20 17.11.2020
5394 Clouds -25 1012 86 10000 1.31 136 15:41 17.11.2020
5395 Clouds -26 1013 86 10000 1.2 136 15:22 17.11.2020
5396 Clouds -26 1013 86 10000 1.2 136 14:54 17.11.2020
5397 Clouds -26 1013 86 10000 1.12 141 14:22 17.11.2020
5398 Clouds -26 1013 86 10000 1.12 141 13:36 17.11.2020
5399 Clouds -26 1013 86 10000 1.16 142 12:48 17.11.2020
5400 Clouds -29 1013 86 10000 0.84 125 12:24 17.11.2020
5401 Clouds -29 1013 86 10000 0.84 125 11:42 17.11.2020
5402 Clouds -29 1014 86 10000 0.92 126 10:46 17.11.2020
5403 Clouds -29 1014 86 9881 1 129 10:23 17.11.2020
5404 Clouds -29 1014 86 9881 1 129 09:49 17.11.2020
5405 Clouds -28 1015 86 7828 0.89 122 09:24 17.11.2020
5406 Clouds -28 1015 86 6316 0.85 125 08:22 17.11.2020
5407 Clouds -28 1015 86 6316 0.85 125 07:44 17.11.2020
5408 Clouds -27 1015 87 4770 1 125 05:21 17.11.2020
5409 Clouds -27 1015 87 4520 0.98 126 03:31 17.11.2020
5410 Clouds -27 1016 87 4289 0.9 134 02:31 17.11.2020
5411 Clouds -28 1016 86 3883 0.86 129 01:23 17.11.2020
5412 Clouds -28 1016 86 3806 0.85 126 00:42 17.11.2020
5413 Clouds -27 1017 86 3681 0.88 117 23:41 16.11.2020
5414 Clouds -27 1017 87 3840 0.9 110 23:22 16.11.2020
5415 Clouds -27 1017 87 3840 0.9 110 22:42 16.11.2020
5416 Clouds -27 1017 87 3423 0.94 105 22:20 16.11.2020
5417 Clouds -27 1017 87 3423 0.94 105 21:44 16.11.2020
5418 Clouds -26 1017 87 2834 0.88 99 21:24 16.11.2020
5419 Clouds -25 1017 87 2391 0.91 113 20:27 16.11.2020
5420 Clouds -25 1017 87 2391 0.91 113 19:56 16.11.2020
5421 Clouds -25 1017 87 2391 0.91 113 19:32 16.11.2020
5422 Clouds -25 1017 88 1764 0.92 118 18:56 16.11.2020
5423 Clouds -26 1018 87 1726 1.02 106 18:29 16.11.2020
5424 Clouds -26 1018 87 1726 1.02 106 17:42 16.11.2020
5425 Clouds -26 1018 87 1560 1.04 101 17:20 16.11.2020
5426 Clouds -26 1018 87 1560 1.04 101 16:52 16.11.2020
5427 Clouds -26 1018 87 2115 1.03 105 16:27 16.11.2020
5428 Clouds -26 1018 87 2115 1.03 105 15:50 16.11.2020
5429 Clouds -25 1018 87 1724 1.01 106 15:29 16.11.2020
5430 Clouds -25 1018 87 1724 1.01 106 15:29 16.11.2020
5431 Clouds -25 1018 87 1724 1.01 106 14:53 16.11.2020
5432 Clouds -25 1019 87 1196 0.97 110 14:28 16.11.2020
5433 Clouds -25 1019 87 1196 0.97 110 13:30 16.11.2020
5434 Clouds -25 1019 87 1611 0.78 109 12:33 16.11.2020
5435 Clouds -25 1019 87 1401 0.76 112 11:43 16.11.2020
5436 Clouds -26 1019 87 1717 0.92 120 11:24 16.11.2020
5437 Clouds -26 1019 87 1717 0.92 120 10:46 16.11.2020
5438 Clouds -26 1018 86 1850 0.95 112 10:26 16.11.2020
5439 Clouds -26 1018 86 1850 0.95 112 09:53 16.11.2020
5440 Clouds -26 1018 86 1850 0.95 112 09:35 16.11.2020
5441 Clouds -27 1018 86 2292 0.98 110 08:49 16.11.2020
5442 Clouds -28 1018 85 6148 0.88 103 08:22 16.11.2020
5443 Clouds -28 1018 85 6148 0.88 103 07:36 16.11.2020
5444 Clouds -28 1018 86 5698 0.67 124 06:47 16.11.2020
5445 Clouds -28 1017 86 6496 0.63 130 05:49 16.11.2020
5446 Clouds -27 1017 86 8169 0.7 122 03:58 16.11.2020
5447 Clouds -27 1018 84 10000 0.51 117 01:45 16.11.2020
5448 Clouds -27 1017 85 10000 0.4 96 00:53 16.11.2020
5449 Clouds -28 1017 84 10000 0.65 95 23:33 15.11.2020
5450 Clouds -28 1017 84 10000 0.68 98 22:58 15.11.2020
5451 Clouds -28 1017 83 10000 0.45 106 22:27 15.11.2020
5452 Clouds -28 1017 83 10000 0.45 106 22:00 15.11.2020
5453 Clouds -28 1017 83 10000 0.45 106 21:37 15.11.2020
5454 Clouds -27 1016 82 10000 0.43 115 21:19 15.11.2020
5455 Clouds -27 1016 82 10000 0.43 115 20:40 15.11.2020
5456 Clouds -27 1016 81 10000 0.48 113 20:18 15.11.2020
5457 Clouds -27 1016 81 10000 0.48 113 19:43 15.11.2020
5458 Clouds -27 1016 81 10000 0.6 113 19:22 15.11.2020
5459 Clouds -27 1016 81 10000 0.6 113 18:55 15.11.2020
5460 Clouds -27 1016 85 9237 0.47 94 18:37 15.11.2020
5461 Clouds -27 1016 85 10000 0.62 99 18:18 15.11.2020
5462 Clouds -27 1016 85 10000 0.62 99 17:42 15.11.2020
5463 Clouds -27 1016 84 10000 0.53 117 17:22 15.11.2020
5464 Clouds -27 1016 84 10000 0.53 117 16:44 15.11.2020
5465 Clouds -27 1016 83 10000 0.47 123 16:20 15.11.2020
5466 Clouds -27 1016 83 10000 0.47 123 15:49 15.11.2020
5467 Clouds -27 1016 83 10000 0.29 130 15:26 15.11.2020
5468 Clouds -27 1016 83 10000 0.29 130 14:54 15.11.2020
5469 Clouds -27 1016 83 10000 0.29 130 14:54 15.11.2020
5470 Clouds -26 1016 83 10000 0.34 138 14:27 15.11.2020
5471 Clouds -26 1016 83 10000 0.34 138 13:53 15.11.2020
5472 Clouds -26 1016 83 10000 0.34 138 13:34 15.11.2020
5473 Clouds -27 1016 83 10000 0.45 114 12:50 15.11.2020
5474 Clouds -27 1016 83 10000 0.35 90 12:20 15.11.2020
5475 Clouds -27 1016 83 10000 0.35 90 11:45 15.11.2020
5476 Clouds -26 1016 82 10000 0.26 47 11:19 15.11.2020
5477 Clouds -26 1016 82 10000 0.26 47 10:53 15.11.2020
5478 Clouds -26 1016 82 10000 0.26 47 10:31 15.11.2020
5479 Clouds -26 1016 82 10000 0.28 73 09:56 15.11.2020
5480 Clouds -26 1016 82 10000 0.28 73 09:37 15.11.2020
5481 Clouds -26 1016 82 10000 0.41 105 09:18 15.11.2020
5482 Clouds -26 1016 82 10000 0.41 105 08:43 15.11.2020
5483 Clouds -26 1016 82 10000 0.42 146 07:47 15.11.2020
5484 Clouds -25 1016 83 10000 0.5 168 06:49 15.11.2020
5485 Clouds -25 1016 83 10000 0.38 147 04:56 15.11.2020
5486 Clouds -25 1017 83 10000 0.55 127 02:27 15.11.2020
5487 Clouds -26 1017 83 10000 0.49 114 00:36 15.11.2020
5488 Clouds -27 1017 83 10000 0.36 118 00:18 15.11.2020
5489 Clouds -26 1017 83 10000 0.32 122 23:27 14.11.2020
5490 Clouds -26 1017 83 10000 0.32 122 22:45 14.11.2020
5491 Clouds -24 1018 83 10000 0.34 117 22:26 14.11.2020
5492 Clouds -24 1018 83 10000 0.34 117 21:39 14.11.2020
5493 Clouds -25 1018 83 10000 0.39 113 21:21 14.11.2020
5494 Clouds -25 1018 83 10000 0.39 113 21:21 14.11.2020
5495 Clouds -25 1018 83 10000 0.39 113 20:48 14.11.2020
5496 Clouds -26 1017 83 10000 0.3 114 20:26 14.11.2020
5497 Clouds -26 1017 83 10000 0.3 114 19:46 14.11.2020
5498 Clouds -26 1017 83 10000 0.31 123 19:27 14.11.2020
5499 Clouds -27 1017 84 10000 0.27 113 18:43 14.11.2020
5500 Clouds -26 1017 84 10000 0.34 104 18:23 14.11.2020
5501 Clouds -26 1017 84 10000 0.34 104 17:49 14.11.2020
5502 Clouds -26 1017 84 10000 0.34 104 17:31 14.11.2020
5503 Clouds -26 1017 84 10000 0.43 117 16:56 14.11.2020
5504 Clouds -26 1017 84 10000 0.43 117 16:36 14.11.2020
5505 Clouds -26 1017 84 10000 0.69 133 16:18 14.11.2020
5506 Clouds -26 1017 84 10000 0.69 133 15:44 14.11.2020
5507 Clouds -27 1017 85 10000 0.54 127 15:18 14.11.2020
5508 Clouds -27 1017 85 10000 0.54 127 14:38 14.11.2020
5509 Clouds -27 1018 85 10000 0.39 126 14:19 14.11.2020
5510 Clouds -27 1018 85 10000 0.39 126 13:40 14.11.2020
5511 Clouds -27 1018 85 10000 0.21 129 13:21 14.11.2020
5512 Clouds -27 1018 85 10000 0.21 129 12:43 14.11.2020
5513 Clouds -26 1018 85 10000 0.36 172 12:23 14.11.2020
5514 Clouds -26 1018 85 10000 0.36 172 11:41 14.11.2020
5515 Clouds -26 1018 85 10000 0.35 159 11:22 14.11.2020
5516 Clouds -26 1018 85 10000 0.35 159 10:41 14.11.2020
5517 Clouds -25 1018 85 10000 0.47 140 10:23 14.11.2020
5518 Clouds -25 1018 85 10000 0.47 140 09:45 14.11.2020
5519 Clouds -25 1018 85 10000 0.54 137 09:27 14.11.2020
5520 Clouds -25 1018 85 10000 0.54 137 08:48 14.11.2020
5521 Clouds -26 1018 85 10000 0.35 152 08:23 14.11.2020
5522 Clouds -26 1018 85 10000 0.35 152 07:42 14.11.2020
5523 Clouds -26 1018 86 10000 0.48 190 07:22 14.11.2020
5524 Clouds -25 1017 86 10000 0.25 173 06:30 14.11.2020
5525 Clouds -24 1018 86 10000 0.3 146 05:27 14.11.2020
5526 Clouds -23 1019 87 10000 0.54 103 03:40 14.11.2020
5527 Clouds -25 1019 87 10000 0.21 97 00:43 14.11.2020
5528 Clouds -24 1019 87 10000 0.42 101 23:43 13.11.2020
5529 Clouds -24 1019 87 10000 0.53 108 23:21 13.11.2020
5530 Clouds -24 1019 87 10000 0.53 108 22:42 13.11.2020
5531 Clouds -25 1020 87 10000 0.52 96 22:23 13.11.2020
5532 Clouds -25 1020 87 10000 0.52 96 21:51 13.11.2020
5533 Clouds -25 1020 87 10000 0.46 97 21:29 13.11.2020
5534 Clouds -25 1020 87 10000 0.46 97 20:56 13.11.2020
5535 Clouds -25 1020 87 10000 0.46 97 20:37 13.11.2020
5536 Clouds -24 1020 87 10000 0.52 108 20:19 13.11.2020
5537 Clouds -24 1020 87 10000 0.52 108 19:45 13.11.2020
5538 Clouds -24 1020 87 10000 0.41 94 19:22 13.11.2020
5539 Clouds -24 1020 87 10000 0.41 94 18:50 13.11.2020
5540 Clouds -24 1020 87 10000 0.21 45 17:59 13.11.2020
5541 Clouds -24 1020 87 10000 0.21 45 17:39 13.11.2020
5542 Clouds -24 1020 87 10000 0.21 101 17:18 13.11.2020
5543 Clouds -24 1020 87 10000 0.21 101 16:46 13.11.2020
5544 Clouds -25 1021 87 10000 0.44 100 16:21 13.11.2020
5545 Clouds -25 1021 87 10000 0.44 100 15:41 13.11.2020
5546 Clouds -24 1021 87 10000 0.54 79 15:23 13.11.2020
5547 Clouds -24 1021 87 10000 0.54 79 14:40 13.11.2020
5548 Clouds -24 1021 87 10000 0.44 69 14:19 13.11.2020
5549 Clouds -24 1021 87 10000 0.44 69 13:40 13.11.2020
5550 Clouds -25 1021 87 10000 0.31 88 13:21 13.11.2020
5551 Clouds -25 1021 87 10000 0.31 88 13:21 13.11.2020
5552 Clouds -25 1021 87 10000 0.31 88 12:45 13.11.2020
5553 Clouds -26 1021 87 10000 0.22 130 12:24 13.11.2020
5554 Clouds -26 1021 87 10000 0.22 130 11:48 13.11.2020
5555 Clouds -26 1022 87 10000 0.13 77 11:25 13.11.2020
5556 Clouds -26 1022 87 10000 0.13 77 10:55 13.11.2020
5557 Clouds -26 1022 87 10000 0.13 77 10:34 13.11.2020
5558 Clouds -25 1022 87 10000 0.29 71 09:56 13.11.2020
5559 Clouds -25 1022 87 10000 0.29 71 09:34 13.11.2020
5560 Clouds -25 1022 87 10000 0.47 81 08:59 13.11.2020
5561 Clouds -25 1022 87 10000 0.47 81 08:34 13.11.2020
5562 Clouds -25 1021 87 10000 0.7 82 07:57 13.11.2020
5563 Clouds -25 1021 87 10000 0.7 82 07:38 13.11.2020
5564 Clouds -24 1021 87 10000 0.8 75 07:20 13.11.2020
5565 Clouds -25 1021 88 10000 0.77 66 06:45 13.11.2020
5566 Clouds -25 1020 88 10000 0.62 62 05:42 13.11.2020
5567 Clouds -24 1021 87 10000 0.66 75 04:59 13.11.2020
5568 Clouds -24 1021 88 10000 0.83 81 01:45 13.11.2020
5569 Clouds -25 1021 88 10000 0.8 83 00:38 13.11.2020
5570 Clouds -24 1021 88 10000 0.78 81 00:18 13.11.2020
5571 Clouds -24 1021 88 10000 0.78 81 23:37 12.11.2020
5572 Clouds -23 1021 88 10000 0.93 79 23:19 12.11.2020
5573 Clouds -23 1021 88 10000 0.93 79 22:50 12.11.2020
5574 Clouds -23 1021 88 10000 0.93 79 22:30 12.11.2020
5575 Clouds -23 1022 88 10000 0.78 70 21:43 12.11.2020
5576 Clouds -22 1022 88 10000 0.67 75 21:24 12.11.2020
5577 Clouds -22 1022 88 10000 0.67 75 20:58 12.11.2020
5578 Clouds -22 1022 88 10000 0.67 75 20:39 12.11.2020
5579 Clouds -21 1021 88 10000 0.8 81 20:21 12.11.2020
5580 Clouds -21 1021 88 10000 0.8 81 19:47 12.11.2020
5581 Clouds -22 1021 88 10000 0.71 78 19:29 12.11.2020
5582 Clouds -22 1021 88 10000 0.71 78 18:52 12.11.2020
5583 Clouds -24 1021 88 10000 0.77 77 18:24 12.11.2020
5584 Clouds -24 1021 88 10000 0.77 77 17:48 12.11.2020
5585 Clouds -24 1021 88 10000 0.84 81 17:29 12.11.2020
5586 Clouds -24 1021 88 10000 0.84 81 16:47 12.11.2020
5587 Clouds -24 1022 88 10000 0.82 84 16:27 12.11.2020
5588 Clouds -24 1022 88 10000 0.82 84 15:59 12.11.2020
5589 Clouds -24 1022 88 10000 0.82 84 15:41 12.11.2020
5590 Clouds -24 1021 88 10000 0.82 91 15:21 12.11.2020
5591 Clouds -24 1021 88 10000 0.82 91 14:46 12.11.2020
5592 Clouds -24 1021 88 10000 0.72 97 14:25 12.11.2020
5593 Clouds -24 1021 88 10000 0.72 97 13:55 12.11.2020
5594 Clouds -24 1021 88 10000 0.72 97 13:37 12.11.2020
5595 Clouds -24 1021 88 10000 0.65 100 13:18 12.11.2020
5596 Clouds -24 1021 88 10000 0.65 100 12:42 12.11.2020
5597 Clouds -24 1021 88 10000 0.65 100 12:19 12.11.2020
5598 Clouds -24 1021 88 10000 0.65 100 11:47 12.11.2020
5599 Clouds -24 1021 88 10000 0.51 100 11:28 12.11.2020
5600 Clouds -24 1021 88 10000 0.51 100 10:43 12.11.2020
5601 Clouds -24 1021 88 10000 0.51 100 10:43 12.11.2020
5602 Clouds -24 1021 88 10000 0.41 107 10:24 12.11.2020
5603 Clouds -24 1021 88 10000 0.41 107 09:48 12.11.2020
5604 Clouds -23 1020 89 10000 0.58 101 09:23 12.11.2020
5605 Clouds -23 1020 89 10000 0.58 101 08:57 12.11.2020
5606 Clouds -23 1020 89 10000 0.58 101 08:57 12.11.2020
5607 Clouds -23 1020 89 10000 0.58 101 08:39 12.11.2020
5608 Clouds -23 1020 89 9911 0.79 94 08:19 12.11.2020
5609 Clouds -23 1020 89 9911 0.79 94 07:50 12.11.2020
5610 Clouds -22 1019 89 6509 0.85 93 07:22 12.11.2020
5611 Clouds -23 1019 88 8342 0.8 85 06:50 12.11.2020
5612 Clouds -23 1019 88 7384 0.62 79 05:37 12.11.2020
5613 Clouds -22 1018 88 10000 0.73 88 03:24 12.11.2020
5614 Clouds -22 1018 88 10000 0.73 88 02:53 12.11.2020
5615 Clouds -22 1016 88 4674 0.86 81 00:22 12.11.2020
5616 Clouds -22 1016 88 6594 0.85 84 23:26 11.11.2020
5617 Clouds -22 1016 88 6594 0.85 84 22:59 11.11.2020
5618 Clouds -22 1016 88 6594 0.85 84 22:41 11.11.2020
5619 Clouds -22 1016 88 7938 0.79 82 22:21 11.11.2020
5620 Clouds -22 1016 88 7938 0.79 82 21:56 11.11.2020
5621 Clouds -22 1016 88 7938 0.79 82 21:36 11.11.2020
5622 Clouds -22 1015 88 7411 0.73 83 21:18 11.11.2020
5623 Clouds -22 1015 88 7411 0.73 83 20:41 11.11.2020
5624 Clouds -22 1014 88 5070 0.8 79 20:21 11.11.2020
5625 Clouds -22 1014 88 5070 0.8 79 19:50 11.11.2020
5626 Clouds -22 1014 88 5070 0.8 79 19:32 11.11.2020
5627 Clouds -22 1013 89 1580 0.92 71 18:58 11.11.2020
5628 Clouds -22 1014 89 723 0.73 77 18:40 11.11.2020
5629 Snow -22 1013 89 406 0.82 74 17:46 11.11.2020
5630 Clouds -22 1013 89 366 0.91 73 17:27 11.11.2020
5631 Clouds -22 1013 89 366 0.91 73 16:59 11.11.2020
5632 Clouds -22 1013 89 366 0.91 73 16:38 11.11.2020
5633 Clouds -22 1012 89 446 1.08 71 16:20 11.11.2020
5634 Clouds -22 1012 89 446 1.08 71 15:41 11.11.2020
5635 Clouds -23 1012 89 475 1.04 70 15:22 11.11.2020
5636 Clouds -23 1012 89 475 1.04 70 14:43 11.11.2020
5637 Clouds -23 1011 88 514 0.99 74 14:23 11.11.2020
5638 Clouds -23 1011 88 514 0.99 74 13:48 11.11.2020
5639 Snow -23 1011 88 471 0.99 74 13:24 11.11.2020
5640 Clouds -23 1012 88 562 0.86 77 12:21 11.11.2020
5641 Clouds -23 1012 88 562 0.86 77 11:52 11.11.2020
5642 Clouds -23 1012 88 562 0.86 77 11:33 11.11.2020
5643 Clouds -24 1011 87 950 0.91 77 10:56 11.11.2020
5644 Clouds -24 1011 87 950 0.91 77 10:37 11.11.2020
5645 Clouds -24 1011 87 3634 1.05 75 10:18 11.11.2020
5646 Clouds -24 1011 87 3634 1.05 75 09:42 11.11.2020
5647 Clouds -24 1011 86 10000 0.94 75 09:21 11.11.2020
5648 Clouds -24 1011 86 10000 0.94 75 08:43 11.11.2020
5649 Clouds -24 1011 86 10000 0.91 75 08:25 11.11.2020
5650 Clouds -24 1011 86 10000 0.91 75 07:46 11.11.2020
5651 Clouds -25 1011 85 10000 0.85 80 06:33 11.11.2020
5652 Clouds -26 1011 84 10000 0.87 84 05:46 11.11.2020
5653 Clouds -28 1011 84 10000 0.68 83 02:29 11.11.2020
5654 Clouds -27 1011 84 10000 0.72 91 00:58 11.11.2020
5655 Clouds -27 1011 85 2371 0.82 91 00:25 11.11.2020
5656 Clouds -27 1011 85 2371 0.82 91 23:42 10.11.2020
5657 Clouds -27 1011 84 2859 0.86 83 23:23 10.11.2020
5658 Clouds -27 1011 84 2859 0.86 83 22:51 10.11.2020
5659 Clouds -27 1011 84 3541 1.01 81 22:26 10.11.2020
5660 Clouds -27 1011 84 3541 1.01 81 21:42 10.11.2020
5661 Clouds -27 1011 83 4794 0.98 79 21:24 10.11.2020
5662 Clouds -27 1011 83 4794 0.98 79 20:58 10.11.2020
5663 Clouds -27 1011 83 4794 0.98 79 20:40 10.11.2020
5664 Clouds -27 1010 83 5124 0.95 81 20:22 10.11.2020
5665 Clouds -27 1010 83 5124 0.95 81 19:46 10.11.2020
5666 Clouds -27 1010 83 3479 0.91 83 19:25 10.11.2020
5667 Clouds -27 1010 83 3479 0.91 83 18:57 10.11.2020
5668 Clouds -27 1011 84 1591 0.8 88 18:38 10.11.2020
5669 Clouds -27 1010 83 1404 0.92 90 18:18 10.11.2020
5670 Clouds -27 1010 83 1404 0.92 90 18:18 10.11.2020
5671 Clouds -27 1010 83 1404 0.92 90 17:42 10.11.2020
5672 Clouds -28 1011 81 9709 0.9 81 17:24 10.11.2020
5673 Clouds -28 1011 81 9709 0.9 81 16:43 10.11.2020
5674 Clouds -29 1011 80 10000 0.9 77 16:24 10.11.2020
5675 Clouds -29 1011 80 10000 0.9 77 15:55 10.11.2020
5676 Clouds -29 1011 80 10000 0.9 77 15:37 10.11.2020
5677 Clouds -29 1011 79 10000 0.81 81 15:19 10.11.2020
5678 Clouds -29 1011 79 10000 0.81 81 14:41 10.11.2020
5679 Clouds -30 1011 79 10000 0.93 87 14:20 10.11.2020
5680 Clouds -30 1011 79 10000 0.93 87 13:41 10.11.2020
5681 Clouds -30 1011 79 10000 0.81 89 13:22 10.11.2020
5682 Clouds -30 1011 79 10000 0.81 89 12:58 10.11.2020
5683 Clouds -30 1011 79 10000 0.81 89 12:38 10.11.2020
5684 Clouds -30 1011 80 10000 0.75 84 12:20 10.11.2020
5685 Clouds -30 1011 80 10000 0.75 84 11:38 10.11.2020
5686 Clouds -31 1012 80 10000 0.77 75 11:19 10.11.2020
5687 Clouds -31 1012 80 10000 0.77 75 10:42 10.11.2020
5688 Clouds -31 1012 80 10000 0.83 85 10:24 10.11.2020
5689 Clouds -31 1012 80 10000 0.83 85 09:51 10.11.2020
5690 Clouds -31 1013 80 10000 0.97 96 09:26 10.11.2020
5691 Clouds -31 1013 80 10000 0.97 96 08:57 10.11.2020
5692 Clouds -31 1013 80 10000 0.97 96 08:30 10.11.2020
5693 Clouds -32 1013 80 10000 0.52 101 07:56 10.11.2020
5694 Clouds -32 1013 80 10000 0.52 101 07:37 10.11.2020
5695 Clouds -32 1013 80 10000 0.99 81 07:18 10.11.2020
5696 Clouds -31 1013 80 10000 1.05 78 06:38 10.11.2020
5697 Clear -31 1014 80 10000 1.03 88 05:27 10.11.2020
5698 Clear -31 1015 80 10000 0.89 96 03:36 10.11.2020
5699 Clear -33 1017 80 10000 0.92 94 01:41 10.11.2020
5700 Clear -33 1017 80 10000 0.79 102 00:50 10.11.2020
5701 Clear -33 1017 80 10000 1.01 109 23:46 09.11.2020
5702 Clear -33 1018 80 10000 0.81 115 23:00 09.11.2020
5703 Clear -33 1018 80 10000 0.81 115 22:41 09.11.2020
5704 Clear -33 1019 80 10000 1.04 121 22:22 09.11.2020
5705 Clear -33 1019 80 10000 1.04 121 21:43 09.11.2020
5706 Clear -33 1020 80 10000 1 125 21:25 09.11.2020
5707 Clear -33 1020 80 10000 1 125 21:25 09.11.2020
5708 Clear -33 1020 80 10000 1 125 20:42 09.11.2020
5709 Clear -33 1020 81 10000 0.87 135 20:22 09.11.2020
5710 Clear -33 1020 81 10000 0.87 135 19:49 09.11.2020
5711 Clear -33 1020 81 10000 0.87 130 19:24 09.11.2020
5712 Clear -33 1020 81 10000 0.87 130 18:58 09.11.2020
5713 Clear -33 1020 81 10000 0.87 130 18:39 09.11.2020
5714 Clear -33 1021 80 10000 0.89 141 18:19 09.11.2020
5715 Clear -33 1021 80 10000 0.89 141 17:44 09.11.2020
5716 Clear -33 1021 80 10000 0.94 144 17:25 09.11.2020
5717 Clear -33 1021 80 10000 0.94 144 16:44 09.11.2020
5718 Clear -33 1022 81 10000 0.99 145 16:23 09.11.2020
5719 Clear -33 1022 81 10000 0.99 145 15:47 09.11.2020
5720 Clear -33 1023 81 10000 1.04 142 15:28 09.11.2020
5721 Clear -33 1023 81 10000 1.04 142 14:51 09.11.2020
5722 Clear -33 1023 81 10000 0.99 134 14:29 09.11.2020
5723 Clear -33 1023 81 10000 0.99 134 13:59 09.11.2020
5724 Clear -33 1023 81 10000 0.99 134 13:38 09.11.2020
5725 Clear -33 1024 81 10000 0.79 147 13:18 09.11.2020
5726 Clear -33 1023 81 10000 0.73 150 12:41 09.11.2020
5727 Clear -33 1023 82 10000 0.65 155 12:21 09.11.2020
5728 Clear -33 1023 82 10000 0.65 155 11:43 09.11.2020
5729 Clear -33 1024 82 10000 0.63 136 11:24 09.11.2020
5730 Clear -33 1024 82 10000 0.63 136 10:58 09.11.2020
5731 Clear -33 1024 82 10000 0.63 136 10:39 09.11.2020
5732 Clear -33 1024 82 10000 0.69 124 10:21 09.11.2020
5733 Clear -33 1024 82 10000 0.69 124 09:30 09.11.2020
5734 Clear -33 1024 82 10000 0.71 122 08:54 09.11.2020
5735 Clear -33 1024 82 10000 0.77 115 08:28 09.11.2020
5736 Clear -33 1024 82 10000 0.77 115 07:55 09.11.2020
5737 Clear -33 1024 82 10000 0.76 113 07:23 09.11.2020
5738 Clear -33 1024 82 10000 0.76 113 06:55 09.11.2020
5739 Clear -31 1024 82 10000 0.73 109 04:55 09.11.2020
5740 Clear -33 1025 82 10000 0.95 121 01:59 09.11.2020
5741 Clear -33 1025 82 10000 0.95 121 01:41 09.11.2020
5742 Clear -34 1025 82 10000 0.82 126 00:55 09.11.2020
5743 Clear -33 1025 83 10000 0.77 127 23:47 08.11.2020
5744 Clear -33 1025 83 10000 0.7 125 23:28 08.11.2020
5745 Clear -33 1025 83 10000 0.7 125 22:43 08.11.2020
5746 Clear -33 1025 83 10000 0.71 122 22:22 08.11.2020
5747 Clear -33 1025 83 10000 0.71 122 21:47 08.11.2020
5748 Clear -33 1025 83 10000 0.92 115 21:23 08.11.2020
5749 Clear -33 1025 83 10000 0.92 115 20:57 08.11.2020
5750 Clear -33 1025 83 10000 0.92 115 20:38 08.11.2020
5751 Clear -33 1025 83 10000 0.83 122 20:20 08.11.2020
5752 Clear -33 1025 83 10000 0.83 122 19:45 08.11.2020
5753 Clouds -33 1025 83 10000 0.75 128 19:22 08.11.2020
5754 Clouds -33 1025 83 10000 0.75 128 18:58 08.11.2020
5755 Clouds -33 1025 83 10000 0.79 122 18:39 08.11.2020
5756 Clouds -33 1025 83 10000 0.72 128 18:20 08.11.2020
5757 Clouds -33 1025 83 10000 0.72 128 17:56 08.11.2020
5758 Clouds -33 1025 83 10000 0.72 128 17:36 08.11.2020
5759 Clouds -33 1025 83 10000 0.68 134 17:18 08.11.2020
5760 Clouds -33 1025 83 10000 0.68 134 16:38 08.11.2020
5761 Clouds -33 1025 83 10000 0.7 128 16:20 08.11.2020
5762 Clouds -33 1025 83 10000 0.7 128 15:46 08.11.2020
5763 Clouds -33 1025 83 10000 0.82 122 15:27 08.11.2020
5764 Clouds -33 1025 83 10000 0.82 122 14:44 08.11.2020
5765 Clear -33 1026 83 10000 0.79 133 14:24 08.11.2020
5766 Clear -33 1026 83 10000 0.79 133 13:56 08.11.2020
5767 Clouds -33 1026 83 10000 0.72 131 13:26 08.11.2020
5768 Clouds -33 1026 83 10000 0.72 131 13:26 08.11.2020
5769 Clouds -33 1026 83 10000 0.72 131 12:59 08.11.2020
5770 Clouds -33 1026 83 10000 0.65 154 12:40 08.11.2020
5771 Clouds -33 1025 84 10000 0.67 149 12:20 08.11.2020
5772 Clouds -33 1025 84 10000 0.67 149 11:55 08.11.2020
5773 Clouds -33 1025 84 10000 0.67 149 11:37 08.11.2020
5774 Clouds -33 1026 84 8605 0.7 156 11:19 08.11.2020
5775 Clouds -33 1026 84 8605 0.7 156 10:42 08.11.2020
5776 Clouds -33 1026 83 9126 0.68 155 10:18 08.11.2020
5777 Clouds -33 1026 83 9126 0.68 155 09:42 08.11.2020
5778 Clouds -32 1026 84 10000 0.59 154 09:23 08.11.2020
5779 Clouds -32 1026 84 10000 0.59 154 08:47 08.11.2020
5780 Clouds -32 1026 84 10000 0.59 157 08:27 08.11.2020
5781 Clouds -32 1026 84 10000 0.59 157 07:53 08.11.2020
5782 Clouds -32 1026 84 10000 0.59 157 07:32 08.11.2020
5783 Clouds -32 1026 84 10000 0.49 164 06:45 08.11.2020
5784 Clouds -32 1026 83 10000 0.53 161 05:54 08.11.2020
5785 Clouds -31 1026 83 10000 0.64 167 04:54 08.11.2020
5786 Clouds -31 1026 83 10000 0.6 166 03:27 08.11.2020
5787 Clouds -33 1026 83 10000 0.5 192 01:20 08.11.2020
5788 Clouds -33 1026 83 10000 0.5 192 00:49 08.11.2020
5789 Clouds -33 1026 83 7915 0.5 191 00:20 08.11.2020
5790 Clouds -33 1026 83 7915 0.5 191 23:40 07.11.2020
5791 Clouds -33 1026 83 7387 0.57 175 23:22 07.11.2020
5792 Clouds -33 1026 83 7387 0.57 175 22:40 07.11.2020
5793 Clouds -33 1026 83 8329 0.46 172 22:21 07.11.2020
5794 Clouds -33 1026 83 8329 0.46 172 21:44 07.11.2020
5795 Clouds -33 1026 83 10000 0.49 161 21:21 07.11.2020
5796 Clouds -33 1026 83 10000 0.49 161 20:48 07.11.2020
5797 Clouds -33 1026 83 10000 0.49 161 20:30 07.11.2020
5798 Clouds -33 1026 83 10000 0.45 165 19:51 07.11.2020
5799 Clouds -33 1025 83 10000 0.43 202 19:29 07.11.2020
5800 Clouds -33 1025 83 10000 0.43 202 18:58 07.11.2020
5801 Clouds -33 1025 83 10000 0.43 202 18:38 07.11.2020
5802 Clouds -32 1025 83 10000 0.6 213 18:19 07.11.2020
5803 Clouds -32 1025 83 10000 0.6 213 17:40 07.11.2020
5804 Clouds -31 1025 82 10000 0.75 212 17:22 07.11.2020
5805 Clouds -31 1025 82 10000 0.75 212 16:42 07.11.2020
5806 Clouds -31 1025 82 10000 0.84 200 16:23 07.11.2020
5807 Clouds -31 1025 82 10000 0.84 200 15:43 07.11.2020
5808 Clouds -31 1025 82 10000 0.72 198 15:23 07.11.2020
5809 Clouds -31 1025 82 10000 0.72 198 14:48 07.11.2020
5810 Clouds -31 1025 82 10000 0.72 198 14:30 07.11.2020
5811 Clouds -31 1025 82 10000 0.72 198 14:30 07.11.2020
5812 Clouds -31 1025 82 10000 0.53 196 13:59 07.11.2020
5813 Clouds -31 1025 82 10000 0.53 196 13:39 07.11.2020
5814 Clouds -31 1025 82 10000 0.54 222 13:20 07.11.2020
5815 Clouds -31 1025 83 10000 0.61 226 12:30 07.11.2020
5816 Clouds -31 1025 83 10000 0.83 237 11:45 07.11.2020
5817 Clouds -31 1025 82 10000 0.88 222 11:24 07.11.2020
5818 Clouds -31 1025 82 10000 0.88 222 10:55 07.11.2020
5819 Clouds -31 1025 82 10000 0.88 222 10:37 07.11.2020
5820 Clouds -31 1025 82 10000 0.58 214 10:18 07.11.2020
5821 Clouds -31 1025 82 10000 0.58 214 09:42 07.11.2020
5822 Clouds -31 1025 83 10000 0.4 217 09:19 07.11.2020
5823 Clouds -31 1025 83 10000 0.4 217 08:42 07.11.2020
5824 Clouds -31 1025 83 10000 0.57 231 08:22 07.11.2020
5825 Clouds -31 1025 83 10000 0.57 231 07:37 07.11.2020
5826 Clouds -31 1024 83 10000 0.61 200 06:48 07.11.2020
5827 Clouds -30 1024 82 10000 0.73 213 05:38 07.11.2020
5828 Clouds -30 1024 82 10000 0.71 202 03:25 07.11.2020
5829 Clouds -31 1023 82 10000 0.72 201 01:45 07.11.2020
5830 Clouds -32 1023 83 10000 0.77 194 01:25 07.11.2020
5831 Clouds -32 1022 83 10000 0.65 176 00:29 07.11.2020
5832 Clouds -32 1022 83 10000 0.65 176 23:32 06.11.2020
5833 Clouds -32 1022 83 10000 0.39 187 22:46 06.11.2020
5834 Clouds -32 1021 83 10000 0.61 219 22:20 06.11.2020
5835 Clouds -32 1021 83 10000 0.61 219 21:59 06.11.2020
5836 Clouds -32 1021 83 10000 0.61 219 21:40 06.11.2020
5837 Clouds -32 1021 83 10000 0.62 212 21:19 06.11.2020
5838 Clouds -32 1021 83 10000 0.62 212 20:43 06.11.2020
5839 Clear -32 1021 84 10000 0.47 176 20:20 06.11.2020
5840 Clear -32 1021 84 10000 0.47 176 19:45 06.11.2020
5841 Clouds -32 1021 84 10000 0.35 148 19:27 06.11.2020
5842 Clear -33 1021 83 10000 0.21 162 18:55 06.11.2020
5843 Clear -33 1021 83 10000 0.21 162 18:37 06.11.2020
5844 Clear -33 1020 83 10000 0.25 137 18:18 06.11.2020
5845 Clear -33 1020 83 10000 0.25 137 17:41 06.11.2020
5846 Clear -32 1020 83 10000 0.28 239 17:23 06.11.2020
5847 Clear -32 1020 83 10000 0.28 239 16:39 06.11.2020
5848 Clear -32 1019 83 10000 0.39 154 16:20 06.11.2020
5849 Clear -32 1019 83 10000 0.39 154 15:44 06.11.2020
5850 Clear -32 1019 83 10000 0.37 122 15:25 06.11.2020
5851 Clear -32 1019 83 10000 0.37 122 14:49 06.11.2020
5852 Clear -32 1019 83 10000 0.6 116 14:22 06.11.2020
5853 Clear -32 1019 83 10000 0.6 116 13:42 06.11.2020
5854 Clear -32 1018 83 10000 0.44 102 13:20 06.11.2020
5855 Clear -32 1018 83 10000 0.44 106 12:43 06.11.2020
5856 Clear -32 1017 83 10000 0.36 110 12:23 06.11.2020
5857 Clear -32 1017 83 10000 0.36 110 12:23 06.11.2020
5858 Clear -32 1017 83 10000 0.36 110 11:40 06.11.2020
5859 Clear -32 1017 83 10000 0.25 125 11:21 06.11.2020
5860 Clear -32 1017 83 10000 0.25 125 10:37 06.11.2020
5861 Clear -32 1016 83 10000 0.43 100 10:18 06.11.2020
5862 Clear -32 1016 83 10000 0.43 100 09:44 06.11.2020
5863 Clear -32 1015 84 10000 0.52 97 09:21 06.11.2020
5864 Clear -32 1015 84 10000 0.52 97 08:48 06.11.2020
5865 Clear -32 1015 84 10000 0.42 108 08:28 06.11.2020
5866 Clear -32 1015 84 10000 0.42 108 07:46 06.11.2020
5867 Clouds -32 1014 84 10000 0.53 94 07:27 06.11.2020
5868 Clouds -32 1014 84 10000 0.53 94 06:48 06.11.2020
5869 Clear -31 1013 83 10000 0.79 91 05:42 06.11.2020
5870 Clear -30 1012 84 10000 0.62 102 02:53 06.11.2020
5871 Clouds -32 1011 84 10000 0.52 98 00:46 06.11.2020
5872 Clouds -32 1011 84 10000 0.44 95 00:18 06.11.2020
5873 Clouds -32 1010 84 10000 0.49 96 23:29 05.11.2020
5874 Clouds -32 1010 84 10000 0.49 96 22:57 05.11.2020
5875 Clouds -32 1010 84 10000 0.49 96 22:36 05.11.2020
5876 Clouds -32 1010 84 8805 0.37 83 22:18 05.11.2020
5877 Clouds -32 1010 84 8805 0.37 83 21:42 05.11.2020
5878 Clouds -31 1009 84 7947 0.43 102 21:21 05.11.2020
5879 Clouds -31 1009 84 7947 0.43 102 20:45 05.11.2020
5880 Clouds -31 1009 85 6029 0.45 81 20:26 05.11.2020
5881 Clouds -31 1009 85 6029 0.45 81 19:58 05.11.2020
5882 Clouds -31 1009 85 6029 0.45 81 19:40 05.11.2020
5883 Clouds -31 1008 85 5814 0.46 69 19:22 05.11.2020
5884 Clouds -31 1008 85 5814 0.46 69 18:42 05.11.2020
5885 Clouds -31 1009 85 6046 0.44 81 18:24 05.11.2020
5886 Clouds -31 1009 85 6046 0.44 81 17:52 05.11.2020
5887 Clouds -30 1009 85 5630 0.46 82 17:27 05.11.2020
5888 Clouds -30 1009 85 5630 0.46 82 16:53 05.11.2020
5889 Clouds -30 1008 85 5135 0.6 82 16:29 05.11.2020
5890 Clouds -30 1008 85 5135 0.6 82 15:59 05.11.2020
5891 Clouds -30 1008 85 5135 0.6 82 15:40 05.11.2020
5892 Clouds -30 1008 85 4571 0.59 74 15:21 05.11.2020
5893 Clouds -30 1008 85 4571 0.59 74 14:44 05.11.2020
5894 Clouds -29 1008 86 4496 0.37 63 14:24 05.11.2020
5895 Clouds -29 1008 86 4496 0.37 63 13:42 05.11.2020
5896 Clouds -29 1008 86 3974 0.42 64 13:23 05.11.2020
5897 Clouds -29 1008 86 3974 0.42 64 12:48 05.11.2020
5898 Clouds -29 1007 86 3544 0.51 71 12:24 05.11.2020
5899 Clouds -29 1007 86 3544 0.51 71 11:49 05.11.2020
5900 Clouds -28 1007 86 3507 0.48 78 11:26 05.11.2020
5901 Clouds -28 1007 86 3507 0.48 78 10:53 05.11.2020
5902 Clouds -28 1007 86 3507 0.48 78 10:32 05.11.2020
5903 Clouds -28 1007 86 3549 0.53 73 09:58 05.11.2020
5904 Clouds -28 1007 86 3549 0.53 73 09:38 05.11.2020
5905 Clouds -28 1007 86 3556 0.6 68 09:20 05.11.2020
5906 Clouds -28 1007 86 3556 0.6 68 08:43 05.11.2020
5907 Clouds -27 1007 87 3508 0.64 67 08:24 05.11.2020
5908 Clouds -27 1006 87 3528 0.56 88 07:29 05.11.2020
5909 Clouds -28 1006 86 3914 0.63 75 06:52 05.11.2020
5910 Clouds -28 1006 86 3914 0.63 75 06:34 05.11.2020
5911 Clouds -25 1006 87 2724 0.51 66 04:19 05.11.2020
5912 Clouds -26 1006 87 2318 0.46 175 01:23 05.11.2020
5913 Clouds -26 1006 87 2010 0.64 143 00:30 05.11.2020
5914 Clouds -26 1006 87 2010 0.64 143 23:44 04.11.2020
5915 Clouds -26 1006 87 2001 0.51 144 23:25 04.11.2020
5916 Clouds -26 1006 87 2001 0.51 144 22:48 04.11.2020
5917 Clouds -26 1006 87 2117 0.29 172 22:24 04.11.2020
5918 Clouds -26 1006 87 2117 0.29 172 21:56 04.11.2020
5919 Clouds -26 1006 87 2117 0.29 172 21:36 04.11.2020
5920 Clouds -26 1007 87 2249 0.4 201 21:18 04.11.2020
5921 Clouds -26 1007 87 2249 0.4 201 20:41 04.11.2020
5922 Clouds -26 1007 87 2253 0.36 200 20:23 04.11.2020
5923 Clouds -26 1007 87 2253 0.36 200 19:44 04.11.2020
5924 Clouds -26 1007 87 2253 0.36 200 19:44 04.11.2020
5925 Clouds -26 1007 87 2761 0.34 220 19:26 04.11.2020
5926 Clouds -26 1007 87 2761 0.34 220 18:44 04.11.2020
5927 Clouds -27 1007 87 3703 0.43 225 18:25 04.11.2020
5928 Clouds -27 1007 87 3703 0.43 225 18:25 04.11.2020
5929 Clouds -27 1007 87 3703 0.43 225 17:59 04.11.2020
5930 Clouds -27 1007 87 3703 0.43 225 17:40 04.11.2020
5931 Clouds -27 1007 87 3398 0.61 231 17:20 04.11.2020
5932 Clouds -27 1007 87 3398 0.61 231 16:38 04.11.2020
5933 Clouds -26 1007 87 3397 0.88 232 16:20 04.11.2020
5934 Clouds -26 1007 87 3397 0.88 232 15:47 04.11.2020
5935 Clouds -26 1008 87 3202 1.01 225 15:25 04.11.2020
5936 Clouds -26 1008 87 3202 1.01 225 14:57 04.11.2020
5937 Clouds -26 1008 87 3202 1.01 225 14:39 04.11.2020
5938 Clouds -26 1008 87 3879 0.95 207 14:18 04.11.2020
5939 Clouds -26 1008 87 3879 0.95 207 13:41 04.11.2020
5940 Clouds -26 1008 87 5240 0.75 206 13:19 04.11.2020
5941 Clouds -26 1008 87 5240 0.75 206 12:50 04.11.2020
5942 Clouds -27 1009 87 5477 0.64 220 12:26 04.11.2020
5943 Clouds -27 1009 87 5477 0.64 220 11:56 04.11.2020
5944 Clouds -27 1009 87 5477 0.64 220 11:56 04.11.2020
5945 Clouds -27 1009 87 5477 0.64 220 11:56 04.11.2020
5946 Clouds -27 1009 87 5477 0.64 220 11:37 04.11.2020
5947 Clouds -26 1009 87 7272 0.83 225 11:18 04.11.2020
5948 Clouds -26 1009 87 7272 0.83 225 10:43 04.11.2020
5949 Clouds -26 1010 87 10000 0.84 223 10:22 04.11.2020
5950 Clouds -26 1010 87 10000 0.84 223 09:50 04.11.2020
5951 Clouds -26 1010 86 10000 0.66 241 09:22 04.11.2020
5952 Clouds -26 1010 86 10000 0.66 241 08:45 04.11.2020
5953 Clouds -26 1010 86 10000 0.72 262 08:19 04.11.2020
5954 Clouds -26 1010 86 10000 0.72 262 07:48 04.11.2020
5955 Clouds -26 1011 86 10000 0.81 247 07:27 04.11.2020
5956 Clear -26 1011 85 10000 0.76 248 06:45 04.11.2020
5957 Clear -25 1011 85 10000 0.91 229 06:26 04.11.2020
5958 Clear -24 1013 84 10000 0.81 261 02:32 04.11.2020
5959 Clear -26 1013 84 10000 0.87 242 01:49 04.11.2020
5960 Clear -27 1014 84 10000 0.79 239 00:43 04.11.2020
5961 Clear -27 1014 84 10000 0.74 265 23:40 03.11.2020
5962 Clear -27 1015 84 10000 0.62 252 23:20 03.11.2020
5963 Clear -27 1015 84 10000 0.62 252 22:41 03.11.2020
5964 Clear -27 1015 84 10000 0.53 258 22:21 03.11.2020
5965 Clear -27 1015 84 10000 0.53 258 21:56 03.11.2020
5966 Clear -27 1015 84 10000 0.53 258 21:37 03.11.2020
5967 Clear -27 1016 84 10000 0.54 275 21:19 03.11.2020
5968 Clear -27 1016 84 10000 0.54 275 20:43 03.11.2020
5969 Clear -27 1016 83 10000 0.24 289 20:22 03.11.2020
5970 Clear -27 1016 83 10000 0.24 289 19:43 03.11.2020
5971 Clouds -26 1017 83 10000 0.11 317 19:22 03.11.2020
5972 Clouds -26 1017 83 10000 0.11 317 18:45 03.11.2020
5973 Clouds -27 1018 81 10000 0.38 39 18:21 03.11.2020
5974 Clouds -27 1018 81 10000 0.38 39 17:59 03.11.2020
5975 Clouds -27 1018 81 10000 0.38 39 17:41 03.11.2020
5976 Clouds -27 1018 81 10000 0.48 34 17:22 03.11.2020
5977 Clouds -27 1018 81 10000 0.48 34 16:45 03.11.2020
5978 Clouds -26 1019 81 10000 0.56 46 16:23 03.11.2020
5979 Clouds -26 1019 81 10000 0.56 46 15:46 03.11.2020
5980 Clouds -26 1020 81 10000 0.51 52 15:25 03.11.2020
5981 Clouds -26 1020 81 10000 0.51 52 14:52 03.11.2020
5982 Clouds -26 1020 81 10000 0.51 52 14:33 03.11.2020
5983 Clouds -26 1020 81 10000 0.52 49 13:46 03.11.2020
5984 Clouds -26 1020 81 10000 0.59 57 13:23 03.11.2020
5985 Clear -26 1021 81 10000 0.44 65 12:59 03.11.2020
5986 Clear -26 1021 81 10000 0.44 65 12:37 03.11.2020
5987 Clear -26 1021 81 10000 0.62 76 12:19 03.11.2020
5988 Clear -26 1021 81 10000 0.62 76 11:41 03.11.2020
5989 Clear -26 1022 81 10000 0.62 61 11:20 03.11.2020
5990 Clear -26 1022 81 10000 0.62 61 10:39 03.11.2020
5991 Clear -26 1022 81 10000 0.83 81 10:21 03.11.2020
5992 Clear -26 1022 81 10000 0.83 81 09:52 03.11.2020
5993 Clear -26 1022 81 10000 0.83 81 09:33 03.11.2020
5994 Clear -26 1023 81 10000 1.02 75 08:56 03.11.2020
5995 Clear -26 1023 81 10000 1.02 75 08:35 03.11.2020
5996 Clear -25 1023 81 10000 0.98 66 07:57 03.11.2020
5997 Clear -25 1023 81 10000 0.98 66 07:35 03.11.2020
5998 Clouds -26 1023 81 10000 0.84 73 06:51 03.11.2020
5999 Clouds -25 1023 82 10000 0.87 75 05:49 03.11.2020
6000 Clouds -24 1025 82 10000 0.88 94 03:26 03.11.2020
6001 Clouds -26 1025 81 10000 0.87 97 00:42 03.11.2020
6002 Clouds -27 1026 81 10000 0.97 96 23:59 02.11.2020
6003 Clouds -27 1026 81 10000 0.97 96 23:38 02.11.2020
6004 Clouds -27 1026 81 10000 1.07 97 22:56 02.11.2020
6005 Clouds -27 1026 81 10000 1.07 97 22:37 02.11.2020
6006 Clouds -27 1026 81 10000 1.15 98 21:59 02.11.2020
6007 Clouds -27 1026 81 10000 1.15 98 21:38 02.11.2020
6008 Clear -27 1027 81 10000 1.19 101 21:19 02.11.2020
6009 Clear -27 1027 81 10000 1.19 101 20:41 02.11.2020
6010 Clear -27 1027 81 10000 1.26 98 20:20 02.11.2020
6011 Clear -27 1027 81 10000 1.26 98 19:58 02.11.2020
6012 Clear -27 1027 81 10000 1.26 98 19:40 02.11.2020
6013 Clear -27 1027 81 10000 1.3 97 19:21 02.11.2020
6014 Clear -28 1027 81 10000 1.11 100 18:39 02.11.2020
6015 Clear -28 1027 82 10000 1.17 101 18:21 02.11.2020
6016 Clear -28 1027 82 10000 1.17 101 17:56 02.11.2020
6017 Clear -28 1027 82 10000 1.17 101 17:36 02.11.2020
6018 Clear -28 1028 82 10000 1.29 102 17:18 02.11.2020
6019 Clear -28 1028 82 10000 1.29 102 16:38 02.11.2020
6020 Clear -28 1028 82 10000 1.26 98 16:20 02.11.2020
6021 Clear -28 1028 82 10000 1.26 98 15:39 02.11.2020
6022 Clear -27 1029 82 10000 1.32 101 15:20 02.11.2020
6023 Clear -27 1029 82 10000 1.32 101 14:53 02.11.2020
6024 Clear -27 1029 82 10000 1.31 99 14:20 02.11.2020
6025 Clear -27 1029 82 10000 1.31 99 13:52 02.11.2020
6026 Clear -27 1029 83 10000 1.31 103 13:23 02.11.2020
6027 Clear -27 1029 83 10000 1.31 103 12:55 02.11.2020
6028 Clear -27 1029 83 10000 1.27 97 12:30 02.11.2020
6029 Clear -27 1029 83 10000 1.26 97 11:56 02.11.2020
6030 Clear -27 1029 83 10000 1.26 97 11:37 02.11.2020
6031 Clear -27 1029 83 10000 1.31 97 11:18 02.11.2020
6032 Clear -27 1029 83 10000 1.31 97 10:41 02.11.2020
6033 Clear -27 1030 84 10000 1.38 95 10:18 02.11.2020
6034 Clear -27 1030 84 10000 1.38 95 09:48 02.11.2020
6035 Clear -27 1030 84 10000 1.29 98 09:23 02.11.2020
6036 Clear -27 1030 84 10000 1.29 98 08:40 02.11.2020
6037 Clear -27 1030 84 10000 1.3 100 08:20 02.11.2020
6038 Clear -27 1030 84 10000 1.3 100 08:20 02.11.2020
6039 Clear -27 1030 84 10000 1.3 100 07:49 02.11.2020
6040 Clouds -26 1029 87 10000 1.14 98 06:49 02.11.2020
6041 Clouds -24 1029 87 10000 1.18 98 06:24 02.11.2020
6042 Clouds -25 1030 87 9978 1.29 109 01:40 02.11.2020
6043 Clouds -25 1030 87 6620 1.29 111 01:22 02.11.2020
6044 Clouds -26 1030 87 6753 1.3 114 00:33 02.11.2020
6045 Clouds -26 1030 87 5502 1.29 114 23:41 01.11.2020
6046 Clouds -25 1030 87 3935 1.28 117 23:23 01.11.2020
6047 Clouds -25 1030 87 3935 1.28 117 22:46 01.11.2020
6048 Clouds -25 1031 87 3064 1.29 116 22:25 01.11.2020
6049 Clouds -25 1031 87 3064 1.29 116 21:58 01.11.2020
6050 Clouds -25 1031 87 3064 1.29 116 21:38 01.11.2020
6051 Clouds -25 1031 87 2770 1.36 115 21:20 01.11.2020
6052 Clouds -25 1031 87 2770 1.36 115 20:40 01.11.2020
6053 Clouds -24 1030 87 2679 1.45 115 20:20 01.11.2020
6054 Clouds -24 1030 87 2679 1.45 115 19:41 01.11.2020
6055 Clouds -24 1030 87 2371 1.45 118 19:23 01.11.2020
6056 Clouds -24 1030 88 1614 1.29 114 18:42 01.11.2020
6057 Clouds -24 1030 88 1614 1.29 114 18:42 01.11.2020
6058 Clouds -23 1029 88 1699 1.25 114 18:20 01.11.2020
6059 Clouds -23 1029 88 1699 1.25 114 18:20 01.11.2020
6060 Clouds -23 1029 88 1699 1.25 114 17:58 01.11.2020
6061 Clouds -23 1029 88 1699 1.25 114 17:40 01.11.2020
6062 Clouds -23 1029 88 1429 1.22 114 17:21 01.11.2020
6063 Clouds -23 1029 88 1429 1.22 114 16:41 01.11.2020
6064 Clouds -23 1030 88 1040 1.32 112 16:19 01.11.2020
6065 Clouds -23 1030 88 1040 1.32 112 15:42 01.11.2020
6066 Clouds -23 1030 88 1145 1.36 109 15:22 01.11.2020
6067 Clouds -23 1030 88 1145 1.36 109 14:59 01.11.2020
6068 Clouds -23 1030 88 1145 1.36 109 14:41 01.11.2020
6069 Clouds -23 1030 88 1180 1.32 108 14:21 01.11.2020
6070 Clouds -23 1030 88 1180 1.32 108 13:49 01.11.2020
6071 Clouds -23 1030 88 1180 1.32 108 13:31 01.11.2020
6072 Clouds -23 1029 88 1177 1.24 112 12:44 01.11.2020
6073 Clouds -23 1029 88 1054 1.37 116 12:24 01.11.2020
6074 Clouds -23 1029 88 1054 1.37 116 11:53 01.11.2020
6075 Clouds -23 1029 88 1147 1.36 117 11:19 01.11.2020
6076 Clouds -23 1029 88 1147 1.36 117 10:59 01.11.2020
6077 Clouds -23 1029 88 1147 1.36 117 10:40 01.11.2020
6078 Clouds -23 1029 88 1147 1.36 117 10:40 01.11.2020
6079 Clouds -23 1029 88 1548 1.3 117 10:21 01.11.2020
6080 Clouds -23 1029 88 1548 1.3 117 09:46 01.11.2020
6081 Clouds -23 1028 88 1781 1.29 124 08:49 01.11.2020
6082 Clouds -23 1028 88 1556 1.32 128 08:24 01.11.2020
6083 Clouds -23 1028 88 1556 1.32 128 08:24 01.11.2020
6084 Clouds -23 1028 88 1556 1.32 128 07:45 01.11.2020
6085 Clouds -21 1028 88 1539 1.41 135 05:30 01.11.2020
6086 Clouds -23 1028 88 2606 1.58 158 01:52 01.11.2020
6087 Clouds -23 1029 88 2217 1.54 171 00:53 01.11.2020
6088 Clouds -22 1028 88 1197 1.69 175 23:39 31.10.2020
6089 Clouds -22 1028 88 1002 1.79 176 23:18 31.10.2020
6090 Clouds -22 1028 88 1002 1.79 176 22:43 31.10.2020
6091 Clouds -22 1028 88 1211 2 181 22:23 31.10.2020
6092 Clouds -22 1028 88 1211 2 181 21:46 31.10.2020
6093 Clouds -22 1028 88 1372 2.08 183 21:20 31.10.2020
6094 Clouds -22 1028 88 1372 2.08 183 20:39 31.10.2020
6095 Clouds -22 1028 88 1269 2.11 184 20:19 31.10.2020
6096 Clouds -22 1028 88 1269 2.11 184 19:44 31.10.2020
6097 Clouds -23 1028 88 1799 2.18 186 19:24 31.10.2020
6098 Clouds -24 1028 87 4027 2.34 187 18:56 31.10.2020
6099 Clouds -24 1028 87 4027 2.34 187 18:38 31.10.2020
6100 Clouds -24 1028 87 5942 2.18 193 17:44 31.10.2020
6101 Clouds -23 1028 87 4113 2.15 196 17:25 31.10.2020
6102 Clouds -23 1028 87 4113 2.15 196 16:55 31.10.2020
6103 Clouds -23 1028 87 4113 2.15 196 16:34 31.10.2020
6104 Clouds -22 1028 88 2671 2.28 192 15:55 31.10.2020
6105 Clouds -22 1028 88 2454 2.31 188 15:26 31.10.2020
6106 Clouds -22 1028 88 2454 2.31 188 14:55 31.10.2020
6107 Clouds -22 1028 88 2454 2.31 188 14:32 31.10.2020
6108 Clouds -22 1028 88 3560 2.18 192 13:57 31.10.2020
6109 Clouds -22 1028 88 3560 2.18 192 13:39 31.10.2020
6110 Clouds -22 1028 88 4216 2.03 197 13:19 31.10.2020
6111 Clouds -21 1028 89 2179 2.05 199 12:27 31.10.2020
6112 Clouds -21 1028 89 2179 2.05 199 11:42 31.10.2020
6113 Clouds -21 1028 89 2088 2.01 198 11:24 31.10.2020
6114 Clouds -21 1028 89 2088 2.01 198 10:54 31.10.2020
6115 Clouds -21 1028 89 2088 2.01 198 10:32 31.10.2020
6116 Clouds -21 1028 89 2461 2 197 09:41 31.10.2020
6117 Clouds -20 1028 89 2284 1.88 197 09:20 31.10.2020
6118 Clouds -20 1028 89 2570 1.88 198 08:28 31.10.2020
6119 Clouds -20 1028 89 2570 1.88 198 07:48 31.10.2020
6120 Clouds -19 1028 89 2332 1.81 196 07:26 31.10.2020
6121 Clouds -20 1028 89 2977 1.74 195 06:38 31.10.2020
6122 Clouds -19 1028 89 1523 1.54 202 03:50 31.10.2020
6123 Clouds -19 1028 89 1266 1.44 201 03:21 31.10.2020
6124 Clouds -20 1029 89 1176 1.57 205 01:29 31.10.2020
6125 Clouds -20 1029 89 1176 1.57 205 00:46 31.10.2020
6126 Clouds -20 1028 90 1269 1.58 201 23:50 30.10.2020
6127 Clouds -20 1028 90 1008 1.67 204 23:24 30.10.2020
6128 Clouds -20 1028 90 1008 1.67 204 22:45 30.10.2020
6129 Clouds -20 1028 90 907 1.75 205 22:24 30.10.2020
6130 Clouds -20 1028 90 907 1.75 205 21:52 30.10.2020
6131 Clouds -20 1028 90 907 1.75 205 21:30 30.10.2020
6132 Clouds -20 1028 90 747 1.68 203 20:59 30.10.2020
6133 Clouds -20 1028 90 747 1.68 203 20:39 30.10.2020
6134 Clouds -20 1028 90 568 1.6 206 20:20 30.10.2020
6135 Clouds -20 1028 90 568 1.6 206 19:46 30.10.2020
6136 Clouds -19 1028 90 400 1.5 208 19:19 30.10.2020
6137 Clouds -19 1028 90 510 1.88 197 18:50 30.10.2020
6138 Clouds -19 1028 90 415 1.84 200 18:28 30.10.2020
6139 Clouds -19 1028 90 415 1.84 200 17:49 30.10.2020
6140 Clouds -19 1028 90 403 1.84 201 17:24 30.10.2020
6141 Clouds -19 1028 90 403 1.84 201 16:57 30.10.2020
6142 Clouds -19 1028 90 403 1.84 201 16:37 30.10.2020
6143 Clouds -19 1028 90 470 1.75 203 16:18 30.10.2020
6144 Clouds -19 1028 90 470 1.75 203 15:40 30.10.2020
6145 Clouds -19 1028 90 633 1.59 204 15:20 30.10.2020
6146 Clouds -19 1028 90 633 1.59 204 14:44 30.10.2020
6147 Clouds -19 1028 90 1053 1.48 206 14:25 30.10.2020
6148 Clouds -19 1028 90 1053 1.48 206 13:46 30.10.2020
6149 Clouds -19 1029 90 1743 1.41 207 13:22 30.10.2020
6150 Clouds -19 1029 90 1743 1.41 207 12:55 30.10.2020
6151 Clouds -18 1029 90 1644 1.3 208 12:23 30.10.2020
6152 Clouds -18 1029 90 1644 1.3 208 11:56 30.10.2020
6153 Clouds -18 1029 90 5122 1.28 203 11:23 30.10.2020
6154 Clouds -18 1029 90 5122 1.28 203 10:58 30.10.2020
6155 Clouds -18 1029 90 5122 1.28 203 10:39 30.10.2020
6156 Clouds -18 1029 90 8422 1.13 188 10:21 30.10.2020
6157 Clouds -18 1029 90 8422 1.13 188 09:43 30.10.2020
6158 Clouds -19 1029 90 10000 0.94 175 09:20 30.10.2020
6159 Clouds -21 1029 90 10000 0.62 162 08:39 30.10.2020
6160 Clouds -21 1029 90 10000 0.56 146 08:21 30.10.2020
6161 Clouds -21 1029 90 10000 0.56 146 07:47 30.10.2020
6162 Clouds -20 1029 90 10000 0.47 132 07:27 30.10.2020
6163 Clouds -20 1029 90 10000 0.47 132 06:34 30.10.2020
6164 Clouds -16 1029 91 6806 0.65 106 04:28 30.10.2020
6165 Clouds -16 1029 92 1126 0.66 121 02:24 30.10.2020
6166 Clouds -17 1029 92 842 0.63 130 00:39 30.10.2020
6167 Clouds -17 1029 92 592 0.51 123 23:48 29.10.2020
6168 Clouds -17 1029 92 592 0.51 123 23:30 29.10.2020
6169 Clouds -17 1029 92 553 0.34 132 22:50 29.10.2020
6170 Clouds -16 1029 92 490 0.23 122 22:29 29.10.2020
6171 Clouds -16 1029 92 490 0.23 122 21:56 29.10.2020
6172 Clouds -16 1029 92 490 0.23 122 21:36 29.10.2020
6173 Clouds -16 1028 92 363 0.12 150 21:18 29.10.2020
6174 Clouds -16 1028 92 363 0.12 150 21:18 29.10.2020
6175 Clouds -16 1028 92 363 0.12 150 20:40 29.10.2020
6176 Snow -16 1028 92 313 0.17 254 20:19 29.10.2020
6177 Snow -16 1028 92 313 0.17 254 19:42 29.10.2020
6178 Snow -16 1028 92 276 0.39 257 19:21 29.10.2020
6179 Snow -16 1029 92 292 0.39 253 18:48 29.10.2020
6180 Snow -16 1029 92 255 0.52 276 18:29 29.10.2020
6181 Snow -16 1029 92 255 0.52 276 17:56 29.10.2020
6182 Snow -16 1029 92 255 0.52 276 17:37 29.10.2020
6183 Snow -16 1029 92 230 0.56 274 17:18 29.10.2020
6184 Snow -16 1029 92 230 0.56 274 16:43 29.10.2020
6185 Snow -16 1028 92 241 0.53 270 16:19 29.10.2020
6186 Snow -16 1028 92 241 0.53 270 15:55 29.10.2020
6187 Snow -16 1028 92 241 0.53 270 15:37 29.10.2020
6188 Snow -16 1028 92 262 0.51 267 15:18 29.10.2020
6189 Snow -16 1028 92 262 0.51 267 14:41 29.10.2020
6190 Snow -16 1028 92 297 0.53 265 14:21 29.10.2020
6191 Snow -16 1028 92 297 0.53 265 13:45 29.10.2020
6192 Clouds -16 1029 92 329 0.61 263 13:27 29.10.2020
6193 Snow -15 1029 92 253 0.64 267 12:43 29.10.2020
6194 Snow -15 1029 92 268 0.67 266 12:20 29.10.2020
6195 Snow -15 1029 92 268 0.67 266 12:20 29.10.2020
6196 Snow -15 1029 92 268 0.67 266 11:51 29.10.2020
6197 Snow -15 1028 92 264 0.65 266 11:27 29.10.2020
6198 Snow -15 1028 92 264 0.65 266 10:59 29.10.2020
6199 Snow -15 1028 92 264 0.65 266 10:37 29.10.2020
6200 Snow -15 1028 92 280 0.77 267 10:18 29.10.2020
6201 Snow -15 1028 92 280 0.77 267 09:46 29.10.2020
6202 Snow -15 1028 92 319 0.82 257 09:24 29.10.2020
6203 Snow -15 1028 92 319 0.82 257 08:41 29.10.2020
6204 Snow -15 1028 93 308 0.84 255 08:23 29.10.2020
6205 Snow -15 1028 93 308 0.84 255 07:49 29.10.2020
6206 Clouds -15 1028 93 300 0.81 258 07:19 29.10.2020
6207 Clouds -15 1028 92 337 0.73 266 06:30 29.10.2020
6208 Clouds -15 1028 92 441 0.97 273 04:48 29.10.2020
6209 Clouds -16 1029 92 508 0.73 265 02:28 29.10.2020
6210 Clouds -16 1029 92 560 0.66 261 00:41 29.10.2020
6211 Clouds -17 1029 91 713 0.7 268 00:21 29.10.2020
6212 Clouds -17 1029 91 713 0.7 268 23:42 28.10.2020
6213 Clouds -17 1029 91 1227 0.77 271 23:20 28.10.2020
6214 Clouds -17 1029 91 1227 0.77 271 22:43 28.10.2020
6215 Clouds -17 1029 91 2576 0.79 270 22:25 28.10.2020
6216 Clouds -17 1029 91 2576 0.79 270 21:45 28.10.2020
6217 Clouds -17 1029 91 4656 0.83 263 21:26 28.10.2020
6218 Clouds -17 1029 91 4656 0.83 263 20:58 28.10.2020
6219 Clouds -17 1029 91 4656 0.83 263 20:40 28.10.2020
6220 Clouds -17 1030 91 8541 0.78 263 20:18 28.10.2020
6221 Clouds -17 1030 91 8541 0.78 263 19:42 28.10.2020
6222 Clouds -17 1030 91 10000 0.73 271 19:24 28.10.2020
6223 Clouds -17 1030 91 10000 0.72 274 18:43 28.10.2020
6224 Clouds -17 1030 91 8734 0.73 282 18:20 28.10.2020
6225 Clouds -17 1030 91 8734 0.73 282 17:43 28.10.2020
6226 Clouds -17 1030 91 8470 0.69 279 17:22 28.10.2020
6227 Clouds -17 1030 91 8470 0.69 279 16:47 28.10.2020
6228 Clouds -17 1030 91 8974 0.66 284 16:29 28.10.2020
6229 Clouds -17 1030 91 8974 0.66 284 15:45 28.10.2020
6230 Clouds -17 1030 91 9114 0.5 279 15:20 28.10.2020
6231 Clouds -17 1030 91 9114 0.5 279 14:57 28.10.2020
6232 Clouds -17 1030 91 9114 0.5 279 14:38 28.10.2020
6233 Clouds -18 1031 91 10000 0.45 295 14:18 28.10.2020
6234 Clouds -17 1031 91 10000 0.63 319 12:39 28.10.2020
6235 Clouds -16 1031 91 10000 0.66 318 12:20 28.10.2020
6236 Clouds -16 1031 91 10000 0.66 318 11:44 28.10.2020
6237 Clouds -17 1031 92 9286 0.66 317 11:23 28.10.2020
6238 Clouds -17 1031 92 9286 0.66 317 10:58 28.10.2020
6239 Clouds -17 1031 92 9286 0.66 317 10:58 28.10.2020
6240 Clouds -17 1031 92 9286 0.66 317 10:40 28.10.2020
6241 Clouds -16 1031 92 7488 0.7 312 10:22 28.10.2020
6242 Clouds -16 1031 92 7488 0.7 312 09:39 28.10.2020
6243 Clouds -16 1031 92 8282 0.23 289 09:21 28.10.2020
6244 Clouds -16 1031 92 8282 0.23 289 08:48 28.10.2020
6245 Clouds -17 1031 92 6261 0.09 306 08:27 28.10.2020
6246 Clouds -17 1031 92 6261 0.09 306 07:48 28.10.2020
6247 Clouds -17 1031 92 6261 0.09 306 07:30 28.10.2020
6248 Clouds -16 1031 92 6590 0.4 13 06:41 28.10.2020
6249 Clouds -15 1031 92 5648 0.41 337 05:51 28.10.2020
6250 Clouds -14 1031 93 2724 0.37 244 05:20 28.10.2020
6251 Clouds -15 1031 92 2477 0.64 221 04:25 28.10.2020
6252 Clouds -15 1030 92 2817 0.89 225 02:26 28.10.2020
6253 Clouds -15 1030 92 2817 0.89 225 01:50 28.10.2020
6254 Clouds -15 1030 92 1688 1.28 218 00:21 28.10.2020
6255 Clouds -15 1030 92 1688 1.28 218 23:43 27.10.2020
6256 Clouds -15 1030 93 1621 1.52 215 23:20 27.10.2020
6257 Clouds -15 1030 93 1621 1.52 215 22:42 27.10.2020
6258 Clouds -15 1029 93 1339 1.64 212 22:19 27.10.2020
6259 Clouds -15 1029 93 1339 1.64 212 22:19 27.10.2020
6260 Clouds -15 1029 93 1339 1.64 212 21:56 27.10.2020
6261 Clouds -15 1029 93 1339 1.64 212 21:37 27.10.2020
6262 Clouds -15 1029 93 1339 1.64 212 21:37 27.10.2020
6263 Clouds -15 1029 93 1339 1.64 212 21:37 27.10.2020
6264 Clouds -15 1029 93 1339 1.64 212 21:37 27.10.2020
6265 Clouds -15 1028 93 2086 1.63 210 21:19 27.10.2020
6266 Clouds -15 1028 93 2086 1.63 210 20:44 27.10.2020
6267 Clouds -14 1028 93 2646 1.57 213 20:22 27.10.2020
6268 Clouds -14 1028 93 2646 1.57 213 19:40 27.10.2020
6269 Clouds -14 1027 93 1587 1.66 215 19:21 27.10.2020
6270 Clouds -14 1027 93 1076 1.59 215 18:59 27.10.2020
6271 Clouds -14 1027 93 1076 1.59 215 18:40 27.10.2020
6272 Clouds -14 1027 93 613 1.6 214 18:21 27.10.2020
6273 Clouds -14 1027 93 613 1.6 214 17:44 27.10.2020
6274 Clouds -14 1026 93 701 1.59 211 17:22 27.10.2020
6275 Clouds -14 1026 93 701 1.59 211 16:57 27.10.2020
6276 Clouds -14 1026 93 701 1.59 211 16:39 27.10.2020
6277 Clouds -14 1026 93 522 1.55 216 16:21 27.10.2020
6278 Clouds -14 1026 93 522 1.55 216 15:41 27.10.2020
6279 Clouds -14 1025 93 465 1.41 220 15:23 27.10.2020
6280 Clouds -14 1025 93 465 1.41 220 14:48 27.10.2020
6281 Clouds -13 1024 93 595 1.34 228 14:29 27.10.2020
6282 Clouds -13 1024 93 595 1.34 228 13:58 27.10.2020
6283 Clouds -13 1024 94 559 1.14 228 13:28 27.10.2020
6284 Clouds -13 1024 94 559 1.14 228 12:44 27.10.2020
6285 Snow -12 1024 94 270 0.87 244 12:25 27.10.2020
6286 Snow -12 1024 94 270 0.87 244 11:59 27.10.2020
6287 Snow -12 1024 94 270 0.87 244 11:41 27.10.2020
6288 Snow -12 1024 94 248 0.6 256 11:20 27.10.2020
6289 Snow -12 1024 94 248 0.6 256 10:43 27.10.2020
6290 Snow -12 1023 94 224 0.57 274 10:20 27.10.2020
6291 Snow -12 1022 94 204 0.5 295 09:28 27.10.2020
6292 Snow -12 1022 94 204 0.5 295 08:59 27.10.2020
6293 Snow -12 1022 94 204 0.5 295 08:33 27.10.2020
6294 Snow -12 1022 94 166 0.32 316 07:54 27.10.2020
6295 Snow -12 1022 94 166 0.32 316 07:36 27.10.2020
6296 Snow -11 1022 94 143 0.22 339 06:55 27.10.2020
6297 Snow -12 1023 94 161 0.48 2 06:20 27.10.2020
6298 Snow -12 1023 94 161 0.48 2 05:46 27.10.2020
6299 Snow -12 1023 93 329 0.78 354 05:24 27.10.2020
6300 Clouds -12 1023 88 10000 0.58 19 03:20 27.10.2020
6301 Clouds -13 1024 89 10000 1 21 01:20 27.10.2020
6302 Clouds -13 1023 89 10000 0.92 7 00:41 27.10.2020
6303 Clouds -14 1024 90 10000 0.8 21 23:38 26.10.2020
6304 Clouds -14 1024 90 10000 0.86 52 22:59 26.10.2020
6305 Clouds -14 1024 90 10000 0.86 52 22:39 26.10.2020
6306 Clouds -14 1024 89 10000 1.15 52 22:18 26.10.2020
6307 Clouds -14 1024 89 10000 1.15 52 21:40 26.10.2020
6308 Clouds -14 1024 89 10000 1.36 47 21:19 26.10.2020
6309 Clouds -14 1024 89 10000 1.36 47 20:49 26.10.2020
6310 Clouds -15 1024 89 10000 1.24 46 20:27 26.10.2020
6311 Clouds -15 1024 89 10000 1.24 46 19:56 26.10.2020
6312 Clouds -15 1024 89 10000 1.24 46 19:38 26.10.2020
6313 Clouds -15 1024 88 10000 1.11 54 19:19 26.10.2020
6314 Clouds -15 1024 88 10000 1.11 54 18:42 26.10.2020
6315 Clouds -15 1024 88 10000 1.11 58 18:22 26.10.2020
6316 Clouds -15 1024 88 10000 1.11 58 17:44 26.10.2020
6317 Clouds -15 1025 88 10000 1.2 55 17:24 26.10.2020
6318 Clouds -15 1025 88 10000 1.2 55 16:56 26.10.2020
6319 Clouds -15 1025 88 10000 1.2 55 16:37 26.10.2020
6320 Clouds -15 1025 88 10000 1.15 55 16:18 26.10.2020
6321 Clouds -15 1025 88 10000 1.15 55 15:39 26.10.2020
6322 Clouds -15 1025 88 10000 1.17 61 15:19 26.10.2020
6323 Clouds -15 1025 88 10000 1.17 61 14:45 26.10.2020
6324 Clouds -15 1025 87 10000 1.12 65 14:19 26.10.2020
6325 Clouds -15 1025 87 10000 1.12 65 13:42 26.10.2020
6326 Clouds -15 1025 87 10000 1.06 65 13:22 26.10.2020
6327 Clouds -15 1025 87 10000 1.06 65 12:47 26.10.2020
6328 Clouds -16 1026 87 10000 0.97 55 12:27 26.10.2020
6329 Clouds -16 1026 87 10000 0.97 55 11:55 26.10.2020
6330 Clouds -16 1026 87 10000 0.97 55 11:37 26.10.2020
6331 Clouds -16 1026 87 10000 0.83 67 11:18 26.10.2020
6332 Clouds -16 1026 87 10000 0.83 67 10:42 26.10.2020
6333 Clouds -16 1026 87 10000 0.76 81 10:24 26.10.2020
6334 Clouds -16 1026 87 10000 0.76 81 09:44 26.10.2020
6335 Clouds -15 1026 87 10000 0.85 86 09:23 26.10.2020
6336 Clouds -15 1026 87 10000 0.85 86 08:31 26.10.2020
6337 Clear -15 1025 87 10000 0.82 85 07:56 26.10.2020
6338 Clear -15 1025 87 10000 0.82 85 07:38 26.10.2020
6339 Clear -14 1025 87 10000 0.71 146 06:49 26.10.2020
6340 Clear -12 1024 89 10000 0.95 211 04:47 26.10.2020
6341 Clear -11 1024 89 10000 1.45 215 04:18 26.10.2020
6342 Clear -13 1024 87 10000 2.3 198 02:27 26.10.2020
6343 Clear -14 1023 85 10000 1.99 195 01:29 26.10.2020
6344 Clear -15 1024 85 10000 1.92 196 00:33 26.10.2020
6345 Clear -15 1023 85 10000 1.96 198 23:42 25.10.2020
6346 Clear -15 1023 85 10000 1.93 202 23:22 25.10.2020
6347 Clear -15 1023 85 10000 1.93 202 22:41 25.10.2020
6348 Clear -15 1023 85 10000 2.02 209 22:23 25.10.2020
6349 Clear -15 1023 85 10000 2.02 209 21:48 25.10.2020
6350 Clear -14 1022 85 10000 1.97 211 21:29 25.10.2020
6351 Clear -14 1022 85 10000 1.97 211 20:57 25.10.2020
6352 Clear -14 1022 85 10000 1.97 211 20:38 25.10.2020
6353 Clear -14 1022 86 10000 1.89 221 20:19 25.10.2020
6354 Clear -14 1022 86 10000 1.89 221 19:49 25.10.2020
6355 Clouds -13 1021 86 10000 2.47 218 19:24 25.10.2020
6356 Clouds -13 1021 86 10000 2.47 218 18:57 25.10.2020
6357 Clouds -14 1022 86 10000 2.16 217 18:38 25.10.2020
6358 Clouds -14 1022 86 10000 2.16 217 18:38 25.10.2020
6359 Clouds -13 1021 86 10000 2.55 218 18:20 25.10.2020
6360 Clouds -13 1021 86 10000 2.55 218 17:39 25.10.2020
6361 Clouds -13 1021 87 10000 2.8 217 17:21 25.10.2020
6362 Clouds -13 1021 87 10000 2.8 217 16:58 25.10.2020
6363 Clouds -13 1021 87 10000 2.8 217 16:39 25.10.2020
6364 Clouds -12 1021 87 10000 3.19 214 16:20 25.10.2020
6365 Clouds -12 1021 87 10000 3.19 214 15:47 25.10.2020
6366 Clouds -11 1021 87 10000 3.57 208 15:25 25.10.2020
6367 Clouds -11 1021 87 10000 3.57 208 14:47 25.10.2020
6368 Clouds -11 1021 88 10000 3.98 206 14:28 25.10.2020
6369 Clouds -11 1021 88 10000 3.98 206 13:44 25.10.2020
6370 Clouds -9 1020 88 10000 4.22 204 13:21 25.10.2020
6371 Clouds -9 1020 88 10000 4.22 204 13:21 25.10.2020
6372 Clouds -9 1020 89 10000 3.87 197 12:49 25.10.2020
6373 Clouds -8 1020 89 10000 3.88 194 12:27 25.10.2020
6374 Clouds -8 1020 89 10000 3.88 194 11:57 25.10.2020
6375 Clouds -8 1020 89 10000 3.88 194 11:39 25.10.2020
6376 Clouds -8 1020 89 10000 3.88 194 11:39 25.10.2020
6377 Clouds -8 1020 89 10000 3.91 189 11:19 25.10.2020
6378 Clouds -8 1020 89 10000 3.91 189 10:44 25.10.2020
6379 Clouds -7 1021 90 10000 4.04 185 10:25 25.10.2020
6380 Clouds -7 1021 90 10000 4.04 185 09:48 25.10.2020
6381 Clouds -7 1021 90 10000 3.95 186 09:20 25.10.2020
6382 Clouds -7 1021 90 10000 3.95 186 08:55 25.10.2020
6383 Clouds -7 1021 90 10000 3.95 186 08:36 25.10.2020
6384 Clouds -8 1021 90 10000 3.71 188 08:18 25.10.2020
6385 Clouds -8 1021 90 10000 3.71 188 07:41 25.10.2020
6386 Clouds -8 1021 90 10000 3.49 187 06:52 25.10.2020
6387 Clouds -8 1021 90 10000 3.58 187 06:19 25.10.2020
6388 Clouds -8 1021 90 10000 3.67 187 05:18 25.10.2020
6389 Clouds -9 1022 89 10000 3.86 189 04:20 25.10.2020
6390 Clear -12 1023 88 10000 4.28 193 02:21 25.10.2020
6391 Clear -13 1023 87 10000 4.04 191 00:52 25.10.2020
6392 Clear -13 1023 87 10000 4.17 194 00:28 25.10.2020
6393 Clear -13 1023 87 10000 4.17 194 23:54 24.10.2020
6394 Clear -13 1023 87 10000 4.17 194 23:31 24.10.2020
6395 Clear -13 1023 88 10000 4.18 200 22:58 24.10.2020
6396 Clear -13 1023 88 10000 4.18 200 22:40 24.10.2020
6397 Clear -12 1023 88 10000 4.03 209 22:21 24.10.2020
6398 Clear -12 1023 88 10000 4.03 209 21:44 24.10.2020
6399 Clear -12 1023 88 10000 4.53 212 21:22 24.10.2020
6400 Clear -12 1023 88 10000 4.53 212 20:58 24.10.2020
6401 Clear -12 1023 88 10000 4.53 212 20:39 24.10.2020
6402 Clear -11 1022 88 10000 4.68 216 20:20 24.10.2020
6403 Clear -11 1023 87 10000 5.07 219 19:40 24.10.2020
6404 Clear -11 1022 88 10000 5.11 219 19:22 24.10.2020
6405 Clear -11 1022 88 10000 5.11 219 18:49 24.10.2020
6406 Clear -10 1021 88 10000 5.07 219 18:28 24.10.2020
6407 Clear -10 1021 88 10000 5.07 219 17:43 24.10.2020
6408 Clear -10 1021 88 10000 4.94 217 17:25 24.10.2020
6409 Clear -10 1021 88 10000 4.94 217 16:53 24.10.2020
6410 Clear -10 1021 88 10000 4.94 217 16:34 24.10.2020
6411 Clear -10 1020 88 10000 4.76 215 15:57 24.10.2020
6412 Clear -10 1020 88 10000 4.76 215 15:37 24.10.2020
6413 Clear -10 1019 89 10000 4.5 215 15:18 24.10.2020
6414 Clear -10 1020 88 10000 4.85 216 14:38 24.10.2020
6415 Clouds -10 1018 90 10000 4.44 212 14:19 24.10.2020
6416 Clouds -10 1018 90 10000 4.44 212 13:44 24.10.2020
6417 Clouds -9 1018 89 10000 4.94 215 13:19 24.10.2020
6418 Clouds -9 1018 89 10000 4.94 215 12:37 24.10.2020
6419 Clouds -9 1017 90 10000 5.08 212 12:19 24.10.2020
6420 Clouds -9 1017 91 10000 4.55 208 11:50 24.10.2020
6421 Clouds -8 1017 90 10000 5.35 206 11:23 24.10.2020
6422 Clouds -8 1017 90 10000 5.35 206 10:47 24.10.2020
6423 Clouds -7 1016 91 10000 5.1 199 10:27 24.10.2020
6424 Clouds -7 1016 91 10000 5.1 199 09:46 24.10.2020
6425 Clouds -7 1015 91 10000 5.05 194 09:26 24.10.2020
6426 Clouds -7 1015 91 10000 5.05 194 08:58 24.10.2020
6427 Clouds -6 1014 91 10000 4.76 193 08:19 24.10.2020
6428 Clouds -6 1014 91 10000 4.76 193 07:51 24.10.2020
6429 Clouds -5 1013 91 10000 4.73 194 07:21 24.10.2020
6430 Clouds -5 1013 91 10000 4.73 194 06:51 24.10.2020
6431 Clouds -5 1013 91 10000 4.75 197 05:47 24.10.2020
6432 Clouds -7 1012 87 10000 4.06 174 02:28 24.10.2020
6433 Clouds -8 1011 87 10000 3.68 167 00:59 24.10.2020
6434 Clouds -8 1011 87 10000 3.68 167 00:39 24.10.2020
6435 Clouds -9 1011 87 10000 3.42 163 00:21 24.10.2020
6436 Clouds -9 1011 87 10000 3.42 163 23:43 23.10.2020
6437 Clouds -8 1012 89 10000 3.22 154 23:23 23.10.2020
6438 Clouds -8 1012 89 10000 3.22 154 23:23 23.10.2020
6439 Clouds -8 1012 89 10000 3.22 154 22:56 23.10.2020
6440 Clouds -8 1012 89 10000 3.22 154 22:36 23.10.2020
6441 Clouds -9 1012 89 10000 3.26 149 22:18 23.10.2020
6442 Clouds -9 1012 89 10000 3.26 149 21:39 23.10.2020
6443 Clouds -10 1013 90 10000 3.08 143 21:21 23.10.2020
6444 Clouds -10 1013 90 10000 3.08 143 20:39 23.10.2020
6445 Snow -11 1012 90 4973 2.65 138 20:20 23.10.2020
6446 Clouds -11 1013 89 10000 2.46 144 19:48 23.10.2020
6447 Clouds -11 1013 89 10000 2.46 144 19:30 23.10.2020
6448 Clouds -12 1013 88 10000 2.39 141 18:52 23.10.2020
6449 Clouds -12 1013 88 10000 2.39 141 18:30 23.10.2020
6450 Clouds -13 1013 87 10000 2.21 136 17:48 23.10.2020
6451 Clouds -14 1014 87 10000 1.99 135 17:24 23.10.2020
6452 Clouds -14 1014 87 10000 1.99 135 16:56 23.10.2020
6453 Clouds -14 1014 87 10000 1.99 135 16:56 23.10.2020
6454 Clouds -14 1014 87 10000 1.99 135 16:56 23.10.2020
6455 Clouds -14 1014 87 10000 1.99 135 16:56 23.10.2020
6456 Clouds -14 1014 87 10000 1.99 135 16:36 23.10.2020
6457 Clouds -14 1015 87 10000 1.7 130 16:18 23.10.2020
6458 Clouds -14 1015 87 10000 1.7 130 15:42 23.10.2020
6459 Clouds -14 1016 88 10000 1.65 121 15:23 23.10.2020
6460 Clouds -14 1016 88 10000 1.65 121 14:51 23.10.2020
6461 Clouds -14 1016 88 10000 1.65 121 14:33 23.10.2020
6462 Clouds -15 1017 88 10000 1.5 118 13:55 23.10.2020
6463 Clouds -15 1017 88 10000 1.52 119 13:37 23.10.2020
6464 Clouds -15 1018 88 10000 1.57 117 13:18 23.10.2020
6465 Clouds -15 1018 88 10000 1.57 117 12:42 23.10.2020
6466 Clouds -15 1019 87 10000 1.32 118 12:23 23.10.2020
6467 Clouds -15 1019 87 10000 1.32 118 11:46 23.10.2020
6468 Clouds -15 1019 88 10000 1.4 117 11:21 23.10.2020
6469 Clouds -15 1019 88 10000 1.4 117 10:43 23.10.2020
6470 Clouds -16 1020 87 10000 1.33 118 10:25 23.10.2020
6471 Clouds -16 1020 87 10000 1.33 118 09:44 23.10.2020
6472 Clouds -16 1020 87 10000 1.35 121 09:26 23.10.2020
6473 Clouds -16 1020 87 10000 1.35 121 08:52 23.10.2020
6474 Clouds -16 1020 87 10000 1.35 121 08:30 23.10.2020
6475 Clear -15 1020 87 10000 1.04 130 07:33 23.10.2020
6476 Clear -14 1020 88 10000 1.01 124 06:57 23.10.2020
6477 Clear -13 1021 89 10000 1.17 125 06:20 23.10.2020
6478 Clear -13 1021 89 10000 1.3 134 04:56 23.10.2020
6479 Clear -15 1022 87 10000 1.26 153 02:32 23.10.2020
6480 Clear -18 1023 86 10000 1.3 163 01:23 23.10.2020
6481 Clear -18 1023 86 10000 1.3 163 00:36 23.10.2020
6482 Clear -18 1023 86 10000 1.31 156 23:45 22.10.2020
6483 Clear -18 1023 87 10000 1.37 158 23:24 22.10.2020
6484 Clear -18 1023 87 10000 1.37 158 22:48 22.10.2020
6485 Clear -18 1023 87 10000 1.31 164 22:27 22.10.2020
6486 Clear -18 1023 87 10000 1.31 164 21:58 22.10.2020
6487 Clear -18 1023 87 10000 1.31 164 21:40 22.10.2020
6488 Clear -17 1022 87 10000 1.26 166 21:20 22.10.2020
6489 Clear -17 1022 87 10000 1.26 166 20:45 22.10.2020
6490 Clear -17 1022 88 10000 1.35 160 20:25 22.10.2020
6491 Clear -17 1022 88 10000 1.35 160 19:58 22.10.2020
6492 Clear -17 1022 88 10000 1.35 160 19:39 22.10.2020
6493 Clear -17 1021 88 10000 1.35 163 19:18 22.10.2020
6494 Clear -17 1021 88 10000 1.35 163 18:41 22.10.2020
6495 Clear -17 1021 89 10000 1.28 159 18:19 22.10.2020
6496 Clear -17 1021 89 10000 1.28 159 17:45 22.10.2020
6497 Clear -16 1021 89 10000 1.39 159 17:22 22.10.2020
6498 Clear -16 1021 89 10000 1.39 159 16:45 22.10.2020
6499 Clear -16 1021 90 10000 1.4 162 16:25 22.10.2020
6500 Clear -16 1021 90 10000 1.4 162 16:25 22.10.2020
6501 Clear -16 1021 90 10000 1.4 162 15:50 22.10.2020
6502 Clear -15 1021 90 10000 1.4 162 15:27 22.10.2020
6503 Clear -15 1021 90 10000 1.4 162 14:58 22.10.2020
6504 Clear -15 1021 90 10000 1.4 162 14:38 22.10.2020
6505 Clouds -15 1020 91 10000 1.41 164 14:20 22.10.2020
6506 Clouds -15 1020 91 10000 1.41 164 13:43 22.10.2020
6507 Clouds -15 1020 91 10000 1.38 162 13:22 22.10.2020
6508 Clouds -15 1020 91 10000 1.38 162 12:44 22.10.2020
6509 Clouds -14 1019 92 10000 1.46 159 12:22 22.10.2020
6510 Clouds -14 1019 92 10000 1.46 159 11:47 22.10.2020
6511 Clouds -14 1019 92 10000 1.55 155 11:19 22.10.2020
6512 Clouds -14 1019 92 10000 1.55 155 10:49 22.10.2020
6513 Clouds -14 1018 92 10000 1.59 161 10:26 22.10.2020
6514 Clouds -14 1018 92 10000 1.59 161 09:46 22.10.2020
6515 Clouds -13 1018 93 10000 1.7 176 09:25 22.10.2020
6516 Clouds -13 1018 93 10000 1.7 176 08:47 22.10.2020
6517 Clouds -12 1016 93 10000 1.83 184 08:27 22.10.2020
6518 Clouds -12 1016 93 10000 1.83 184 07:51 22.10.2020
6519 Clouds -12 1017 93 10000 1.64 182 07:32 22.10.2020
6520 Clouds -10 1016 94 10000 1.76 187 06:46 22.10.2020
6521 Clouds -10 1015 94 4699 2.31 189 06:25 22.10.2020
6522 Clouds -10 1015 94 4699 2.31 189 05:40 22.10.2020
6523 Clouds -11 1015 94 1104 1.63 199 03:46 22.10.2020
6524 Clouds -12 1014 94 445 1.45 200 01:43 22.10.2020
6525 Clouds -13 1013 94 420 0.93 181 00:25 22.10.2020
6526 Clouds -13 1013 94 420 0.93 181 23:50 21.10.2020
6527 Clouds -13 1013 94 420 0.93 181 23:31 21.10.2020
6528 Clouds -13 1013 94 527 0.75 163 22:41 21.10.2020
6529 Clouds -13 1013 94 490 0.58 169 22:19 21.10.2020
6530 Clouds -13 1013 94 490 0.58 169 22:19 21.10.2020
6531 Clouds -13 1013 94 490 0.58 169 21:56 21.10.2020
6532 Clouds -13 1013 94 490 0.58 169 21:37 21.10.2020
6533 Snow -12 1012 94 445 0.51 179 21:18 21.10.2020
6534 Snow -12 1012 94 445 0.51 179 20:47 21.10.2020
6535 Snow -13 1012 94 283 0.55 188 20:19 21.10.2020
6536 Snow -13 1012 94 283 0.55 188 19:45 21.10.2020
6537 Clouds -14 1013 93 935 0.35 148 19:26 21.10.2020
6538 Clouds -14 1013 93 935 0.35 148 19:26 21.10.2020
6539 Clouds -14 1013 93 935 0.35 148 18:54 21.10.2020
6540 Clouds -14 1013 93 935 0.35 148 18:36 21.10.2020
6541 Clouds -14 1013 92 1256 0.41 123 18:18 21.10.2020
6542 Clouds -14 1013 92 1256 0.41 123 17:41 21.10.2020
6543 Clouds -14 1013 91 2596 0.34 123 17:19 21.10.2020
6544 Clouds -14 1013 91 2596 0.34 123 16:41 21.10.2020
6545 Clouds -14 1013 90 8670 0.28 124 16:21 21.10.2020
6546 Clouds -14 1013 90 8670 0.28 124 15:55 21.10.2020
6547 Clouds -14 1013 90 8670 0.28 124 15:37 21.10.2020
6548 Clouds -14 1013 89 10000 0.25 123 15:18 21.10.2020
6549 Clouds -14 1013 89 10000 0.25 123 14:43 21.10.2020
6550 Clouds -14 1013 88 10000 0.34 138 14:25 21.10.2020
6551 Clouds -14 1013 88 10000 0.33 115 13:42 21.10.2020
6552 Clouds -14 1013 88 10000 0.27 125 13:24 21.10.2020
6553 Clouds -14 1013 88 10000 0.27 125 12:47 21.10.2020
6554 Clouds -15 1013 88 10000 0.46 137 12:24 21.10.2020
6555 Clouds -15 1013 88 10000 0.46 137 11:59 21.10.2020
6556 Clouds -15 1013 88 10000 0.46 137 11:40 21.10.2020
6557 Clouds -15 1013 88 10000 0.54 154 11:19 21.10.2020
6558 Clouds -15 1013 88 10000 0.54 154 10:43 21.10.2020
6559 Clouds -14 1013 88 10000 0.79 150 10:23 21.10.2020
6560 Clouds -14 1013 88 10000 0.79 150 09:52 21.10.2020
6561 Clouds -14 1013 88 10000 0.79 150 09:33 21.10.2020
6562 Clouds -13 1013 89 10000 0.91 156 08:43 21.10.2020
6563 Clouds -12 1012 90 10000 0.95 155 08:25 21.10.2020
6564 Clouds -13 1013 89 10000 0.76 154 07:58 21.10.2020
6565 Clouds -13 1013 89 10000 0.76 154 07:31 21.10.2020
6566 Clouds -12 1013 89 10000 0.87 152 06:50 21.10.2020
6567 Clouds -12 1013 87 10000 1.32 161 06:26 21.10.2020
6568 Clouds -12 1014 87 10000 1.4 163 04:47 21.10.2020
6569 Clouds -13 1013 89 10000 1.58 161 00:51 21.10.2020
6570 Clouds -13 1013 89 10000 1.61 159 23:49 20.10.2020
6571 Clouds -13 1013 90 10000 1.57 152 22:53 20.10.2020
6572 Clouds -13 1012 91 10000 1.72 150 22:28 20.10.2020
6573 Clouds -13 1012 91 10000 1.72 150 21:50 20.10.2020
6574 Clouds -13 1012 91 10000 1.69 151 21:21 20.10.2020
6575 Clouds -13 1012 91 10000 1.69 151 20:56 20.10.2020
6576 Clouds -13 1012 91 10000 1.69 151 20:36 20.10.2020
6577 Clouds -12 1011 92 8065 1.61 153 20:18 20.10.2020
6578 Clouds -13 1012 92 7183 1.6 156 19:42 20.10.2020
6579 Clouds -12 1012 93 2211 1.62 150 19:22 20.10.2020
6580 Clouds -12 1012 93 2211 1.62 150 18:52 20.10.2020
6581 Clouds -12 1012 93 2211 1.62 150 18:34 20.10.2020
6582 Clouds -12 1011 94 841 1.58 145 17:48 20.10.2020
6583 Clouds -12 1011 94 689 1.58 140 17:29 20.10.2020
6584 Clouds -12 1011 94 689 1.58 140 16:48 20.10.2020
6585 Clouds -12 1011 94 562 1.63 137 16:28 20.10.2020
6586 Clouds -12 1011 94 562 1.63 137 15:57 20.10.2020
6587 Clouds -12 1011 94 562 1.63 137 15:38 20.10.2020
6588 Clouds -12 1010 94 599 1.53 133 15:19 20.10.2020
6589 Clouds -12 1010 94 599 1.53 133 14:41 20.10.2020
6590 Clouds -11 1010 94 376 1.56 136 14:22 20.10.2020
6591 Clouds -11 1010 94 459 1.57 136 13:44 20.10.2020
6592 Snow -11 1010 94 427 1.58 142 13:24 20.10.2020
6593 Snow -11 1010 94 427 1.58 142 12:58 20.10.2020
6594 Snow -11 1010 94 427 1.58 142